<?xml version="1.0" encoding="UTF-8" standalone="no" ?>
<gpx xmlns="http://www.topografix.com/GPX/1/1" xmlns:xsi="http://www.w3.org/2001/XMLSchema-instance" xsi:schemaLocation="http://www.topografix.com/GPX/1/1 http://www.topografix.com/GPX/1/1/gpx.xsd" version="1.1" creator="VisuGPX - https://www.visugpx.com">
  <metadata>
    <name>Baud / Arbois</name>
    <desc><![CDATA[échappée Jurassienne étape 4 La descente du gîte (Lou Be Co les amis de la nature) sans problême après une nuit tranquille, je rejoins le GR, et monte au Fort St André puis Pretin. Puis une sucessions de montée et descente plus ou moins praticable après plusieurs jours de pluie conduit à Arbois ou j'ai décidé de passer une journée entière, une belle rando tente pour demain. L'hébergement ou je me suis arrêté n'existe plus.  ]]></desc>
  </metadata>
  <trk>
    <name><![CDATA[Jura D Baud Arbois 4-juin]]></name>
    <trkseg>
      <trkpt lat="46.93426" lon="5.89465">
        <ele>502.91</ele>
        <time>2016-06-04T06:55:09Z</time>
      </trkpt>
      <trkpt lat="46.93425" lon="5.89464">
        <ele>503.87</ele>
        <time>2016-06-04T06:55:22Z</time>
      </trkpt>
      <trkpt lat="46.93427" lon="5.89459">
        <ele>504.35</ele>
        <time>2016-06-04T06:55:35Z</time>
      </trkpt>
      <trkpt lat="46.93425" lon="5.89461">
        <ele>504.83</ele>
        <time>2016-06-04T06:55:45Z</time>
      </trkpt>
      <trkpt lat="46.93426" lon="5.89464">
        <ele>503.87</ele>
        <time>2016-06-04T06:55:49Z</time>
      </trkpt>
      <trkpt lat="46.9343" lon="5.89473">
        <ele>501.95</ele>
        <time>2016-06-04T06:55:57Z</time>
      </trkpt>
      <trkpt lat="46.93435" lon="5.89476">
        <ele>500.02</ele>
        <time>2016-06-04T06:56:04Z</time>
      </trkpt>
      <trkpt lat="46.93444" lon="5.89478">
        <ele>497.62</ele>
        <time>2016-06-04T06:56:11Z</time>
      </trkpt>
      <trkpt lat="46.9345" lon="5.89478">
        <ele>496.18</ele>
        <time>2016-06-04T06:56:18Z</time>
      </trkpt>
      <trkpt lat="46.93457" lon="5.89485">
        <ele>493.77</ele>
        <time>2016-06-04T06:56:26Z</time>
      </trkpt>
      <trkpt lat="46.93452" lon="5.89495">
        <ele>491.37</ele>
        <time>2016-06-04T06:56:38Z</time>
      </trkpt>
      <trkpt lat="46.93446" lon="5.89497">
        <ele>488.97</ele>
        <time>2016-06-04T06:56:44Z</time>
      </trkpt>
      <trkpt lat="46.93431" lon="5.89503">
        <ele>485.12</ele>
        <time>2016-06-04T06:57:00Z</time>
      </trkpt>
      <trkpt lat="46.93422" lon="5.89515">
        <ele>483.2</ele>
        <time>2016-06-04T06:57:12Z</time>
      </trkpt>
      <trkpt lat="46.93416" lon="5.89524">
        <ele>480.8</ele>
        <time>2016-06-04T06:57:25Z</time>
      </trkpt>
      <trkpt lat="46.93403" lon="5.89542">
        <ele>473.59</ele>
        <time>2016-06-04T06:57:38Z</time>
      </trkpt>
      <trkpt lat="46.93402" lon="5.89542">
        <ele>473.11</ele>
        <time>2016-06-04T06:57:39Z</time>
      </trkpt>
      <trkpt lat="46.93391" lon="5.89552">
        <ele>470.7</ele>
        <time>2016-06-04T06:57:49Z</time>
      </trkpt>
      <trkpt lat="46.93383" lon="5.89556">
        <ele>470.7</ele>
        <time>2016-06-04T06:57:56Z</time>
      </trkpt>
      <trkpt lat="46.93368" lon="5.89553">
        <ele>470.22</ele>
        <time>2016-06-04T06:58:10Z</time>
      </trkpt>
      <trkpt lat="46.93363" lon="5.8955">
        <ele>470.7</ele>
        <time>2016-06-04T06:58:15Z</time>
      </trkpt>
      <trkpt lat="46.93354" lon="5.89539">
        <ele>472.14</ele>
        <time>2016-06-04T06:58:26Z</time>
      </trkpt>
      <trkpt lat="46.93352" lon="5.89536">
        <ele>471.66</ele>
        <time>2016-06-04T06:58:28Z</time>
      </trkpt>
      <trkpt lat="46.93341" lon="5.89512">
        <ele>469.26</ele>
        <time>2016-06-04T06:58:44Z</time>
      </trkpt>
      <trkpt lat="46.93332" lon="5.89495">
        <ele>473.11</ele>
        <time>2016-06-04T06:58:56Z</time>
      </trkpt>
      <trkpt lat="46.93331" lon="5.89494">
        <ele>473.59</ele>
        <time>2016-06-04T06:58:57Z</time>
      </trkpt>
      <trkpt lat="46.9332" lon="5.89468">
        <ele>474.55</ele>
        <time>2016-06-04T06:59:14Z</time>
      </trkpt>
      <trkpt lat="46.93307" lon="5.89448">
        <ele>473.11</ele>
        <time>2016-06-04T06:59:29Z</time>
      </trkpt>
      <trkpt lat="46.93297" lon="5.89433">
        <ele>472.14</ele>
        <time>2016-06-04T06:59:43Z</time>
      </trkpt>
      <trkpt lat="46.93287" lon="5.89421">
        <ele>472.14</ele>
        <time>2016-06-04T06:59:56Z</time>
      </trkpt>
      <trkpt lat="46.93275" lon="5.89398">
        <ele>472.14</ele>
        <time>2016-06-04T07:00:08Z</time>
      </trkpt>
      <trkpt lat="46.93263" lon="5.8938">
        <ele>471.66</ele>
        <time>2016-06-04T07:00:22Z</time>
      </trkpt>
      <trkpt lat="46.93255" lon="5.89365">
        <ele>470.7</ele>
        <time>2016-06-04T07:00:33Z</time>
      </trkpt>
      <trkpt lat="46.9325" lon="5.89354">
        <ele>470.22</ele>
        <time>2016-06-04T07:00:40Z</time>
      </trkpt>
      <trkpt lat="46.93248" lon="5.89352">
        <ele>470.22</ele>
        <time>2016-06-04T07:00:42Z</time>
      </trkpt>
      <trkpt lat="46.93243" lon="5.89345">
        <ele>469.26</ele>
        <time>2016-06-04T07:00:47Z</time>
      </trkpt>
      <trkpt lat="46.9324" lon="5.89341">
        <ele>468.78</ele>
        <time>2016-06-04T07:00:50Z</time>
      </trkpt>
      <trkpt lat="46.93236" lon="5.89337">
        <ele>467.82</ele>
        <time>2016-06-04T07:00:53Z</time>
      </trkpt>
      <trkpt lat="46.93218" lon="5.89327">
        <ele>467.82</ele>
        <time>2016-06-04T07:01:09Z</time>
      </trkpt>
      <trkpt lat="46.93203" lon="5.89317">
        <ele>467.82</ele>
        <time>2016-06-04T07:01:23Z</time>
      </trkpt>
      <trkpt lat="46.93198" lon="5.89312">
        <ele>467.82</ele>
        <time>2016-06-04T07:01:27Z</time>
      </trkpt>
      <trkpt lat="46.9318" lon="5.89297">
        <ele>467.82</ele>
        <time>2016-06-04T07:01:43Z</time>
      </trkpt>
      <trkpt lat="46.93165" lon="5.89283">
        <ele>464.45</ele>
        <time>2016-06-04T07:01:58Z</time>
      </trkpt>
      <trkpt lat="46.93154" lon="5.89266">
        <ele>462.05</ele>
        <time>2016-06-04T07:02:13Z</time>
      </trkpt>
      <trkpt lat="46.93149" lon="5.89255">
        <ele>461.09</ele>
        <time>2016-06-04T07:02:23Z</time>
      </trkpt>
      <trkpt lat="46.93149" lon="5.8923">
        <ele>456.76</ele>
        <time>2016-06-04T07:02:35Z</time>
      </trkpt>
      <trkpt lat="46.93149" lon="5.89221">
        <ele>454.84</ele>
        <time>2016-06-04T07:02:39Z</time>
      </trkpt>
      <trkpt lat="46.9315" lon="5.89211">
        <ele>452.44</ele>
        <time>2016-06-04T07:02:44Z</time>
      </trkpt>
      <trkpt lat="46.93147" lon="5.89196">
        <ele>452.44</ele>
        <time>2016-06-04T07:02:52Z</time>
      </trkpt>
      <trkpt lat="46.93147" lon="5.89184">
        <ele>451.96</ele>
        <time>2016-06-04T07:02:58Z</time>
      </trkpt>
      <trkpt lat="46.93147" lon="5.89157">
        <ele>452.44</ele>
        <time>2016-06-04T07:03:11Z</time>
      </trkpt>
      <trkpt lat="46.93146" lon="5.89153">
        <ele>453.4</ele>
        <time>2016-06-04T07:03:13Z</time>
      </trkpt>
      <trkpt lat="46.93146" lon="5.8914">
        <ele>454.84</ele>
        <time>2016-06-04T07:03:21Z</time>
      </trkpt>
      <trkpt lat="46.93148" lon="5.89126">
        <ele>456.76</ele>
        <time>2016-06-04T07:03:27Z</time>
      </trkpt>
      <trkpt lat="46.93151" lon="5.89118">
        <ele>456.28</ele>
        <time>2016-06-04T07:03:31Z</time>
      </trkpt>
      <trkpt lat="46.93162" lon="5.8911">
        <ele>451.96</ele>
        <time>2016-06-04T07:03:45Z</time>
      </trkpt>
      <trkpt lat="46.93174" lon="5.89106">
        <ele>450.52</ele>
        <time>2016-06-04T07:03:57Z</time>
      </trkpt>
      <trkpt lat="46.93186" lon="5.89104">
        <ele>450.03</ele>
        <time>2016-06-04T07:04:07Z</time>
      </trkpt>
      <trkpt lat="46.93203" lon="5.89095">
        <ele>446.67</ele>
        <time>2016-06-04T07:04:18Z</time>
      </trkpt>
      <trkpt lat="46.9321" lon="5.89084">
        <ele>444.75</ele>
        <time>2016-06-04T07:04:27Z</time>
      </trkpt>
      <trkpt lat="46.93213" lon="5.89076">
        <ele>444.27</ele>
        <time>2016-06-04T07:04:32Z</time>
      </trkpt>
      <trkpt lat="46.93222" lon="5.89061">
        <ele>441.38</ele>
        <time>2016-06-04T07:04:42Z</time>
      </trkpt>
      <trkpt lat="46.93223" lon="5.89056">
        <ele>440.42</ele>
        <time>2016-06-04T07:04:45Z</time>
      </trkpt>
      <trkpt lat="46.93227" lon="5.89046">
        <ele>438.98</ele>
        <time>2016-06-04T07:04:52Z</time>
      </trkpt>
      <trkpt lat="46.93229" lon="5.8903">
        <ele>438.02</ele>
        <time>2016-06-04T07:05:00Z</time>
      </trkpt>
      <trkpt lat="46.93232" lon="5.89008">
        <ele>437.54</ele>
        <time>2016-06-04T07:05:12Z</time>
      </trkpt>
      <trkpt lat="46.93229" lon="5.88989">
        <ele>438.02</ele>
        <time>2016-06-04T07:05:25Z</time>
      </trkpt>
      <trkpt lat="46.93227" lon="5.88981">
        <ele>437.54</ele>
        <time>2016-06-04T07:05:30Z</time>
      </trkpt>
      <trkpt lat="46.93219" lon="5.88961">
        <ele>435.13</ele>
        <time>2016-06-04T07:05:43Z</time>
      </trkpt>
      <trkpt lat="46.9322" lon="5.88943">
        <ele>431.77</ele>
        <time>2016-06-04T07:05:53Z</time>
      </trkpt>
      <trkpt lat="46.93221" lon="5.88932">
        <ele>430.81</ele>
        <time>2016-06-04T07:05:59Z</time>
      </trkpt>
      <trkpt lat="46.93222" lon="5.88924">
        <ele>430.33</ele>
        <time>2016-06-04T07:06:04Z</time>
      </trkpt>
      <trkpt lat="46.93228" lon="5.88899">
        <ele>427.44</ele>
        <time>2016-06-04T07:06:18Z</time>
      </trkpt>
      <trkpt lat="46.93231" lon="5.88891">
        <ele>426.96</ele>
        <time>2016-06-04T07:06:23Z</time>
      </trkpt>
      <trkpt lat="46.93232" lon="5.88884">
        <ele>426.96</ele>
        <time>2016-06-04T07:06:27Z</time>
      </trkpt>
      <trkpt lat="46.93234" lon="5.88868">
        <ele>426.48</ele>
        <time>2016-06-04T07:06:36Z</time>
      </trkpt>
      <trkpt lat="46.93235" lon="5.88854">
        <ele>427.44</ele>
        <time>2016-06-04T07:06:43Z</time>
      </trkpt>
      <trkpt lat="46.93239" lon="5.8884">
        <ele>428.4</ele>
        <time>2016-06-04T07:06:51Z</time>
      </trkpt>
      <trkpt lat="46.93241" lon="5.88821">
        <ele>430.33</ele>
        <time>2016-06-04T07:07:02Z</time>
      </trkpt>
      <trkpt lat="46.93239" lon="5.88799">
        <ele>427.44</ele>
        <time>2016-06-04T07:07:16Z</time>
      </trkpt>
      <trkpt lat="46.93232" lon="5.88777">
        <ele>426.96</ele>
        <time>2016-06-04T07:07:29Z</time>
      </trkpt>
      <trkpt lat="46.93228" lon="5.88769">
        <ele>425.52</ele>
        <time>2016-06-04T07:07:34Z</time>
      </trkpt>
      <trkpt lat="46.93225" lon="5.88761">
        <ele>423.12</ele>
        <time>2016-06-04T07:07:39Z</time>
      </trkpt>
      <trkpt lat="46.93219" lon="5.88741">
        <ele>420.71</ele>
        <time>2016-06-04T07:07:51Z</time>
      </trkpt>
      <trkpt lat="46.93218" lon="5.88722">
        <ele>419.75</ele>
        <time>2016-06-04T07:08:01Z</time>
      </trkpt>
      <trkpt lat="46.93218" lon="5.88699">
        <ele>414.47</ele>
        <time>2016-06-04T07:08:15Z</time>
      </trkpt>
      <trkpt lat="46.93215" lon="5.88681">
        <ele>412.06</ele>
        <time>2016-06-04T07:08:26Z</time>
      </trkpt>
      <trkpt lat="46.93215" lon="5.88678">
        <ele>412.06</ele>
        <time>2016-06-04T07:08:28Z</time>
      </trkpt>
      <trkpt lat="46.93212" lon="5.88662">
        <ele>409.18</ele>
        <time>2016-06-04T07:08:38Z</time>
      </trkpt>
      <trkpt lat="46.93212" lon="5.88656">
        <ele>406.77</ele>
        <time>2016-06-04T07:08:42Z</time>
      </trkpt>
      <trkpt lat="46.93208" lon="5.8863">
        <ele>401.49</ele>
        <time>2016-06-04T07:08:58Z</time>
      </trkpt>
      <trkpt lat="46.93208" lon="5.88628">
        <ele>401.49</ele>
        <time>2016-06-04T07:08:59Z</time>
      </trkpt>
      <trkpt lat="46.93209" lon="5.8862">
        <ele>400.53</ele>
        <time>2016-06-04T07:09:04Z</time>
      </trkpt>
      <trkpt lat="46.93213" lon="5.88596">
        <ele>401.49</ele>
        <time>2016-06-04T07:09:16Z</time>
      </trkpt>
      <trkpt lat="46.93214" lon="5.88586">
        <ele>402.45</ele>
        <time>2016-06-04T07:09:21Z</time>
      </trkpt>
      <trkpt lat="46.93217" lon="5.88567">
        <ele>404.37</ele>
        <time>2016-06-04T07:09:31Z</time>
      </trkpt>
      <trkpt lat="46.93218" lon="5.88558">
        <ele>404.85</ele>
        <time>2016-06-04T07:09:36Z</time>
      </trkpt>
      <trkpt lat="46.93216" lon="5.88537">
        <ele>405.33</ele>
        <time>2016-06-04T07:09:47Z</time>
      </trkpt>
      <trkpt lat="46.93216" lon="5.88514">
        <ele>406.29</ele>
        <time>2016-06-04T07:10:00Z</time>
      </trkpt>
      <trkpt lat="46.93216" lon="5.88512">
        <ele>406.77</ele>
        <time>2016-06-04T07:10:01Z</time>
      </trkpt>
      <trkpt lat="46.93218" lon="5.88506">
        <ele>407.26</ele>
        <time>2016-06-04T07:10:04Z</time>
      </trkpt>
      <trkpt lat="46.93218" lon="5.88501">
        <ele>407.26</ele>
        <time>2016-06-04T07:10:07Z</time>
      </trkpt>
      <trkpt lat="46.93221" lon="5.88481">
        <ele>404.85</ele>
        <time>2016-06-04T07:10:20Z</time>
      </trkpt>
      <trkpt lat="46.93223" lon="5.8846">
        <ele>401.97</ele>
        <time>2016-06-04T07:10:30Z</time>
      </trkpt>
      <trkpt lat="46.93232" lon="5.88438">
        <ele>398.12</ele>
        <time>2016-06-04T07:10:45Z</time>
      </trkpt>
      <trkpt lat="46.93239" lon="5.88422">
        <ele>395.72</ele>
        <time>2016-06-04T07:10:55Z</time>
      </trkpt>
      <trkpt lat="46.9324" lon="5.88419">
        <ele>395.24</ele>
        <time>2016-06-04T07:10:57Z</time>
      </trkpt>
      <trkpt lat="46.93245" lon="5.88397">
        <ele>393.32</ele>
        <time>2016-06-04T07:11:11Z</time>
      </trkpt>
      <trkpt lat="46.93251" lon="5.88381">
        <ele>389.47</ele>
        <time>2016-06-04T07:11:22Z</time>
      </trkpt>
      <trkpt lat="46.93253" lon="5.88375">
        <ele>388.51</ele>
        <time>2016-06-04T07:11:26Z</time>
      </trkpt>
      <trkpt lat="46.93258" lon="5.88364">
        <ele>388.99</ele>
        <time>2016-06-04T07:11:33Z</time>
      </trkpt>
      <trkpt lat="46.93261" lon="5.88354">
        <ele>388.51</ele>
        <time>2016-06-04T07:11:39Z</time>
      </trkpt>
      <trkpt lat="46.93266" lon="5.88347">
        <ele>386.11</ele>
        <time>2016-06-04T07:11:47Z</time>
      </trkpt>
      <trkpt lat="46.93276" lon="5.88324">
        <ele>381.3</ele>
        <time>2016-06-04T07:12:02Z</time>
      </trkpt>
      <trkpt lat="46.93278" lon="5.88317">
        <ele>381.78</ele>
        <time>2016-06-04T07:12:06Z</time>
      </trkpt>
      <trkpt lat="46.93283" lon="5.88281">
        <ele>382.26</ele>
        <time>2016-06-04T07:12:21Z</time>
      </trkpt>
      <trkpt lat="46.93283" lon="5.88277">
        <ele>381.78</ele>
        <time>2016-06-04T07:12:24Z</time>
      </trkpt>
      <trkpt lat="46.93282" lon="5.88259">
        <ele>380.34</ele>
        <time>2016-06-04T07:12:37Z</time>
      </trkpt>
      <trkpt lat="46.93281" lon="5.88254">
        <ele>380.82</ele>
        <time>2016-06-04T07:12:39Z</time>
      </trkpt>
      <trkpt lat="46.93266" lon="5.88238">
        <ele>380.34</ele>
        <time>2016-06-04T07:12:54Z</time>
      </trkpt>
      <trkpt lat="46.93257" lon="5.88252">
        <ele>378.9</ele>
        <time>2016-06-04T07:13:08Z</time>
      </trkpt>
      <trkpt lat="46.93249" lon="5.88268">
        <ele>378.42</ele>
        <time>2016-06-04T07:13:18Z</time>
      </trkpt>
      <trkpt lat="46.93236" lon="5.88287">
        <ele>375.05</ele>
        <time>2016-06-04T07:13:34Z</time>
      </trkpt>
      <trkpt lat="46.93235" lon="5.8829">
        <ele>373.61</ele>
        <time>2016-06-04T07:13:36Z</time>
      </trkpt>
      <trkpt lat="46.9322" lon="5.88299">
        <ele>368.32</ele>
        <time>2016-06-04T07:13:50Z</time>
      </trkpt>
      <trkpt lat="46.93207" lon="5.88305">
        <ele>365.92</ele>
        <time>2016-06-04T07:14:01Z</time>
      </trkpt>
      <trkpt lat="46.93188" lon="5.883">
        <ele>364</ele>
        <time>2016-06-04T07:14:17Z</time>
      </trkpt>
      <trkpt lat="46.93184" lon="5.88298">
        <ele>364.48</ele>
        <time>2016-06-04T07:14:20Z</time>
      </trkpt>
      <trkpt lat="46.93164" lon="5.88297">
        <ele>364.96</ele>
        <time>2016-06-04T07:14:35Z</time>
      </trkpt>
      <trkpt lat="46.93146" lon="5.883">
        <ele>363.04</ele>
        <time>2016-06-04T07:14:50Z</time>
      </trkpt>
      <trkpt lat="46.93133" lon="5.88289">
        <ele>361.59</ele>
        <time>2016-06-04T07:15:03Z</time>
      </trkpt>
      <trkpt lat="46.93121" lon="5.88282">
        <ele>360.63</ele>
        <time>2016-06-04T07:15:14Z</time>
      </trkpt>
      <trkpt lat="46.93116" lon="5.88281">
        <ele>360.63</ele>
        <time>2016-06-04T07:15:18Z</time>
      </trkpt>
      <trkpt lat="46.93098" lon="5.88289">
        <ele>359.67</ele>
        <time>2016-06-04T07:15:33Z</time>
      </trkpt>
      <trkpt lat="46.93095" lon="5.88293">
        <ele>359.19</ele>
        <time>2016-06-04T07:15:36Z</time>
      </trkpt>
      <trkpt lat="46.93079" lon="5.88308">
        <ele>358.23</ele>
        <time>2016-06-04T07:15:51Z</time>
      </trkpt>
      <trkpt lat="46.93071" lon="5.88316">
        <ele>356.31</ele>
        <time>2016-06-04T07:15:59Z</time>
      </trkpt>
      <trkpt lat="46.93059" lon="5.88332">
        <ele>352.94</ele>
        <time>2016-06-04T07:16:13Z</time>
      </trkpt>
      <trkpt lat="46.93056" lon="5.88338">
        <ele>352.94</ele>
        <time>2016-06-04T07:16:29Z</time>
      </trkpt>
      <trkpt lat="46.93056" lon="5.88338">
        <ele>352.94</ele>
        <time>2016-06-04T07:16:51Z</time>
      </trkpt>
      <trkpt lat="46.93055" lon="5.88339">
        <ele>353.42</ele>
        <time>2016-06-04T07:17:08Z</time>
      </trkpt>
      <trkpt lat="46.93055" lon="5.8834">
        <ele>353.9</ele>
        <time>2016-06-04T07:17:34Z</time>
      </trkpt>
      <trkpt lat="46.93055" lon="5.8834">
        <ele>353.9</ele>
        <time>2016-06-04T07:17:35Z</time>
      </trkpt>
      <trkpt lat="46.93056" lon="5.88336">
        <ele>353.9</ele>
        <time>2016-06-04T07:17:38Z</time>
      </trkpt>
      <trkpt lat="46.93057" lon="5.8833">
        <ele>354.38</ele>
        <time>2016-06-04T07:17:42Z</time>
      </trkpt>
      <trkpt lat="46.93058" lon="5.88326">
        <ele>354.38</ele>
        <time>2016-06-04T07:17:52Z</time>
      </trkpt>
      <trkpt lat="46.93057" lon="5.88324">
        <ele>354.38</ele>
        <time>2016-06-04T07:17:54Z</time>
      </trkpt>
      <trkpt lat="46.93054" lon="5.88318">
        <ele>354.38</ele>
        <time>2016-06-04T07:17:58Z</time>
      </trkpt>
      <trkpt lat="46.93049" lon="5.88321">
        <ele>354.86</ele>
        <time>2016-06-04T07:18:35Z</time>
      </trkpt>
      <trkpt lat="46.9305" lon="5.8832">
        <ele>354.86</ele>
        <time>2016-06-04T07:18:36Z</time>
      </trkpt>
      <trkpt lat="46.93049" lon="5.88321">
        <ele>351.02</ele>
        <time>2016-06-04T07:21:40Z</time>
      </trkpt>
      <trkpt lat="46.93046" lon="5.88318">
        <ele>349.1</ele>
        <time>2016-06-04T07:21:48Z</time>
      </trkpt>
      <trkpt lat="46.93045" lon="5.88316">
        <ele>348.62</ele>
        <time>2016-06-04T07:21:50Z</time>
      </trkpt>
      <trkpt lat="46.93038" lon="5.88301">
        <ele>349.58</ele>
        <time>2016-06-04T07:22:00Z</time>
      </trkpt>
      <trkpt lat="46.93034" lon="5.88286">
        <ele>351.02</ele>
        <time>2016-06-04T07:22:13Z</time>
      </trkpt>
      <trkpt lat="46.93039" lon="5.88277">
        <ele>354.38</ele>
        <time>2016-06-04T07:22:24Z</time>
      </trkpt>
      <trkpt lat="46.93046" lon="5.88261">
        <ele>357.27</ele>
        <time>2016-06-04T07:22:36Z</time>
      </trkpt>
      <trkpt lat="46.93047" lon="5.88257">
        <ele>357.75</ele>
        <time>2016-06-04T07:22:38Z</time>
      </trkpt>
      <trkpt lat="46.93054" lon="5.88252">
        <ele>358.71</ele>
        <time>2016-06-04T07:22:46Z</time>
      </trkpt>
      <trkpt lat="46.93062" lon="5.88236">
        <ele>360.15</ele>
        <time>2016-06-04T07:22:58Z</time>
      </trkpt>
      <trkpt lat="46.93066" lon="5.8823">
        <ele>360.63</ele>
        <time>2016-06-04T07:23:03Z</time>
      </trkpt>
      <trkpt lat="46.93071" lon="5.88217">
        <ele>359.67</ele>
        <time>2016-06-04T07:23:13Z</time>
      </trkpt>
      <trkpt lat="46.93073" lon="5.88205">
        <ele>360.63</ele>
        <time>2016-06-04T07:23:19Z</time>
      </trkpt>
      <trkpt lat="46.93076" lon="5.88184">
        <ele>363.52</ele>
        <time>2016-06-04T07:23:31Z</time>
      </trkpt>
      <trkpt lat="46.93077" lon="5.8817">
        <ele>363.52</ele>
        <time>2016-06-04T07:23:40Z</time>
      </trkpt>
      <trkpt lat="46.93077" lon="5.88166">
        <ele>363.52</ele>
        <time>2016-06-04T07:23:42Z</time>
      </trkpt>
      <trkpt lat="46.93077" lon="5.88161">
        <ele>364</ele>
        <time>2016-06-04T07:23:45Z</time>
      </trkpt>
      <trkpt lat="46.93075" lon="5.88143">
        <ele>365.92</ele>
        <time>2016-06-04T07:23:57Z</time>
      </trkpt>
      <trkpt lat="46.93073" lon="5.88129">
        <ele>367.84</ele>
        <time>2016-06-04T07:24:07Z</time>
      </trkpt>
      <trkpt lat="46.93074" lon="5.88117">
        <ele>368.8</ele>
        <time>2016-06-04T07:24:14Z</time>
      </trkpt>
      <trkpt lat="46.93078" lon="5.88095">
        <ele>370.73</ele>
        <time>2016-06-04T07:24:29Z</time>
      </trkpt>
      <trkpt lat="46.93081" lon="5.88083">
        <ele>370.73</ele>
        <time>2016-06-04T07:24:42Z</time>
      </trkpt>
      <trkpt lat="46.93084" lon="5.88064">
        <ele>370.24</ele>
        <time>2016-06-04T07:24:58Z</time>
      </trkpt>
      <trkpt lat="46.93088" lon="5.88067">
        <ele>369.28</ele>
        <time>2016-06-04T07:25:19Z</time>
      </trkpt>
      <trkpt lat="46.93096" lon="5.88061">
        <ele>364</ele>
        <time>2016-06-04T07:25:28Z</time>
      </trkpt>
      <trkpt lat="46.93105" lon="5.88047">
        <ele>359.67</ele>
        <time>2016-06-04T07:25:41Z</time>
      </trkpt>
      <trkpt lat="46.93114" lon="5.8803">
        <ele>357.27</ele>
        <time>2016-06-04T07:25:54Z</time>
      </trkpt>
      <trkpt lat="46.93121" lon="5.8801">
        <ele>356.31</ele>
        <time>2016-06-04T07:26:08Z</time>
      </trkpt>
      <trkpt lat="46.93125" lon="5.87996">
        <ele>356.79</ele>
        <time>2016-06-04T07:26:15Z</time>
      </trkpt>
      <trkpt lat="46.9313" lon="5.87977">
        <ele>355.83</ele>
        <time>2016-06-04T07:26:28Z</time>
      </trkpt>
      <trkpt lat="46.93134" lon="5.87957">
        <ele>356.79</ele>
        <time>2016-06-04T07:26:39Z</time>
      </trkpt>
      <trkpt lat="46.93134" lon="5.87955">
        <ele>356.79</ele>
        <time>2016-06-04T07:26:40Z</time>
      </trkpt>
      <trkpt lat="46.93142" lon="5.87927">
        <ele>355.83</ele>
        <time>2016-06-04T07:26:56Z</time>
      </trkpt>
      <trkpt lat="46.9315" lon="5.87906">
        <ele>351.5</ele>
        <time>2016-06-04T07:27:11Z</time>
      </trkpt>
      <trkpt lat="46.93145" lon="5.87899">
        <ele>350.06</ele>
        <time>2016-06-04T07:27:17Z</time>
      </trkpt>
      <trkpt lat="46.93143" lon="5.87895">
        <ele>350.54</ele>
        <time>2016-06-04T07:27:20Z</time>
      </trkpt>
      <trkpt lat="46.93141" lon="5.87882">
        <ele>351.02</ele>
        <time>2016-06-04T07:27:29Z</time>
      </trkpt>
      <trkpt lat="46.93139" lon="5.87863">
        <ele>354.38</ele>
        <time>2016-06-04T07:27:40Z</time>
      </trkpt>
      <trkpt lat="46.93138" lon="5.87852">
        <ele>355.83</ele>
        <time>2016-06-04T07:27:49Z</time>
      </trkpt>
      <trkpt lat="46.93137" lon="5.8785">
        <ele>355.83</ele>
        <time>2016-06-04T07:27:52Z</time>
      </trkpt>
      <trkpt lat="46.93135" lon="5.87827">
        <ele>359.67</ele>
        <time>2016-06-04T07:28:04Z</time>
      </trkpt>
      <trkpt lat="46.93134" lon="5.87818">
        <ele>364.48</ele>
        <time>2016-06-04T07:28:10Z</time>
      </trkpt>
      <trkpt lat="46.93132" lon="5.87814">
        <ele>366.88</ele>
        <time>2016-06-04T07:28:13Z</time>
      </trkpt>
      <trkpt lat="46.93131" lon="5.87808">
        <ele>369.76</ele>
        <time>2016-06-04T07:28:17Z</time>
      </trkpt>
      <trkpt lat="46.93131" lon="5.87804">
        <ele>371.21</ele>
        <time>2016-06-04T07:28:20Z</time>
      </trkpt>
      <trkpt lat="46.9313" lon="5.87797">
        <ele>371.69</ele>
        <time>2016-06-04T07:28:25Z</time>
      </trkpt>
      <trkpt lat="46.93127" lon="5.87785">
        <ele>375.53</ele>
        <time>2016-06-04T07:28:35Z</time>
      </trkpt>
      <trkpt lat="46.93125" lon="5.87775">
        <ele>376.49</ele>
        <time>2016-06-04T07:28:48Z</time>
      </trkpt>
      <trkpt lat="46.93124" lon="5.87756">
        <ele>375.53</ele>
        <time>2016-06-04T07:29:02Z</time>
      </trkpt>
      <trkpt lat="46.93123" lon="5.87753">
        <ele>375.05</ele>
        <time>2016-06-04T07:29:05Z</time>
      </trkpt>
      <trkpt lat="46.93118" lon="5.87735">
        <ele>379.38</ele>
        <time>2016-06-04T07:29:18Z</time>
      </trkpt>
      <trkpt lat="46.93116" lon="5.87721">
        <ele>377.45</ele>
        <time>2016-06-04T07:29:30Z</time>
      </trkpt>
      <trkpt lat="46.93111" lon="5.87705">
        <ele>376.01</ele>
        <time>2016-06-04T07:29:43Z</time>
      </trkpt>
      <trkpt lat="46.9311" lon="5.87696">
        <ele>375.53</ele>
        <time>2016-06-04T07:29:51Z</time>
      </trkpt>
      <trkpt lat="46.93106" lon="5.8768">
        <ele>375.53</ele>
        <time>2016-06-04T07:30:04Z</time>
      </trkpt>
      <trkpt lat="46.93104" lon="5.8767">
        <ele>377.94</ele>
        <time>2016-06-04T07:30:12Z</time>
      </trkpt>
      <trkpt lat="46.93103" lon="5.8766">
        <ele>376.97</ele>
        <time>2016-06-04T07:30:22Z</time>
      </trkpt>
      <trkpt lat="46.93102" lon="5.87652">
        <ele>376.49</ele>
        <time>2016-06-04T07:30:32Z</time>
      </trkpt>
      <trkpt lat="46.93102" lon="5.87649">
        <ele>376.01</ele>
        <time>2016-06-04T07:30:35Z</time>
      </trkpt>
      <trkpt lat="46.931" lon="5.87634">
        <ele>377.45</ele>
        <time>2016-06-04T07:30:46Z</time>
      </trkpt>
      <trkpt lat="46.931" lon="5.87623">
        <ele>377.45</ele>
        <time>2016-06-04T07:30:55Z</time>
      </trkpt>
      <trkpt lat="46.931" lon="5.87607">
        <ele>378.9</ele>
        <time>2016-06-04T07:31:09Z</time>
      </trkpt>
      <trkpt lat="46.93103" lon="5.87594">
        <ele>381.78</ele>
        <time>2016-06-04T07:31:23Z</time>
      </trkpt>
      <trkpt lat="46.93106" lon="5.87578">
        <ele>384.66</ele>
        <time>2016-06-04T07:31:36Z</time>
      </trkpt>
      <trkpt lat="46.93109" lon="5.87565">
        <ele>385.63</ele>
        <time>2016-06-04T07:31:48Z</time>
      </trkpt>
      <trkpt lat="46.93112" lon="5.87552">
        <ele>386.11</ele>
        <time>2016-06-04T07:32:00Z</time>
      </trkpt>
      <trkpt lat="46.93119" lon="5.87539">
        <ele>387.55</ele>
        <time>2016-06-04T07:32:14Z</time>
      </trkpt>
      <trkpt lat="46.93125" lon="5.87526">
        <ele>389.47</ele>
        <time>2016-06-04T07:32:27Z</time>
      </trkpt>
      <trkpt lat="46.93131" lon="5.87511">
        <ele>391.87</ele>
        <time>2016-06-04T07:32:40Z</time>
      </trkpt>
      <trkpt lat="46.93134" lon="5.87495">
        <ele>393.8</ele>
        <time>2016-06-04T07:32:54Z</time>
      </trkpt>
      <trkpt lat="46.93134" lon="5.8748">
        <ele>394.28</ele>
        <time>2016-06-04T07:33:06Z</time>
      </trkpt>
      <trkpt lat="46.93135" lon="5.87476">
        <ele>393.8</ele>
        <time>2016-06-04T07:33:13Z</time>
      </trkpt>
      <trkpt lat="46.93134" lon="5.87473">
        <ele>393.8</ele>
        <time>2016-06-04T07:33:15Z</time>
      </trkpt>
      <trkpt lat="46.93134" lon="5.87457">
        <ele>397.16</ele>
        <time>2016-06-04T07:33:27Z</time>
      </trkpt>
      <trkpt lat="46.93136" lon="5.87444">
        <ele>397.16</ele>
        <time>2016-06-04T07:33:40Z</time>
      </trkpt>
      <trkpt lat="46.93139" lon="5.87433">
        <ele>400.05</ele>
        <time>2016-06-04T07:33:53Z</time>
      </trkpt>
      <trkpt lat="46.9314" lon="5.87425">
        <ele>401.01</ele>
        <time>2016-06-04T07:34:01Z</time>
      </trkpt>
      <trkpt lat="46.93149" lon="5.87413">
        <ele>404.37</ele>
        <time>2016-06-04T07:34:15Z</time>
      </trkpt>
      <trkpt lat="46.93155" lon="5.8741">
        <ele>405.33</ele>
        <time>2016-06-04T07:34:25Z</time>
      </trkpt>
      <trkpt lat="46.93157" lon="5.87409">
        <ele>406.29</ele>
        <time>2016-06-04T07:34:29Z</time>
      </trkpt>
      <trkpt lat="46.93163" lon="5.87408">
        <ele>407.74</ele>
        <time>2016-06-04T07:34:42Z</time>
      </trkpt>
      <trkpt lat="46.93173" lon="5.87399">
        <ele>409.66</ele>
        <time>2016-06-04T07:34:54Z</time>
      </trkpt>
      <trkpt lat="46.93182" lon="5.87387">
        <ele>411.1</ele>
        <time>2016-06-04T07:35:07Z</time>
      </trkpt>
      <trkpt lat="46.93187" lon="5.87374">
        <ele>410.62</ele>
        <time>2016-06-04T07:35:18Z</time>
      </trkpt>
      <trkpt lat="46.93187" lon="5.87368">
        <ele>410.62</ele>
        <time>2016-06-04T07:35:24Z</time>
      </trkpt>
      <trkpt lat="46.93181" lon="5.87344">
        <ele>413.98</ele>
        <time>2016-06-04T07:35:39Z</time>
      </trkpt>
      <trkpt lat="46.9318" lon="5.87342">
        <ele>414.95</ele>
        <time>2016-06-04T07:35:53Z</time>
      </trkpt>
      <trkpt lat="46.93179" lon="5.87342">
        <ele>415.91</ele>
        <time>2016-06-04T07:36:09Z</time>
      </trkpt>
      <trkpt lat="46.93176" lon="5.87329">
        <ele>416.39</ele>
        <time>2016-06-04T07:36:19Z</time>
      </trkpt>
      <trkpt lat="46.93174" lon="5.87314">
        <ele>414.95</ele>
        <time>2016-06-04T07:36:32Z</time>
      </trkpt>
      <trkpt lat="46.93174" lon="5.87298">
        <ele>414.47</ele>
        <time>2016-06-04T07:36:45Z</time>
      </trkpt>
      <trkpt lat="46.9318" lon="5.87284">
        <ele>413.5</ele>
        <time>2016-06-04T07:37:00Z</time>
      </trkpt>
      <trkpt lat="46.93189" lon="5.87274">
        <ele>413.02</ele>
        <time>2016-06-04T07:37:12Z</time>
      </trkpt>
      <trkpt lat="46.93192" lon="5.8726">
        <ele>412.54</ele>
        <time>2016-06-04T07:37:22Z</time>
      </trkpt>
      <trkpt lat="46.9319" lon="5.8725">
        <ele>412.06</ele>
        <time>2016-06-04T07:37:27Z</time>
      </trkpt>
      <trkpt lat="46.93189" lon="5.87246">
        <ele>412.54</ele>
        <time>2016-06-04T07:37:29Z</time>
      </trkpt>
      <trkpt lat="46.93179" lon="5.87221">
        <ele>415.43</ele>
        <time>2016-06-04T07:37:46Z</time>
      </trkpt>
      <trkpt lat="46.93175" lon="5.87206">
        <ele>417.35</ele>
        <time>2016-06-04T07:37:57Z</time>
      </trkpt>
      <trkpt lat="46.93168" lon="5.87193">
        <ele>418.31</ele>
        <time>2016-06-04T07:38:09Z</time>
      </trkpt>
      <trkpt lat="46.93159" lon="5.87184">
        <ele>419.27</ele>
        <time>2016-06-04T07:38:21Z</time>
      </trkpt>
      <trkpt lat="46.93149" lon="5.87176">
        <ele>419.75</ele>
        <time>2016-06-04T07:38:35Z</time>
      </trkpt>
      <trkpt lat="46.93138" lon="5.87173">
        <ele>418.79</ele>
        <time>2016-06-04T07:38:49Z</time>
      </trkpt>
      <trkpt lat="46.93133" lon="5.87169">
        <ele>420.71</ele>
        <time>2016-06-04T07:39:00Z</time>
      </trkpt>
      <trkpt lat="46.93123" lon="5.8716">
        <ele>422.64</ele>
        <time>2016-06-04T07:39:12Z</time>
      </trkpt>
      <trkpt lat="46.93114" lon="5.87152">
        <ele>425.04</ele>
        <time>2016-06-04T07:39:25Z</time>
      </trkpt>
      <trkpt lat="46.93105" lon="5.87142">
        <ele>428.89</ele>
        <time>2016-06-04T07:39:38Z</time>
      </trkpt>
      <trkpt lat="46.931" lon="5.87127">
        <ele>430.33</ele>
        <time>2016-06-04T07:39:50Z</time>
      </trkpt>
      <trkpt lat="46.93093" lon="5.87104">
        <ele>433.69</ele>
        <time>2016-06-04T07:40:07Z</time>
      </trkpt>
      <trkpt lat="46.93085" lon="5.8709">
        <ele>434.65</ele>
        <time>2016-06-04T07:40:21Z</time>
      </trkpt>
      <trkpt lat="46.93078" lon="5.8708">
        <ele>434.65</ele>
        <time>2016-06-04T07:40:33Z</time>
      </trkpt>
      <trkpt lat="46.93074" lon="5.87078">
        <ele>435.61</ele>
        <time>2016-06-04T07:40:38Z</time>
      </trkpt>
      <trkpt lat="46.93063" lon="5.87068">
        <ele>437.06</ele>
        <time>2016-06-04T07:40:52Z</time>
      </trkpt>
      <trkpt lat="46.93056" lon="5.87062">
        <ele>437.06</ele>
        <time>2016-06-04T07:41:04Z</time>
      </trkpt>
      <trkpt lat="46.93054" lon="5.87061">
        <ele>438.02</ele>
        <time>2016-06-04T07:41:07Z</time>
      </trkpt>
      <trkpt lat="46.93046" lon="5.87055">
        <ele>442.34</ele>
        <time>2016-06-04T07:41:20Z</time>
      </trkpt>
      <trkpt lat="46.93038" lon="5.87048">
        <ele>444.27</ele>
        <time>2016-06-04T07:41:33Z</time>
      </trkpt>
      <trkpt lat="46.93036" lon="5.87046">
        <ele>444.75</ele>
        <time>2016-06-04T07:41:36Z</time>
      </trkpt>
      <trkpt lat="46.93028" lon="5.8704">
        <ele>447.15</ele>
        <time>2016-06-04T07:41:50Z</time>
      </trkpt>
      <trkpt lat="46.93022" lon="5.87031">
        <ele>449.07</ele>
        <time>2016-06-04T07:42:02Z</time>
      </trkpt>
      <trkpt lat="46.93014" lon="5.87024">
        <ele>450.03</ele>
        <time>2016-06-04T07:42:15Z</time>
      </trkpt>
      <trkpt lat="46.93006" lon="5.87014">
        <ele>451</ele>
        <time>2016-06-04T07:42:28Z</time>
      </trkpt>
      <trkpt lat="46.92996" lon="5.87004">
        <ele>451</ele>
        <time>2016-06-04T07:42:41Z</time>
      </trkpt>
      <trkpt lat="46.92989" lon="5.86994">
        <ele>451.48</ele>
        <time>2016-06-04T07:42:53Z</time>
      </trkpt>
      <trkpt lat="46.9298" lon="5.86985">
        <ele>452.92</ele>
        <time>2016-06-04T07:43:05Z</time>
      </trkpt>
      <trkpt lat="46.92971" lon="5.86975">
        <ele>453.88</ele>
        <time>2016-06-04T07:43:17Z</time>
      </trkpt>
      <trkpt lat="46.92971" lon="5.86974">
        <ele>453.88</ele>
        <time>2016-06-04T07:43:18Z</time>
      </trkpt>
      <trkpt lat="46.92965" lon="5.8696">
        <ele>456.76</ele>
        <time>2016-06-04T07:43:31Z</time>
      </trkpt>
      <trkpt lat="46.92965" lon="5.86958">
        <ele>456.76</ele>
        <time>2016-06-04T07:43:33Z</time>
      </trkpt>
      <trkpt lat="46.92966" lon="5.86948">
        <ele>456.76</ele>
        <time>2016-06-04T07:43:41Z</time>
      </trkpt>
      <trkpt lat="46.92968" lon="5.86944">
        <ele>457.72</ele>
        <time>2016-06-04T07:43:45Z</time>
      </trkpt>
      <trkpt lat="46.92976" lon="5.86934">
        <ele>458.21</ele>
        <time>2016-06-04T07:43:56Z</time>
      </trkpt>
      <trkpt lat="46.92977" lon="5.86932">
        <ele>458.21</ele>
        <time>2016-06-04T07:43:58Z</time>
      </trkpt>
      <trkpt lat="46.9298" lon="5.86928">
        <ele>457.24</ele>
        <time>2016-06-04T07:44:02Z</time>
      </trkpt>
      <trkpt lat="46.92981" lon="5.86926">
        <ele>457.72</ele>
        <time>2016-06-04T07:44:04Z</time>
      </trkpt>
      <trkpt lat="46.92987" lon="5.86914">
        <ele>458.21</ele>
        <time>2016-06-04T07:44:13Z</time>
      </trkpt>
      <trkpt lat="46.92992" lon="5.86901">
        <ele>458.69</ele>
        <time>2016-06-04T07:44:23Z</time>
      </trkpt>
      <trkpt lat="46.92994" lon="5.86898">
        <ele>458.21</ele>
        <time>2016-06-04T07:44:25Z</time>
      </trkpt>
      <trkpt lat="46.92999" lon="5.86884">
        <ele>459.17</ele>
        <time>2016-06-04T07:44:35Z</time>
      </trkpt>
      <trkpt lat="46.93005" lon="5.86873">
        <ele>459.65</ele>
        <time>2016-06-04T07:44:44Z</time>
      </trkpt>
      <trkpt lat="46.9301" lon="5.86866">
        <ele>459.17</ele>
        <time>2016-06-04T07:44:50Z</time>
      </trkpt>
      <trkpt lat="46.93012" lon="5.86864">
        <ele>459.17</ele>
        <time>2016-06-04T07:44:52Z</time>
      </trkpt>
      <trkpt lat="46.93019" lon="5.86858">
        <ele>458.69</ele>
        <time>2016-06-04T07:44:58Z</time>
      </trkpt>
      <trkpt lat="46.93036" lon="5.86852">
        <ele>458.69</ele>
        <time>2016-06-04T07:45:12Z</time>
      </trkpt>
      <trkpt lat="46.9305" lon="5.86851">
        <ele>457.72</ele>
        <time>2016-06-04T07:45:24Z</time>
      </trkpt>
      <trkpt lat="46.93069" lon="5.8685">
        <ele>456.76</ele>
        <time>2016-06-04T07:45:40Z</time>
      </trkpt>
      <trkpt lat="46.93087" lon="5.86852">
        <ele>455.8</ele>
        <time>2016-06-04T07:45:55Z</time>
      </trkpt>
      <trkpt lat="46.93101" lon="5.86853">
        <ele>454.36</ele>
        <time>2016-06-04T07:46:07Z</time>
      </trkpt>
      <trkpt lat="46.93119" lon="5.86853">
        <ele>453.4</ele>
        <time>2016-06-04T07:46:22Z</time>
      </trkpt>
      <trkpt lat="46.93135" lon="5.86852">
        <ele>453.88</ele>
        <time>2016-06-04T07:46:35Z</time>
      </trkpt>
      <trkpt lat="46.93149" lon="5.86847">
        <ele>452.92</ele>
        <time>2016-06-04T07:46:47Z</time>
      </trkpt>
      <trkpt lat="46.93166" lon="5.86839">
        <ele>451.48</ele>
        <time>2016-06-04T07:47:02Z</time>
      </trkpt>
      <trkpt lat="46.93184" lon="5.86831">
        <ele>451</ele>
        <time>2016-06-04T07:47:17Z</time>
      </trkpt>
      <trkpt lat="46.93199" lon="5.86824">
        <ele>451</ele>
        <time>2016-06-04T07:47:30Z</time>
      </trkpt>
      <trkpt lat="46.93212" lon="5.86818">
        <ele>451.48</ele>
        <time>2016-06-04T07:47:42Z</time>
      </trkpt>
      <trkpt lat="46.93228" lon="5.86809">
        <ele>451</ele>
        <time>2016-06-04T07:47:56Z</time>
      </trkpt>
      <trkpt lat="46.93235" lon="5.86807">
        <ele>451</ele>
        <time>2016-06-04T07:48:02Z</time>
      </trkpt>
      <trkpt lat="46.93242" lon="5.86804">
        <ele>451.48</ele>
        <time>2016-06-04T07:48:08Z</time>
      </trkpt>
      <trkpt lat="46.93249" lon="5.86803">
        <ele>451.96</ele>
        <time>2016-06-04T07:48:16Z</time>
      </trkpt>
      <trkpt lat="46.93256" lon="5.86798">
        <ele>451.48</ele>
        <time>2016-06-04T07:48:23Z</time>
      </trkpt>
      <trkpt lat="46.93261" lon="5.86796">
        <ele>451.48</ele>
        <time>2016-06-04T07:48:27Z</time>
      </trkpt>
      <trkpt lat="46.93267" lon="5.86793">
        <ele>450.03</ele>
        <time>2016-06-04T07:48:33Z</time>
      </trkpt>
      <trkpt lat="46.93275" lon="5.8679">
        <ele>450.52</ele>
        <time>2016-06-04T07:48:39Z</time>
      </trkpt>
      <trkpt lat="46.9329" lon="5.86783">
        <ele>451</ele>
        <time>2016-06-04T07:48:52Z</time>
      </trkpt>
      <trkpt lat="46.93304" lon="5.86776">
        <ele>451.96</ele>
        <time>2016-06-04T07:49:05Z</time>
      </trkpt>
      <trkpt lat="46.93318" lon="5.8677">
        <ele>451.96</ele>
        <time>2016-06-04T07:49:17Z</time>
      </trkpt>
      <trkpt lat="46.93335" lon="5.86761">
        <ele>450.52</ele>
        <time>2016-06-04T07:49:31Z</time>
      </trkpt>
      <trkpt lat="46.93345" lon="5.86757">
        <ele>450.52</ele>
        <time>2016-06-04T07:49:40Z</time>
      </trkpt>
      <trkpt lat="46.93357" lon="5.86752">
        <ele>449.55</ele>
        <time>2016-06-04T07:49:54Z</time>
      </trkpt>
      <trkpt lat="46.9336" lon="5.86749">
        <ele>449.55</ele>
        <time>2016-06-04T07:49:58Z</time>
      </trkpt>
      <trkpt lat="46.93368" lon="5.86745">
        <ele>449.55</ele>
        <time>2016-06-04T07:50:11Z</time>
      </trkpt>
      <trkpt lat="46.93371" lon="5.86743">
        <ele>449.07</ele>
        <time>2016-06-04T07:50:23Z</time>
      </trkpt>
      <trkpt lat="46.93375" lon="5.8674">
        <ele>449.55</ele>
        <time>2016-06-04T07:50:36Z</time>
      </trkpt>
      <trkpt lat="46.93375" lon="5.8674">
        <ele>450.03</ele>
        <time>2016-06-04T07:50:43Z</time>
      </trkpt>
      <trkpt lat="46.93379" lon="5.86739">
        <ele>450.03</ele>
        <time>2016-06-04T07:50:47Z</time>
      </trkpt>
      <trkpt lat="46.93392" lon="5.86734">
        <ele>449.07</ele>
        <time>2016-06-04T07:50:58Z</time>
      </trkpt>
      <trkpt lat="46.93397" lon="5.86729">
        <ele>449.55</ele>
        <time>2016-06-04T07:51:03Z</time>
      </trkpt>
      <trkpt lat="46.93412" lon="5.86724">
        <ele>449.07</ele>
        <time>2016-06-04T07:51:15Z</time>
      </trkpt>
      <trkpt lat="46.93423" lon="5.86719">
        <ele>449.55</ele>
        <time>2016-06-04T07:51:25Z</time>
      </trkpt>
      <trkpt lat="46.93437" lon="5.86713">
        <ele>452.44</ele>
        <time>2016-06-04T07:51:38Z</time>
      </trkpt>
      <trkpt lat="46.93451" lon="5.86707">
        <ele>453.4</ele>
        <time>2016-06-04T07:51:51Z</time>
      </trkpt>
      <trkpt lat="46.93452" lon="5.86706">
        <ele>453.4</ele>
        <time>2016-06-04T07:51:52Z</time>
      </trkpt>
      <trkpt lat="46.93453" lon="5.86705">
        <ele>453.4</ele>
        <time>2016-06-04T07:51:55Z</time>
      </trkpt>
      <trkpt lat="46.93466" lon="5.86697">
        <ele>455.32</ele>
        <time>2016-06-04T07:52:09Z</time>
      </trkpt>
      <trkpt lat="46.93477" lon="5.86694">
        <ele>455.8</ele>
        <time>2016-06-04T07:52:21Z</time>
      </trkpt>
      <trkpt lat="46.9348" lon="5.86691">
        <ele>456.76</ele>
        <time>2016-06-04T07:52:24Z</time>
      </trkpt>
      <trkpt lat="46.93482" lon="5.8669">
        <ele>457.24</ele>
        <time>2016-06-04T07:52:26Z</time>
      </trkpt>
      <trkpt lat="46.93484" lon="5.86688">
        <ele>457.72</ele>
        <time>2016-06-04T07:52:29Z</time>
      </trkpt>
      <trkpt lat="46.93492" lon="5.86679">
        <ele>459.65</ele>
        <time>2016-06-04T07:52:39Z</time>
      </trkpt>
      <trkpt lat="46.93493" lon="5.86676">
        <ele>460.61</ele>
        <time>2016-06-04T07:52:54Z</time>
      </trkpt>
      <trkpt lat="46.93494" lon="5.86675">
        <ele>461.09</ele>
        <time>2016-06-04T07:52:55Z</time>
      </trkpt>
      <trkpt lat="46.93502" lon="5.86664">
        <ele>459.65</ele>
        <time>2016-06-04T07:53:06Z</time>
      </trkpt>
      <trkpt lat="46.93504" lon="5.86657">
        <ele>460.13</ele>
        <time>2016-06-04T07:53:11Z</time>
      </trkpt>
      <trkpt lat="46.93507" lon="5.86648">
        <ele>461.57</ele>
        <time>2016-06-04T07:53:18Z</time>
      </trkpt>
      <trkpt lat="46.93508" lon="5.86631">
        <ele>461.09</ele>
        <time>2016-06-04T07:53:29Z</time>
      </trkpt>
      <trkpt lat="46.9351" lon="5.86615">
        <ele>459.65</ele>
        <time>2016-06-04T07:53:39Z</time>
      </trkpt>
      <trkpt lat="46.93511" lon="5.86598">
        <ele>459.17</ele>
        <time>2016-06-04T07:53:50Z</time>
      </trkpt>
      <trkpt lat="46.93509" lon="5.86575">
        <ele>463.49</ele>
        <time>2016-06-04T07:54:03Z</time>
      </trkpt>
      <trkpt lat="46.93509" lon="5.8657">
        <ele>464.45</ele>
        <time>2016-06-04T07:54:06Z</time>
      </trkpt>
      <trkpt lat="46.93508" lon="5.86566">
        <ele>465.42</ele>
        <time>2016-06-04T07:54:09Z</time>
      </trkpt>
      <trkpt lat="46.93505" lon="5.86547">
        <ele>467.82</ele>
        <time>2016-06-04T07:54:21Z</time>
      </trkpt>
      <trkpt lat="46.93502" lon="5.86532">
        <ele>468.78</ele>
        <time>2016-06-04T07:54:32Z</time>
      </trkpt>
      <trkpt lat="46.935" lon="5.8652">
        <ele>470.22</ele>
        <time>2016-06-04T07:54:40Z</time>
      </trkpt>
      <trkpt lat="46.93499" lon="5.86516">
        <ele>470.7</ele>
        <time>2016-06-04T07:54:43Z</time>
      </trkpt>
      <trkpt lat="46.935" lon="5.86508">
        <ele>471.66</ele>
        <time>2016-06-04T07:54:49Z</time>
      </trkpt>
      <trkpt lat="46.93499" lon="5.86505">
        <ele>472.14</ele>
        <time>2016-06-04T07:54:51Z</time>
      </trkpt>
      <trkpt lat="46.93496" lon="5.86497">
        <ele>473.59</ele>
        <time>2016-06-04T07:54:56Z</time>
      </trkpt>
      <trkpt lat="46.93496" lon="5.86494">
        <ele>474.07</ele>
        <time>2016-06-04T07:54:58Z</time>
      </trkpt>
      <trkpt lat="46.93495" lon="5.86488">
        <ele>474.55</ele>
        <time>2016-06-04T07:55:02Z</time>
      </trkpt>
      <trkpt lat="46.93493" lon="5.86472">
        <ele>475.51</ele>
        <time>2016-06-04T07:55:13Z</time>
      </trkpt>
      <trkpt lat="46.93492" lon="5.86455">
        <ele>475.03</ele>
        <time>2016-06-04T07:55:24Z</time>
      </trkpt>
      <trkpt lat="46.9349" lon="5.8644">
        <ele>475.51</ele>
        <time>2016-06-04T07:55:34Z</time>
      </trkpt>
      <trkpt lat="46.93487" lon="5.86425">
        <ele>475.99</ele>
        <time>2016-06-04T07:55:45Z</time>
      </trkpt>
      <trkpt lat="46.93485" lon="5.86403">
        <ele>476.47</ele>
        <time>2016-06-04T07:55:58Z</time>
      </trkpt>
      <trkpt lat="46.93483" lon="5.86388">
        <ele>477.91</ele>
        <time>2016-06-04T07:56:09Z</time>
      </trkpt>
      <trkpt lat="46.93481" lon="5.86373">
        <ele>477.91</ele>
        <time>2016-06-04T07:56:19Z</time>
      </trkpt>
      <trkpt lat="46.9348" lon="5.86357">
        <ele>477.91</ele>
        <time>2016-06-04T07:56:30Z</time>
      </trkpt>
      <trkpt lat="46.93479" lon="5.86353">
        <ele>477.43</ele>
        <time>2016-06-04T07:56:33Z</time>
      </trkpt>
      <trkpt lat="46.93477" lon="5.86336">
        <ele>479.84</ele>
        <time>2016-06-04T07:56:45Z</time>
      </trkpt>
      <trkpt lat="46.93475" lon="5.86318">
        <ele>479.84</ele>
        <time>2016-06-04T07:56:57Z</time>
      </trkpt>
      <trkpt lat="46.93474" lon="5.863">
        <ele>480.32</ele>
        <time>2016-06-04T07:57:08Z</time>
      </trkpt>
      <trkpt lat="46.93475" lon="5.86287">
        <ele>484.16</ele>
        <time>2016-06-04T07:57:18Z</time>
      </trkpt>
      <trkpt lat="46.93478" lon="5.86283">
        <ele>485.12</ele>
        <time>2016-06-04T07:57:23Z</time>
      </trkpt>
      <trkpt lat="46.93488" lon="5.86281">
        <ele>486.08</ele>
        <time>2016-06-04T07:57:35Z</time>
      </trkpt>
      <trkpt lat="46.93492" lon="5.86282">
        <ele>487.05</ele>
        <time>2016-06-04T07:57:47Z</time>
      </trkpt>
      <trkpt lat="46.93499" lon="5.86284">
        <ele>486.08</ele>
        <time>2016-06-04T07:57:54Z</time>
      </trkpt>
      <trkpt lat="46.93507" lon="5.8629">
        <ele>487.05</ele>
        <time>2016-06-04T07:58:03Z</time>
      </trkpt>
      <trkpt lat="46.93509" lon="5.86292">
        <ele>488.49</ele>
        <time>2016-06-04T07:58:07Z</time>
      </trkpt>
      <trkpt lat="46.93512" lon="5.86294">
        <ele>489.93</ele>
        <time>2016-06-04T07:58:11Z</time>
      </trkpt>
      <trkpt lat="46.93515" lon="5.86297">
        <ele>490.41</ele>
        <time>2016-06-04T07:58:15Z</time>
      </trkpt>
      <trkpt lat="46.93524" lon="5.86307">
        <ele>492.33</ele>
        <time>2016-06-04T07:58:28Z</time>
      </trkpt>
      <trkpt lat="46.93527" lon="5.86311">
        <ele>493.29</ele>
        <time>2016-06-04T07:58:33Z</time>
      </trkpt>
      <trkpt lat="46.93537" lon="5.86318">
        <ele>493.77</ele>
        <time>2016-06-04T07:58:45Z</time>
      </trkpt>
      <trkpt lat="46.93538" lon="5.86319">
        <ele>493.29</ele>
        <time>2016-06-04T07:58:48Z</time>
      </trkpt>
      <trkpt lat="46.93542" lon="5.86323">
        <ele>494.26</ele>
        <time>2016-06-04T07:58:53Z</time>
      </trkpt>
      <trkpt lat="46.93547" lon="5.86327">
        <ele>495.7</ele>
        <time>2016-06-04T07:58:59Z</time>
      </trkpt>
      <trkpt lat="46.93548" lon="5.86328">
        <ele>496.18</ele>
        <time>2016-06-04T07:59:01Z</time>
      </trkpt>
      <trkpt lat="46.93552" lon="5.86331">
        <ele>497.62</ele>
        <time>2016-06-04T07:59:06Z</time>
      </trkpt>
      <trkpt lat="46.93558" lon="5.86336">
        <ele>498.1</ele>
        <time>2016-06-04T07:59:13Z</time>
      </trkpt>
      <trkpt lat="46.9356" lon="5.86337">
        <ele>498.1</ele>
        <time>2016-06-04T07:59:26Z</time>
      </trkpt>
      <trkpt lat="46.9357" lon="5.86345">
        <ele>499.54</ele>
        <time>2016-06-04T07:59:38Z</time>
      </trkpt>
      <trkpt lat="46.9358" lon="5.86353">
        <ele>500.5</ele>
        <time>2016-06-04T07:59:50Z</time>
      </trkpt>
      <trkpt lat="46.9359" lon="5.86361">
        <ele>500.5</ele>
        <time>2016-06-04T08:00:02Z</time>
      </trkpt>
      <trkpt lat="46.93599" lon="5.86371">
        <ele>500.98</ele>
        <time>2016-06-04T08:00:13Z</time>
      </trkpt>
      <trkpt lat="46.93605" lon="5.86379">
        <ele>502.43</ele>
        <time>2016-06-04T08:00:23Z</time>
      </trkpt>
      <trkpt lat="46.93613" lon="5.86391">
        <ele>503.39</ele>
        <time>2016-06-04T08:00:37Z</time>
      </trkpt>
      <trkpt lat="46.93619" lon="5.86403">
        <ele>503.87</ele>
        <time>2016-06-04T08:00:49Z</time>
      </trkpt>
      <trkpt lat="46.93626" lon="5.86413">
        <ele>505.31</ele>
        <time>2016-06-04T08:00:59Z</time>
      </trkpt>
      <trkpt lat="46.93633" lon="5.86425">
        <ele>506.75</ele>
        <time>2016-06-04T08:01:12Z</time>
      </trkpt>
      <trkpt lat="46.93634" lon="5.86428">
        <ele>508.67</ele>
        <time>2016-06-04T08:01:25Z</time>
      </trkpt>
      <trkpt lat="46.93642" lon="5.8644">
        <ele>509.16</ele>
        <time>2016-06-04T08:01:36Z</time>
      </trkpt>
      <trkpt lat="46.93647" lon="5.86447">
        <ele>510.6</ele>
        <time>2016-06-04T08:01:46Z</time>
      </trkpt>
      <trkpt lat="46.93648" lon="5.86448">
        <ele>510.6</ele>
        <time>2016-06-04T08:02:05Z</time>
      </trkpt>
      <trkpt lat="46.93648" lon="5.86448">
        <ele>512.04</ele>
        <time>2016-06-04T08:02:26Z</time>
      </trkpt>
      <trkpt lat="46.93648" lon="5.86449">
        <ele>512.04</ele>
        <time>2016-06-04T08:02:45Z</time>
      </trkpt>
      <trkpt lat="46.93654" lon="5.86457">
        <ele>512.52</ele>
        <time>2016-06-04T08:02:56Z</time>
      </trkpt>
      <trkpt lat="46.93657" lon="5.8646">
        <ele>513</ele>
        <time>2016-06-04T08:02:59Z</time>
      </trkpt>
      <trkpt lat="46.93667" lon="5.86471">
        <ele>515.88</ele>
        <time>2016-06-04T08:03:11Z</time>
      </trkpt>
      <trkpt lat="46.93675" lon="5.86482">
        <ele>517.33</ele>
        <time>2016-06-04T08:03:23Z</time>
      </trkpt>
      <trkpt lat="46.93681" lon="5.86489">
        <ele>518.77</ele>
        <time>2016-06-04T08:03:31Z</time>
      </trkpt>
      <trkpt lat="46.93689" lon="5.86499">
        <ele>518.29</ele>
        <time>2016-06-04T08:03:42Z</time>
      </trkpt>
      <trkpt lat="46.93693" lon="5.86505">
        <ele>518.29</ele>
        <time>2016-06-04T08:03:48Z</time>
      </trkpt>
      <trkpt lat="46.93697" lon="5.8651">
        <ele>517.81</ele>
        <time>2016-06-04T08:03:57Z</time>
      </trkpt>
      <trkpt lat="46.93704" lon="5.8652">
        <ele>519.25</ele>
        <time>2016-06-04T08:04:07Z</time>
      </trkpt>
      <trkpt lat="46.93707" lon="5.86524">
        <ele>520.21</ele>
        <time>2016-06-04T08:04:11Z</time>
      </trkpt>
      <trkpt lat="46.93714" lon="5.86532">
        <ele>520.21</ele>
        <time>2016-06-04T08:04:22Z</time>
      </trkpt>
      <trkpt lat="46.93722" lon="5.86544">
        <ele>518.29</ele>
        <time>2016-06-04T08:04:35Z</time>
      </trkpt>
      <trkpt lat="46.93724" lon="5.86546">
        <ele>517.81</ele>
        <time>2016-06-04T08:04:42Z</time>
      </trkpt>
      <trkpt lat="46.9373" lon="5.86562">
        <ele>521.17</ele>
        <time>2016-06-04T08:04:54Z</time>
      </trkpt>
      <trkpt lat="46.93736" lon="5.86576">
        <ele>522.13</ele>
        <time>2016-06-04T08:05:07Z</time>
      </trkpt>
      <trkpt lat="46.93741" lon="5.86588">
        <ele>523.58</ele>
        <time>2016-06-04T08:05:19Z</time>
      </trkpt>
      <trkpt lat="46.93742" lon="5.86592">
        <ele>524.54</ele>
        <time>2016-06-04T08:05:23Z</time>
      </trkpt>
      <trkpt lat="46.9375" lon="5.86613">
        <ele>525.5</ele>
        <time>2016-06-04T08:05:37Z</time>
      </trkpt>
      <trkpt lat="46.93755" lon="5.86626">
        <ele>525.02</ele>
        <time>2016-06-04T08:05:50Z</time>
      </trkpt>
      <trkpt lat="46.9376" lon="5.86644">
        <ele>523.58</ele>
        <time>2016-06-04T08:06:03Z</time>
      </trkpt>
      <trkpt lat="46.93766" lon="5.86659">
        <ele>524.06</ele>
        <time>2016-06-04T08:06:16Z</time>
      </trkpt>
      <trkpt lat="46.93768" lon="5.86681">
        <ele>529.34</ele>
        <time>2016-06-04T08:06:32Z</time>
      </trkpt>
      <trkpt lat="46.9377" lon="5.86694">
        <ele>530.79</ele>
        <time>2016-06-04T08:06:44Z</time>
      </trkpt>
      <trkpt lat="46.93771" lon="5.86709">
        <ele>532.23</ele>
        <time>2016-06-04T08:06:57Z</time>
      </trkpt>
      <trkpt lat="46.93776" lon="5.8672">
        <ele>533.19</ele>
        <time>2016-06-04T08:07:10Z</time>
      </trkpt>
      <trkpt lat="46.93781" lon="5.86738">
        <ele>532.23</ele>
        <time>2016-06-04T08:07:26Z</time>
      </trkpt>
      <trkpt lat="46.93786" lon="5.86762">
        <ele>535.11</ele>
        <time>2016-06-04T08:07:43Z</time>
      </trkpt>
      <trkpt lat="46.93791" lon="5.86782">
        <ele>536.55</ele>
        <time>2016-06-04T08:07:58Z</time>
      </trkpt>
      <trkpt lat="46.93796" lon="5.86798">
        <ele>537.51</ele>
        <time>2016-06-04T08:08:11Z</time>
      </trkpt>
      <trkpt lat="46.938" lon="5.86809">
        <ele>538.48</ele>
        <time>2016-06-04T08:08:23Z</time>
      </trkpt>
      <trkpt lat="46.93804" lon="5.8683">
        <ele>540.4</ele>
        <time>2016-06-04T08:08:38Z</time>
      </trkpt>
      <trkpt lat="46.93812" lon="5.86841">
        <ele>540.88</ele>
        <time>2016-06-04T08:08:54Z</time>
      </trkpt>
      <trkpt lat="46.93816" lon="5.86845">
        <ele>543.28</ele>
        <time>2016-06-04T08:09:06Z</time>
      </trkpt>
      <trkpt lat="46.93817" lon="5.86848">
        <ele>545.2</ele>
        <time>2016-06-04T08:09:24Z</time>
      </trkpt>
      <trkpt lat="46.93817" lon="5.86848">
        <ele>546.17</ele>
        <time>2016-06-04T08:09:44Z</time>
      </trkpt>
      <trkpt lat="46.93817" lon="5.86848">
        <ele>546.65</ele>
        <time>2016-06-04T08:10:00Z</time>
      </trkpt>
      <trkpt lat="46.93816" lon="5.86849">
        <ele>547.13</ele>
        <time>2016-06-04T08:10:19Z</time>
      </trkpt>
      <trkpt lat="46.93816" lon="5.86849">
        <ele>547.13</ele>
        <time>2016-06-04T08:10:35Z</time>
      </trkpt>
      <trkpt lat="46.93816" lon="5.86849">
        <ele>547.13</ele>
        <time>2016-06-04T08:10:53Z</time>
      </trkpt>
      <trkpt lat="46.93817" lon="5.86849">
        <ele>547.61</ele>
        <time>2016-06-04T08:11:07Z</time>
      </trkpt>
      <trkpt lat="46.93819" lon="5.86848">
        <ele>548.09</ele>
        <time>2016-06-04T08:11:26Z</time>
      </trkpt>
      <trkpt lat="46.93819" lon="5.86848">
        <ele>547.61</ele>
        <time>2016-06-04T08:11:41Z</time>
      </trkpt>
      <trkpt lat="46.93819" lon="5.86848">
        <ele>547.61</ele>
        <time>2016-06-04T08:11:56Z</time>
      </trkpt>
      <trkpt lat="46.93819" lon="5.86848">
        <ele>547.61</ele>
        <time>2016-06-04T08:12:11Z</time>
      </trkpt>
      <trkpt lat="46.93818" lon="5.86847">
        <ele>547.61</ele>
        <time>2016-06-04T08:12:25Z</time>
      </trkpt>
      <trkpt lat="46.93817" lon="5.86848">
        <ele>547.61</ele>
        <time>2016-06-04T08:12:44Z</time>
      </trkpt>
      <trkpt lat="46.93817" lon="5.86848">
        <ele>547.13</ele>
        <time>2016-06-04T08:13:03Z</time>
      </trkpt>
      <trkpt lat="46.93817" lon="5.86848">
        <ele>546.65</ele>
        <time>2016-06-04T08:13:20Z</time>
      </trkpt>
      <trkpt lat="46.93817" lon="5.86848">
        <ele>546.65</ele>
        <time>2016-06-04T08:13:38Z</time>
      </trkpt>
      <trkpt lat="46.93817" lon="5.86849">
        <ele>546.17</ele>
        <time>2016-06-04T08:13:56Z</time>
      </trkpt>
      <trkpt lat="46.93817" lon="5.86848">
        <ele>546.65</ele>
        <time>2016-06-04T08:14:17Z</time>
      </trkpt>
      <trkpt lat="46.93817" lon="5.86848">
        <ele>546.17</ele>
        <time>2016-06-04T08:14:34Z</time>
      </trkpt>
      <trkpt lat="46.93818" lon="5.86848">
        <ele>546.17</ele>
        <time>2016-06-04T08:14:55Z</time>
      </trkpt>
      <trkpt lat="46.93818" lon="5.86848">
        <ele>546.65</ele>
        <time>2016-06-04T08:15:16Z</time>
      </trkpt>
      <trkpt lat="46.93822" lon="5.86854">
        <ele>547.61</ele>
        <time>2016-06-04T08:15:28Z</time>
      </trkpt>
      <trkpt lat="46.93832" lon="5.86869">
        <ele>548.57</ele>
        <time>2016-06-04T08:15:42Z</time>
      </trkpt>
      <trkpt lat="46.9384" lon="5.8689">
        <ele>552.41</ele>
        <time>2016-06-04T08:15:57Z</time>
      </trkpt>
      <trkpt lat="46.93846" lon="5.86905">
        <ele>553.86</ele>
        <time>2016-06-04T08:16:11Z</time>
      </trkpt>
      <trkpt lat="46.93852" lon="5.86914">
        <ele>553.86</ele>
        <time>2016-06-04T08:16:24Z</time>
      </trkpt>
      <trkpt lat="46.93859" lon="5.86931">
        <ele>555.3</ele>
        <time>2016-06-04T08:16:36Z</time>
      </trkpt>
      <trkpt lat="46.93866" lon="5.86937">
        <ele>554.82</ele>
        <time>2016-06-04T08:16:48Z</time>
      </trkpt>
      <trkpt lat="46.93876" lon="5.86943">
        <ele>552.9</ele>
        <time>2016-06-04T08:17:03Z</time>
      </trkpt>
      <trkpt lat="46.93884" lon="5.86952">
        <ele>553.38</ele>
        <time>2016-06-04T08:17:14Z</time>
      </trkpt>
      <trkpt lat="46.93891" lon="5.86958">
        <ele>556.26</ele>
        <time>2016-06-04T08:17:28Z</time>
      </trkpt>
      <trkpt lat="46.93908" lon="5.86964">
        <ele>554.34</ele>
        <time>2016-06-04T08:17:44Z</time>
      </trkpt>
      <trkpt lat="46.93918" lon="5.86961">
        <ele>556.26</ele>
        <time>2016-06-04T08:17:58Z</time>
      </trkpt>
      <trkpt lat="46.93925" lon="5.86952">
        <ele>557.22</ele>
        <time>2016-06-04T08:18:11Z</time>
      </trkpt>
      <trkpt lat="46.93931" lon="5.86951">
        <ele>558.18</ele>
        <time>2016-06-04T08:18:23Z</time>
      </trkpt>
      <trkpt lat="46.93935" lon="5.8695">
        <ele>560.59</ele>
        <time>2016-06-04T08:18:43Z</time>
      </trkpt>
      <trkpt lat="46.93934" lon="5.86951">
        <ele>562.03</ele>
        <time>2016-06-04T08:19:09Z</time>
      </trkpt>
      <trkpt lat="46.93932" lon="5.86948">
        <ele>561.55</ele>
        <time>2016-06-04T08:19:33Z</time>
      </trkpt>
      <trkpt lat="46.93932" lon="5.86949">
        <ele>563.47</ele>
        <time>2016-06-04T08:19:58Z</time>
      </trkpt>
      <trkpt lat="46.9393" lon="5.8695">
        <ele>564.43</ele>
        <time>2016-06-04T08:20:21Z</time>
      </trkpt>
      <trkpt lat="46.93927" lon="5.86948">
        <ele>565.87</ele>
        <time>2016-06-04T08:20:28Z</time>
      </trkpt>
      <trkpt lat="46.93926" lon="5.86938">
        <ele>565.87</ele>
        <time>2016-06-04T08:20:39Z</time>
      </trkpt>
      <trkpt lat="46.93928" lon="5.86927">
        <ele>564.43</ele>
        <time>2016-06-04T08:20:49Z</time>
      </trkpt>
      <trkpt lat="46.93933" lon="5.86905">
        <ele>564.43</ele>
        <time>2016-06-04T08:20:59Z</time>
      </trkpt>
      <trkpt lat="46.93938" lon="5.86886">
        <ele>565.87</ele>
        <time>2016-06-04T08:21:11Z</time>
      </trkpt>
      <trkpt lat="46.93945" lon="5.86875">
        <ele>565.87</ele>
        <time>2016-06-04T08:21:22Z</time>
      </trkpt>
      <trkpt lat="46.93953" lon="5.8686">
        <ele>568.28</ele>
        <time>2016-06-04T08:21:35Z</time>
      </trkpt>
      <trkpt lat="46.93955" lon="5.86854">
        <ele>568.76</ele>
        <time>2016-06-04T08:21:40Z</time>
      </trkpt>
      <trkpt lat="46.93962" lon="5.86847">
        <ele>568.76</ele>
        <time>2016-06-04T08:21:51Z</time>
      </trkpt>
      <trkpt lat="46.93972" lon="5.86843">
        <ele>567.32</ele>
        <time>2016-06-04T08:22:03Z</time>
      </trkpt>
      <trkpt lat="46.93977" lon="5.86838">
        <ele>569.24</ele>
        <time>2016-06-04T08:22:19Z</time>
      </trkpt>
      <trkpt lat="46.93979" lon="5.86838">
        <ele>569.24</ele>
        <time>2016-06-04T08:22:37Z</time>
      </trkpt>
      <trkpt lat="46.93978" lon="5.86829">
        <ele>569.24</ele>
        <time>2016-06-04T08:22:51Z</time>
      </trkpt>
      <trkpt lat="46.93977" lon="5.86821">
        <ele>571.64</ele>
        <time>2016-06-04T08:22:58Z</time>
      </trkpt>
      <trkpt lat="46.93967" lon="5.86799">
        <ele>575.97</ele>
        <time>2016-06-04T08:23:13Z</time>
      </trkpt>
      <trkpt lat="46.9396" lon="5.86787">
        <ele>577.41</ele>
        <time>2016-06-04T08:23:26Z</time>
      </trkpt>
      <trkpt lat="46.9396" lon="5.86773">
        <ele>575.97</ele>
        <time>2016-06-04T08:23:38Z</time>
      </trkpt>
      <trkpt lat="46.93957" lon="5.86756">
        <ele>573.08</ele>
        <time>2016-06-04T08:23:50Z</time>
      </trkpt>
      <trkpt lat="46.9395" lon="5.8674">
        <ele>573.56</ele>
        <time>2016-06-04T08:24:04Z</time>
      </trkpt>
      <trkpt lat="46.93946" lon="5.86723">
        <ele>571.16</ele>
        <time>2016-06-04T08:24:17Z</time>
      </trkpt>
      <trkpt lat="46.93938" lon="5.86702">
        <ele>572.12</ele>
        <time>2016-06-04T08:24:27Z</time>
      </trkpt>
      <trkpt lat="46.93933" lon="5.86682">
        <ele>572.12</ele>
        <time>2016-06-04T08:24:40Z</time>
      </trkpt>
      <trkpt lat="46.93932" lon="5.8667">
        <ele>571.16</ele>
        <time>2016-06-04T08:24:52Z</time>
      </trkpt>
      <trkpt lat="46.9393" lon="5.86662">
        <ele>571.16</ele>
        <time>2016-06-04T08:24:56Z</time>
      </trkpt>
      <trkpt lat="46.9392" lon="5.86639">
        <ele>575.49</ele>
        <time>2016-06-04T08:25:10Z</time>
      </trkpt>
      <trkpt lat="46.93918" lon="5.86623">
        <ele>574.53</ele>
        <time>2016-06-04T08:25:26Z</time>
      </trkpt>
      <trkpt lat="46.93916" lon="5.86615">
        <ele>575.97</ele>
        <time>2016-06-04T08:25:38Z</time>
      </trkpt>
      <trkpt lat="46.93916" lon="5.86604">
        <ele>576.93</ele>
        <time>2016-06-04T08:25:53Z</time>
      </trkpt>
      <trkpt lat="46.93912" lon="5.86584">
        <ele>581.25</ele>
        <time>2016-06-04T08:26:06Z</time>
      </trkpt>
      <trkpt lat="46.93896" lon="5.86558">
        <ele>585.58</ele>
        <time>2016-06-04T08:26:19Z</time>
      </trkpt>
      <trkpt lat="46.93894" lon="5.86545">
        <ele>587.5</ele>
        <time>2016-06-04T08:26:33Z</time>
      </trkpt>
      <trkpt lat="46.93894" lon="5.86537">
        <ele>586.54</ele>
        <time>2016-06-04T08:26:46Z</time>
      </trkpt>
      <trkpt lat="46.93894" lon="5.86526">
        <ele>585.1</ele>
        <time>2016-06-04T08:26:59Z</time>
      </trkpt>
      <trkpt lat="46.93892" lon="5.86509">
        <ele>587.5</ele>
        <time>2016-06-04T08:27:12Z</time>
      </trkpt>
      <trkpt lat="46.93894" lon="5.86499">
        <ele>586.06</ele>
        <time>2016-06-04T08:27:26Z</time>
      </trkpt>
      <trkpt lat="46.93896" lon="5.86489">
        <ele>584.62</ele>
        <time>2016-06-04T08:27:40Z</time>
      </trkpt>
      <trkpt lat="46.93896" lon="5.86474">
        <ele>585.1</ele>
        <time>2016-06-04T08:27:55Z</time>
      </trkpt>
      <trkpt lat="46.93895" lon="5.86467">
        <ele>583.66</ele>
        <time>2016-06-04T08:28:07Z</time>
      </trkpt>
      <trkpt lat="46.93894" lon="5.86457">
        <ele>579.33</ele>
        <time>2016-06-04T08:28:20Z</time>
      </trkpt>
      <trkpt lat="46.93889" lon="5.86429">
        <ele>577.41</ele>
        <time>2016-06-04T08:28:33Z</time>
      </trkpt>
      <trkpt lat="46.93887" lon="5.86423">
        <ele>576.93</ele>
        <time>2016-06-04T08:28:38Z</time>
      </trkpt>
      <trkpt lat="46.93885" lon="5.86408">
        <ele>576.93</ele>
        <time>2016-06-04T08:28:49Z</time>
      </trkpt>
      <trkpt lat="46.9388" lon="5.86396">
        <ele>579.33</ele>
        <time>2016-06-04T08:29:06Z</time>
      </trkpt>
      <trkpt lat="46.93877" lon="5.86379">
        <ele>581.25</ele>
        <time>2016-06-04T08:29:18Z</time>
      </trkpt>
      <trkpt lat="46.93874" lon="5.86375">
        <ele>583.18</ele>
        <time>2016-06-04T08:29:38Z</time>
      </trkpt>
      <trkpt lat="46.93874" lon="5.86373">
        <ele>583.66</ele>
        <time>2016-06-04T08:30:10Z</time>
      </trkpt>
      <trkpt lat="46.93871" lon="5.86367">
        <ele>586.06</ele>
        <time>2016-06-04T08:30:35Z</time>
      </trkpt>
      <trkpt lat="46.9387" lon="5.86363">
        <ele>587.02</ele>
        <time>2016-06-04T08:30:55Z</time>
      </trkpt>
      <trkpt lat="46.9387" lon="5.86359">
        <ele>587.98</ele>
        <time>2016-06-04T08:31:21Z</time>
      </trkpt>
      <trkpt lat="46.93871" lon="5.86341">
        <ele>589.91</ele>
        <time>2016-06-04T08:31:37Z</time>
      </trkpt>
      <trkpt lat="46.93874" lon="5.86328">
        <ele>589.91</ele>
        <time>2016-06-04T08:31:51Z</time>
      </trkpt>
      <trkpt lat="46.93878" lon="5.86321">
        <ele>588.46</ele>
        <time>2016-06-04T08:32:03Z</time>
      </trkpt>
      <trkpt lat="46.93879" lon="5.86314">
        <ele>587.02</ele>
        <time>2016-06-04T08:32:20Z</time>
      </trkpt>
      <trkpt lat="46.93879" lon="5.86288">
        <ele>583.18</ele>
        <time>2016-06-04T08:32:33Z</time>
      </trkpt>
      <trkpt lat="46.93879" lon="5.86278">
        <ele>581.73</ele>
        <time>2016-06-04T08:32:49Z</time>
      </trkpt>
      <trkpt lat="46.93877" lon="5.86258">
        <ele>577.41</ele>
        <time>2016-06-04T08:33:02Z</time>
      </trkpt>
      <trkpt lat="46.93878" lon="5.86249">
        <ele>573.56</ele>
        <time>2016-06-04T08:33:12Z</time>
      </trkpt>
      <trkpt lat="46.93878" lon="5.86233">
        <ele>571.64</ele>
        <time>2016-06-04T08:33:23Z</time>
      </trkpt>
      <trkpt lat="46.93878" lon="5.86231">
        <ele>571.64</ele>
        <time>2016-06-04T08:33:24Z</time>
      </trkpt>
      <trkpt lat="46.93875" lon="5.86214">
        <ele>569.72</ele>
        <time>2016-06-04T08:33:36Z</time>
      </trkpt>
      <trkpt lat="46.9387" lon="5.86199">
        <ele>565.39</ele>
        <time>2016-06-04T08:33:48Z</time>
      </trkpt>
      <trkpt lat="46.93864" lon="5.86184">
        <ele>562.03</ele>
        <time>2016-06-04T08:34:01Z</time>
      </trkpt>
      <trkpt lat="46.93865" lon="5.8618">
        <ele>562.03</ele>
        <time>2016-06-04T08:34:11Z</time>
      </trkpt>
      <trkpt lat="46.93865" lon="5.86174">
        <ele>562.51</ele>
        <time>2016-06-04T08:34:23Z</time>
      </trkpt>
      <trkpt lat="46.93863" lon="5.86167">
        <ele>562.51</ele>
        <time>2016-06-04T08:34:32Z</time>
      </trkpt>
      <trkpt lat="46.93859" lon="5.86141">
        <ele>562.03</ele>
        <time>2016-06-04T08:34:43Z</time>
      </trkpt>
      <trkpt lat="46.93857" lon="5.86125">
        <ele>561.55</ele>
        <time>2016-06-04T08:34:55Z</time>
      </trkpt>
      <trkpt lat="46.93875" lon="5.86132">
        <ele>553.86</ele>
        <time>2016-06-04T08:35:08Z</time>
      </trkpt>
      <trkpt lat="46.93885" lon="5.86141">
        <ele>550.01</ele>
        <time>2016-06-04T08:35:18Z</time>
      </trkpt>
      <trkpt lat="46.93894" lon="5.86153">
        <ele>549.53</ele>
        <time>2016-06-04T08:35:31Z</time>
      </trkpt>
      <trkpt lat="46.93904" lon="5.86166">
        <ele>547.61</ele>
        <time>2016-06-04T08:35:44Z</time>
      </trkpt>
      <trkpt lat="46.93911" lon="5.86175">
        <ele>548.57</ele>
        <time>2016-06-04T08:35:51Z</time>
      </trkpt>
      <trkpt lat="46.93916" lon="5.86184">
        <ele>548.57</ele>
        <time>2016-06-04T08:35:59Z</time>
      </trkpt>
      <trkpt lat="46.93924" lon="5.86195">
        <ele>549.53</ele>
        <time>2016-06-04T08:36:11Z</time>
      </trkpt>
      <trkpt lat="46.93928" lon="5.86204">
        <ele>548.57</ele>
        <time>2016-06-04T08:36:24Z</time>
      </trkpt>
      <trkpt lat="46.93931" lon="5.86213">
        <ele>543.28</ele>
        <time>2016-06-04T08:36:43Z</time>
      </trkpt>
      <trkpt lat="46.93938" lon="5.86226">
        <ele>536.07</ele>
        <time>2016-06-04T08:36:56Z</time>
      </trkpt>
      <trkpt lat="46.93945" lon="5.86233">
        <ele>535.11</ele>
        <time>2016-06-04T08:37:07Z</time>
      </trkpt>
      <trkpt lat="46.93961" lon="5.86245">
        <ele>536.07</ele>
        <time>2016-06-04T08:37:21Z</time>
      </trkpt>
      <trkpt lat="46.93978" lon="5.86255">
        <ele>535.11</ele>
        <time>2016-06-04T08:37:34Z</time>
      </trkpt>
      <trkpt lat="46.93989" lon="5.86263">
        <ele>533.19</ele>
        <time>2016-06-04T08:37:45Z</time>
      </trkpt>
      <trkpt lat="46.93999" lon="5.86265">
        <ele>531.75</ele>
        <time>2016-06-04T08:37:56Z</time>
      </trkpt>
      <trkpt lat="46.94002" lon="5.86264">
        <ele>531.75</ele>
        <time>2016-06-04T08:37:59Z</time>
      </trkpt>
      <trkpt lat="46.94005" lon="5.86263">
        <ele>530.79</ele>
        <time>2016-06-04T08:38:03Z</time>
      </trkpt>
      <trkpt lat="46.94018" lon="5.86254">
        <ele>527.9</ele>
        <time>2016-06-04T08:38:18Z</time>
      </trkpt>
      <trkpt lat="46.94029" lon="5.86246">
        <ele>524.54</ele>
        <time>2016-06-04T08:38:33Z</time>
      </trkpt>
      <trkpt lat="46.94038" lon="5.86243">
        <ele>521.65</ele>
        <time>2016-06-04T08:38:47Z</time>
      </trkpt>
      <trkpt lat="46.94051" lon="5.86242">
        <ele>519.73</ele>
        <time>2016-06-04T08:39:01Z</time>
      </trkpt>
      <trkpt lat="46.94064" lon="5.86237">
        <ele>518.77</ele>
        <time>2016-06-04T08:39:16Z</time>
      </trkpt>
      <trkpt lat="46.94075" lon="5.8623">
        <ele>515.88</ele>
        <time>2016-06-04T08:39:29Z</time>
      </trkpt>
      <trkpt lat="46.94083" lon="5.86222">
        <ele>512.52</ele>
        <time>2016-06-04T08:39:45Z</time>
      </trkpt>
      <trkpt lat="46.94088" lon="5.86217">
        <ele>512.52</ele>
        <time>2016-06-04T08:39:59Z</time>
      </trkpt>
      <trkpt lat="46.94089" lon="5.86212">
        <ele>511.56</ele>
        <time>2016-06-04T08:40:07Z</time>
      </trkpt>
      <trkpt lat="46.94099" lon="5.86206">
        <ele>508.67</ele>
        <time>2016-06-04T08:40:20Z</time>
      </trkpt>
      <trkpt lat="46.94104" lon="5.86203">
        <ele>506.27</ele>
        <time>2016-06-04T08:40:33Z</time>
      </trkpt>
      <trkpt lat="46.94119" lon="5.86205">
        <ele>503.87</ele>
        <time>2016-06-04T08:40:47Z</time>
      </trkpt>
      <trkpt lat="46.94135" lon="5.86205">
        <ele>503.39</ele>
        <time>2016-06-04T08:40:59Z</time>
      </trkpt>
      <trkpt lat="46.9414" lon="5.86204">
        <ele>502.43</ele>
        <time>2016-06-04T08:41:03Z</time>
      </trkpt>
      <trkpt lat="46.9415" lon="5.862">
        <ele>501.95</ele>
        <time>2016-06-04T08:41:13Z</time>
      </trkpt>
      <trkpt lat="46.94166" lon="5.86205">
        <ele>499.54</ele>
        <time>2016-06-04T08:41:28Z</time>
      </trkpt>
      <trkpt lat="46.94182" lon="5.86203">
        <ele>499.54</ele>
        <time>2016-06-04T08:41:42Z</time>
      </trkpt>
      <trkpt lat="46.94182" lon="5.86202">
        <ele>500.98</ele>
        <time>2016-06-04T08:41:56Z</time>
      </trkpt>
      <trkpt lat="46.94184" lon="5.86207">
        <ele>501.95</ele>
        <time>2016-06-04T08:42:14Z</time>
      </trkpt>
      <trkpt lat="46.94185" lon="5.86207">
        <ele>503.87</ele>
        <time>2016-06-04T08:47:12Z</time>
      </trkpt>
      <trkpt lat="46.94183" lon="5.86203">
        <ele>502.43</ele>
        <time>2016-06-04T08:47:23Z</time>
      </trkpt>
      <trkpt lat="46.94183" lon="5.86202">
        <ele>501.95</ele>
        <time>2016-06-04T08:47:35Z</time>
      </trkpt>
      <trkpt lat="46.94186" lon="5.862">
        <ele>500.5</ele>
        <time>2016-06-04T08:47:50Z</time>
      </trkpt>
      <trkpt lat="46.94187" lon="5.86191">
        <ele>501.95</ele>
        <time>2016-06-04T08:48:03Z</time>
      </trkpt>
      <trkpt lat="46.94188" lon="5.86185">
        <ele>502.91</ele>
        <time>2016-06-04T08:48:09Z</time>
      </trkpt>
      <trkpt lat="46.94188" lon="5.86182">
        <ele>502.91</ele>
        <time>2016-06-04T08:48:11Z</time>
      </trkpt>
      <trkpt lat="46.94192" lon="5.86172">
        <ele>504.35</ele>
        <time>2016-06-04T08:48:22Z</time>
      </trkpt>
      <trkpt lat="46.94193" lon="5.86169">
        <ele>506.27</ele>
        <time>2016-06-04T08:48:35Z</time>
      </trkpt>
      <trkpt lat="46.94193" lon="5.86167">
        <ele>507.23</ele>
        <time>2016-06-04T08:48:49Z</time>
      </trkpt>
      <trkpt lat="46.94191" lon="5.86161">
        <ele>509.16</ele>
        <time>2016-06-04T08:48:59Z</time>
      </trkpt>
      <trkpt lat="46.9419" lon="5.86148">
        <ele>512.52</ele>
        <time>2016-06-04T08:49:12Z</time>
      </trkpt>
      <trkpt lat="46.94192" lon="5.8614">
        <ele>513</ele>
        <time>2016-06-04T08:49:26Z</time>
      </trkpt>
      <trkpt lat="46.94196" lon="5.8613">
        <ele>514.44</ele>
        <time>2016-06-04T08:49:37Z</time>
      </trkpt>
      <trkpt lat="46.94197" lon="5.86123">
        <ele>516.85</ele>
        <time>2016-06-04T08:49:50Z</time>
      </trkpt>
      <trkpt lat="46.94199" lon="5.86112">
        <ele>519.25</ele>
        <time>2016-06-04T08:50:00Z</time>
      </trkpt>
      <trkpt lat="46.942" lon="5.86107">
        <ele>521.65</ele>
        <time>2016-06-04T08:50:13Z</time>
      </trkpt>
      <trkpt lat="46.94201" lon="5.861">
        <ele>523.58</ele>
        <time>2016-06-04T08:50:23Z</time>
      </trkpt>
      <trkpt lat="46.94203" lon="5.86095">
        <ele>525.02</ele>
        <time>2016-06-04T08:50:34Z</time>
      </trkpt>
      <trkpt lat="46.94203" lon="5.86087">
        <ele>527.42</ele>
        <time>2016-06-04T08:50:45Z</time>
      </trkpt>
      <trkpt lat="46.94202" lon="5.86082">
        <ele>528.86</ele>
        <time>2016-06-04T08:50:56Z</time>
      </trkpt>
      <trkpt lat="46.94202" lon="5.86074">
        <ele>529.34</ele>
        <time>2016-06-04T08:51:08Z</time>
      </trkpt>
      <trkpt lat="46.94201" lon="5.86071">
        <ele>529.82</ele>
        <time>2016-06-04T08:51:18Z</time>
      </trkpt>
      <trkpt lat="46.94203" lon="5.86066">
        <ele>530.79</ele>
        <time>2016-06-04T08:51:28Z</time>
      </trkpt>
      <trkpt lat="46.94205" lon="5.86062">
        <ele>530.79</ele>
        <time>2016-06-04T08:51:43Z</time>
      </trkpt>
      <trkpt lat="46.94207" lon="5.86063">
        <ele>531.27</ele>
        <time>2016-06-04T08:51:54Z</time>
      </trkpt>
      <trkpt lat="46.94209" lon="5.86057">
        <ele>533.19</ele>
        <time>2016-06-04T08:52:07Z</time>
      </trkpt>
      <trkpt lat="46.94211" lon="5.86049">
        <ele>533.67</ele>
        <time>2016-06-04T08:52:19Z</time>
      </trkpt>
      <trkpt lat="46.9421" lon="5.86045">
        <ele>534.63</ele>
        <time>2016-06-04T08:52:24Z</time>
      </trkpt>
      <trkpt lat="46.94211" lon="5.86038">
        <ele>534.63</ele>
        <time>2016-06-04T08:52:36Z</time>
      </trkpt>
      <trkpt lat="46.94213" lon="5.8603">
        <ele>535.11</ele>
        <time>2016-06-04T08:52:49Z</time>
      </trkpt>
      <trkpt lat="46.94215" lon="5.86026">
        <ele>536.07</ele>
        <time>2016-06-04T08:53:04Z</time>
      </trkpt>
      <trkpt lat="46.94219" lon="5.86024">
        <ele>535.59</ele>
        <time>2016-06-04T08:53:19Z</time>
      </trkpt>
      <trkpt lat="46.94222" lon="5.86026">
        <ele>536.07</ele>
        <time>2016-06-04T08:53:33Z</time>
      </trkpt>
      <trkpt lat="46.94224" lon="5.86028">
        <ele>538.48</ele>
        <time>2016-06-04T08:53:46Z</time>
      </trkpt>
      <trkpt lat="46.94228" lon="5.86029">
        <ele>539.92</ele>
        <time>2016-06-04T08:54:00Z</time>
      </trkpt>
      <trkpt lat="46.94231" lon="5.86032">
        <ele>539.92</ele>
        <time>2016-06-04T08:54:18Z</time>
      </trkpt>
      <trkpt lat="46.94234" lon="5.86036">
        <ele>542.32</ele>
        <time>2016-06-04T08:54:28Z</time>
      </trkpt>
      <trkpt lat="46.9424" lon="5.86038">
        <ele>545.2</ele>
        <time>2016-06-04T08:54:41Z</time>
      </trkpt>
      <trkpt lat="46.94241" lon="5.86043">
        <ele>548.09</ele>
        <time>2016-06-04T08:54:54Z</time>
      </trkpt>
      <trkpt lat="46.94245" lon="5.86044">
        <ele>550.01</ele>
        <time>2016-06-04T08:55:09Z</time>
      </trkpt>
      <trkpt lat="46.94249" lon="5.86043">
        <ele>551.45</ele>
        <time>2016-06-04T08:55:23Z</time>
      </trkpt>
      <trkpt lat="46.94254" lon="5.86041">
        <ele>553.38</ele>
        <time>2016-06-04T08:55:38Z</time>
      </trkpt>
      <trkpt lat="46.94259" lon="5.86036">
        <ele>555.78</ele>
        <time>2016-06-04T08:55:50Z</time>
      </trkpt>
      <trkpt lat="46.94259" lon="5.86032">
        <ele>557.22</ele>
        <time>2016-06-04T08:56:13Z</time>
      </trkpt>
      <trkpt lat="46.94258" lon="5.86019">
        <ele>560.59</ele>
        <time>2016-06-04T08:56:31Z</time>
      </trkpt>
      <trkpt lat="46.94257" lon="5.86006">
        <ele>566.83</ele>
        <time>2016-06-04T08:56:47Z</time>
      </trkpt>
      <trkpt lat="46.94257" lon="5.86001">
        <ele>568.76</ele>
        <time>2016-06-04T08:57:02Z</time>
      </trkpt>
      <trkpt lat="46.94261" lon="5.85986">
        <ele>570.68</ele>
        <time>2016-06-04T08:57:19Z</time>
      </trkpt>
      <trkpt lat="46.94259" lon="5.85968">
        <ele>574.53</ele>
        <time>2016-06-04T08:57:35Z</time>
      </trkpt>
      <trkpt lat="46.9426" lon="5.8596">
        <ele>576.93</ele>
        <time>2016-06-04T08:57:48Z</time>
      </trkpt>
      <trkpt lat="46.9426" lon="5.85955">
        <ele>577.89</ele>
        <time>2016-06-04T08:58:04Z</time>
      </trkpt>
      <trkpt lat="46.94261" lon="5.85951">
        <ele>578.37</ele>
        <time>2016-06-04T08:58:19Z</time>
      </trkpt>
      <trkpt lat="46.94263" lon="5.85943">
        <ele>578.37</ele>
        <time>2016-06-04T08:58:34Z</time>
      </trkpt>
      <trkpt lat="46.94265" lon="5.85938">
        <ele>578.37</ele>
        <time>2016-06-04T08:58:46Z</time>
      </trkpt>
      <trkpt lat="46.94266" lon="5.85937">
        <ele>578.85</ele>
        <time>2016-06-04T08:58:48Z</time>
      </trkpt>
      <trkpt lat="46.94264" lon="5.85923">
        <ele>580.29</ele>
        <time>2016-06-04T08:59:00Z</time>
      </trkpt>
      <trkpt lat="46.94263" lon="5.85913">
        <ele>582.22</ele>
        <time>2016-06-04T08:59:14Z</time>
      </trkpt>
      <trkpt lat="46.94265" lon="5.85905">
        <ele>585.58</ele>
        <time>2016-06-04T08:59:28Z</time>
      </trkpt>
      <trkpt lat="46.94266" lon="5.85899">
        <ele>588.95</ele>
        <time>2016-06-04T08:59:40Z</time>
      </trkpt>
      <trkpt lat="46.94266" lon="5.85894">
        <ele>590.39</ele>
        <time>2016-06-04T08:59:52Z</time>
      </trkpt>
      <trkpt lat="46.94266" lon="5.85882">
        <ele>591.35</ele>
        <time>2016-06-04T09:00:01Z</time>
      </trkpt>
      <trkpt lat="46.94266" lon="5.85873">
        <ele>590.87</ele>
        <time>2016-06-04T09:00:12Z</time>
      </trkpt>
      <trkpt lat="46.94269" lon="5.85866">
        <ele>589.91</ele>
        <time>2016-06-04T09:00:22Z</time>
      </trkpt>
      <trkpt lat="46.94269" lon="5.85854">
        <ele>588.95</ele>
        <time>2016-06-04T09:00:36Z</time>
      </trkpt>
      <trkpt lat="46.94272" lon="5.85832">
        <ele>589.43</ele>
        <time>2016-06-04T09:00:52Z</time>
      </trkpt>
      <trkpt lat="46.94271" lon="5.85816">
        <ele>593.75</ele>
        <time>2016-06-04T09:01:07Z</time>
      </trkpt>
      <trkpt lat="46.94271" lon="5.85803">
        <ele>596.15</ele>
        <time>2016-06-04T09:01:19Z</time>
      </trkpt>
      <trkpt lat="46.94271" lon="5.85797">
        <ele>597.12</ele>
        <time>2016-06-04T09:01:32Z</time>
      </trkpt>
      <trkpt lat="46.94271" lon="5.85787">
        <ele>598.08</ele>
        <time>2016-06-04T09:01:44Z</time>
      </trkpt>
      <trkpt lat="46.94271" lon="5.85774">
        <ele>598.08</ele>
        <time>2016-06-04T09:01:53Z</time>
      </trkpt>
      <trkpt lat="46.94272" lon="5.85761">
        <ele>596.64</ele>
        <time>2016-06-04T09:02:03Z</time>
      </trkpt>
      <trkpt lat="46.94272" lon="5.85751">
        <ele>595.67</ele>
        <time>2016-06-04T09:02:14Z</time>
      </trkpt>
      <trkpt lat="46.94272" lon="5.85743">
        <ele>595.19</ele>
        <time>2016-06-04T09:02:25Z</time>
      </trkpt>
      <trkpt lat="46.94269" lon="5.85725">
        <ele>596.15</ele>
        <time>2016-06-04T09:02:38Z</time>
      </trkpt>
      <trkpt lat="46.94266" lon="5.85704">
        <ele>595.67</ele>
        <time>2016-06-04T09:02:52Z</time>
      </trkpt>
      <trkpt lat="46.94261" lon="5.85686">
        <ele>596.15</ele>
        <time>2016-06-04T09:03:03Z</time>
      </trkpt>
      <trkpt lat="46.94259" lon="5.85665">
        <ele>595.67</ele>
        <time>2016-06-04T09:03:14Z</time>
      </trkpt>
      <trkpt lat="46.94259" lon="5.85655">
        <ele>593.75</ele>
        <time>2016-06-04T09:03:26Z</time>
      </trkpt>
      <trkpt lat="46.9426" lon="5.85633">
        <ele>588.46</ele>
        <time>2016-06-04T09:03:38Z</time>
      </trkpt>
      <trkpt lat="46.94261" lon="5.85621">
        <ele>587.98</ele>
        <time>2016-06-04T09:03:52Z</time>
      </trkpt>
      <trkpt lat="46.94263" lon="5.85602">
        <ele>587.5</ele>
        <time>2016-06-04T09:04:03Z</time>
      </trkpt>
      <trkpt lat="46.94266" lon="5.85592">
        <ele>586.06</ele>
        <time>2016-06-04T09:04:17Z</time>
      </trkpt>
      <trkpt lat="46.94267" lon="5.85584">
        <ele>585.58</ele>
        <time>2016-06-04T09:04:29Z</time>
      </trkpt>
      <trkpt lat="46.94268" lon="5.85571">
        <ele>588.46</ele>
        <time>2016-06-04T09:04:41Z</time>
      </trkpt>
      <trkpt lat="46.94265" lon="5.85558">
        <ele>593.27</ele>
        <time>2016-06-04T09:04:55Z</time>
      </trkpt>
      <trkpt lat="46.94263" lon="5.85544">
        <ele>597.12</ele>
        <time>2016-06-04T09:05:08Z</time>
      </trkpt>
      <trkpt lat="46.94262" lon="5.85533">
        <ele>600</ele>
        <time>2016-06-04T09:05:21Z</time>
      </trkpt>
      <trkpt lat="46.9426" lon="5.85518">
        <ele>600.96</ele>
        <time>2016-06-04T09:05:33Z</time>
      </trkpt>
      <trkpt lat="46.9426" lon="5.85506">
        <ele>602.88</ele>
        <time>2016-06-04T09:05:44Z</time>
      </trkpt>
      <trkpt lat="46.94255" lon="5.85492">
        <ele>605.77</ele>
        <time>2016-06-04T09:05:54Z</time>
      </trkpt>
      <trkpt lat="46.94255" lon="5.85478">
        <ele>605.77</ele>
        <time>2016-06-04T09:06:07Z</time>
      </trkpt>
      <trkpt lat="46.94255" lon="5.85459">
        <ele>602.88</ele>
        <time>2016-06-04T09:06:20Z</time>
      </trkpt>
      <trkpt lat="46.94259" lon="5.85447">
        <ele>601.92</ele>
        <time>2016-06-04T09:06:32Z</time>
      </trkpt>
      <trkpt lat="46.94261" lon="5.85439">
        <ele>603.36</ele>
        <time>2016-06-04T09:06:46Z</time>
      </trkpt>
      <trkpt lat="46.94257" lon="5.85421">
        <ele>602.88</ele>
        <time>2016-06-04T09:06:59Z</time>
      </trkpt>
      <trkpt lat="46.94252" lon="5.85405">
        <ele>603.85</ele>
        <time>2016-06-04T09:07:08Z</time>
      </trkpt>
      <trkpt lat="46.94246" lon="5.85396">
        <ele>605.29</ele>
        <time>2016-06-04T09:07:19Z</time>
      </trkpt>
      <trkpt lat="46.94245" lon="5.85393">
        <ele>604.81</ele>
        <time>2016-06-04T09:07:27Z</time>
      </trkpt>
      <trkpt lat="46.94239" lon="5.85378">
        <ele>603.85</ele>
        <time>2016-06-04T09:07:36Z</time>
      </trkpt>
      <trkpt lat="46.94234" lon="5.85358">
        <ele>604.33</ele>
        <time>2016-06-04T09:07:49Z</time>
      </trkpt>
      <trkpt lat="46.94233" lon="5.85351">
        <ele>603.36</ele>
        <time>2016-06-04T09:08:03Z</time>
      </trkpt>
      <trkpt lat="46.94235" lon="5.85342">
        <ele>601.44</ele>
        <time>2016-06-04T09:08:16Z</time>
      </trkpt>
      <trkpt lat="46.94237" lon="5.85333">
        <ele>600.96</ele>
        <time>2016-06-04T09:08:30Z</time>
      </trkpt>
      <trkpt lat="46.94241" lon="5.85327">
        <ele>597.12</ele>
        <time>2016-06-04T09:08:43Z</time>
      </trkpt>
      <trkpt lat="46.94243" lon="5.85302">
        <ele>593.75</ele>
        <time>2016-06-04T09:08:56Z</time>
      </trkpt>
      <trkpt lat="46.94244" lon="5.85285">
        <ele>592.31</ele>
        <time>2016-06-04T09:09:08Z</time>
      </trkpt>
      <trkpt lat="46.94246" lon="5.85269">
        <ele>591.35</ele>
        <time>2016-06-04T09:09:19Z</time>
      </trkpt>
      <trkpt lat="46.94257" lon="5.85245">
        <ele>591.35</ele>
        <time>2016-06-04T09:09:35Z</time>
      </trkpt>
      <trkpt lat="46.94259" lon="5.85232">
        <ele>590.87</ele>
        <time>2016-06-04T09:09:46Z</time>
      </trkpt>
      <trkpt lat="46.9426" lon="5.85214">
        <ele>591.83</ele>
        <time>2016-06-04T09:09:58Z</time>
      </trkpt>
      <trkpt lat="46.94266" lon="5.85202">
        <ele>587.02</ele>
        <time>2016-06-04T09:10:11Z</time>
      </trkpt>
      <trkpt lat="46.94269" lon="5.8519">
        <ele>586.06</ele>
        <time>2016-06-04T09:10:24Z</time>
      </trkpt>
      <trkpt lat="46.94269" lon="5.85189">
        <ele>585.58</ele>
        <time>2016-06-04T09:10:25Z</time>
      </trkpt>
      <trkpt lat="46.94271" lon="5.85181">
        <ele>584.62</ele>
        <time>2016-06-04T09:10:29Z</time>
      </trkpt>
      <trkpt lat="46.94281" lon="5.85172">
        <ele>584.62</ele>
        <time>2016-06-04T09:10:39Z</time>
      </trkpt>
      <trkpt lat="46.94286" lon="5.85158">
        <ele>583.18</ele>
        <time>2016-06-04T09:10:52Z</time>
      </trkpt>
      <trkpt lat="46.94283" lon="5.8514">
        <ele>583.18</ele>
        <time>2016-06-04T09:11:07Z</time>
      </trkpt>
      <trkpt lat="46.94279" lon="5.85129">
        <ele>583.66</ele>
        <time>2016-06-04T09:11:20Z</time>
      </trkpt>
      <trkpt lat="46.94272" lon="5.85108">
        <ele>587.98</ele>
        <time>2016-06-04T09:11:33Z</time>
      </trkpt>
      <trkpt lat="46.9427" lon="5.85101">
        <ele>588.95</ele>
        <time>2016-06-04T09:11:39Z</time>
      </trkpt>
      <trkpt lat="46.94261" lon="5.85081">
        <ele>593.27</ele>
        <time>2016-06-04T09:11:53Z</time>
      </trkpt>
      <trkpt lat="46.9426" lon="5.85071">
        <ele>595.19</ele>
        <time>2016-06-04T09:12:06Z</time>
      </trkpt>
      <trkpt lat="46.9426" lon="5.85058">
        <ele>597.12</ele>
        <time>2016-06-04T09:12:19Z</time>
      </trkpt>
      <trkpt lat="46.94262" lon="5.85032">
        <ele>595.67</ele>
        <time>2016-06-04T09:12:32Z</time>
      </trkpt>
      <trkpt lat="46.94265" lon="5.85015">
        <ele>594.71</ele>
        <time>2016-06-04T09:12:45Z</time>
      </trkpt>
      <trkpt lat="46.94271" lon="5.84998">
        <ele>592.79</ele>
        <time>2016-06-04T09:12:59Z</time>
      </trkpt>
      <trkpt lat="46.94273" lon="5.84984">
        <ele>593.27</ele>
        <time>2016-06-04T09:13:10Z</time>
      </trkpt>
      <trkpt lat="46.94274" lon="5.84976">
        <ele>591.83</ele>
        <time>2016-06-04T09:13:23Z</time>
      </trkpt>
      <trkpt lat="46.94274" lon="5.84965">
        <ele>588.95</ele>
        <time>2016-06-04T09:13:33Z</time>
      </trkpt>
      <trkpt lat="46.94274" lon="5.84947">
        <ele>587.02</ele>
        <time>2016-06-04T09:13:49Z</time>
      </trkpt>
      <trkpt lat="46.94265" lon="5.84915">
        <ele>592.31</ele>
        <time>2016-06-04T09:14:03Z</time>
      </trkpt>
      <trkpt lat="46.94262" lon="5.84903">
        <ele>596.15</ele>
        <time>2016-06-04T09:14:17Z</time>
      </trkpt>
      <trkpt lat="46.94258" lon="5.84889">
        <ele>596.64</ele>
        <time>2016-06-04T09:14:28Z</time>
      </trkpt>
      <trkpt lat="46.94255" lon="5.84875">
        <ele>598.08</ele>
        <time>2016-06-04T09:14:39Z</time>
      </trkpt>
      <trkpt lat="46.94251" lon="5.84855">
        <ele>598.08</ele>
        <time>2016-06-04T09:14:51Z</time>
      </trkpt>
      <trkpt lat="46.94251" lon="5.84844">
        <ele>597.12</ele>
        <time>2016-06-04T09:15:04Z</time>
      </trkpt>
      <trkpt lat="46.9425" lon="5.84831">
        <ele>596.64</ele>
        <time>2016-06-04T09:15:15Z</time>
      </trkpt>
      <trkpt lat="46.94247" lon="5.84813">
        <ele>598.56</ele>
        <time>2016-06-04T09:15:24Z</time>
      </trkpt>
      <trkpt lat="46.94244" lon="5.848">
        <ele>598.08</ele>
        <time>2016-06-04T09:15:37Z</time>
      </trkpt>
      <trkpt lat="46.94244" lon="5.84784">
        <ele>597.6</ele>
        <time>2016-06-04T09:15:49Z</time>
      </trkpt>
      <trkpt lat="46.94246" lon="5.84773">
        <ele>597.6</ele>
        <time>2016-06-04T09:16:04Z</time>
      </trkpt>
      <trkpt lat="46.94246" lon="5.84754">
        <ele>592.79</ele>
        <time>2016-06-04T09:16:16Z</time>
      </trkpt>
      <trkpt lat="46.94246" lon="5.84745">
        <ele>591.83</ele>
        <time>2016-06-04T09:16:22Z</time>
      </trkpt>
      <trkpt lat="46.94244" lon="5.8472">
        <ele>590.87</ele>
        <time>2016-06-04T09:16:35Z</time>
      </trkpt>
      <trkpt lat="46.94245" lon="5.84709">
        <ele>592.79</ele>
        <time>2016-06-04T09:16:46Z</time>
      </trkpt>
      <trkpt lat="46.94245" lon="5.847">
        <ele>592.31</ele>
        <time>2016-06-04T09:16:57Z</time>
      </trkpt>
      <trkpt lat="46.94245" lon="5.84692">
        <ele>590.87</ele>
        <time>2016-06-04T09:17:12Z</time>
      </trkpt>
      <trkpt lat="46.94246" lon="5.84682">
        <ele>592.31</ele>
        <time>2016-06-04T09:17:26Z</time>
      </trkpt>
      <trkpt lat="46.94244" lon="5.84674">
        <ele>592.79</ele>
        <time>2016-06-04T09:17:38Z</time>
      </trkpt>
      <trkpt lat="46.94242" lon="5.84665">
        <ele>592.79</ele>
        <time>2016-06-04T09:17:51Z</time>
      </trkpt>
      <trkpt lat="46.9424" lon="5.84653">
        <ele>592.79</ele>
        <time>2016-06-04T09:18:01Z</time>
      </trkpt>
      <trkpt lat="46.94238" lon="5.84643">
        <ele>592.31</ele>
        <time>2016-06-04T09:18:13Z</time>
      </trkpt>
      <trkpt lat="46.94236" lon="5.84637">
        <ele>588.95</ele>
        <time>2016-06-04T09:18:25Z</time>
      </trkpt>
      <trkpt lat="46.94236" lon="5.84616">
        <ele>582.22</ele>
        <time>2016-06-04T09:18:35Z</time>
      </trkpt>
      <trkpt lat="46.94234" lon="5.84594">
        <ele>579.33</ele>
        <time>2016-06-04T09:18:47Z</time>
      </trkpt>
      <trkpt lat="46.94227" lon="5.84563">
        <ele>578.85</ele>
        <time>2016-06-04T09:19:02Z</time>
      </trkpt>
      <trkpt lat="46.94228" lon="5.84527">
        <ele>582.22</ele>
        <time>2016-06-04T09:19:13Z</time>
      </trkpt>
      <trkpt lat="46.94222" lon="5.84499">
        <ele>582.22</ele>
        <time>2016-06-04T09:19:24Z</time>
      </trkpt>
      <trkpt lat="46.94221" lon="5.84473">
        <ele>584.62</ele>
        <time>2016-06-04T09:19:35Z</time>
      </trkpt>
      <trkpt lat="46.94221" lon="5.84465">
        <ele>581.25</ele>
        <time>2016-06-04T09:19:47Z</time>
      </trkpt>
      <trkpt lat="46.94223" lon="5.84453">
        <ele>577.89</ele>
        <time>2016-06-04T09:19:59Z</time>
      </trkpt>
      <trkpt lat="46.94223" lon="5.84452">
        <ele>577.89</ele>
        <time>2016-06-04T09:20:01Z</time>
      </trkpt>
      <trkpt lat="46.94218" lon="5.84434">
        <ele>575.01</ele>
        <time>2016-06-04T09:20:15Z</time>
      </trkpt>
      <trkpt lat="46.94217" lon="5.84425">
        <ele>579.33</ele>
        <time>2016-06-04T09:20:28Z</time>
      </trkpt>
      <trkpt lat="46.94216" lon="5.84421">
        <ele>580.77</ele>
        <time>2016-06-04T09:20:38Z</time>
      </trkpt>
      <trkpt lat="46.94219" lon="5.84416">
        <ele>580.77</ele>
        <time>2016-06-04T09:20:50Z</time>
      </trkpt>
      <trkpt lat="46.94222" lon="5.84411">
        <ele>581.25</ele>
        <time>2016-06-04T09:21:02Z</time>
      </trkpt>
      <trkpt lat="46.94224" lon="5.84405">
        <ele>583.18</ele>
        <time>2016-06-04T09:21:34Z</time>
      </trkpt>
      <trkpt lat="46.9423" lon="5.844">
        <ele>581.25</ele>
        <time>2016-06-04T09:21:44Z</time>
      </trkpt>
      <trkpt lat="46.94234" lon="5.84398">
        <ele>579.33</ele>
        <time>2016-06-04T09:21:57Z</time>
      </trkpt>
      <trkpt lat="46.94236" lon="5.84397">
        <ele>580.77</ele>
        <time>2016-06-04T09:22:22Z</time>
      </trkpt>
      <trkpt lat="46.94237" lon="5.84393">
        <ele>582.22</ele>
        <time>2016-06-04T09:22:33Z</time>
      </trkpt>
      <trkpt lat="46.94238" lon="5.8439">
        <ele>584.62</ele>
        <time>2016-06-04T09:22:56Z</time>
      </trkpt>
      <trkpt lat="46.94238" lon="5.8439">
        <ele>584.62</ele>
        <time>2016-06-04T09:22:58Z</time>
      </trkpt>
      <trkpt lat="46.94233" lon="5.84395">
        <ele>584.62</ele>
        <time>2016-06-04T09:23:08Z</time>
      </trkpt>
      <trkpt lat="46.9423" lon="5.844">
        <ele>585.1</ele>
        <time>2016-06-04T09:23:22Z</time>
      </trkpt>
      <trkpt lat="46.94227" lon="5.84401">
        <ele>585.58</ele>
        <time>2016-06-04T09:23:43Z</time>
      </trkpt>
      <trkpt lat="46.94226" lon="5.84399">
        <ele>585.58</ele>
        <time>2016-06-04T09:23:45Z</time>
      </trkpt>
      <trkpt lat="46.94222" lon="5.84397">
        <ele>585.58</ele>
        <time>2016-06-04T09:23:48Z</time>
      </trkpt>
      <trkpt lat="46.94218" lon="5.84382">
        <ele>584.62</ele>
        <time>2016-06-04T09:24:03Z</time>
      </trkpt>
      <trkpt lat="46.94222" lon="5.84365">
        <ele>584.62</ele>
        <time>2016-06-04T09:24:17Z</time>
      </trkpt>
      <trkpt lat="46.94225" lon="5.84355">
        <ele>581.73</ele>
        <time>2016-06-04T09:24:31Z</time>
      </trkpt>
      <trkpt lat="46.94228" lon="5.84344">
        <ele>577.41</ele>
        <time>2016-06-04T09:24:45Z</time>
      </trkpt>
      <trkpt lat="46.94228" lon="5.84332">
        <ele>574.53</ele>
        <time>2016-06-04T09:24:57Z</time>
      </trkpt>
      <trkpt lat="46.94229" lon="5.84324">
        <ele>573.08</ele>
        <time>2016-06-04T09:25:01Z</time>
      </trkpt>
      <trkpt lat="46.9423" lon="5.84313">
        <ele>572.6</ele>
        <time>2016-06-04T09:25:13Z</time>
      </trkpt>
      <trkpt lat="46.94229" lon="5.84291">
        <ele>572.12</ele>
        <time>2016-06-04T09:25:25Z</time>
      </trkpt>
      <trkpt lat="46.94232" lon="5.84277">
        <ele>570.2</ele>
        <time>2016-06-04T09:25:38Z</time>
      </trkpt>
      <trkpt lat="46.94232" lon="5.84263">
        <ele>567.8</ele>
        <time>2016-06-04T09:25:50Z</time>
      </trkpt>
      <trkpt lat="46.94235" lon="5.8425">
        <ele>564.91</ele>
        <time>2016-06-04T09:26:03Z</time>
      </trkpt>
      <trkpt lat="46.94239" lon="5.84239">
        <ele>560.59</ele>
        <time>2016-06-04T09:26:17Z</time>
      </trkpt>
      <trkpt lat="46.9424" lon="5.84227">
        <ele>556.74</ele>
        <time>2016-06-04T09:26:28Z</time>
      </trkpt>
      <trkpt lat="46.9424" lon="5.842">
        <ele>556.26</ele>
        <time>2016-06-04T09:26:40Z</time>
      </trkpt>
      <trkpt lat="46.9424" lon="5.84184">
        <ele>556.26</ele>
        <time>2016-06-04T09:26:48Z</time>
      </trkpt>
      <trkpt lat="46.94237" lon="5.84169">
        <ele>557.7</ele>
        <time>2016-06-04T09:27:02Z</time>
      </trkpt>
      <trkpt lat="46.94236" lon="5.84163">
        <ele>559.14</ele>
        <time>2016-06-04T09:27:15Z</time>
      </trkpt>
      <trkpt lat="46.94235" lon="5.84157">
        <ele>558.66</ele>
        <time>2016-06-04T09:27:28Z</time>
      </trkpt>
      <trkpt lat="46.94234" lon="5.84147">
        <ele>554.34</ele>
        <time>2016-06-04T09:27:40Z</time>
      </trkpt>
      <trkpt lat="46.94237" lon="5.84137">
        <ele>554.34</ele>
        <time>2016-06-04T09:27:57Z</time>
      </trkpt>
      <trkpt lat="46.94237" lon="5.84129">
        <ele>552.9</ele>
        <time>2016-06-04T09:28:12Z</time>
      </trkpt>
      <trkpt lat="46.94235" lon="5.84097">
        <ele>552.9</ele>
        <time>2016-06-04T09:28:26Z</time>
      </trkpt>
      <trkpt lat="46.94232" lon="5.84071">
        <ele>554.82</ele>
        <time>2016-06-04T09:28:40Z</time>
      </trkpt>
      <trkpt lat="46.9423" lon="5.84067">
        <ele>554.34</ele>
        <time>2016-06-04T09:28:52Z</time>
      </trkpt>
      <trkpt lat="46.94228" lon="5.84062">
        <ele>555.78</ele>
        <time>2016-06-04T09:29:09Z</time>
      </trkpt>
      <trkpt lat="46.94225" lon="5.8405">
        <ele>557.7</ele>
        <time>2016-06-04T09:29:22Z</time>
      </trkpt>
      <trkpt lat="46.9422" lon="5.84034">
        <ele>556.74</ele>
        <time>2016-06-04T09:29:34Z</time>
      </trkpt>
      <trkpt lat="46.94219" lon="5.84031">
        <ele>556.26</ele>
        <time>2016-06-04T09:29:37Z</time>
      </trkpt>
      <trkpt lat="46.94216" lon="5.8402">
        <ele>555.78</ele>
        <time>2016-06-04T09:29:52Z</time>
      </trkpt>
      <trkpt lat="46.94212" lon="5.84008">
        <ele>554.34</ele>
        <time>2016-06-04T09:30:04Z</time>
      </trkpt>
      <trkpt lat="46.94208" lon="5.83993">
        <ele>553.38</ele>
        <time>2016-06-04T09:30:17Z</time>
      </trkpt>
      <trkpt lat="46.94206" lon="5.83988">
        <ele>553.38</ele>
        <time>2016-06-04T09:30:30Z</time>
      </trkpt>
      <trkpt lat="46.94203" lon="5.83984">
        <ele>552.41</ele>
        <time>2016-06-04T09:30:44Z</time>
      </trkpt>
      <trkpt lat="46.94203" lon="5.83982">
        <ele>550.97</ele>
        <time>2016-06-04T09:30:59Z</time>
      </trkpt>
      <trkpt lat="46.94201" lon="5.83976">
        <ele>550.01</ele>
        <time>2016-06-04T09:31:12Z</time>
      </trkpt>
      <trkpt lat="46.94197" lon="5.83966">
        <ele>549.05</ele>
        <time>2016-06-04T09:31:24Z</time>
      </trkpt>
      <trkpt lat="46.9419" lon="5.83952">
        <ele>549.05</ele>
        <time>2016-06-04T09:31:34Z</time>
      </trkpt>
      <trkpt lat="46.94182" lon="5.8394">
        <ele>548.57</ele>
        <time>2016-06-04T09:31:45Z</time>
      </trkpt>
      <trkpt lat="46.94177" lon="5.83934">
        <ele>547.61</ele>
        <time>2016-06-04T09:31:59Z</time>
      </trkpt>
      <trkpt lat="46.94174" lon="5.83928">
        <ele>545.2</ele>
        <time>2016-06-04T09:32:12Z</time>
      </trkpt>
      <trkpt lat="46.94172" lon="5.83925">
        <ele>544.24</ele>
        <time>2016-06-04T09:32:31Z</time>
      </trkpt>
      <trkpt lat="46.9417" lon="5.83922">
        <ele>543.76</ele>
        <time>2016-06-04T09:32:45Z</time>
      </trkpt>
      <trkpt lat="46.94167" lon="5.83918">
        <ele>542.8</ele>
        <time>2016-06-04T09:32:58Z</time>
      </trkpt>
      <trkpt lat="46.9416" lon="5.83894">
        <ele>538.96</ele>
        <time>2016-06-04T09:33:15Z</time>
      </trkpt>
      <trkpt lat="46.94154" lon="5.83884">
        <ele>538.48</ele>
        <time>2016-06-04T09:33:29Z</time>
      </trkpt>
      <trkpt lat="46.9415" lon="5.8387">
        <ele>536.55</ele>
        <time>2016-06-04T09:33:41Z</time>
      </trkpt>
      <trkpt lat="46.94148" lon="5.83858">
        <ele>534.63</ele>
        <time>2016-06-04T09:33:56Z</time>
      </trkpt>
      <trkpt lat="46.94144" lon="5.83848">
        <ele>530.79</ele>
        <time>2016-06-04T09:34:08Z</time>
      </trkpt>
      <trkpt lat="46.94141" lon="5.83842">
        <ele>529.82</ele>
        <time>2016-06-04T09:34:20Z</time>
      </trkpt>
      <trkpt lat="46.94138" lon="5.83834">
        <ele>528.86</ele>
        <time>2016-06-04T09:34:34Z</time>
      </trkpt>
      <trkpt lat="46.94134" lon="5.83823">
        <ele>528.86</ele>
        <time>2016-06-04T09:34:46Z</time>
      </trkpt>
      <trkpt lat="46.94124" lon="5.83808">
        <ele>528.86</ele>
        <time>2016-06-04T09:34:57Z</time>
      </trkpt>
      <trkpt lat="46.94113" lon="5.83795">
        <ele>527.9</ele>
        <time>2016-06-04T09:35:10Z</time>
      </trkpt>
      <trkpt lat="46.94104" lon="5.83787">
        <ele>528.38</ele>
        <time>2016-06-04T09:35:22Z</time>
      </trkpt>
      <trkpt lat="46.941" lon="5.8378">
        <ele>528.38</ele>
        <time>2016-06-04T09:35:32Z</time>
      </trkpt>
      <trkpt lat="46.94098" lon="5.83774">
        <ele>527.9</ele>
        <time>2016-06-04T09:35:39Z</time>
      </trkpt>
      <trkpt lat="46.94093" lon="5.83763">
        <ele>527.42</ele>
        <time>2016-06-04T09:35:51Z</time>
      </trkpt>
      <trkpt lat="46.94091" lon="5.83752">
        <ele>525.02</ele>
        <time>2016-06-04T09:36:07Z</time>
      </trkpt>
      <trkpt lat="46.9409" lon="5.83745">
        <ele>523.09</ele>
        <time>2016-06-04T09:36:20Z</time>
      </trkpt>
      <trkpt lat="46.9409" lon="5.83731">
        <ele>520.69</ele>
        <time>2016-06-04T09:36:34Z</time>
      </trkpt>
      <trkpt lat="46.94092" lon="5.83718">
        <ele>521.17</ele>
        <time>2016-06-04T09:36:48Z</time>
      </trkpt>
      <trkpt lat="46.94092" lon="5.8371">
        <ele>521.17</ele>
        <time>2016-06-04T09:37:02Z</time>
      </trkpt>
      <trkpt lat="46.94089" lon="5.837">
        <ele>520.69</ele>
        <time>2016-06-04T09:37:16Z</time>
      </trkpt>
      <trkpt lat="46.94089" lon="5.83693">
        <ele>520.21</ele>
        <time>2016-06-04T09:37:36Z</time>
      </trkpt>
      <trkpt lat="46.94089" lon="5.8369">
        <ele>521.17</ele>
        <time>2016-06-04T09:37:51Z</time>
      </trkpt>
      <trkpt lat="46.94087" lon="5.83687">
        <ele>518.29</ele>
        <time>2016-06-04T09:38:12Z</time>
      </trkpt>
      <trkpt lat="46.94087" lon="5.83685">
        <ele>518.29</ele>
        <time>2016-06-04T09:38:27Z</time>
      </trkpt>
      <trkpt lat="46.94086" lon="5.83685">
        <ele>518.29</ele>
        <time>2016-06-04T09:38:43Z</time>
      </trkpt>
      <trkpt lat="46.94079" lon="5.83674">
        <ele>517.33</ele>
        <time>2016-06-04T09:38:57Z</time>
      </trkpt>
      <trkpt lat="46.94078" lon="5.83673">
        <ele>516.37</ele>
        <time>2016-06-04T09:39:08Z</time>
      </trkpt>
      <trkpt lat="46.94074" lon="5.83669">
        <ele>514.92</ele>
        <time>2016-06-04T09:39:20Z</time>
      </trkpt>
      <trkpt lat="46.9407" lon="5.83664">
        <ele>514.92</ele>
        <time>2016-06-04T09:39:31Z</time>
      </trkpt>
      <trkpt lat="46.94067" lon="5.8366">
        <ele>515.88</ele>
        <time>2016-06-04T09:39:48Z</time>
      </trkpt>
      <trkpt lat="46.94067" lon="5.83652">
        <ele>516.85</ele>
        <time>2016-06-04T09:40:06Z</time>
      </trkpt>
      <trkpt lat="46.94071" lon="5.83647">
        <ele>514.92</ele>
        <time>2016-06-04T09:40:18Z</time>
      </trkpt>
      <trkpt lat="46.94072" lon="5.83644">
        <ele>513.96</ele>
        <time>2016-06-04T09:40:31Z</time>
      </trkpt>
      <trkpt lat="46.94072" lon="5.83644">
        <ele>513</ele>
        <time>2016-06-04T09:40:40Z</time>
      </trkpt>
      <trkpt lat="46.94073" lon="5.83639">
        <ele>511.56</ele>
        <time>2016-06-04T09:40:53Z</time>
      </trkpt>
      <trkpt lat="46.94075" lon="5.83636">
        <ele>510.6</ele>
        <time>2016-06-04T09:41:06Z</time>
      </trkpt>
      <trkpt lat="46.94075" lon="5.83636">
        <ele>511.08</ele>
        <time>2016-06-04T09:41:22Z</time>
      </trkpt>
      <trkpt lat="46.94074" lon="5.83634">
        <ele>511.08</ele>
        <time>2016-06-04T09:41:40Z</time>
      </trkpt>
      <trkpt lat="46.94074" lon="5.83636">
        <ele>510.6</ele>
        <time>2016-06-04T09:41:52Z</time>
      </trkpt>
      <trkpt lat="46.94072" lon="5.83638">
        <ele>510.6</ele>
        <time>2016-06-04T09:42:04Z</time>
      </trkpt>
      <trkpt lat="46.94071" lon="5.83642">
        <ele>512.52</ele>
        <time>2016-06-04T09:42:23Z</time>
      </trkpt>
      <trkpt lat="46.94071" lon="5.83642">
        <ele>512.52</ele>
        <time>2016-06-04T09:42:25Z</time>
      </trkpt>
      <trkpt lat="46.9407" lon="5.83647">
        <ele>512.52</ele>
        <time>2016-06-04T09:42:37Z</time>
      </trkpt>
      <trkpt lat="46.9407" lon="5.83649">
        <ele>511.56</ele>
        <time>2016-06-04T09:42:50Z</time>
      </trkpt>
      <trkpt lat="46.94068" lon="5.83652">
        <ele>509.64</ele>
        <time>2016-06-04T09:43:10Z</time>
      </trkpt>
      <trkpt lat="46.94066" lon="5.83656">
        <ele>510.6</ele>
        <time>2016-06-04T09:43:22Z</time>
      </trkpt>
      <trkpt lat="46.94062" lon="5.83661">
        <ele>511.56</ele>
        <time>2016-06-04T09:43:35Z</time>
      </trkpt>
      <trkpt lat="46.94057" lon="5.83663">
        <ele>512.52</ele>
        <time>2016-06-04T09:43:51Z</time>
      </trkpt>
      <trkpt lat="46.94052" lon="5.83664">
        <ele>512.04</ele>
        <time>2016-06-04T09:44:03Z</time>
      </trkpt>
      <trkpt lat="46.94042" lon="5.83667">
        <ele>511.08</ele>
        <time>2016-06-04T09:44:12Z</time>
      </trkpt>
      <trkpt lat="46.9403" lon="5.83672">
        <ele>509.16</ele>
        <time>2016-06-04T09:44:25Z</time>
      </trkpt>
      <trkpt lat="46.94026" lon="5.83675">
        <ele>508.67</ele>
        <time>2016-06-04T09:44:41Z</time>
      </trkpt>
      <trkpt lat="46.94025" lon="5.83675">
        <ele>509.16</ele>
        <time>2016-06-04T09:45:00Z</time>
      </trkpt>
      <trkpt lat="46.9402" lon="5.83675">
        <ele>511.56</ele>
        <time>2016-06-04T09:45:14Z</time>
      </trkpt>
      <trkpt lat="46.94017" lon="5.83674">
        <ele>512.52</ele>
        <time>2016-06-04T09:45:30Z</time>
      </trkpt>
      <trkpt lat="46.94009" lon="5.83679">
        <ele>510.6</ele>
        <time>2016-06-04T09:45:43Z</time>
      </trkpt>
      <trkpt lat="46.93998" lon="5.83679">
        <ele>509.16</ele>
        <time>2016-06-04T09:45:58Z</time>
      </trkpt>
      <trkpt lat="46.93997" lon="5.83679">
        <ele>509.16</ele>
        <time>2016-06-04T09:46:00Z</time>
      </trkpt>
      <trkpt lat="46.93996" lon="5.83678">
        <ele>508.67</ele>
        <time>2016-06-04T09:46:12Z</time>
      </trkpt>
      <trkpt lat="46.93992" lon="5.83693">
        <ele>509.64</ele>
        <time>2016-06-04T09:46:26Z</time>
      </trkpt>
      <trkpt lat="46.93988" lon="5.83698">
        <ele>510.12</ele>
        <time>2016-06-04T09:46:38Z</time>
      </trkpt>
      <trkpt lat="46.93985" lon="5.83699">
        <ele>510.12</ele>
        <time>2016-06-04T09:46:41Z</time>
      </trkpt>
      <trkpt lat="46.93983" lon="5.83699">
        <ele>510.6</ele>
        <time>2016-06-04T09:46:44Z</time>
      </trkpt>
      <trkpt lat="46.93976" lon="5.83699">
        <ele>510.6</ele>
        <time>2016-06-04T09:46:54Z</time>
      </trkpt>
      <trkpt lat="46.93969" lon="5.837">
        <ele>509.64</ele>
        <time>2016-06-04T09:47:03Z</time>
      </trkpt>
      <trkpt lat="46.93961" lon="5.83704">
        <ele>508.67</ele>
        <time>2016-06-04T09:47:14Z</time>
      </trkpt>
      <trkpt lat="46.9396" lon="5.83704">
        <ele>508.67</ele>
        <time>2016-06-04T09:47:15Z</time>
      </trkpt>
      <trkpt lat="46.93957" lon="5.83703">
        <ele>507.71</ele>
        <time>2016-06-04T09:47:18Z</time>
      </trkpt>
      <trkpt lat="46.93946" lon="5.83705">
        <ele>508.67</ele>
        <time>2016-06-04T09:47:30Z</time>
      </trkpt>
      <trkpt lat="46.93937" lon="5.83707">
        <ele>512.52</ele>
        <time>2016-06-04T09:47:42Z</time>
      </trkpt>
      <trkpt lat="46.93932" lon="5.83709">
        <ele>513.96</ele>
        <time>2016-06-04T09:47:47Z</time>
      </trkpt>
      <trkpt lat="46.93925" lon="5.8371">
        <ele>515.4</ele>
        <time>2016-06-04T09:48:00Z</time>
      </trkpt>
      <trkpt lat="46.93924" lon="5.83711">
        <ele>513.96</ele>
        <time>2016-06-04T09:48:18Z</time>
      </trkpt>
      <trkpt lat="46.93921" lon="5.83715">
        <ele>510.12</ele>
        <time>2016-06-04T09:48:29Z</time>
      </trkpt>
      <trkpt lat="46.93917" lon="5.83726">
        <ele>509.16</ele>
        <time>2016-06-04T09:48:41Z</time>
      </trkpt>
      <trkpt lat="46.93916" lon="5.83726">
        <ele>508.67</ele>
        <time>2016-06-04T09:48:56Z</time>
      </trkpt>
      <trkpt lat="46.93918" lon="5.83722">
        <ele>509.16</ele>
        <time>2016-06-04T09:49:06Z</time>
      </trkpt>
      <trkpt lat="46.93918" lon="5.8372">
        <ele>510.6</ele>
        <time>2016-06-04T09:49:18Z</time>
      </trkpt>
      <trkpt lat="46.9392" lon="5.83713">
        <ele>512.04</ele>
        <time>2016-06-04T09:49:33Z</time>
      </trkpt>
      <trkpt lat="46.93922" lon="5.8371">
        <ele>513.48</ele>
        <time>2016-06-04T09:49:44Z</time>
      </trkpt>
      <trkpt lat="46.93923" lon="5.83709">
        <ele>513.96</ele>
        <time>2016-06-04T09:50:04Z</time>
      </trkpt>
      <trkpt lat="46.93923" lon="5.83709">
        <ele>514.92</ele>
        <time>2016-06-04T09:50:31Z</time>
      </trkpt>
      <trkpt lat="46.93923" lon="5.83709">
        <ele>515.4</ele>
        <time>2016-06-04T09:50:49Z</time>
      </trkpt>
      <trkpt lat="46.93924" lon="5.83709">
        <ele>515.4</ele>
        <time>2016-06-04T09:50:59Z</time>
      </trkpt>
      <trkpt lat="46.93924" lon="5.8371">
        <ele>516.85</ele>
        <time>2016-06-04T09:51:35Z</time>
      </trkpt>
      <trkpt lat="46.93923" lon="5.8371">
        <ele>517.33</ele>
        <time>2016-06-04T09:52:01Z</time>
      </trkpt>
      <trkpt lat="46.93923" lon="5.8371">
        <ele>517.33</ele>
        <time>2016-06-04T09:52:22Z</time>
      </trkpt>
      <trkpt lat="46.93922" lon="5.83712">
        <ele>516.37</ele>
        <time>2016-06-04T09:52:34Z</time>
      </trkpt>
      <trkpt lat="46.93916" lon="5.83723">
        <ele>513</ele>
        <time>2016-06-04T09:52:44Z</time>
      </trkpt>
      <trkpt lat="46.93916" lon="5.83732">
        <ele>511.56</ele>
        <time>2016-06-04T09:52:54Z</time>
      </trkpt>
      <trkpt lat="46.93918" lon="5.83736">
        <ele>508.67</ele>
        <time>2016-06-04T09:53:08Z</time>
      </trkpt>
      <trkpt lat="46.93919" lon="5.8374">
        <ele>505.79</ele>
        <time>2016-06-04T09:53:21Z</time>
      </trkpt>
      <trkpt lat="46.93915" lon="5.83749">
        <ele>503.39</ele>
        <time>2016-06-04T09:53:34Z</time>
      </trkpt>
      <trkpt lat="46.93911" lon="5.8376">
        <ele>499.54</ele>
        <time>2016-06-04T09:53:46Z</time>
      </trkpt>
      <trkpt lat="46.93908" lon="5.83774">
        <ele>498.58</ele>
        <time>2016-06-04T09:54:02Z</time>
      </trkpt>
      <trkpt lat="46.93904" lon="5.8378">
        <ele>499.06</ele>
        <time>2016-06-04T09:54:14Z</time>
      </trkpt>
      <trkpt lat="46.93896" lon="5.83784">
        <ele>500.5</ele>
        <time>2016-06-04T09:54:28Z</time>
      </trkpt>
      <trkpt lat="46.93895" lon="5.83777">
        <ele>499.54</ele>
        <time>2016-06-04T09:54:39Z</time>
      </trkpt>
      <trkpt lat="46.93895" lon="5.83768">
        <ele>497.14</ele>
        <time>2016-06-04T09:54:52Z</time>
      </trkpt>
      <trkpt lat="46.93892" lon="5.83762">
        <ele>495.22</ele>
        <time>2016-06-04T09:55:03Z</time>
      </trkpt>
      <trkpt lat="46.93891" lon="5.83756">
        <ele>491.85</ele>
        <time>2016-06-04T09:55:14Z</time>
      </trkpt>
      <trkpt lat="46.93886" lon="5.83742">
        <ele>488.01</ele>
        <time>2016-06-04T09:55:28Z</time>
      </trkpt>
      <trkpt lat="46.93882" lon="5.83732">
        <ele>484.64</ele>
        <time>2016-06-04T09:55:40Z</time>
      </trkpt>
      <trkpt lat="46.9388" lon="5.8372">
        <ele>479.35</ele>
        <time>2016-06-04T09:55:51Z</time>
      </trkpt>
      <trkpt lat="46.93877" lon="5.837">
        <ele>473.11</ele>
        <time>2016-06-04T09:56:04Z</time>
      </trkpt>
      <trkpt lat="46.93873" lon="5.83687">
        <ele>472.14</ele>
        <time>2016-06-04T09:56:16Z</time>
      </trkpt>
      <trkpt lat="46.93869" lon="5.83674">
        <ele>472.14</ele>
        <time>2016-06-04T09:56:24Z</time>
      </trkpt>
      <trkpt lat="46.93867" lon="5.83666">
        <ele>472.14</ele>
        <time>2016-06-04T09:56:37Z</time>
      </trkpt>
      <trkpt lat="46.93858" lon="5.83661">
        <ele>472.14</ele>
        <time>2016-06-04T09:56:51Z</time>
      </trkpt>
      <trkpt lat="46.93856" lon="5.83665">
        <ele>471.66</ele>
        <time>2016-06-04T09:57:00Z</time>
      </trkpt>
      <trkpt lat="46.93856" lon="5.8367">
        <ele>471.66</ele>
        <time>2016-06-04T09:57:10Z</time>
      </trkpt>
      <trkpt lat="46.93853" lon="5.83689">
        <ele>467.34</ele>
        <time>2016-06-04T09:57:27Z</time>
      </trkpt>
      <trkpt lat="46.9385" lon="5.83708">
        <ele>462.53</ele>
        <time>2016-06-04T09:57:42Z</time>
      </trkpt>
      <trkpt lat="46.93849" lon="5.83725">
        <ele>458.69</ele>
        <time>2016-06-04T09:57:56Z</time>
      </trkpt>
      <trkpt lat="46.93844" lon="5.83742">
        <ele>453.4</ele>
        <time>2016-06-04T09:58:10Z</time>
      </trkpt>
      <trkpt lat="46.93842" lon="5.8375">
        <ele>449.07</ele>
        <time>2016-06-04T09:58:23Z</time>
      </trkpt>
      <trkpt lat="46.9384" lon="5.8377">
        <ele>443.31</ele>
        <time>2016-06-04T09:58:35Z</time>
      </trkpt>
      <trkpt lat="46.93838" lon="5.83779">
        <ele>442.34</ele>
        <time>2016-06-04T09:58:54Z</time>
      </trkpt>
      <trkpt lat="46.93838" lon="5.83786">
        <ele>440.9</ele>
        <time>2016-06-04T09:59:10Z</time>
      </trkpt>
      <trkpt lat="46.93837" lon="5.83796">
        <ele>439.46</ele>
        <time>2016-06-04T09:59:24Z</time>
      </trkpt>
      <trkpt lat="46.93833" lon="5.83799">
        <ele>440.9</ele>
        <time>2016-06-04T09:59:36Z</time>
      </trkpt>
      <trkpt lat="46.9383" lon="5.8382">
        <ele>443.31</ele>
        <time>2016-06-04T09:59:52Z</time>
      </trkpt>
      <trkpt lat="46.93823" lon="5.8384">
        <ele>438.02</ele>
        <time>2016-06-04T10:00:08Z</time>
      </trkpt>
      <trkpt lat="46.93823" lon="5.83854">
        <ele>435.13</ele>
        <time>2016-06-04T10:00:23Z</time>
      </trkpt>
      <trkpt lat="46.9382" lon="5.83857">
        <ele>435.13</ele>
        <time>2016-06-04T10:00:39Z</time>
      </trkpt>
      <trkpt lat="46.93812" lon="5.83857">
        <ele>434.65</ele>
        <time>2016-06-04T10:00:57Z</time>
      </trkpt>
      <trkpt lat="46.93804" lon="5.8385">
        <ele>433.69</ele>
        <time>2016-06-04T10:01:10Z</time>
      </trkpt>
      <trkpt lat="46.93799" lon="5.83831">
        <ele>428.4</ele>
        <time>2016-06-04T10:01:25Z</time>
      </trkpt>
      <trkpt lat="46.93794" lon="5.83816">
        <ele>426.48</ele>
        <time>2016-06-04T10:01:38Z</time>
      </trkpt>
      <trkpt lat="46.93792" lon="5.83803">
        <ele>423.6</ele>
        <time>2016-06-04T10:01:49Z</time>
      </trkpt>
      <trkpt lat="46.93792" lon="5.83799">
        <ele>419.75</ele>
        <time>2016-06-04T10:02:04Z</time>
      </trkpt>
      <trkpt lat="46.93786" lon="5.83795">
        <ele>412.54</ele>
        <time>2016-06-04T10:02:16Z</time>
      </trkpt>
      <trkpt lat="46.93772" lon="5.8379">
        <ele>412.06</ele>
        <time>2016-06-04T10:02:31Z</time>
      </trkpt>
      <trkpt lat="46.93767" lon="5.838">
        <ele>410.14</ele>
        <time>2016-06-04T10:02:43Z</time>
      </trkpt>
      <trkpt lat="46.93766" lon="5.83801">
        <ele>410.14</ele>
        <time>2016-06-04T10:02:44Z</time>
      </trkpt>
      <trkpt lat="46.93761" lon="5.83815">
        <ele>408.22</ele>
        <time>2016-06-04T10:02:57Z</time>
      </trkpt>
      <trkpt lat="46.93754" lon="5.83825">
        <ele>406.77</ele>
        <time>2016-06-04T10:03:08Z</time>
      </trkpt>
      <trkpt lat="46.93745" lon="5.83839">
        <ele>403.41</ele>
        <time>2016-06-04T10:03:21Z</time>
      </trkpt>
      <trkpt lat="46.9374" lon="5.83851">
        <ele>401.49</ele>
        <time>2016-06-04T10:03:37Z</time>
      </trkpt>
      <trkpt lat="46.93732" lon="5.83865">
        <ele>395.24</ele>
        <time>2016-06-04T10:03:51Z</time>
      </trkpt>
      <trkpt lat="46.93727" lon="5.83873">
        <ele>393.32</ele>
        <time>2016-06-04T10:04:04Z</time>
      </trkpt>
      <trkpt lat="46.93721" lon="5.83879">
        <ele>389.95</ele>
        <time>2016-06-04T10:04:19Z</time>
      </trkpt>
      <trkpt lat="46.93715" lon="5.83886">
        <ele>386.59</ele>
        <time>2016-06-04T10:04:30Z</time>
      </trkpt>
      <trkpt lat="46.93701" lon="5.83894">
        <ele>382.26</ele>
        <time>2016-06-04T10:04:46Z</time>
      </trkpt>
      <trkpt lat="46.93691" lon="5.83903">
        <ele>379.86</ele>
        <time>2016-06-04T10:04:59Z</time>
      </trkpt>
      <trkpt lat="46.93689" lon="5.83906">
        <ele>379.38</ele>
        <time>2016-06-04T10:05:03Z</time>
      </trkpt>
      <trkpt lat="46.9368" lon="5.83925">
        <ele>375.05</ele>
        <time>2016-06-04T10:05:19Z</time>
      </trkpt>
      <trkpt lat="46.93673" lon="5.83936">
        <ele>373.61</ele>
        <time>2016-06-04T10:05:32Z</time>
      </trkpt>
      <trkpt lat="46.9367" lon="5.83943">
        <ele>372.65</ele>
        <time>2016-06-04T10:05:46Z</time>
      </trkpt>
      <trkpt lat="46.93669" lon="5.83944">
        <ele>372.65</ele>
        <time>2016-06-04T10:05:57Z</time>
      </trkpt>
      <trkpt lat="46.93669" lon="5.83943">
        <ele>372.65</ele>
        <time>2016-06-04T10:06:13Z</time>
      </trkpt>
      <trkpt lat="46.93657" lon="5.83926">
        <ele>370.73</ele>
        <time>2016-06-04T10:06:29Z</time>
      </trkpt>
      <trkpt lat="46.93657" lon="5.83923">
        <ele>370.24</ele>
        <time>2016-06-04T10:06:31Z</time>
      </trkpt>
      <trkpt lat="46.93648" lon="5.83909">
        <ele>368.32</ele>
        <time>2016-06-04T10:06:43Z</time>
      </trkpt>
      <trkpt lat="46.93635" lon="5.83892">
        <ele>365.44</ele>
        <time>2016-06-04T10:06:57Z</time>
      </trkpt>
      <trkpt lat="46.93624" lon="5.83877">
        <ele>368.8</ele>
        <time>2016-06-04T10:07:08Z</time>
      </trkpt>
      <trkpt lat="46.93611" lon="5.83875">
        <ele>369.76</ele>
        <time>2016-06-04T10:07:22Z</time>
      </trkpt>
      <trkpt lat="46.9361" lon="5.83878">
        <ele>369.76</ele>
        <time>2016-06-04T10:07:24Z</time>
      </trkpt>
      <trkpt lat="46.93608" lon="5.83877">
        <ele>368.8</ele>
        <time>2016-06-04T10:07:35Z</time>
      </trkpt>
      <trkpt lat="46.93606" lon="5.83869">
        <ele>367.84</ele>
        <time>2016-06-04T10:07:41Z</time>
      </trkpt>
      <trkpt lat="46.936" lon="5.83855">
        <ele>367.36</ele>
        <time>2016-06-04T10:07:51Z</time>
      </trkpt>
      <trkpt lat="46.93598" lon="5.83849">
        <ele>367.36</ele>
        <time>2016-06-04T10:07:54Z</time>
      </trkpt>
      <trkpt lat="46.93596" lon="5.83845">
        <ele>367.36</ele>
        <time>2016-06-04T10:07:57Z</time>
      </trkpt>
      <trkpt lat="46.93586" lon="5.83826">
        <ele>365.92</ele>
        <time>2016-06-04T10:08:11Z</time>
      </trkpt>
      <trkpt lat="46.93577" lon="5.83813">
        <ele>367.36</ele>
        <time>2016-06-04T10:08:23Z</time>
      </trkpt>
      <trkpt lat="46.93571" lon="5.83809">
        <ele>367.84</ele>
        <time>2016-06-04T10:08:34Z</time>
      </trkpt>
      <trkpt lat="46.93571" lon="5.83809">
        <ele>367.84</ele>
        <time>2016-06-04T10:08:35Z</time>
      </trkpt>
      <trkpt lat="46.93567" lon="5.83794">
        <ele>367.36</ele>
        <time>2016-06-04T10:08:47Z</time>
      </trkpt>
      <trkpt lat="46.93567" lon="5.83791">
        <ele>367.84</ele>
        <time>2016-06-04T10:08:49Z</time>
      </trkpt>
      <trkpt lat="46.93566" lon="5.83776">
        <ele>366.88</ele>
        <time>2016-06-04T10:08:56Z</time>
      </trkpt>
      <trkpt lat="46.93564" lon="5.83752">
        <ele>366.4</ele>
        <time>2016-06-04T10:09:10Z</time>
      </trkpt>
      <trkpt lat="46.93564" lon="5.8375">
        <ele>366.4</ele>
        <time>2016-06-04T10:09:11Z</time>
      </trkpt>
      <trkpt lat="46.93565" lon="5.8373">
        <ele>367.36</ele>
        <time>2016-06-04T10:09:23Z</time>
      </trkpt>
      <trkpt lat="46.93564" lon="5.83711">
        <ele>368.32</ele>
        <time>2016-06-04T10:09:34Z</time>
      </trkpt>
      <trkpt lat="46.93563" lon="5.83698">
        <ele>368.8</ele>
        <time>2016-06-04T10:09:45Z</time>
      </trkpt>
      <trkpt lat="46.93563" lon="5.83698">
        <ele>369.76</ele>
        <time>2016-06-04T10:10:07Z</time>
      </trkpt>
      <trkpt lat="46.93562" lon="5.83698">
        <ele>370.24</ele>
        <time>2016-06-04T10:10:25Z</time>
      </trkpt>
      <trkpt lat="46.93563" lon="5.83697">
        <ele>371.69</ele>
        <time>2016-06-04T10:10:47Z</time>
      </trkpt>
      <trkpt lat="46.93563" lon="5.83695">
        <ele>372.65</ele>
        <time>2016-06-04T10:11:10Z</time>
      </trkpt>
      <trkpt lat="46.93563" lon="5.83692">
        <ele>373.61</ele>
        <time>2016-06-04T10:11:35Z</time>
      </trkpt>
      <trkpt lat="46.93563" lon="5.83691">
        <ele>374.09</ele>
        <time>2016-06-04T10:11:59Z</time>
      </trkpt>
      <trkpt lat="46.93563" lon="5.83691">
        <ele>374.09</ele>
        <time>2016-06-04T10:12:13Z</time>
      </trkpt>
      <trkpt lat="46.93563" lon="5.8369">
        <ele>374.09</ele>
        <time>2016-06-04T10:12:34Z</time>
      </trkpt>
      <trkpt lat="46.93563" lon="5.83689">
        <ele>374.57</ele>
        <time>2016-06-04T10:13:01Z</time>
      </trkpt>
      <trkpt lat="46.93563" lon="5.83688">
        <ele>374.57</ele>
        <time>2016-06-04T10:13:22Z</time>
      </trkpt>
      <trkpt lat="46.93563" lon="5.83688">
        <ele>374.57</ele>
        <time>2016-06-04T10:13:45Z</time>
      </trkpt>
      <trkpt lat="46.93563" lon="5.83687">
        <ele>375.05</ele>
        <time>2016-06-04T10:14:08Z</time>
      </trkpt>
      <trkpt lat="46.93563" lon="5.83687">
        <ele>374.57</ele>
        <time>2016-06-04T10:14:32Z</time>
      </trkpt>
      <trkpt lat="46.93564" lon="5.83686">
        <ele>374.57</ele>
        <time>2016-06-04T10:14:54Z</time>
      </trkpt>
      <trkpt lat="46.93564" lon="5.83686">
        <ele>375.05</ele>
        <time>2016-06-04T10:15:10Z</time>
      </trkpt>
      <trkpt lat="46.93564" lon="5.83686">
        <ele>375.05</ele>
        <time>2016-06-04T10:15:36Z</time>
      </trkpt>
      <trkpt lat="46.93564" lon="5.83686">
        <ele>375.05</ele>
        <time>2016-06-04T10:15:54Z</time>
      </trkpt>
      <trkpt lat="46.93563" lon="5.83687">
        <ele>375.53</ele>
        <time>2016-06-04T10:16:12Z</time>
      </trkpt>
      <trkpt lat="46.93563" lon="5.83686">
        <ele>375.53</ele>
        <time>2016-06-04T10:16:36Z</time>
      </trkpt>
      <trkpt lat="46.93563" lon="5.83686">
        <ele>375.53</ele>
        <time>2016-06-04T10:17:00Z</time>
      </trkpt>
      <trkpt lat="46.93562" lon="5.83686">
        <ele>376.01</ele>
        <time>2016-06-04T10:17:17Z</time>
      </trkpt>
      <trkpt lat="46.93563" lon="5.83686">
        <ele>376.01</ele>
        <time>2016-06-04T10:17:38Z</time>
      </trkpt>
      <trkpt lat="46.93563" lon="5.83685">
        <ele>375.53</ele>
        <time>2016-06-04T10:18:01Z</time>
      </trkpt>
      <trkpt lat="46.93563" lon="5.83685">
        <ele>375.53</ele>
        <time>2016-06-04T10:18:19Z</time>
      </trkpt>
      <trkpt lat="46.93563" lon="5.83685">
        <ele>375.53</ele>
        <time>2016-06-04T10:18:35Z</time>
      </trkpt>
      <trkpt lat="46.93563" lon="5.83686">
        <ele>375.53</ele>
        <time>2016-06-04T10:18:54Z</time>
      </trkpt>
      <trkpt lat="46.93563" lon="5.83686">
        <ele>375.53</ele>
        <time>2016-06-04T10:19:11Z</time>
      </trkpt>
      <trkpt lat="46.93562" lon="5.83685">
        <ele>375.05</ele>
        <time>2016-06-04T10:19:30Z</time>
      </trkpt>
      <trkpt lat="46.93562" lon="5.83685">
        <ele>375.05</ele>
        <time>2016-06-04T10:19:47Z</time>
      </trkpt>
      <trkpt lat="46.93562" lon="5.83685">
        <ele>375.53</ele>
        <time>2016-06-04T10:20:07Z</time>
      </trkpt>
      <trkpt lat="46.93563" lon="5.83686">
        <ele>376.01</ele>
        <time>2016-06-04T10:20:29Z</time>
      </trkpt>
      <trkpt lat="46.93562" lon="5.83687">
        <ele>376.01</ele>
        <time>2016-06-04T10:20:53Z</time>
      </trkpt>
      <trkpt lat="46.93562" lon="5.83687">
        <ele>376.01</ele>
        <time>2016-06-04T10:21:11Z</time>
      </trkpt>
      <trkpt lat="46.93562" lon="5.83686">
        <ele>375.53</ele>
        <time>2016-06-04T10:21:38Z</time>
      </trkpt>
      <trkpt lat="46.93562" lon="5.83686">
        <ele>375.05</ele>
        <time>2016-06-04T10:22:03Z</time>
      </trkpt>
      <trkpt lat="46.93563" lon="5.83686">
        <ele>374.57</ele>
        <time>2016-06-04T10:22:24Z</time>
      </trkpt>
      <trkpt lat="46.93564" lon="5.83685">
        <ele>374.57</ele>
        <time>2016-06-04T10:22:54Z</time>
      </trkpt>
      <trkpt lat="46.93564" lon="5.83685">
        <ele>374.09</ele>
        <time>2016-06-04T10:23:19Z</time>
      </trkpt>
      <trkpt lat="46.93564" lon="5.83684">
        <ele>374.57</ele>
        <time>2016-06-04T10:23:34Z</time>
      </trkpt>
      <trkpt lat="46.93565" lon="5.83683">
        <ele>374.57</ele>
        <time>2016-06-04T10:23:58Z</time>
      </trkpt>
      <trkpt lat="46.93565" lon="5.83683">
        <ele>374.09</ele>
        <time>2016-06-04T10:24:19Z</time>
      </trkpt>
      <trkpt lat="46.93565" lon="5.83683">
        <ele>374.57</ele>
        <time>2016-06-04T10:24:41Z</time>
      </trkpt>
      <trkpt lat="46.93565" lon="5.83683">
        <ele>374.09</ele>
        <time>2016-06-04T10:25:00Z</time>
      </trkpt>
      <trkpt lat="46.93564" lon="5.83684">
        <ele>374.09</ele>
        <time>2016-06-04T10:25:13Z</time>
      </trkpt>
      <trkpt lat="46.93563" lon="5.83684">
        <ele>374.09</ele>
        <time>2016-06-04T10:25:30Z</time>
      </trkpt>
      <trkpt lat="46.93563" lon="5.83684">
        <ele>374.09</ele>
        <time>2016-06-04T10:25:52Z</time>
      </trkpt>
      <trkpt lat="46.93564" lon="5.83684">
        <ele>373.61</ele>
        <time>2016-06-04T10:26:11Z</time>
      </trkpt>
      <trkpt lat="46.93564" lon="5.83684">
        <ele>374.09</ele>
        <time>2016-06-04T10:26:32Z</time>
      </trkpt>
      <trkpt lat="46.93565" lon="5.83683">
        <ele>373.13</ele>
        <time>2016-06-04T10:26:54Z</time>
      </trkpt>
      <trkpt lat="46.93565" lon="5.83683">
        <ele>373.13</ele>
        <time>2016-06-04T10:27:14Z</time>
      </trkpt>
      <trkpt lat="46.93565" lon="5.83683">
        <ele>373.13</ele>
        <time>2016-06-04T10:27:28Z</time>
      </trkpt>
      <trkpt lat="46.93564" lon="5.83684">
        <ele>373.61</ele>
        <time>2016-06-04T10:27:45Z</time>
      </trkpt>
      <trkpt lat="46.93563" lon="5.83686">
        <ele>373.13</ele>
        <time>2016-06-04T10:28:04Z</time>
      </trkpt>
      <trkpt lat="46.93564" lon="5.83685">
        <ele>373.13</ele>
        <time>2016-06-04T10:28:25Z</time>
      </trkpt>
      <trkpt lat="46.93563" lon="5.83684">
        <ele>373.13</ele>
        <time>2016-06-04T10:28:44Z</time>
      </trkpt>
      <trkpt lat="46.93563" lon="5.83683">
        <ele>373.13</ele>
        <time>2016-06-04T10:29:03Z</time>
      </trkpt>
      <trkpt lat="46.93563" lon="5.83678">
        <ele>372.65</ele>
        <time>2016-06-04T10:29:16Z</time>
      </trkpt>
      <trkpt lat="46.93563" lon="5.83675">
        <ele>372.17</ele>
        <time>2016-06-04T10:29:29Z</time>
      </trkpt>
      <trkpt lat="46.93562" lon="5.83674">
        <ele>372.17</ele>
        <time>2016-06-04T10:29:55Z</time>
      </trkpt>
      <trkpt lat="46.93563" lon="5.83668">
        <ele>373.13</ele>
        <time>2016-06-04T10:30:09Z</time>
      </trkpt>
      <trkpt lat="46.93563" lon="5.83658">
        <ele>372.65</ele>
        <time>2016-06-04T10:30:21Z</time>
      </trkpt>
      <trkpt lat="46.93564" lon="5.83652">
        <ele>371.21</ele>
        <time>2016-06-04T10:30:34Z</time>
      </trkpt>
      <trkpt lat="46.93564" lon="5.8365">
        <ele>372.17</ele>
        <time>2016-06-04T10:30:48Z</time>
      </trkpt>
      <trkpt lat="46.93564" lon="5.8365">
        <ele>372.65</ele>
        <time>2016-06-04T10:31:11Z</time>
      </trkpt>
      <trkpt lat="46.93563" lon="5.83641">
        <ele>372.65</ele>
        <time>2016-06-04T10:31:24Z</time>
      </trkpt>
      <trkpt lat="46.93564" lon="5.83635">
        <ele>374.09</ele>
        <time>2016-06-04T10:31:35Z</time>
      </trkpt>
      <trkpt lat="46.93563" lon="5.83633">
        <ele>374.57</ele>
        <time>2016-06-04T10:32:01Z</time>
      </trkpt>
      <trkpt lat="46.93563" lon="5.83632">
        <ele>374.57</ele>
        <time>2016-06-04T10:32:17Z</time>
      </trkpt>
      <trkpt lat="46.93563" lon="5.83632">
        <ele>374.09</ele>
        <time>2016-06-04T10:32:41Z</time>
      </trkpt>
      <trkpt lat="46.93563" lon="5.83631">
        <ele>375.05</ele>
        <time>2016-06-04T10:33:04Z</time>
      </trkpt>
      <trkpt lat="46.93563" lon="5.8363">
        <ele>375.05</ele>
        <time>2016-06-04T10:33:21Z</time>
      </trkpt>
      <trkpt lat="46.93563" lon="5.83619">
        <ele>376.49</ele>
        <time>2016-06-04T10:33:30Z</time>
      </trkpt>
      <trkpt lat="46.93563" lon="5.83604">
        <ele>378.9</ele>
        <time>2016-06-04T10:33:40Z</time>
      </trkpt>
      <trkpt lat="46.93562" lon="5.83599">
        <ele>378.9</ele>
        <time>2016-06-04T10:33:43Z</time>
      </trkpt>
      <trkpt lat="46.93564" lon="5.83584">
        <ele>380.34</ele>
        <time>2016-06-04T10:33:54Z</time>
      </trkpt>
      <trkpt lat="46.93564" lon="5.83565">
        <ele>381.78</ele>
        <time>2016-06-04T10:34:05Z</time>
      </trkpt>
      <trkpt lat="46.93566" lon="5.83562">
        <ele>383.7</ele>
        <time>2016-06-04T10:34:18Z</time>
      </trkpt>
      <trkpt lat="46.93567" lon="5.8356">
        <ele>383.7</ele>
        <time>2016-06-04T10:34:44Z</time>
      </trkpt>
      <trkpt lat="46.93567" lon="5.83561">
        <ele>384.18</ele>
        <time>2016-06-04T10:35:05Z</time>
      </trkpt>
      <trkpt lat="46.93567" lon="5.83551">
        <ele>383.7</ele>
        <time>2016-06-04T10:35:20Z</time>
      </trkpt>
      <trkpt lat="46.93567" lon="5.83545">
        <ele>383.7</ele>
        <time>2016-06-04T10:35:24Z</time>
      </trkpt>
      <trkpt lat="46.93568" lon="5.83533">
        <ele>382.74</ele>
        <time>2016-06-04T10:35:35Z</time>
      </trkpt>
      <trkpt lat="46.93568" lon="5.83522">
        <ele>381.3</ele>
        <time>2016-06-04T10:35:45Z</time>
      </trkpt>
      <trkpt lat="46.93567" lon="5.83516">
        <ele>380.82</ele>
        <time>2016-06-04T10:35:48Z</time>
      </trkpt>
      <trkpt lat="46.93568" lon="5.83496">
        <ele>381.3</ele>
        <time>2016-06-04T10:36:00Z</time>
      </trkpt>
      <trkpt lat="46.93568" lon="5.83495">
        <ele>381.3</ele>
        <time>2016-06-04T10:36:01Z</time>
      </trkpt>
      <trkpt lat="46.93568" lon="5.83488">
        <ele>381.78</ele>
        <time>2016-06-04T10:36:06Z</time>
      </trkpt>
      <trkpt lat="46.93568" lon="5.83475">
        <ele>383.22</ele>
        <time>2016-06-04T10:36:18Z</time>
      </trkpt>
      <trkpt lat="46.93568" lon="5.83459">
        <ele>386.11</ele>
        <time>2016-06-04T10:36:30Z</time>
      </trkpt>
      <trkpt lat="46.93568" lon="5.83444">
        <ele>388.51</ele>
        <time>2016-06-04T10:36:39Z</time>
      </trkpt>
      <trkpt lat="46.93564" lon="5.83433">
        <ele>389.47</ele>
        <time>2016-06-04T10:36:48Z</time>
      </trkpt>
      <trkpt lat="46.93561" lon="5.83419">
        <ele>387.07</ele>
        <time>2016-06-04T10:37:02Z</time>
      </trkpt>
      <trkpt lat="46.93557" lon="5.83406">
        <ele>386.11</ele>
        <time>2016-06-04T10:37:13Z</time>
      </trkpt>
      <trkpt lat="46.93555" lon="5.83395">
        <ele>384.66</ele>
        <time>2016-06-04T10:37:23Z</time>
      </trkpt>
      <trkpt lat="46.93553" lon="5.83385">
        <ele>384.66</ele>
        <time>2016-06-04T10:37:32Z</time>
      </trkpt>
      <trkpt lat="46.93553" lon="5.83375">
        <ele>385.63</ele>
        <time>2016-06-04T10:37:42Z</time>
      </trkpt>
      <trkpt lat="46.93554" lon="5.83374">
        <ele>385.63</ele>
        <time>2016-06-04T10:37:43Z</time>
      </trkpt>
      <trkpt lat="46.9355" lon="5.83354">
        <ele>389.47</ele>
        <time>2016-06-04T10:37:53Z</time>
      </trkpt>
      <trkpt lat="46.93547" lon="5.83334">
        <ele>392.84</ele>
        <time>2016-06-04T10:38:08Z</time>
      </trkpt>
      <trkpt lat="46.93546" lon="5.83315">
        <ele>394.28</ele>
        <time>2016-06-04T10:38:22Z</time>
      </trkpt>
      <trkpt lat="46.93544" lon="5.83298">
        <ele>394.28</ele>
        <time>2016-06-04T10:38:35Z</time>
      </trkpt>
      <trkpt lat="46.93544" lon="5.83291">
        <ele>394.28</ele>
        <time>2016-06-04T10:38:41Z</time>
      </trkpt>
      <trkpt lat="46.93544" lon="5.8328">
        <ele>393.8</ele>
        <time>2016-06-04T10:38:51Z</time>
      </trkpt>
      <trkpt lat="46.93545" lon="5.83264">
        <ele>397.16</ele>
        <time>2016-06-04T10:39:02Z</time>
      </trkpt>
      <trkpt lat="46.93542" lon="5.83251">
        <ele>396.68</ele>
        <time>2016-06-04T10:39:14Z</time>
      </trkpt>
      <trkpt lat="46.93541" lon="5.83233">
        <ele>396.68</ele>
        <time>2016-06-04T10:39:28Z</time>
      </trkpt>
      <trkpt lat="46.93539" lon="5.83215">
        <ele>401.97</ele>
        <time>2016-06-04T10:39:42Z</time>
      </trkpt>
      <trkpt lat="46.93533" lon="5.83196">
        <ele>401.97</ele>
        <time>2016-06-04T10:39:53Z</time>
      </trkpt>
      <trkpt lat="46.93536" lon="5.83183">
        <ele>401.97</ele>
        <time>2016-06-04T10:40:06Z</time>
      </trkpt>
      <trkpt lat="46.93538" lon="5.83181">
        <ele>402.93</ele>
        <time>2016-06-04T10:40:17Z</time>
      </trkpt>
      <trkpt lat="46.9354" lon="5.83178">
        <ele>404.37</ele>
        <time>2016-06-04T10:40:29Z</time>
      </trkpt>
      <trkpt lat="46.93544" lon="5.83174">
        <ele>405.81</ele>
        <time>2016-06-04T10:40:41Z</time>
      </trkpt>
      <trkpt lat="46.93545" lon="5.83173">
        <ele>406.29</ele>
        <time>2016-06-04T10:40:44Z</time>
      </trkpt>
      <trkpt lat="46.93554" lon="5.83173">
        <ele>407.26</ele>
        <time>2016-06-04T10:40:50Z</time>
      </trkpt>
      <trkpt lat="46.93563" lon="5.83172">
        <ele>408.7</ele>
        <time>2016-06-04T10:40:57Z</time>
      </trkpt>
      <trkpt lat="46.93568" lon="5.83175">
        <ele>410.62</ele>
        <time>2016-06-04T10:41:12Z</time>
      </trkpt>
      <trkpt lat="46.93574" lon="5.83175">
        <ele>411.58</ele>
        <time>2016-06-04T10:41:24Z</time>
      </trkpt>
      <trkpt lat="46.93578" lon="5.83173">
        <ele>413.02</ele>
        <time>2016-06-04T10:41:31Z</time>
      </trkpt>
      <trkpt lat="46.93602" lon="5.83149">
        <ele>414.95</ele>
        <time>2016-06-04T10:41:48Z</time>
      </trkpt>
      <trkpt lat="46.93593" lon="5.83133">
        <ele>419.27</ele>
        <time>2016-06-04T10:42:03Z</time>
      </trkpt>
      <trkpt lat="46.93598" lon="5.83121">
        <ele>422.16</ele>
        <time>2016-06-04T10:42:17Z</time>
      </trkpt>
      <trkpt lat="46.93597" lon="5.83119">
        <ele>422.16</ele>
        <time>2016-06-04T10:42:20Z</time>
      </trkpt>
      <trkpt lat="46.93595" lon="5.83108">
        <ele>422.64</ele>
        <time>2016-06-04T10:42:32Z</time>
      </trkpt>
      <trkpt lat="46.93591" lon="5.83097">
        <ele>421.68</ele>
        <time>2016-06-04T10:42:45Z</time>
      </trkpt>
      <trkpt lat="46.93585" lon="5.83087">
        <ele>419.75</ele>
        <time>2016-06-04T10:42:55Z</time>
      </trkpt>
      <trkpt lat="46.93577" lon="5.83079">
        <ele>422.16</ele>
        <time>2016-06-04T10:43:05Z</time>
      </trkpt>
      <trkpt lat="46.93568" lon="5.83066">
        <ele>425.04</ele>
        <time>2016-06-04T10:43:16Z</time>
      </trkpt>
      <trkpt lat="46.93568" lon="5.83066">
        <ele>425.52</ele>
        <time>2016-06-04T10:43:17Z</time>
      </trkpt>
      <trkpt lat="46.93558" lon="5.83055">
        <ele>428.4</ele>
        <time>2016-06-04T10:43:30Z</time>
      </trkpt>
      <trkpt lat="46.93548" lon="5.83048">
        <ele>427.92</ele>
        <time>2016-06-04T10:43:43Z</time>
      </trkpt>
      <trkpt lat="46.93538" lon="5.83043">
        <ele>429.85</ele>
        <time>2016-06-04T10:43:56Z</time>
      </trkpt>
      <trkpt lat="46.93531" lon="5.83039">
        <ele>432.25</ele>
        <time>2016-06-04T10:44:07Z</time>
      </trkpt>
      <trkpt lat="46.93529" lon="5.83038">
        <ele>432.73</ele>
        <time>2016-06-04T10:44:09Z</time>
      </trkpt>
      <trkpt lat="46.93517" lon="5.83028">
        <ele>435.61</ele>
        <time>2016-06-04T10:44:23Z</time>
      </trkpt>
      <trkpt lat="46.93511" lon="5.8302">
        <ele>437.54</ele>
        <time>2016-06-04T10:44:34Z</time>
      </trkpt>
      <trkpt lat="46.93504" lon="5.83006">
        <ele>437.06</ele>
        <time>2016-06-04T10:44:47Z</time>
      </trkpt>
      <trkpt lat="46.935" lon="5.82996">
        <ele>435.61</ele>
        <time>2016-06-04T10:44:58Z</time>
      </trkpt>
      <trkpt lat="46.93498" lon="5.82993">
        <ele>435.61</ele>
        <time>2016-06-04T10:45:07Z</time>
      </trkpt>
      <trkpt lat="46.93492" lon="5.82985">
        <ele>433.21</ele>
        <time>2016-06-04T10:45:18Z</time>
      </trkpt>
      <trkpt lat="46.93483" lon="5.82972">
        <ele>437.06</ele>
        <time>2016-06-04T10:45:30Z</time>
      </trkpt>
      <trkpt lat="46.93475" lon="5.82961">
        <ele>440.9</ele>
        <time>2016-06-04T10:45:39Z</time>
      </trkpt>
      <trkpt lat="46.93468" lon="5.82951">
        <ele>443.31</ele>
        <time>2016-06-04T10:45:50Z</time>
      </trkpt>
      <trkpt lat="46.9346" lon="5.82938">
        <ele>447.63</ele>
        <time>2016-06-04T10:46:01Z</time>
      </trkpt>
      <trkpt lat="46.93453" lon="5.82926">
        <ele>451.96</ele>
        <time>2016-06-04T10:46:11Z</time>
      </trkpt>
      <trkpt lat="46.93445" lon="5.82915">
        <ele>453.4</ele>
        <time>2016-06-04T10:46:23Z</time>
      </trkpt>
      <trkpt lat="46.93439" lon="5.82906">
        <ele>454.84</ele>
        <time>2016-06-04T10:46:34Z</time>
      </trkpt>
      <trkpt lat="46.93434" lon="5.82898">
        <ele>456.28</ele>
        <time>2016-06-04T10:46:48Z</time>
      </trkpt>
      <trkpt lat="46.93433" lon="5.82896">
        <ele>456.76</ele>
        <time>2016-06-04T10:46:50Z</time>
      </trkpt>
      <trkpt lat="46.93429" lon="5.82888">
        <ele>457.72</ele>
        <time>2016-06-04T10:46:59Z</time>
      </trkpt>
      <trkpt lat="46.93424" lon="5.82876">
        <ele>461.09</ele>
        <time>2016-06-04T10:47:08Z</time>
      </trkpt>
      <trkpt lat="46.93416" lon="5.82861">
        <ele>461.57</ele>
        <time>2016-06-04T10:47:20Z</time>
      </trkpt>
      <trkpt lat="46.93409" lon="5.82848">
        <ele>460.61</ele>
        <time>2016-06-04T10:47:32Z</time>
      </trkpt>
      <trkpt lat="46.93404" lon="5.82839">
        <ele>462.53</ele>
        <time>2016-06-04T10:47:42Z</time>
      </trkpt>
      <trkpt lat="46.934" lon="5.82829">
        <ele>464.45</ele>
        <time>2016-06-04T10:47:53Z</time>
      </trkpt>
      <trkpt lat="46.93398" lon="5.82824">
        <ele>464.45</ele>
        <time>2016-06-04T10:47:58Z</time>
      </trkpt>
      <trkpt lat="46.93395" lon="5.82815">
        <ele>466.38</ele>
        <time>2016-06-04T10:48:07Z</time>
      </trkpt>
      <trkpt lat="46.93395" lon="5.82808">
        <ele>468.3</ele>
        <time>2016-06-04T10:48:19Z</time>
      </trkpt>
      <trkpt lat="46.93397" lon="5.828">
        <ele>469.74</ele>
        <time>2016-06-04T10:48:30Z</time>
      </trkpt>
      <trkpt lat="46.934" lon="5.82795">
        <ele>471.18</ele>
        <time>2016-06-04T10:48:37Z</time>
      </trkpt>
      <trkpt lat="46.93409" lon="5.8279">
        <ele>473.59</ele>
        <time>2016-06-04T10:48:50Z</time>
      </trkpt>
      <trkpt lat="46.9342" lon="5.82783">
        <ele>475.99</ele>
        <time>2016-06-04T10:49:04Z</time>
      </trkpt>
      <trkpt lat="46.93426" lon="5.82781">
        <ele>478.87</ele>
        <time>2016-06-04T10:49:15Z</time>
      </trkpt>
      <trkpt lat="46.93433" lon="5.82782">
        <ele>481.76</ele>
        <time>2016-06-04T10:49:24Z</time>
      </trkpt>
      <trkpt lat="46.93436" lon="5.82783">
        <ele>482.24</ele>
        <time>2016-06-04T10:49:26Z</time>
      </trkpt>
      <trkpt lat="46.93445" lon="5.8278">
        <ele>485.12</ele>
        <time>2016-06-04T10:49:35Z</time>
      </trkpt>
      <trkpt lat="46.93447" lon="5.82781">
        <ele>485.12</ele>
        <time>2016-06-04T10:49:37Z</time>
      </trkpt>
      <trkpt lat="46.9346" lon="5.82783">
        <ele>486.08</ele>
        <time>2016-06-04T10:49:50Z</time>
      </trkpt>
      <trkpt lat="46.9346" lon="5.82784">
        <ele>485.6</ele>
        <time>2016-06-04T10:49:52Z</time>
      </trkpt>
      <trkpt lat="46.93466" lon="5.82785">
        <ele>485.6</ele>
        <time>2016-06-04T10:49:59Z</time>
      </trkpt>
      <trkpt lat="46.93479" lon="5.82792">
        <ele>487.53</ele>
        <time>2016-06-04T10:50:13Z</time>
      </trkpt>
      <trkpt lat="46.93485" lon="5.82793">
        <ele>488.01</ele>
        <time>2016-06-04T10:50:22Z</time>
      </trkpt>
      <trkpt lat="46.93491" lon="5.82797">
        <ele>488.49</ele>
        <time>2016-06-04T10:50:35Z</time>
      </trkpt>
      <trkpt lat="46.93499" lon="5.82799">
        <ele>488.49</ele>
        <time>2016-06-04T10:50:47Z</time>
      </trkpt>
      <trkpt lat="46.9351" lon="5.82798">
        <ele>491.37</ele>
        <time>2016-06-04T10:50:59Z</time>
      </trkpt>
      <trkpt lat="46.93514" lon="5.82788">
        <ele>491.37</ele>
        <time>2016-06-04T10:51:12Z</time>
      </trkpt>
      <trkpt lat="46.93512" lon="5.82786">
        <ele>492.33</ele>
        <time>2016-06-04T10:51:24Z</time>
      </trkpt>
      <trkpt lat="46.93511" lon="5.82783">
        <ele>493.29</ele>
        <time>2016-06-04T10:51:45Z</time>
      </trkpt>
      <trkpt lat="46.93511" lon="5.82784">
        <ele>494.26</ele>
        <time>2016-06-04T10:52:16Z</time>
      </trkpt>
      <trkpt lat="46.93511" lon="5.82784">
        <ele>493.77</ele>
        <time>2016-06-04T10:52:38Z</time>
      </trkpt>
      <trkpt lat="46.93511" lon="5.82784">
        <ele>493.77</ele>
        <time>2016-06-04T10:53:01Z</time>
      </trkpt>
      <trkpt lat="46.93511" lon="5.82784">
        <ele>494.26</ele>
        <time>2016-06-04T10:53:27Z</time>
      </trkpt>
      <trkpt lat="46.93511" lon="5.8278">
        <ele>495.22</ele>
        <time>2016-06-04T10:53:45Z</time>
      </trkpt>
      <trkpt lat="46.93502" lon="5.82768">
        <ele>499.06</ele>
        <time>2016-06-04T10:53:59Z</time>
      </trkpt>
      <trkpt lat="46.93498" lon="5.82761">
        <ele>499.54</ele>
        <time>2016-06-04T10:54:11Z</time>
      </trkpt>
      <trkpt lat="46.93491" lon="5.82753">
        <ele>498.58</ele>
        <time>2016-06-04T10:54:22Z</time>
      </trkpt>
      <trkpt lat="46.93487" lon="5.82747">
        <ele>499.06</ele>
        <time>2016-06-04T10:54:28Z</time>
      </trkpt>
      <trkpt lat="46.93484" lon="5.82732">
        <ele>499.06</ele>
        <time>2016-06-04T10:54:41Z</time>
      </trkpt>
      <trkpt lat="46.93483" lon="5.82722">
        <ele>497.14</ele>
        <time>2016-06-04T10:54:53Z</time>
      </trkpt>
      <trkpt lat="46.93476" lon="5.82709">
        <ele>493.77</ele>
        <time>2016-06-04T10:55:08Z</time>
      </trkpt>
      <trkpt lat="46.93471" lon="5.82696">
        <ele>491.85</ele>
        <time>2016-06-04T10:55:22Z</time>
      </trkpt>
      <trkpt lat="46.93469" lon="5.82691">
        <ele>491.85</ele>
        <time>2016-06-04T10:55:36Z</time>
      </trkpt>
      <trkpt lat="46.93464" lon="5.8268">
        <ele>490.41</ele>
        <time>2016-06-04T10:55:50Z</time>
      </trkpt>
      <trkpt lat="46.93461" lon="5.8267">
        <ele>487.53</ele>
        <time>2016-06-04T10:56:04Z</time>
      </trkpt>
      <trkpt lat="46.93458" lon="5.82664">
        <ele>487.53</ele>
        <time>2016-06-04T10:56:17Z</time>
      </trkpt>
      <trkpt lat="46.93452" lon="5.82648">
        <ele>488.01</ele>
        <time>2016-06-04T10:56:32Z</time>
      </trkpt>
      <trkpt lat="46.93446" lon="5.82626">
        <ele>491.85</ele>
        <time>2016-06-04T10:56:44Z</time>
      </trkpt>
      <trkpt lat="46.93432" lon="5.82595">
        <ele>500.02</ele>
        <time>2016-06-04T10:56:59Z</time>
      </trkpt>
      <trkpt lat="46.93428" lon="5.82585">
        <ele>500.98</ele>
        <time>2016-06-04T10:57:13Z</time>
      </trkpt>
      <trkpt lat="46.93419" lon="5.82554">
        <ele>510.12</ele>
        <time>2016-06-04T10:57:28Z</time>
      </trkpt>
      <trkpt lat="46.93416" lon="5.8254">
        <ele>511.08</ele>
        <time>2016-06-04T10:57:41Z</time>
      </trkpt>
      <trkpt lat="46.93416" lon="5.82523">
        <ele>513.48</ele>
        <time>2016-06-04T10:57:52Z</time>
      </trkpt>
      <trkpt lat="46.93408" lon="5.82507">
        <ele>520.69</ele>
        <time>2016-06-04T10:58:07Z</time>
      </trkpt>
      <trkpt lat="46.93405" lon="5.82493">
        <ele>519.25</ele>
        <time>2016-06-04T10:58:23Z</time>
      </trkpt>
      <trkpt lat="46.934" lon="5.82483">
        <ele>521.17</ele>
        <time>2016-06-04T10:58:36Z</time>
      </trkpt>
      <trkpt lat="46.93392" lon="5.82478">
        <ele>524.54</ele>
        <time>2016-06-04T10:58:46Z</time>
      </trkpt>
      <trkpt lat="46.93378" lon="5.82473">
        <ele>527.9</ele>
        <time>2016-06-04T10:58:56Z</time>
      </trkpt>
      <trkpt lat="46.93373" lon="5.82471">
        <ele>528.38</ele>
        <time>2016-06-04T10:59:01Z</time>
      </trkpt>
      <trkpt lat="46.93369" lon="5.82468">
        <ele>529.34</ele>
        <time>2016-06-04T10:59:06Z</time>
      </trkpt>
      <trkpt lat="46.93366" lon="5.82465">
        <ele>530.3</ele>
        <time>2016-06-04T10:59:10Z</time>
      </trkpt>
      <trkpt lat="46.93362" lon="5.82454">
        <ele>531.27</ele>
        <time>2016-06-04T10:59:22Z</time>
      </trkpt>
      <trkpt lat="46.93366" lon="5.82446">
        <ele>532.23</ele>
        <time>2016-06-04T10:59:33Z</time>
      </trkpt>
      <trkpt lat="46.93372" lon="5.8244">
        <ele>531.75</ele>
        <time>2016-06-04T10:59:43Z</time>
      </trkpt>
      <trkpt lat="46.93374" lon="5.82439">
        <ele>532.23</ele>
        <time>2016-06-04T10:59:50Z</time>
      </trkpt>
      <trkpt lat="46.93375" lon="5.82435">
        <ele>531.75</ele>
        <time>2016-06-04T10:59:58Z</time>
      </trkpt>
      <trkpt lat="46.93383" lon="5.82429">
        <ele>531.75</ele>
        <time>2016-06-04T11:00:07Z</time>
      </trkpt>
      <trkpt lat="46.93387" lon="5.82426">
        <ele>532.23</ele>
        <time>2016-06-04T11:00:10Z</time>
      </trkpt>
      <trkpt lat="46.93399" lon="5.82415">
        <ele>533.19</ele>
        <time>2016-06-04T11:00:24Z</time>
      </trkpt>
      <trkpt lat="46.93409" lon="5.82407">
        <ele>533.67</ele>
        <time>2016-06-04T11:00:36Z</time>
      </trkpt>
      <trkpt lat="46.93419" lon="5.82396">
        <ele>534.63</ele>
        <time>2016-06-04T11:00:50Z</time>
      </trkpt>
      <trkpt lat="46.93423" lon="5.82388">
        <ele>534.63</ele>
        <time>2016-06-04T11:01:03Z</time>
      </trkpt>
      <trkpt lat="46.93423" lon="5.82388">
        <ele>534.63</ele>
        <time>2016-06-04T11:01:04Z</time>
      </trkpt>
      <trkpt lat="46.93426" lon="5.82377">
        <ele>531.27</ele>
        <time>2016-06-04T11:01:15Z</time>
      </trkpt>
      <trkpt lat="46.93426" lon="5.8237">
        <ele>529.82</ele>
        <time>2016-06-04T11:01:26Z</time>
      </trkpt>
      <trkpt lat="46.93428" lon="5.82366">
        <ele>529.34</ele>
        <time>2016-06-04T11:01:29Z</time>
      </trkpt>
      <trkpt lat="46.93427" lon="5.8235">
        <ele>529.82</ele>
        <time>2016-06-04T11:01:39Z</time>
      </trkpt>
      <trkpt lat="46.93424" lon="5.82328">
        <ele>535.59</ele>
        <time>2016-06-04T11:01:52Z</time>
      </trkpt>
      <trkpt lat="46.93421" lon="5.8232">
        <ele>537.03</ele>
        <time>2016-06-04T11:01:57Z</time>
      </trkpt>
      <trkpt lat="46.93418" lon="5.82307">
        <ele>539.44</ele>
        <time>2016-06-04T11:02:10Z</time>
      </trkpt>
      <trkpt lat="46.93415" lon="5.82295">
        <ele>539.92</ele>
        <time>2016-06-04T11:02:18Z</time>
      </trkpt>
      <trkpt lat="46.93412" lon="5.82272">
        <ele>541.36</ele>
        <time>2016-06-04T11:02:32Z</time>
      </trkpt>
      <trkpt lat="46.93411" lon="5.82262">
        <ele>541.84</ele>
        <time>2016-06-04T11:02:38Z</time>
      </trkpt>
      <trkpt lat="46.93409" lon="5.82242">
        <ele>540.88</ele>
        <time>2016-06-04T11:02:51Z</time>
      </trkpt>
      <trkpt lat="46.9341" lon="5.82218">
        <ele>542.32</ele>
        <time>2016-06-04T11:03:05Z</time>
      </trkpt>
      <trkpt lat="46.9341" lon="5.82217">
        <ele>542.32</ele>
        <time>2016-06-04T11:03:06Z</time>
      </trkpt>
      <trkpt lat="46.9341" lon="5.82195">
        <ele>540.4</ele>
        <time>2016-06-04T11:03:20Z</time>
      </trkpt>
      <trkpt lat="46.9341" lon="5.82173">
        <ele>540.4</ele>
        <time>2016-06-04T11:03:33Z</time>
      </trkpt>
      <trkpt lat="46.93411" lon="5.82159">
        <ele>539.92</ele>
        <time>2016-06-04T11:03:42Z</time>
      </trkpt>
      <trkpt lat="46.93409" lon="5.82133">
        <ele>540.88</ele>
        <time>2016-06-04T11:03:57Z</time>
      </trkpt>
      <trkpt lat="46.93402" lon="5.82116">
        <ele>541.36</ele>
        <time>2016-06-04T11:04:09Z</time>
      </trkpt>
      <trkpt lat="46.934" lon="5.82114">
        <ele>541.36</ele>
        <time>2016-06-04T11:04:11Z</time>
      </trkpt>
      <trkpt lat="46.93399" lon="5.82112">
        <ele>541.36</ele>
        <time>2016-06-04T11:04:13Z</time>
      </trkpt>
      <trkpt lat="46.93398" lon="5.82107">
        <ele>541.84</ele>
        <time>2016-06-04T11:04:26Z</time>
      </trkpt>
      <trkpt lat="46.934" lon="5.82107">
        <ele>541.84</ele>
        <time>2016-06-04T11:04:28Z</time>
      </trkpt>
      <trkpt lat="46.93401" lon="5.82102">
        <ele>541.84</ele>
        <time>2016-06-04T11:04:32Z</time>
      </trkpt>
      <trkpt lat="46.93399" lon="5.82084">
        <ele>538.96</ele>
        <time>2016-06-04T11:04:45Z</time>
      </trkpt>
      <trkpt lat="46.93396" lon="5.82065">
        <ele>539.44</ele>
        <time>2016-06-04T11:04:57Z</time>
      </trkpt>
      <trkpt lat="46.93392" lon="5.82044">
        <ele>539.92</ele>
        <time>2016-06-04T11:05:10Z</time>
      </trkpt>
      <trkpt lat="46.93388" lon="5.82017">
        <ele>540.4</ele>
        <time>2016-06-04T11:05:27Z</time>
      </trkpt>
      <trkpt lat="46.93387" lon="5.82003">
        <ele>540.4</ele>
        <time>2016-06-04T11:05:38Z</time>
      </trkpt>
      <trkpt lat="46.93384" lon="5.81982">
        <ele>540.4</ele>
        <time>2016-06-04T11:05:54Z</time>
      </trkpt>
      <trkpt lat="46.93383" lon="5.81961">
        <ele>540.4</ele>
        <time>2016-06-04T11:06:08Z</time>
      </trkpt>
      <trkpt lat="46.93383" lon="5.81947">
        <ele>540.88</ele>
        <time>2016-06-04T11:06:19Z</time>
      </trkpt>
      <trkpt lat="46.93382" lon="5.8193">
        <ele>539.44</ele>
        <time>2016-06-04T11:06:30Z</time>
      </trkpt>
      <trkpt lat="46.93379" lon="5.81913">
        <ele>539.92</ele>
        <time>2016-06-04T11:06:43Z</time>
      </trkpt>
      <trkpt lat="46.93379" lon="5.81908">
        <ele>539.92</ele>
        <time>2016-06-04T11:06:53Z</time>
      </trkpt>
      <trkpt lat="46.9338" lon="5.81903">
        <ele>539.44</ele>
        <time>2016-06-04T11:07:06Z</time>
      </trkpt>
      <trkpt lat="46.93379" lon="5.819">
        <ele>539.44</ele>
        <time>2016-06-04T11:07:08Z</time>
      </trkpt>
      <trkpt lat="46.93378" lon="5.81877">
        <ele>538.48</ele>
        <time>2016-06-04T11:07:22Z</time>
      </trkpt>
      <trkpt lat="46.93375" lon="5.81862">
        <ele>538.48</ele>
        <time>2016-06-04T11:07:32Z</time>
      </trkpt>
      <trkpt lat="46.93375" lon="5.81844">
        <ele>537.99</ele>
        <time>2016-06-04T11:07:43Z</time>
      </trkpt>
      <trkpt lat="46.93374" lon="5.81841">
        <ele>537.99</ele>
        <time>2016-06-04T11:07:45Z</time>
      </trkpt>
      <trkpt lat="46.93371" lon="5.81828">
        <ele>537.51</ele>
        <time>2016-06-04T11:07:53Z</time>
      </trkpt>
      <trkpt lat="46.93368" lon="5.81815">
        <ele>537.03</ele>
        <time>2016-06-04T11:08:02Z</time>
      </trkpt>
      <trkpt lat="46.93367" lon="5.81808">
        <ele>537.03</ele>
        <time>2016-06-04T11:08:07Z</time>
      </trkpt>
      <trkpt lat="46.93365" lon="5.81796">
        <ele>536.07</ele>
        <time>2016-06-04T11:08:17Z</time>
      </trkpt>
      <trkpt lat="46.93363" lon="5.81792">
        <ele>536.55</ele>
        <time>2016-06-04T11:08:29Z</time>
      </trkpt>
      <trkpt lat="46.93363" lon="5.81789">
        <ele>537.03</ele>
        <time>2016-06-04T11:08:33Z</time>
      </trkpt>
      <trkpt lat="46.93365" lon="5.81779">
        <ele>535.59</ele>
        <time>2016-06-04T11:08:41Z</time>
      </trkpt>
      <trkpt lat="46.93365" lon="5.81763">
        <ele>534.63</ele>
        <time>2016-06-04T11:08:51Z</time>
      </trkpt>
      <trkpt lat="46.93365" lon="5.81753">
        <ele>534.15</ele>
        <time>2016-06-04T11:08:57Z</time>
      </trkpt>
      <trkpt lat="46.93365" lon="5.8175">
        <ele>534.15</ele>
        <time>2016-06-04T11:08:59Z</time>
      </trkpt>
      <trkpt lat="46.93366" lon="5.81743">
        <ele>534.63</ele>
        <time>2016-06-04T11:09:05Z</time>
      </trkpt>
      <trkpt lat="46.93365" lon="5.8173">
        <ele>534.15</ele>
        <time>2016-06-04T11:09:15Z</time>
      </trkpt>
      <trkpt lat="46.93363" lon="5.81727">
        <ele>533.19</ele>
        <time>2016-06-04T11:09:18Z</time>
      </trkpt>
      <trkpt lat="46.93368" lon="5.81706">
        <ele>530.3</ele>
        <time>2016-06-04T11:09:32Z</time>
      </trkpt>
      <trkpt lat="46.93367" lon="5.81695">
        <ele>527.9</ele>
        <time>2016-06-04T11:09:41Z</time>
      </trkpt>
      <trkpt lat="46.93369" lon="5.81683">
        <ele>525.98</ele>
        <time>2016-06-04T11:09:52Z</time>
      </trkpt>
      <trkpt lat="46.93367" lon="5.8168">
        <ele>525.02</ele>
        <time>2016-06-04T11:09:55Z</time>
      </trkpt>
      <trkpt lat="46.93365" lon="5.81678">
        <ele>525.02</ele>
        <time>2016-06-04T11:09:57Z</time>
      </trkpt>
      <trkpt lat="46.93365" lon="5.8167">
        <ele>524.54</ele>
        <time>2016-06-04T11:10:03Z</time>
      </trkpt>
      <trkpt lat="46.93367" lon="5.81652">
        <ele>523.09</ele>
        <time>2016-06-04T11:10:14Z</time>
      </trkpt>
      <trkpt lat="46.93366" lon="5.81643">
        <ele>522.13</ele>
        <time>2016-06-04T11:10:23Z</time>
      </trkpt>
      <trkpt lat="46.93366" lon="5.8164">
        <ele>522.13</ele>
        <time>2016-06-04T11:10:26Z</time>
      </trkpt>
      <trkpt lat="46.93372" lon="5.81628">
        <ele>522.61</ele>
        <time>2016-06-04T11:10:36Z</time>
      </trkpt>
      <trkpt lat="46.93374" lon="5.81614">
        <ele>525.5</ele>
        <time>2016-06-04T11:10:49Z</time>
      </trkpt>
      <trkpt lat="46.93375" lon="5.81609">
        <ele>527.9</ele>
        <time>2016-06-04T11:11:03Z</time>
      </trkpt>
      <trkpt lat="46.9338" lon="5.81603">
        <ele>531.27</ele>
        <time>2016-06-04T11:11:18Z</time>
      </trkpt>
      <trkpt lat="46.93382" lon="5.81599">
        <ele>532.71</ele>
        <time>2016-06-04T11:11:31Z</time>
      </trkpt>
      <trkpt lat="46.93385" lon="5.81593">
        <ele>532.71</ele>
        <time>2016-06-04T11:11:46Z</time>
      </trkpt>
      <trkpt lat="46.9339" lon="5.81585">
        <ele>530.79</ele>
        <time>2016-06-04T11:12:02Z</time>
      </trkpt>
      <trkpt lat="46.93391" lon="5.81584">
        <ele>530.79</ele>
        <time>2016-06-04T11:12:03Z</time>
      </trkpt>
      <trkpt lat="46.93394" lon="5.81583">
        <ele>530.79</ele>
        <time>2016-06-04T11:12:06Z</time>
      </trkpt>
      <trkpt lat="46.93398" lon="5.81572">
        <ele>529.34</ele>
        <time>2016-06-04T11:12:16Z</time>
      </trkpt>
      <trkpt lat="46.93404" lon="5.81559">
        <ele>528.38</ele>
        <time>2016-06-04T11:12:26Z</time>
      </trkpt>
      <trkpt lat="46.93404" lon="5.81558">
        <ele>528.38</ele>
        <time>2016-06-04T11:12:27Z</time>
      </trkpt>
      <trkpt lat="46.93414" lon="5.81542">
        <ele>528.38</ele>
        <time>2016-06-04T11:12:38Z</time>
      </trkpt>
      <trkpt lat="46.93419" lon="5.81533">
        <ele>529.34</ele>
        <time>2016-06-04T11:12:51Z</time>
      </trkpt>
      <trkpt lat="46.93425" lon="5.81528">
        <ele>533.19</ele>
        <time>2016-06-04T11:13:03Z</time>
      </trkpt>
      <trkpt lat="46.9343" lon="5.81524">
        <ele>534.63</ele>
        <time>2016-06-04T11:13:14Z</time>
      </trkpt>
      <trkpt lat="46.93437" lon="5.81519">
        <ele>535.59</ele>
        <time>2016-06-04T11:13:24Z</time>
      </trkpt>
      <trkpt lat="46.93446" lon="5.81509">
        <ele>535.11</ele>
        <time>2016-06-04T11:13:36Z</time>
      </trkpt>
      <trkpt lat="46.93452" lon="5.81505">
        <ele>534.63</ele>
        <time>2016-06-04T11:13:46Z</time>
      </trkpt>
      <trkpt lat="46.93458" lon="5.81503">
        <ele>533.67</ele>
        <time>2016-06-04T11:13:57Z</time>
      </trkpt>
      <trkpt lat="46.93463" lon="5.81497">
        <ele>532.71</ele>
        <time>2016-06-04T11:14:07Z</time>
      </trkpt>
      <trkpt lat="46.9347" lon="5.81486">
        <ele>532.23</ele>
        <time>2016-06-04T11:14:17Z</time>
      </trkpt>
      <trkpt lat="46.93478" lon="5.81477">
        <ele>536.07</ele>
        <time>2016-06-04T11:14:28Z</time>
      </trkpt>
      <trkpt lat="46.93486" lon="5.81468">
        <ele>536.07</ele>
        <time>2016-06-04T11:14:40Z</time>
      </trkpt>
      <trkpt lat="46.9349" lon="5.81467">
        <ele>535.11</ele>
        <time>2016-06-04T11:14:51Z</time>
      </trkpt>
      <trkpt lat="46.93492" lon="5.81467">
        <ele>534.15</ele>
        <time>2016-06-04T11:14:54Z</time>
      </trkpt>
      <trkpt lat="46.93494" lon="5.81458">
        <ele>530.3</ele>
        <time>2016-06-04T11:15:06Z</time>
      </trkpt>
      <trkpt lat="46.93504" lon="5.81449">
        <ele>531.75</ele>
        <time>2016-06-04T11:15:17Z</time>
      </trkpt>
      <trkpt lat="46.93515" lon="5.81445">
        <ele>530.79</ele>
        <time>2016-06-04T11:15:28Z</time>
      </trkpt>
      <trkpt lat="46.93525" lon="5.81442">
        <ele>535.11</ele>
        <time>2016-06-04T11:15:39Z</time>
      </trkpt>
      <trkpt lat="46.9354" lon="5.81431">
        <ele>539.92</ele>
        <time>2016-06-04T11:15:49Z</time>
      </trkpt>
      <trkpt lat="46.93549" lon="5.81425">
        <ele>542.8</ele>
        <time>2016-06-04T11:15:58Z</time>
      </trkpt>
      <trkpt lat="46.93551" lon="5.81423">
        <ele>542.8</ele>
        <time>2016-06-04T11:16:00Z</time>
      </trkpt>
      <trkpt lat="46.93557" lon="5.81416">
        <ele>544.24</ele>
        <time>2016-06-04T11:16:12Z</time>
      </trkpt>
      <trkpt lat="46.9356" lon="5.81409">
        <ele>545.69</ele>
        <time>2016-06-04T11:16:21Z</time>
      </trkpt>
      <trkpt lat="46.93561" lon="5.81407">
        <ele>545.2</ele>
        <time>2016-06-04T11:16:27Z</time>
      </trkpt>
      <trkpt lat="46.93569" lon="5.81398">
        <ele>543.76</ele>
        <time>2016-06-04T11:16:40Z</time>
      </trkpt>
      <trkpt lat="46.9357" lon="5.81397">
        <ele>543.76</ele>
        <time>2016-06-04T11:16:42Z</time>
      </trkpt>
      <trkpt lat="46.93574" lon="5.81391">
        <ele>542.32</ele>
        <time>2016-06-04T11:16:53Z</time>
      </trkpt>
      <trkpt lat="46.93574" lon="5.81391">
        <ele>542.32</ele>
        <time>2016-06-04T11:16:54Z</time>
      </trkpt>
      <trkpt lat="46.93584" lon="5.81381">
        <ele>542.32</ele>
        <time>2016-06-04T11:17:04Z</time>
      </trkpt>
      <trkpt lat="46.93585" lon="5.81379">
        <ele>543.76</ele>
        <time>2016-06-04T11:17:06Z</time>
      </trkpt>
      <trkpt lat="46.93593" lon="5.8137">
        <ele>544.72</ele>
        <time>2016-06-04T11:17:17Z</time>
      </trkpt>
      <trkpt lat="46.93594" lon="5.81369">
        <ele>544.72</ele>
        <time>2016-06-04T11:17:19Z</time>
      </trkpt>
      <trkpt lat="46.93597" lon="5.81359">
        <ele>547.61</ele>
        <time>2016-06-04T11:17:29Z</time>
      </trkpt>
      <trkpt lat="46.93598" lon="5.81356">
        <ele>547.13</ele>
        <time>2016-06-04T11:17:33Z</time>
      </trkpt>
      <trkpt lat="46.93601" lon="5.81345">
        <ele>546.17</ele>
        <time>2016-06-04T11:17:44Z</time>
      </trkpt>
      <trkpt lat="46.93605" lon="5.81344">
        <ele>546.17</ele>
        <time>2016-06-04T11:18:02Z</time>
      </trkpt>
      <trkpt lat="46.93607" lon="5.81344">
        <ele>546.65</ele>
        <time>2016-06-04T11:18:19Z</time>
      </trkpt>
      <trkpt lat="46.93609" lon="5.81344">
        <ele>546.17</ele>
        <time>2016-06-04T11:18:40Z</time>
      </trkpt>
      <trkpt lat="46.9361" lon="5.81345">
        <ele>546.65</ele>
        <time>2016-06-04T11:19:03Z</time>
      </trkpt>
      <trkpt lat="46.9361" lon="5.81346">
        <ele>547.13</ele>
        <time>2016-06-04T11:19:20Z</time>
      </trkpt>
      <trkpt lat="46.93613" lon="5.8134">
        <ele>545.69</ele>
        <time>2016-06-04T11:19:33Z</time>
      </trkpt>
      <trkpt lat="46.93619" lon="5.81335">
        <ele>545.2</ele>
        <time>2016-06-04T11:19:45Z</time>
      </trkpt>
      <trkpt lat="46.93623" lon="5.81329">
        <ele>543.76</ele>
        <time>2016-06-04T11:19:56Z</time>
      </trkpt>
      <trkpt lat="46.93625" lon="5.81321">
        <ele>540.88</ele>
        <time>2016-06-04T11:20:06Z</time>
      </trkpt>
      <trkpt lat="46.93626" lon="5.8132">
        <ele>540.4</ele>
        <time>2016-06-04T11:20:23Z</time>
      </trkpt>
      <trkpt lat="46.93631" lon="5.81318">
        <ele>541.84</ele>
        <time>2016-06-04T11:20:37Z</time>
      </trkpt>
      <trkpt lat="46.93632" lon="5.81317">
        <ele>542.32</ele>
        <time>2016-06-04T11:20:39Z</time>
      </trkpt>
      <trkpt lat="46.93643" lon="5.81313">
        <ele>545.69</ele>
        <time>2016-06-04T11:20:56Z</time>
      </trkpt>
      <trkpt lat="46.93646" lon="5.81309">
        <ele>545.69</ele>
        <time>2016-06-04T11:21:06Z</time>
      </trkpt>
      <trkpt lat="46.93651" lon="5.81304">
        <ele>546.17</ele>
        <time>2016-06-04T11:21:18Z</time>
      </trkpt>
      <trkpt lat="46.93658" lon="5.81296">
        <ele>543.76</ele>
        <time>2016-06-04T11:21:30Z</time>
      </trkpt>
      <trkpt lat="46.93661" lon="5.81287">
        <ele>540.88</ele>
        <time>2016-06-04T11:21:42Z</time>
      </trkpt>
      <trkpt lat="46.93662" lon="5.81283">
        <ele>538.96</ele>
        <time>2016-06-04T11:21:53Z</time>
      </trkpt>
      <trkpt lat="46.93668" lon="5.81279">
        <ele>536.07</ele>
        <time>2016-06-04T11:22:03Z</time>
      </trkpt>
      <trkpt lat="46.93682" lon="5.81269">
        <ele>540.88</ele>
        <time>2016-06-04T11:22:13Z</time>
      </trkpt>
      <trkpt lat="46.93692" lon="5.81261">
        <ele>544.24</ele>
        <time>2016-06-04T11:22:24Z</time>
      </trkpt>
      <trkpt lat="46.93698" lon="5.81252">
        <ele>545.69</ele>
        <time>2016-06-04T11:22:35Z</time>
      </trkpt>
      <trkpt lat="46.93699" lon="5.81249">
        <ele>544.24</ele>
        <time>2016-06-04T11:22:44Z</time>
      </trkpt>
      <trkpt lat="46.93711" lon="5.81245">
        <ele>547.61</ele>
        <time>2016-06-04T11:22:55Z</time>
      </trkpt>
      <trkpt lat="46.93714" lon="5.81238">
        <ele>550.49</ele>
        <time>2016-06-04T11:23:07Z</time>
      </trkpt>
      <trkpt lat="46.93725" lon="5.8123">
        <ele>550.49</ele>
        <time>2016-06-04T11:23:15Z</time>
      </trkpt>
      <trkpt lat="46.93734" lon="5.81223">
        <ele>550.49</ele>
        <time>2016-06-04T11:23:27Z</time>
      </trkpt>
      <trkpt lat="46.93749" lon="5.81217">
        <ele>552.9</ele>
        <time>2016-06-04T11:23:38Z</time>
      </trkpt>
      <trkpt lat="46.93761" lon="5.8121">
        <ele>549.53</ele>
        <time>2016-06-04T11:23:50Z</time>
      </trkpt>
      <trkpt lat="46.93774" lon="5.81204">
        <ele>543.76</ele>
        <time>2016-06-04T11:24:05Z</time>
      </trkpt>
      <trkpt lat="46.93786" lon="5.81192">
        <ele>536.07</ele>
        <time>2016-06-04T11:24:19Z</time>
      </trkpt>
      <trkpt lat="46.93796" lon="5.81185">
        <ele>532.23</ele>
        <time>2016-06-04T11:24:31Z</time>
      </trkpt>
      <trkpt lat="46.93798" lon="5.81181">
        <ele>532.23</ele>
        <time>2016-06-04T11:24:34Z</time>
      </trkpt>
      <trkpt lat="46.93803" lon="5.8117">
        <ele>530.3</ele>
        <time>2016-06-04T11:24:45Z</time>
      </trkpt>
      <trkpt lat="46.93812" lon="5.81161">
        <ele>528.86</ele>
        <time>2016-06-04T11:24:59Z</time>
      </trkpt>
      <trkpt lat="46.93827" lon="5.81143">
        <ele>528.38</ele>
        <time>2016-06-04T11:25:15Z</time>
      </trkpt>
      <trkpt lat="46.93832" lon="5.81132">
        <ele>530.3</ele>
        <time>2016-06-04T11:25:24Z</time>
      </trkpt>
      <trkpt lat="46.93837" lon="5.8112">
        <ele>530.79</ele>
        <time>2016-06-04T11:25:34Z</time>
      </trkpt>
      <trkpt lat="46.9384" lon="5.81116">
        <ele>529.82</ele>
        <time>2016-06-04T11:25:40Z</time>
      </trkpt>
      <trkpt lat="46.93848" lon="5.81104">
        <ele>528.86</ele>
        <time>2016-06-04T11:25:53Z</time>
      </trkpt>
      <trkpt lat="46.93853" lon="5.811">
        <ele>527.42</ele>
        <time>2016-06-04T11:25:57Z</time>
      </trkpt>
      <trkpt lat="46.93857" lon="5.81095">
        <ele>524.54</ele>
        <time>2016-06-04T11:26:10Z</time>
      </trkpt>
      <trkpt lat="46.93865" lon="5.81084">
        <ele>527.42</ele>
        <time>2016-06-04T11:26:21Z</time>
      </trkpt>
      <trkpt lat="46.93866" lon="5.81073">
        <ele>529.82</ele>
        <time>2016-06-04T11:26:32Z</time>
      </trkpt>
      <trkpt lat="46.93868" lon="5.81057">
        <ele>534.15</ele>
        <time>2016-06-04T11:26:45Z</time>
      </trkpt>
      <trkpt lat="46.93872" lon="5.81054">
        <ele>536.07</ele>
        <time>2016-06-04T11:26:56Z</time>
      </trkpt>
      <trkpt lat="46.93875" lon="5.81058">
        <ele>534.15</ele>
        <time>2016-06-04T11:27:07Z</time>
      </trkpt>
      <trkpt lat="46.93875" lon="5.81067">
        <ele>531.27</ele>
        <time>2016-06-04T11:27:22Z</time>
      </trkpt>
      <trkpt lat="46.93872" lon="5.81078">
        <ele>532.23</ele>
        <time>2016-06-04T11:27:37Z</time>
      </trkpt>
      <trkpt lat="46.93871" lon="5.81092">
        <ele>533.19</ele>
        <time>2016-06-04T11:27:52Z</time>
      </trkpt>
      <trkpt lat="46.9387" lon="5.81105">
        <ele>533.67</ele>
        <time>2016-06-04T11:28:09Z</time>
      </trkpt>
      <trkpt lat="46.93866" lon="5.8112">
        <ele>533.67</ele>
        <time>2016-06-04T11:28:24Z</time>
      </trkpt>
      <trkpt lat="46.93856" lon="5.81143">
        <ele>533.67</ele>
        <time>2016-06-04T11:28:39Z</time>
      </trkpt>
      <trkpt lat="46.9385" lon="5.81163">
        <ele>536.55</ele>
        <time>2016-06-04T11:28:51Z</time>
      </trkpt>
      <trkpt lat="46.93856" lon="5.81183">
        <ele>536.55</ele>
        <time>2016-06-04T11:29:07Z</time>
      </trkpt>
      <trkpt lat="46.93856" lon="5.81194">
        <ele>538.48</ele>
        <time>2016-06-04T11:29:25Z</time>
      </trkpt>
      <trkpt lat="46.93859" lon="5.81209">
        <ele>536.07</ele>
        <time>2016-06-04T11:29:36Z</time>
      </trkpt>
      <trkpt lat="46.93857" lon="5.81225">
        <ele>535.11</ele>
        <time>2016-06-04T11:29:53Z</time>
      </trkpt>
      <trkpt lat="46.93853" lon="5.81241">
        <ele>532.71</ele>
        <time>2016-06-04T11:30:09Z</time>
      </trkpt>
      <trkpt lat="46.9385" lon="5.8126">
        <ele>533.67</ele>
        <time>2016-06-04T11:30:27Z</time>
      </trkpt>
      <trkpt lat="46.93853" lon="5.81276">
        <ele>535.11</ele>
        <time>2016-06-04T11:30:43Z</time>
      </trkpt>
      <trkpt lat="46.93854" lon="5.81303">
        <ele>536.07</ele>
        <time>2016-06-04T11:30:59Z</time>
      </trkpt>
      <trkpt lat="46.93857" lon="5.81323">
        <ele>536.07</ele>
        <time>2016-06-04T11:31:16Z</time>
      </trkpt>
      <trkpt lat="46.93861" lon="5.81347">
        <ele>541.84</ele>
        <time>2016-06-04T11:31:30Z</time>
      </trkpt>
      <trkpt lat="46.9386" lon="5.81359">
        <ele>543.76</ele>
        <time>2016-06-04T11:31:50Z</time>
      </trkpt>
      <trkpt lat="46.93858" lon="5.81362">
        <ele>544.72</ele>
        <time>2016-06-04T11:32:09Z</time>
      </trkpt>
      <trkpt lat="46.93857" lon="5.8137">
        <ele>547.13</ele>
        <time>2016-06-04T11:32:29Z</time>
      </trkpt>
      <trkpt lat="46.93857" lon="5.81384">
        <ele>549.05</ele>
        <time>2016-06-04T11:32:44Z</time>
      </trkpt>
      <trkpt lat="46.93859" lon="5.8139">
        <ele>547.13</ele>
        <time>2016-06-04T11:32:59Z</time>
      </trkpt>
      <trkpt lat="46.9386" lon="5.81404">
        <ele>546.65</ele>
        <time>2016-06-04T11:33:12Z</time>
      </trkpt>
      <trkpt lat="46.93867" lon="5.81423">
        <ele>544.24</ele>
        <time>2016-06-04T11:33:29Z</time>
      </trkpt>
      <trkpt lat="46.93868" lon="5.81435">
        <ele>542.8</ele>
        <time>2016-06-04T11:33:46Z</time>
      </trkpt>
      <trkpt lat="46.93868" lon="5.81446">
        <ele>540.88</ele>
        <time>2016-06-04T11:34:02Z</time>
      </trkpt>
      <trkpt lat="46.93871" lon="5.81453">
        <ele>537.99</ele>
        <time>2016-06-04T11:34:20Z</time>
      </trkpt>
      <trkpt lat="46.93877" lon="5.81484">
        <ele>534.15</ele>
        <time>2016-06-04T11:34:38Z</time>
      </trkpt>
      <trkpt lat="46.93878" lon="5.81495">
        <ele>533.67</ele>
        <time>2016-06-04T11:34:56Z</time>
      </trkpt>
      <trkpt lat="46.93879" lon="5.8151">
        <ele>532.23</ele>
        <time>2016-06-04T11:35:12Z</time>
      </trkpt>
      <trkpt lat="46.9388" lon="5.81532">
        <ele>532.71</ele>
        <time>2016-06-04T11:35:29Z</time>
      </trkpt>
      <trkpt lat="46.93879" lon="5.81552">
        <ele>535.59</ele>
        <time>2016-06-04T11:35:46Z</time>
      </trkpt>
      <trkpt lat="46.93877" lon="5.81574">
        <ele>537.99</ele>
        <time>2016-06-04T11:35:59Z</time>
      </trkpt>
      <trkpt lat="46.93878" lon="5.81583">
        <ele>540.4</ele>
        <time>2016-06-04T11:36:11Z</time>
      </trkpt>
      <trkpt lat="46.9388" lon="5.81587">
        <ele>540.88</ele>
        <time>2016-06-04T11:36:28Z</time>
      </trkpt>
      <trkpt lat="46.93882" lon="5.81591">
        <ele>542.8</ele>
        <time>2016-06-04T11:36:49Z</time>
      </trkpt>
      <trkpt lat="46.93885" lon="5.81597">
        <ele>544.24</ele>
        <time>2016-06-04T11:37:04Z</time>
      </trkpt>
      <trkpt lat="46.93889" lon="5.81606">
        <ele>543.76</ele>
        <time>2016-06-04T11:37:20Z</time>
      </trkpt>
      <trkpt lat="46.93891" lon="5.81615">
        <ele>540.88</ele>
        <time>2016-06-04T11:37:36Z</time>
      </trkpt>
      <trkpt lat="46.93893" lon="5.81632">
        <ele>539.44</ele>
        <time>2016-06-04T11:37:53Z</time>
      </trkpt>
      <trkpt lat="46.93897" lon="5.81648">
        <ele>538.96</ele>
        <time>2016-06-04T11:38:12Z</time>
      </trkpt>
      <trkpt lat="46.93902" lon="5.81663">
        <ele>537.99</ele>
        <time>2016-06-04T11:38:31Z</time>
      </trkpt>
      <trkpt lat="46.93902" lon="5.81671">
        <ele>538.48</ele>
        <time>2016-06-04T11:38:50Z</time>
      </trkpt>
      <trkpt lat="46.93901" lon="5.81684">
        <ele>537.51</ele>
        <time>2016-06-04T11:39:06Z</time>
      </trkpt>
      <trkpt lat="46.93895" lon="5.81712">
        <ele>537.51</ele>
        <time>2016-06-04T11:39:26Z</time>
      </trkpt>
      <trkpt lat="46.93893" lon="5.81726">
        <ele>538.96</ele>
        <time>2016-06-04T11:39:45Z</time>
      </trkpt>
      <trkpt lat="46.93891" lon="5.81736">
        <ele>539.44</ele>
        <time>2016-06-04T11:39:58Z</time>
      </trkpt>
      <trkpt lat="46.93891" lon="5.8175">
        <ele>542.32</ele>
        <time>2016-06-04T11:40:15Z</time>
      </trkpt>
      <trkpt lat="46.93897" lon="5.81753">
        <ele>543.28</ele>
        <time>2016-06-04T11:40:27Z</time>
      </trkpt>
      <trkpt lat="46.939" lon="5.81755">
        <ele>542.32</ele>
        <time>2016-06-04T11:40:37Z</time>
      </trkpt>
      <trkpt lat="46.93906" lon="5.81758">
        <ele>541.84</ele>
        <time>2016-06-04T11:40:49Z</time>
      </trkpt>
      <trkpt lat="46.93907" lon="5.81758">
        <ele>540.88</ele>
        <time>2016-06-04T11:41:02Z</time>
      </trkpt>
      <trkpt lat="46.93905" lon="5.81766">
        <ele>536.07</ele>
        <time>2016-06-04T11:41:17Z</time>
      </trkpt>
      <trkpt lat="46.93908" lon="5.81775">
        <ele>530.79</ele>
        <time>2016-06-04T11:41:32Z</time>
      </trkpt>
      <trkpt lat="46.93913" lon="5.81778">
        <ele>527.9</ele>
        <time>2016-06-04T11:41:45Z</time>
      </trkpt>
      <trkpt lat="46.9392" lon="5.8178">
        <ele>526.94</ele>
        <time>2016-06-04T11:41:57Z</time>
      </trkpt>
      <trkpt lat="46.93931" lon="5.81782">
        <ele>525.02</ele>
        <time>2016-06-04T11:42:13Z</time>
      </trkpt>
      <trkpt lat="46.9394" lon="5.81789">
        <ele>525.5</ele>
        <time>2016-06-04T11:42:25Z</time>
      </trkpt>
      <trkpt lat="46.93946" lon="5.81794">
        <ele>525.98</ele>
        <time>2016-06-04T11:42:38Z</time>
      </trkpt>
      <trkpt lat="46.93959" lon="5.81807">
        <ele>525.5</ele>
        <time>2016-06-04T11:42:50Z</time>
      </trkpt>
      <trkpt lat="46.93971" lon="5.81814">
        <ele>525.5</ele>
        <time>2016-06-04T11:43:04Z</time>
      </trkpt>
      <trkpt lat="46.93985" lon="5.81817">
        <ele>527.42</ele>
        <time>2016-06-04T11:43:19Z</time>
      </trkpt>
      <trkpt lat="46.93996" lon="5.81816">
        <ele>530.3</ele>
        <time>2016-06-04T11:43:30Z</time>
      </trkpt>
      <trkpt lat="46.94025" lon="5.81814">
        <ele>537.99</ele>
        <time>2016-06-04T11:43:44Z</time>
      </trkpt>
      <trkpt lat="46.94033" lon="5.81818">
        <ele>533.67</ele>
        <time>2016-06-04T11:43:56Z</time>
      </trkpt>
      <trkpt lat="46.94039" lon="5.8182">
        <ele>529.82</ele>
        <time>2016-06-04T11:44:12Z</time>
      </trkpt>
      <trkpt lat="46.94045" lon="5.81822">
        <ele>525.98</ele>
        <time>2016-06-04T11:44:24Z</time>
      </trkpt>
      <trkpt lat="46.94049" lon="5.81823">
        <ele>519.25</ele>
        <time>2016-06-04T11:44:38Z</time>
      </trkpt>
      <trkpt lat="46.94051" lon="5.81821">
        <ele>515.4</ele>
        <time>2016-06-04T11:44:50Z</time>
      </trkpt>
      <trkpt lat="46.94058" lon="5.81811">
        <ele>509.64</ele>
        <time>2016-06-04T11:45:02Z</time>
      </trkpt>
      <trkpt lat="46.94067" lon="5.81802">
        <ele>508.19</ele>
        <time>2016-06-04T11:45:15Z</time>
      </trkpt>
      <trkpt lat="46.94071" lon="5.81798">
        <ele>505.79</ele>
        <time>2016-06-04T11:45:28Z</time>
      </trkpt>
      <trkpt lat="46.94073" lon="5.81798">
        <ele>503.87</ele>
        <time>2016-06-04T11:45:48Z</time>
      </trkpt>
      <trkpt lat="46.94074" lon="5.81793">
        <ele>502.43</ele>
        <time>2016-06-04T11:46:10Z</time>
      </trkpt>
      <trkpt lat="46.94075" lon="5.81789">
        <ele>501.95</ele>
        <time>2016-06-04T11:46:24Z</time>
      </trkpt>
      <trkpt lat="46.94075" lon="5.81776">
        <ele>500.02</ele>
        <time>2016-06-04T11:46:37Z</time>
      </trkpt>
      <trkpt lat="46.94075" lon="5.81769">
        <ele>498.1</ele>
        <time>2016-06-04T11:46:51Z</time>
      </trkpt>
      <trkpt lat="46.94076" lon="5.81756">
        <ele>495.22</ele>
        <time>2016-06-04T11:47:05Z</time>
      </trkpt>
      <trkpt lat="46.94076" lon="5.81743">
        <ele>492.81</ele>
        <time>2016-06-04T11:47:17Z</time>
      </trkpt>
      <trkpt lat="46.94077" lon="5.81717">
        <ele>489.93</ele>
        <time>2016-06-04T11:47:31Z</time>
      </trkpt>
      <trkpt lat="46.94079" lon="5.81705">
        <ele>487.53</ele>
        <time>2016-06-04T11:47:43Z</time>
      </trkpt>
      <trkpt lat="46.94078" lon="5.81689">
        <ele>484.16</ele>
        <time>2016-06-04T11:47:56Z</time>
      </trkpt>
      <trkpt lat="46.94077" lon="5.81672">
        <ele>480.8</ele>
        <time>2016-06-04T11:48:07Z</time>
      </trkpt>
      <trkpt lat="46.94076" lon="5.81668">
        <ele>479.84</ele>
        <time>2016-06-04T11:48:26Z</time>
      </trkpt>
      <trkpt lat="46.94072" lon="5.81656">
        <ele>477.43</ele>
        <time>2016-06-04T11:48:42Z</time>
      </trkpt>
      <trkpt lat="46.94065" lon="5.8163">
        <ele>473.59</ele>
        <time>2016-06-04T11:48:54Z</time>
      </trkpt>
      <trkpt lat="46.94056" lon="5.81606">
        <ele>471.66</ele>
        <time>2016-06-04T11:49:07Z</time>
      </trkpt>
      <trkpt lat="46.94054" lon="5.81597">
        <ele>468.3</ele>
        <time>2016-06-04T11:49:18Z</time>
      </trkpt>
      <trkpt lat="46.94051" lon="5.81582">
        <ele>463.97</ele>
        <time>2016-06-04T11:49:30Z</time>
      </trkpt>
      <trkpt lat="46.94045" lon="5.81567">
        <ele>457.72</ele>
        <time>2016-06-04T11:49:42Z</time>
      </trkpt>
      <trkpt lat="46.94044" lon="5.81559">
        <ele>454.84</ele>
        <time>2016-06-04T11:49:53Z</time>
      </trkpt>
      <trkpt lat="46.94038" lon="5.81541">
        <ele>450.52</ele>
        <time>2016-06-04T11:50:05Z</time>
      </trkpt>
      <trkpt lat="46.94034" lon="5.81523">
        <ele>449.07</ele>
        <time>2016-06-04T11:50:16Z</time>
      </trkpt>
      <trkpt lat="46.9403" lon="5.815">
        <ele>448.59</ele>
        <time>2016-06-04T11:50:30Z</time>
      </trkpt>
      <trkpt lat="46.94029" lon="5.81475">
        <ele>445.71</ele>
        <time>2016-06-04T11:50:45Z</time>
      </trkpt>
      <trkpt lat="46.94028" lon="5.81461">
        <ele>441.86</ele>
        <time>2016-06-04T11:50:55Z</time>
      </trkpt>
      <trkpt lat="46.94033" lon="5.81439">
        <ele>440.9</ele>
        <time>2016-06-04T11:51:06Z</time>
      </trkpt>
      <trkpt lat="46.94036" lon="5.81432">
        <ele>442.34</ele>
        <time>2016-06-04T11:51:15Z</time>
      </trkpt>
      <trkpt lat="46.94038" lon="5.81431">
        <ele>444.27</ele>
        <time>2016-06-04T11:51:27Z</time>
      </trkpt>
      <trkpt lat="46.94046" lon="5.81442">
        <ele>446.67</ele>
        <time>2016-06-04T11:51:40Z</time>
      </trkpt>
      <trkpt lat="46.94049" lon="5.81446">
        <ele>446.67</ele>
        <time>2016-06-04T11:51:43Z</time>
      </trkpt>
      <trkpt lat="46.9406" lon="5.81458">
        <ele>446.19</ele>
        <time>2016-06-04T11:51:54Z</time>
      </trkpt>
      <trkpt lat="46.94069" lon="5.8147">
        <ele>446.19</ele>
        <time>2016-06-04T11:52:10Z</time>
      </trkpt>
      <trkpt lat="46.94075" lon="5.81477">
        <ele>446.19</ele>
        <time>2016-06-04T11:52:17Z</time>
      </trkpt>
      <trkpt lat="46.94085" lon="5.81486">
        <ele>445.23</ele>
        <time>2016-06-04T11:52:28Z</time>
      </trkpt>
      <trkpt lat="46.94095" lon="5.81497">
        <ele>442.34</ele>
        <time>2016-06-04T11:52:41Z</time>
      </trkpt>
      <trkpt lat="46.94103" lon="5.81505">
        <ele>441.86</ele>
        <time>2016-06-04T11:52:52Z</time>
      </trkpt>
      <trkpt lat="46.94105" lon="5.81506">
        <ele>442.34</ele>
        <time>2016-06-04T11:52:53Z</time>
      </trkpt>
      <trkpt lat="46.94111" lon="5.81511">
        <ele>443.31</ele>
        <time>2016-06-04T11:53:03Z</time>
      </trkpt>
      <trkpt lat="46.94115" lon="5.81514">
        <ele>441.86</ele>
        <time>2016-06-04T11:53:08Z</time>
      </trkpt>
      <trkpt lat="46.94128" lon="5.81519">
        <ele>441.38</ele>
        <time>2016-06-04T11:53:19Z</time>
      </trkpt>
      <trkpt lat="46.94138" lon="5.81523">
        <ele>441.86</ele>
        <time>2016-06-04T11:53:34Z</time>
      </trkpt>
      <trkpt lat="46.94147" lon="5.81528">
        <ele>440.42</ele>
        <time>2016-06-04T11:53:43Z</time>
      </trkpt>
      <trkpt lat="46.94157" lon="5.81537">
        <ele>439.46</ele>
        <time>2016-06-04T11:53:52Z</time>
      </trkpt>
      <trkpt lat="46.94159" lon="5.81537">
        <ele>438.02</ele>
        <time>2016-06-04T11:54:04Z</time>
      </trkpt>
      <trkpt lat="46.94163" lon="5.81535">
        <ele>438.98</ele>
        <time>2016-06-04T11:54:23Z</time>
      </trkpt>
      <trkpt lat="46.94165" lon="5.81536">
        <ele>438.5</ele>
        <time>2016-06-04T11:54:44Z</time>
      </trkpt>
      <trkpt lat="46.94166" lon="5.81537">
        <ele>438.02</ele>
        <time>2016-06-04T11:54:51Z</time>
      </trkpt>
      <trkpt lat="46.94169" lon="5.81536">
        <ele>437.06</ele>
        <time>2016-06-04T11:54:53Z</time>
      </trkpt>
      <trkpt lat="46.94177" lon="5.81529">
        <ele>435.61</ele>
        <time>2016-06-04T11:55:00Z</time>
      </trkpt>
      <trkpt lat="46.94175" lon="5.81515">
        <ele>432.73</ele>
        <time>2016-06-04T11:55:14Z</time>
      </trkpt>
      <trkpt lat="46.94172" lon="5.81503">
        <ele>431.29</ele>
        <time>2016-06-04T11:55:23Z</time>
      </trkpt>
      <trkpt lat="46.94169" lon="5.81498">
        <ele>430.81</ele>
        <time>2016-06-04T11:55:26Z</time>
      </trkpt>
      <trkpt lat="46.94169" lon="5.81494">
        <ele>430.33</ele>
        <time>2016-06-04T11:55:28Z</time>
      </trkpt>
      <trkpt lat="46.94166" lon="5.81471">
        <ele>429.85</ele>
        <time>2016-06-04T11:55:42Z</time>
      </trkpt>
      <trkpt lat="46.94166" lon="5.81454">
        <ele>427.44</ele>
        <time>2016-06-04T11:55:55Z</time>
      </trkpt>
      <trkpt lat="46.94164" lon="5.81433">
        <ele>427.44</ele>
        <time>2016-06-04T11:56:07Z</time>
      </trkpt>
      <trkpt lat="46.94164" lon="5.81427">
        <ele>426.48</ele>
        <time>2016-06-04T11:56:18Z</time>
      </trkpt>
      <trkpt lat="46.94164" lon="5.81419">
        <ele>427.44</ele>
        <time>2016-06-04T11:56:30Z</time>
      </trkpt>
      <trkpt lat="46.94165" lon="5.81409">
        <ele>426.96</ele>
        <time>2016-06-04T11:56:36Z</time>
      </trkpt>
      <trkpt lat="46.94164" lon="5.81405">
        <ele>427.44</ele>
        <time>2016-06-04T11:56:46Z</time>
      </trkpt>
      <trkpt lat="46.94164" lon="5.81406">
        <ele>426.96</ele>
        <time>2016-06-04T11:57:00Z</time>
      </trkpt>
      <trkpt lat="46.94164" lon="5.81407">
        <ele>426.96</ele>
        <time>2016-06-04T11:57:17Z</time>
      </trkpt>
      <trkpt lat="46.94163" lon="5.81407">
        <ele>426.48</ele>
        <time>2016-06-04T11:57:32Z</time>
      </trkpt>
      <trkpt lat="46.94164" lon="5.81406">
        <ele>426</ele>
        <time>2016-06-04T11:57:45Z</time>
      </trkpt>
      <trkpt lat="46.94165" lon="5.81404">
        <ele>425.04</ele>
        <time>2016-06-04T11:57:57Z</time>
      </trkpt>
      <trkpt lat="46.94166" lon="5.81404">
        <ele>424.56</ele>
        <time>2016-06-04T11:58:10Z</time>
      </trkpt>
      <trkpt lat="46.94167" lon="5.81409">
        <ele>425.52</ele>
        <time>2016-06-04T11:58:21Z</time>
      </trkpt>
      <trkpt lat="46.94167" lon="5.8141">
        <ele>425.52</ele>
        <time>2016-06-04T11:58:42Z</time>
      </trkpt>
      <trkpt lat="46.94167" lon="5.81411">
        <ele>425.52</ele>
        <time>2016-06-04T11:59:02Z</time>
      </trkpt>
      <trkpt lat="46.94167" lon="5.8141">
        <ele>425.52</ele>
        <time>2016-06-04T11:59:20Z</time>
      </trkpt>
      <trkpt lat="46.94166" lon="5.81411">
        <ele>425.52</ele>
        <time>2016-06-04T11:59:33Z</time>
      </trkpt>
      <trkpt lat="46.94165" lon="5.8141">
        <ele>425.04</ele>
        <time>2016-06-04T11:59:49Z</time>
      </trkpt>
      <trkpt lat="46.94165" lon="5.81409">
        <ele>425.52</ele>
        <time>2016-06-04T12:00:09Z</time>
      </trkpt>
      <trkpt lat="46.94165" lon="5.81409">
        <ele>425.52</ele>
        <time>2016-06-04T12:00:28Z</time>
      </trkpt>
      <trkpt lat="46.94165" lon="5.8141">
        <ele>425.04</ele>
        <time>2016-06-04T12:00:34Z</time>
      </trkpt>
      <trkpt lat="46.94163" lon="5.81407">
        <ele>424.08</ele>
        <time>2016-06-04T12:00:47Z</time>
      </trkpt>
      <trkpt lat="46.94163" lon="5.81405">
        <ele>423.12</ele>
        <time>2016-06-04T12:01:00Z</time>
      </trkpt>
      <trkpt lat="46.94163" lon="5.81405">
        <ele>423.12</ele>
        <time>2016-06-04T12:01:14Z</time>
      </trkpt>
      <trkpt lat="46.94163" lon="5.81405">
        <ele>424.08</ele>
        <time>2016-06-04T12:01:26Z</time>
      </trkpt>
      <trkpt lat="46.94163" lon="5.81406">
        <ele>424.56</ele>
        <time>2016-06-04T12:01:45Z</time>
      </trkpt>
      <trkpt lat="46.94163" lon="5.81406">
        <ele>424.56</ele>
        <time>2016-06-04T12:01:58Z</time>
      </trkpt>
      <trkpt lat="46.94164" lon="5.81407">
        <ele>425.04</ele>
        <time>2016-06-04T12:02:11Z</time>
      </trkpt>
      <trkpt lat="46.94165" lon="5.81408">
        <ele>425.04</ele>
        <time>2016-06-04T12:02:26Z</time>
      </trkpt>
      <trkpt lat="46.94165" lon="5.81407">
        <ele>425.04</ele>
        <time>2016-06-04T12:02:45Z</time>
      </trkpt>
      <trkpt lat="46.94167" lon="5.81407">
        <ele>425.52</ele>
        <time>2016-06-04T12:03:17Z</time>
      </trkpt>
      <trkpt lat="46.94168" lon="5.81408">
        <ele>426</ele>
        <time>2016-06-04T12:03:56Z</time>
      </trkpt>
      <trkpt lat="46.94168" lon="5.81406">
        <ele>426</ele>
        <time>2016-06-04T12:04:23Z</time>
      </trkpt>
      <trkpt lat="46.94168" lon="5.81406">
        <ele>425.04</ele>
        <time>2016-06-04T12:04:51Z</time>
      </trkpt>
      <trkpt lat="46.94168" lon="5.81407">
        <ele>424.56</ele>
        <time>2016-06-04T12:05:18Z</time>
      </trkpt>
      <trkpt lat="46.94168" lon="5.81406">
        <ele>424.08</ele>
        <time>2016-06-04T12:05:48Z</time>
      </trkpt>
      <trkpt lat="46.94168" lon="5.81407">
        <ele>424.08</ele>
        <time>2016-06-04T12:06:20Z</time>
      </trkpt>
      <trkpt lat="46.94169" lon="5.81406">
        <ele>424.56</ele>
        <time>2016-06-04T12:06:51Z</time>
      </trkpt>
      <trkpt lat="46.94169" lon="5.81405">
        <ele>423.6</ele>
        <time>2016-06-04T12:07:22Z</time>
      </trkpt>
      <trkpt lat="46.94169" lon="5.81405">
        <ele>423.6</ele>
        <time>2016-06-04T12:07:49Z</time>
      </trkpt>
      <trkpt lat="46.94169" lon="5.81406">
        <ele>423.12</ele>
        <time>2016-06-04T12:08:19Z</time>
      </trkpt>
      <trkpt lat="46.94167" lon="5.81406">
        <ele>424.08</ele>
        <time>2016-06-04T12:08:50Z</time>
      </trkpt>
      <trkpt lat="46.94166" lon="5.81406">
        <ele>423.6</ele>
        <time>2016-06-04T12:09:21Z</time>
      </trkpt>
      <trkpt lat="46.94167" lon="5.81407">
        <ele>424.08</ele>
        <time>2016-06-04T12:09:53Z</time>
      </trkpt>
      <trkpt lat="46.94167" lon="5.81405">
        <ele>423.12</ele>
        <time>2016-06-04T12:10:25Z</time>
      </trkpt>
      <trkpt lat="46.94166" lon="5.81406">
        <ele>422.64</ele>
        <time>2016-06-04T12:10:57Z</time>
      </trkpt>
      <trkpt lat="46.94166" lon="5.81407">
        <ele>423.6</ele>
        <time>2016-06-04T12:11:24Z</time>
      </trkpt>
      <trkpt lat="46.94166" lon="5.81407">
        <ele>423.6</ele>
        <time>2016-06-04T12:11:35Z</time>
      </trkpt>
      <trkpt lat="46.94166" lon="5.81407">
        <ele>423.6</ele>
        <time>2016-06-04T12:11:49Z</time>
      </trkpt>
      <trkpt lat="46.94167" lon="5.81408">
        <ele>423.6</ele>
        <time>2016-06-04T12:12:12Z</time>
      </trkpt>
      <trkpt lat="46.94168" lon="5.81409">
        <ele>424.08</ele>
        <time>2016-06-04T12:12:22Z</time>
      </trkpt>
      <trkpt lat="46.94168" lon="5.81409">
        <ele>424.56</ele>
        <time>2016-06-04T12:12:35Z</time>
      </trkpt>
      <trkpt lat="46.94167" lon="5.81409">
        <ele>424.56</ele>
        <time>2016-06-04T12:12:46Z</time>
      </trkpt>
      <trkpt lat="46.94167" lon="5.8141">
        <ele>424.08</ele>
        <time>2016-06-04T12:12:50Z</time>
      </trkpt>
      <trkpt lat="46.94164" lon="5.81416">
        <ele>423.6</ele>
        <time>2016-06-04T12:12:59Z</time>
      </trkpt>
      <trkpt lat="46.94161" lon="5.81416">
        <ele>423.6</ele>
        <time>2016-06-04T12:13:02Z</time>
      </trkpt>
      <trkpt lat="46.9415" lon="5.81409">
        <ele>424.56</ele>
        <time>2016-06-04T12:13:13Z</time>
      </trkpt>
      <trkpt lat="46.94145" lon="5.81406">
        <ele>425.52</ele>
        <time>2016-06-04T12:13:22Z</time>
      </trkpt>
      <trkpt lat="46.94139" lon="5.81402">
        <ele>426.96</ele>
        <time>2016-06-04T12:13:33Z</time>
      </trkpt>
      <trkpt lat="46.94132" lon="5.81392">
        <ele>428.4</ele>
        <time>2016-06-04T12:13:44Z</time>
      </trkpt>
      <trkpt lat="46.94125" lon="5.81383">
        <ele>429.37</ele>
        <time>2016-06-04T12:13:54Z</time>
      </trkpt>
      <trkpt lat="46.94122" lon="5.81379">
        <ele>429.37</ele>
        <time>2016-06-04T12:14:00Z</time>
      </trkpt>
      <trkpt lat="46.94112" lon="5.8137">
        <ele>430.33</ele>
        <time>2016-06-04T12:14:13Z</time>
      </trkpt>
      <trkpt lat="46.94105" lon="5.81361">
        <ele>432.25</ele>
        <time>2016-06-04T12:14:26Z</time>
      </trkpt>
      <trkpt lat="46.94102" lon="5.81356">
        <ele>432.25</ele>
        <time>2016-06-04T12:14:32Z</time>
      </trkpt>
      <trkpt lat="46.9409" lon="5.81346">
        <ele>429.37</ele>
        <time>2016-06-04T12:14:46Z</time>
      </trkpt>
      <trkpt lat="46.94084" lon="5.81335">
        <ele>429.37</ele>
        <time>2016-06-04T12:14:58Z</time>
      </trkpt>
      <trkpt lat="46.94078" lon="5.8132">
        <ele>430.81</ele>
        <time>2016-06-04T12:15:11Z</time>
      </trkpt>
      <trkpt lat="46.94075" lon="5.81308">
        <ele>428.89</ele>
        <time>2016-06-04T12:15:21Z</time>
      </trkpt>
      <trkpt lat="46.94075" lon="5.81306">
        <ele>428.4</ele>
        <time>2016-06-04T12:15:23Z</time>
      </trkpt>
      <trkpt lat="46.94073" lon="5.81292">
        <ele>424.08</ele>
        <time>2016-06-04T12:15:35Z</time>
      </trkpt>
      <trkpt lat="46.94073" lon="5.81285">
        <ele>423.6</ele>
        <time>2016-06-04T12:15:41Z</time>
      </trkpt>
      <trkpt lat="46.94073" lon="5.81275">
        <ele>423.6</ele>
        <time>2016-06-04T12:15:49Z</time>
      </trkpt>
      <trkpt lat="46.94073" lon="5.81266">
        <ele>423.6</ele>
        <time>2016-06-04T12:15:58Z</time>
      </trkpt>
      <trkpt lat="46.94075" lon="5.81254">
        <ele>422.64</ele>
        <time>2016-06-04T12:16:08Z</time>
      </trkpt>
      <trkpt lat="46.94075" lon="5.81253">
        <ele>422.16</ele>
        <time>2016-06-04T12:16:09Z</time>
      </trkpt>
      <trkpt lat="46.94074" lon="5.81242">
        <ele>422.16</ele>
        <time>2016-06-04T12:16:19Z</time>
      </trkpt>
      <trkpt lat="46.94075" lon="5.81235">
        <ele>419.75</ele>
        <time>2016-06-04T12:16:32Z</time>
      </trkpt>
      <trkpt lat="46.94075" lon="5.81234">
        <ele>422.16</ele>
        <time>2016-06-04T12:16:47Z</time>
      </trkpt>
      <trkpt lat="46.94074" lon="5.8123">
        <ele>427.44</ele>
        <time>2016-06-04T12:17:11Z</time>
      </trkpt>
      <trkpt lat="46.94073" lon="5.81228">
        <ele>428.89</ele>
        <time>2016-06-04T12:17:25Z</time>
      </trkpt>
      <trkpt lat="46.94074" lon="5.81219">
        <ele>427.92</ele>
        <time>2016-06-04T12:17:34Z</time>
      </trkpt>
      <trkpt lat="46.94073" lon="5.81209">
        <ele>423.6</ele>
        <time>2016-06-04T12:17:44Z</time>
      </trkpt>
      <trkpt lat="46.94073" lon="5.81202">
        <ele>420.23</ele>
        <time>2016-06-04T12:17:57Z</time>
      </trkpt>
      <trkpt lat="46.94074" lon="5.81192">
        <ele>419.75</ele>
        <time>2016-06-04T12:18:03Z</time>
      </trkpt>
      <trkpt lat="46.94072" lon="5.81182">
        <ele>420.71</ele>
        <time>2016-06-04T12:18:15Z</time>
      </trkpt>
      <trkpt lat="46.94072" lon="5.81174">
        <ele>420.23</ele>
        <time>2016-06-04T12:18:27Z</time>
      </trkpt>
      <trkpt lat="46.94073" lon="5.81164">
        <ele>425.04</ele>
        <time>2016-06-04T12:18:44Z</time>
      </trkpt>
      <trkpt lat="46.94076" lon="5.8115">
        <ele>428.4</ele>
        <time>2016-06-04T12:18:56Z</time>
      </trkpt>
      <trkpt lat="46.94077" lon="5.81139">
        <ele>429.85</ele>
        <time>2016-06-04T12:19:08Z</time>
      </trkpt>
      <trkpt lat="46.94076" lon="5.81128">
        <ele>432.25</ele>
        <time>2016-06-04T12:19:21Z</time>
      </trkpt>
      <trkpt lat="46.94077" lon="5.81113">
        <ele>435.61</ele>
        <time>2016-06-04T12:19:33Z</time>
      </trkpt>
      <trkpt lat="46.94076" lon="5.81103">
        <ele>435.13</ele>
        <time>2016-06-04T12:19:44Z</time>
      </trkpt>
      <trkpt lat="46.94076" lon="5.81088">
        <ele>433.69</ele>
        <time>2016-06-04T12:19:52Z</time>
      </trkpt>
      <trkpt lat="46.94076" lon="5.81067">
        <ele>437.06</ele>
        <time>2016-06-04T12:20:07Z</time>
      </trkpt>
      <trkpt lat="46.94076" lon="5.81059">
        <ele>438.5</ele>
        <time>2016-06-04T12:20:14Z</time>
      </trkpt>
      <trkpt lat="46.94074" lon="5.81048">
        <ele>439.46</ele>
        <time>2016-06-04T12:20:24Z</time>
      </trkpt>
      <trkpt lat="46.94074" lon="5.81046">
        <ele>439.46</ele>
        <time>2016-06-04T12:20:25Z</time>
      </trkpt>
      <trkpt lat="46.94075" lon="5.81026">
        <ele>440.9</ele>
        <time>2016-06-04T12:20:36Z</time>
      </trkpt>
      <trkpt lat="46.94075" lon="5.8102">
        <ele>439.94</ele>
        <time>2016-06-04T12:20:47Z</time>
      </trkpt>
      <trkpt lat="46.94075" lon="5.8101">
        <ele>438.02</ele>
        <time>2016-06-04T12:21:01Z</time>
      </trkpt>
      <trkpt lat="46.94075" lon="5.81001">
        <ele>436.58</ele>
        <time>2016-06-04T12:21:13Z</time>
      </trkpt>
      <trkpt lat="46.94075" lon="5.8099">
        <ele>434.65</ele>
        <time>2016-06-04T12:21:26Z</time>
      </trkpt>
      <trkpt lat="46.94075" lon="5.80984">
        <ele>433.21</ele>
        <time>2016-06-04T12:21:40Z</time>
      </trkpt>
      <trkpt lat="46.94078" lon="5.80975">
        <ele>432.73</ele>
        <time>2016-06-04T12:21:51Z</time>
      </trkpt>
      <trkpt lat="46.94083" lon="5.80955">
        <ele>435.13</ele>
        <time>2016-06-04T12:22:05Z</time>
      </trkpt>
      <trkpt lat="46.94083" lon="5.80946">
        <ele>437.06</ele>
        <time>2016-06-04T12:22:17Z</time>
      </trkpt>
      <trkpt lat="46.94085" lon="5.80925">
        <ele>437.06</ele>
        <time>2016-06-04T12:22:32Z</time>
      </trkpt>
      <trkpt lat="46.94086" lon="5.80911">
        <ele>435.61</ele>
        <time>2016-06-04T12:22:46Z</time>
      </trkpt>
      <trkpt lat="46.94087" lon="5.80903">
        <ele>434.65</ele>
        <time>2016-06-04T12:22:58Z</time>
      </trkpt>
      <trkpt lat="46.94092" lon="5.80891">
        <ele>433.69</ele>
        <time>2016-06-04T12:23:11Z</time>
      </trkpt>
      <trkpt lat="46.94097" lon="5.80877">
        <ele>433.21</ele>
        <time>2016-06-04T12:23:25Z</time>
      </trkpt>
      <trkpt lat="46.94098" lon="5.80863">
        <ele>430.33</ele>
        <time>2016-06-04T12:23:37Z</time>
      </trkpt>
      <trkpt lat="46.94098" lon="5.80847">
        <ele>430.81</ele>
        <time>2016-06-04T12:23:50Z</time>
      </trkpt>
      <trkpt lat="46.94098" lon="5.80836">
        <ele>430.33</ele>
        <time>2016-06-04T12:24:03Z</time>
      </trkpt>
      <trkpt lat="46.94095" lon="5.80822">
        <ele>430.33</ele>
        <time>2016-06-04T12:24:15Z</time>
      </trkpt>
      <trkpt lat="46.94093" lon="5.80811">
        <ele>432.73</ele>
        <time>2016-06-04T12:24:30Z</time>
      </trkpt>
      <trkpt lat="46.9409" lon="5.80796">
        <ele>437.06</ele>
        <time>2016-06-04T12:24:44Z</time>
      </trkpt>
      <trkpt lat="46.94092" lon="5.80784">
        <ele>437.54</ele>
        <time>2016-06-04T12:24:58Z</time>
      </trkpt>
      <trkpt lat="46.94095" lon="5.80781">
        <ele>436.1</ele>
        <time>2016-06-04T12:25:11Z</time>
      </trkpt>
      <trkpt lat="46.94096" lon="5.80781">
        <ele>435.61</ele>
        <time>2016-06-04T12:25:13Z</time>
      </trkpt>
      <trkpt lat="46.94105" lon="5.80786">
        <ele>434.17</ele>
        <time>2016-06-04T12:25:26Z</time>
      </trkpt>
      <trkpt lat="46.94114" lon="5.80788">
        <ele>433.21</ele>
        <time>2016-06-04T12:25:39Z</time>
      </trkpt>
      <trkpt lat="46.94123" lon="5.80789">
        <ele>431.77</ele>
        <time>2016-06-04T12:25:52Z</time>
      </trkpt>
      <trkpt lat="46.9413" lon="5.80793">
        <ele>430.33</ele>
        <time>2016-06-04T12:26:06Z</time>
      </trkpt>
      <trkpt lat="46.94137" lon="5.80799">
        <ele>427.92</ele>
        <time>2016-06-04T12:26:18Z</time>
      </trkpt>
      <trkpt lat="46.94143" lon="5.80804">
        <ele>423.6</ele>
        <time>2016-06-04T12:26:31Z</time>
      </trkpt>
      <trkpt lat="46.94154" lon="5.80814">
        <ele>417.83</ele>
        <time>2016-06-04T12:26:45Z</time>
      </trkpt>
      <trkpt lat="46.94167" lon="5.80825">
        <ele>418.79</ele>
        <time>2016-06-04T12:26:55Z</time>
      </trkpt>
      <trkpt lat="46.94175" lon="5.80831">
        <ele>419.75</ele>
        <time>2016-06-04T12:27:07Z</time>
      </trkpt>
      <trkpt lat="46.94178" lon="5.80839">
        <ele>416.87</ele>
        <time>2016-06-04T12:27:19Z</time>
      </trkpt>
      <trkpt lat="46.94184" lon="5.80848">
        <ele>412.54</ele>
        <time>2016-06-04T12:27:33Z</time>
      </trkpt>
      <trkpt lat="46.94188" lon="5.80855">
        <ele>406.77</ele>
        <time>2016-06-04T12:27:45Z</time>
      </trkpt>
      <trkpt lat="46.94196" lon="5.80863">
        <ele>404.85</ele>
        <time>2016-06-04T12:28:00Z</time>
      </trkpt>
      <trkpt lat="46.94204" lon="5.8087">
        <ele>405.81</ele>
        <time>2016-06-04T12:28:13Z</time>
      </trkpt>
      <trkpt lat="46.94207" lon="5.80878">
        <ele>401.97</ele>
        <time>2016-06-04T12:28:27Z</time>
      </trkpt>
      <trkpt lat="46.94215" lon="5.80891">
        <ele>399.08</ele>
        <time>2016-06-04T12:28:43Z</time>
      </trkpt>
      <trkpt lat="46.94227" lon="5.80905">
        <ele>402.93</ele>
        <time>2016-06-04T12:28:53Z</time>
      </trkpt>
      <trkpt lat="46.94232" lon="5.80912">
        <ele>401.49</ele>
        <time>2016-06-04T12:29:07Z</time>
      </trkpt>
      <trkpt lat="46.94234" lon="5.80918">
        <ele>399.08</ele>
        <time>2016-06-04T12:29:21Z</time>
      </trkpt>
      <trkpt lat="46.94243" lon="5.80927">
        <ele>394.76</ele>
        <time>2016-06-04T12:29:38Z</time>
      </trkpt>
      <trkpt lat="46.94248" lon="5.80936">
        <ele>392.84</ele>
        <time>2016-06-04T12:29:52Z</time>
      </trkpt>
      <trkpt lat="46.94253" lon="5.80941">
        <ele>391.87</ele>
        <time>2016-06-04T12:30:03Z</time>
      </trkpt>
      <trkpt lat="46.94269" lon="5.8095">
        <ele>391.39</ele>
        <time>2016-06-04T12:30:18Z</time>
      </trkpt>
      <trkpt lat="46.9427" lon="5.80952">
        <ele>391.39</ele>
        <time>2016-06-04T12:30:19Z</time>
      </trkpt>
      <trkpt lat="46.94282" lon="5.80965">
        <ele>390.43</ele>
        <time>2016-06-04T12:30:33Z</time>
      </trkpt>
      <trkpt lat="46.94289" lon="5.80968">
        <ele>388.51</ele>
        <time>2016-06-04T12:30:47Z</time>
      </trkpt>
      <trkpt lat="46.94298" lon="5.80972">
        <ele>386.11</ele>
        <time>2016-06-04T12:30:59Z</time>
      </trkpt>
      <trkpt lat="46.94311" lon="5.80974">
        <ele>385.63</ele>
        <time>2016-06-04T12:31:14Z</time>
      </trkpt>
      <trkpt lat="46.94315" lon="5.80964">
        <ele>385.63</ele>
        <time>2016-06-04T12:31:22Z</time>
      </trkpt>
      <trkpt lat="46.94314" lon="5.80959">
        <ele>385.15</ele>
        <time>2016-06-04T12:31:25Z</time>
      </trkpt>
      <trkpt lat="46.94313" lon="5.80951">
        <ele>383.7</ele>
        <time>2016-06-04T12:31:35Z</time>
      </trkpt>
      <trkpt lat="46.94312" lon="5.8095">
        <ele>382.74</ele>
        <time>2016-06-04T12:31:51Z</time>
      </trkpt>
      <trkpt lat="46.94313" lon="5.80949">
        <ele>383.7</ele>
        <time>2016-06-04T12:32:07Z</time>
      </trkpt>
      <trkpt lat="46.94313" lon="5.80948">
        <ele>384.66</ele>
        <time>2016-06-04T12:32:23Z</time>
      </trkpt>
      <trkpt lat="46.94313" lon="5.80948">
        <ele>384.66</ele>
        <time>2016-06-04T12:32:26Z</time>
      </trkpt>
      <trkpt lat="46.94312" lon="5.80939">
        <ele>387.07</ele>
        <time>2016-06-04T12:32:31Z</time>
      </trkpt>
      <trkpt lat="46.94311" lon="5.80933">
        <ele>390.91</ele>
        <time>2016-06-04T12:32:36Z</time>
      </trkpt>
      <trkpt lat="46.9431" lon="5.80926">
        <ele>392.84</ele>
        <time>2016-06-04T12:32:40Z</time>
      </trkpt>
      <trkpt lat="46.9431" lon="5.80921">
        <ele>393.32</ele>
        <time>2016-06-04T12:32:43Z</time>
      </trkpt>
      <trkpt lat="46.94309" lon="5.80916">
        <ele>392.84</ele>
        <time>2016-06-04T12:32:47Z</time>
      </trkpt>
      <trkpt lat="46.94307" lon="5.80909">
        <ele>391.87</ele>
        <time>2016-06-04T12:32:52Z</time>
      </trkpt>
      <trkpt lat="46.94308" lon="5.80898">
        <ele>392.36</ele>
        <time>2016-06-04T12:33:01Z</time>
      </trkpt>
      <trkpt lat="46.94307" lon="5.8089">
        <ele>395.72</ele>
        <time>2016-06-04T12:33:06Z</time>
      </trkpt>
      <trkpt lat="46.94307" lon="5.80881">
        <ele>397.16</ele>
        <time>2016-06-04T12:33:12Z</time>
      </trkpt>
      <trkpt lat="46.94306" lon="5.80879">
        <ele>397.64</ele>
        <time>2016-06-04T12:33:14Z</time>
      </trkpt>
      <trkpt lat="46.94306" lon="5.80868">
        <ele>397.64</ele>
        <time>2016-06-04T12:33:20Z</time>
      </trkpt>
      <trkpt lat="46.94306" lon="5.80861">
        <ele>396.2</ele>
        <time>2016-06-04T12:33:24Z</time>
      </trkpt>
      <trkpt lat="46.94306" lon="5.80859">
        <ele>396.2</ele>
        <time>2016-06-04T12:33:26Z</time>
      </trkpt>
      <trkpt lat="46.94307" lon="5.80839">
        <ele>393.32</ele>
        <time>2016-06-04T12:33:39Z</time>
      </trkpt>
      <trkpt lat="46.94307" lon="5.80835">
        <ele>393.8</ele>
        <time>2016-06-04T12:33:41Z</time>
      </trkpt>
      <trkpt lat="46.94306" lon="5.80832">
        <ele>393.32</ele>
        <time>2016-06-04T12:33:43Z</time>
      </trkpt>
      <trkpt lat="46.94308" lon="5.8081">
        <ele>393.32</ele>
        <time>2016-06-04T12:33:57Z</time>
      </trkpt>
      <trkpt lat="46.94309" lon="5.8079">
        <ele>388.99</ele>
        <time>2016-06-04T12:34:11Z</time>
      </trkpt>
      <trkpt lat="46.9431" lon="5.80776">
        <ele>385.15</ele>
        <time>2016-06-04T12:34:22Z</time>
      </trkpt>
      <trkpt lat="46.94309" lon="5.80769">
        <ele>384.18</ele>
        <time>2016-06-04T12:34:27Z</time>
      </trkpt>
      <trkpt lat="46.9431" lon="5.80765">
        <ele>384.18</ele>
        <time>2016-06-04T12:34:29Z</time>
      </trkpt>
      <trkpt lat="46.94309" lon="5.8076">
        <ele>384.18</ele>
        <time>2016-06-04T12:34:32Z</time>
      </trkpt>
      <trkpt lat="46.94309" lon="5.80747">
        <ele>381.3</ele>
        <time>2016-06-04T12:34:42Z</time>
      </trkpt>
      <trkpt lat="46.94308" lon="5.80731">
        <ele>380.34</ele>
        <time>2016-06-04T12:34:51Z</time>
      </trkpt>
      <trkpt lat="46.94306" lon="5.80723">
        <ele>380.34</ele>
        <time>2016-06-04T12:34:55Z</time>
      </trkpt>
      <trkpt lat="46.94306" lon="5.80706">
        <ele>382.26</ele>
        <time>2016-06-04T12:35:04Z</time>
      </trkpt>
      <trkpt lat="46.94305" lon="5.807">
        <ele>383.22</ele>
        <time>2016-06-04T12:35:07Z</time>
      </trkpt>
      <trkpt lat="46.94304" lon="5.80698">
        <ele>382.74</ele>
        <time>2016-06-04T12:35:09Z</time>
      </trkpt>
      <trkpt lat="46.94304" lon="5.80693">
        <ele>383.22</ele>
        <time>2016-06-04T12:35:12Z</time>
      </trkpt>
      <trkpt lat="46.94305" lon="5.80688">
        <ele>384.18</ele>
        <time>2016-06-04T12:35:15Z</time>
      </trkpt>
      <trkpt lat="46.94303" lon="5.80668">
        <ele>385.63</ele>
        <time>2016-06-04T12:35:27Z</time>
      </trkpt>
      <trkpt lat="46.94303" lon="5.80663">
        <ele>384.18</ele>
        <time>2016-06-04T12:35:31Z</time>
      </trkpt>
      <trkpt lat="46.94302" lon="5.8066">
        <ele>384.18</ele>
        <time>2016-06-04T12:35:33Z</time>
      </trkpt>
      <trkpt lat="46.94301" lon="5.80657">
        <ele>383.7</ele>
        <time>2016-06-04T12:35:35Z</time>
      </trkpt>
      <trkpt lat="46.943" lon="5.80653">
        <ele>383.22</ele>
        <time>2016-06-04T12:35:38Z</time>
      </trkpt>
      <trkpt lat="46.94298" lon="5.80649">
        <ele>382.74</ele>
        <time>2016-06-04T12:35:41Z</time>
      </trkpt>
      <trkpt lat="46.94298" lon="5.80642">
        <ele>382.26</ele>
        <time>2016-06-04T12:35:46Z</time>
      </trkpt>
      <trkpt lat="46.94297" lon="5.80638">
        <ele>382.26</ele>
        <time>2016-06-04T12:35:49Z</time>
      </trkpt>
      <trkpt lat="46.94296" lon="5.80634">
        <ele>381.78</ele>
        <time>2016-06-04T12:35:52Z</time>
      </trkpt>
      <trkpt lat="46.94296" lon="5.8063">
        <ele>381.78</ele>
        <time>2016-06-04T12:35:55Z</time>
      </trkpt>
      <trkpt lat="46.94294" lon="5.80623">
        <ele>378.42</ele>
        <time>2016-06-04T12:36:01Z</time>
      </trkpt>
      <trkpt lat="46.94293" lon="5.8062">
        <ele>377.94</ele>
        <time>2016-06-04T12:36:03Z</time>
      </trkpt>
      <trkpt lat="46.94292" lon="5.80616">
        <ele>376.49</ele>
        <time>2016-06-04T12:36:06Z</time>
      </trkpt>
      <trkpt lat="46.94291" lon="5.80605">
        <ele>376.97</ele>
        <time>2016-06-04T12:36:13Z</time>
      </trkpt>
      <trkpt lat="46.94291" lon="5.8059">
        <ele>376.01</ele>
        <time>2016-06-04T12:36:24Z</time>
      </trkpt>
      <trkpt lat="46.94291" lon="5.80577">
        <ele>377.94</ele>
        <time>2016-06-04T12:36:32Z</time>
      </trkpt>
      <trkpt lat="46.9429" lon="5.80573">
        <ele>377.94</ele>
        <time>2016-06-04T12:36:34Z</time>
      </trkpt>
      <trkpt lat="46.94292" lon="5.80555">
        <ele>378.9</ele>
        <time>2016-06-04T12:36:46Z</time>
      </trkpt>
      <trkpt lat="46.94291" lon="5.80546">
        <ele>379.38</ele>
        <time>2016-06-04T12:36:54Z</time>
      </trkpt>
      <trkpt lat="46.94292" lon="5.8053">
        <ele>382.74</ele>
        <time>2016-06-04T12:37:04Z</time>
      </trkpt>
      <trkpt lat="46.94289" lon="5.80515">
        <ele>386.11</ele>
        <time>2016-06-04T12:37:15Z</time>
      </trkpt>
      <trkpt lat="46.94286" lon="5.80503">
        <ele>385.63</ele>
        <time>2016-06-04T12:37:25Z</time>
      </trkpt>
      <trkpt lat="46.94285" lon="5.80492">
        <ele>389.47</ele>
        <time>2016-06-04T12:37:33Z</time>
      </trkpt>
      <trkpt lat="46.9428" lon="5.80478">
        <ele>392.36</ele>
        <time>2016-06-04T12:37:45Z</time>
      </trkpt>
      <trkpt lat="46.94277" lon="5.80471">
        <ele>389.95</ele>
        <time>2016-06-04T12:37:51Z</time>
      </trkpt>
      <trkpt lat="46.94275" lon="5.80462">
        <ele>389.47</ele>
        <time>2016-06-04T12:37:58Z</time>
      </trkpt>
      <trkpt lat="46.94273" lon="5.80459">
        <ele>386.11</ele>
        <time>2016-06-04T12:38:03Z</time>
      </trkpt>
      <trkpt lat="46.94271" lon="5.80442">
        <ele>386.59</ele>
        <time>2016-06-04T12:38:14Z</time>
      </trkpt>
      <trkpt lat="46.94267" lon="5.80426">
        <ele>388.03</ele>
        <time>2016-06-04T12:38:25Z</time>
      </trkpt>
      <trkpt lat="46.94265" lon="5.80422">
        <ele>388.51</ele>
        <time>2016-06-04T12:38:28Z</time>
      </trkpt>
      <trkpt lat="46.94263" lon="5.80412">
        <ele>390.43</ele>
        <time>2016-06-04T12:38:35Z</time>
      </trkpt>
      <trkpt lat="46.94259" lon="5.80395">
        <ele>388.99</ele>
        <time>2016-06-04T12:38:48Z</time>
      </trkpt>
      <trkpt lat="46.94257" lon="5.8039">
        <ele>388.99</ele>
        <time>2016-06-04T12:38:53Z</time>
      </trkpt>
      <trkpt lat="46.94252" lon="5.8037">
        <ele>388.51</ele>
        <time>2016-06-04T12:39:06Z</time>
      </trkpt>
      <trkpt lat="46.94251" lon="5.80367">
        <ele>388.99</ele>
        <time>2016-06-04T12:39:08Z</time>
      </trkpt>
      <trkpt lat="46.94249" lon="5.80356">
        <ele>388.99</ele>
        <time>2016-06-04T12:39:15Z</time>
      </trkpt>
      <trkpt lat="46.94247" lon="5.80339">
        <ele>390.91</ele>
        <time>2016-06-04T12:39:24Z</time>
      </trkpt>
      <trkpt lat="46.94247" lon="5.80334">
        <ele>391.39</ele>
        <time>2016-06-04T12:39:27Z</time>
      </trkpt>
      <trkpt lat="46.94245" lon="5.80329">
        <ele>391.87</ele>
        <time>2016-06-04T12:39:31Z</time>
      </trkpt>
      <trkpt lat="46.94244" lon="5.80326">
        <ele>391.87</ele>
        <time>2016-06-04T12:39:33Z</time>
      </trkpt>
      <trkpt lat="46.94243" lon="5.80324">
        <ele>391.87</ele>
        <time>2016-06-04T12:39:35Z</time>
      </trkpt>
      <trkpt lat="46.94244" lon="5.80315">
        <ele>391.87</ele>
        <time>2016-06-04T12:39:40Z</time>
      </trkpt>
      <trkpt lat="46.9424" lon="5.80308">
        <ele>391.39</ele>
        <time>2016-06-04T12:39:46Z</time>
      </trkpt>
      <trkpt lat="46.94235" lon="5.80298">
        <ele>390.43</ele>
        <time>2016-06-04T12:39:54Z</time>
      </trkpt>
      <trkpt lat="46.94233" lon="5.80293">
        <ele>389.95</ele>
        <time>2016-06-04T12:40:00Z</time>
      </trkpt>
      <trkpt lat="46.94227" lon="5.80279">
        <ele>389.95</ele>
        <time>2016-06-04T12:40:14Z</time>
      </trkpt>
      <trkpt lat="46.94225" lon="5.80273">
        <ele>388.99</ele>
        <time>2016-06-04T12:40:27Z</time>
      </trkpt>
      <trkpt lat="46.94225" lon="5.80273">
        <ele>386.59</ele>
        <time>2016-06-04T12:40:42Z</time>
      </trkpt>
      <trkpt lat="46.94223" lon="5.8027">
        <ele>385.63</ele>
        <time>2016-06-04T12:40:55Z</time>
      </trkpt>
      <trkpt lat="46.94221" lon="5.8027">
        <ele>386.11</ele>
        <time>2016-06-04T12:41:06Z</time>
      </trkpt>
      <trkpt lat="46.94222" lon="5.8027">
        <ele>388.03</ele>
        <time>2016-06-04T12:41:21Z</time>
      </trkpt>
      <trkpt lat="46.94221" lon="5.80268">
        <ele>388.03</ele>
        <time>2016-06-04T12:41:23Z</time>
      </trkpt>
      <trkpt lat="46.94219" lon="5.80266">
        <ele>388.03</ele>
        <time>2016-06-04T12:41:26Z</time>
      </trkpt>
      <trkpt lat="46.94217" lon="5.80261">
        <ele>388.03</ele>
        <time>2016-06-04T12:41:36Z</time>
      </trkpt>
      <trkpt lat="46.94215" lon="5.80258">
        <ele>388.03</ele>
        <time>2016-06-04T12:41:46Z</time>
      </trkpt>
      <trkpt lat="46.94212" lon="5.8025">
        <ele>387.07</ele>
        <time>2016-06-04T12:41:55Z</time>
      </trkpt>
      <trkpt lat="46.94211" lon="5.80247">
        <ele>388.03</ele>
        <time>2016-06-04T12:42:10Z</time>
      </trkpt>
      <trkpt lat="46.94211" lon="5.80246">
        <ele>388.51</ele>
        <time>2016-06-04T12:42:11Z</time>
      </trkpt>
      <trkpt lat="46.9421" lon="5.80244">
        <ele>388.99</ele>
        <time>2016-06-04T12:42:13Z</time>
      </trkpt>
      <trkpt lat="46.94205" lon="5.8023">
        <ele>389.47</ele>
        <time>2016-06-04T12:42:25Z</time>
      </trkpt>
      <trkpt lat="46.94204" lon="5.80219">
        <ele>390.91</ele>
        <time>2016-06-04T12:42:35Z</time>
      </trkpt>
      <trkpt lat="46.94204" lon="5.80219">
        <ele>391.39</ele>
        <time>2016-06-04T12:42:36Z</time>
      </trkpt>
      <trkpt lat="46.94198" lon="5.80207">
        <ele>389.95</ele>
        <time>2016-06-04T12:42:47Z</time>
      </trkpt>
      <trkpt lat="46.94192" lon="5.80197">
        <ele>388.51</ele>
        <time>2016-06-04T12:42:58Z</time>
      </trkpt>
      <trkpt lat="46.94188" lon="5.80191">
        <ele>389.95</ele>
        <time>2016-06-04T12:43:05Z</time>
      </trkpt>
      <trkpt lat="46.94182" lon="5.80178">
        <ele>393.32</ele>
        <time>2016-06-04T12:43:16Z</time>
      </trkpt>
      <trkpt lat="46.94177" lon="5.80172">
        <ele>394.76</ele>
        <time>2016-06-04T12:43:23Z</time>
      </trkpt>
      <trkpt lat="46.94175" lon="5.80167">
        <ele>394.76</ele>
        <time>2016-06-04T12:43:27Z</time>
      </trkpt>
      <trkpt lat="46.94167" lon="5.80157">
        <ele>391.87</ele>
        <time>2016-06-04T12:43:39Z</time>
      </trkpt>
      <trkpt lat="46.94165" lon="5.80154">
        <ele>392.36</ele>
        <time>2016-06-04T12:43:41Z</time>
      </trkpt>
      <trkpt lat="46.94159" lon="5.80143">
        <ele>393.32</ele>
        <time>2016-06-04T12:43:51Z</time>
      </trkpt>
      <trkpt lat="46.94153" lon="5.80133">
        <ele>391.87</ele>
        <time>2016-06-04T12:44:03Z</time>
      </trkpt>
      <trkpt lat="46.94147" lon="5.80127">
        <ele>392.36</ele>
        <time>2016-06-04T12:44:10Z</time>
      </trkpt>
      <trkpt lat="46.9414" lon="5.80116">
        <ele>393.32</ele>
        <time>2016-06-04T12:44:21Z</time>
      </trkpt>
      <trkpt lat="46.94138" lon="5.80113">
        <ele>393.32</ele>
        <time>2016-06-04T12:44:24Z</time>
      </trkpt>
      <trkpt lat="46.94132" lon="5.80108">
        <ele>392.36</ele>
        <time>2016-06-04T12:44:31Z</time>
      </trkpt>
      <trkpt lat="46.94126" lon="5.80102">
        <ele>392.36</ele>
        <time>2016-06-04T12:44:40Z</time>
      </trkpt>
      <trkpt lat="46.94125" lon="5.801">
        <ele>392.36</ele>
        <time>2016-06-04T12:44:42Z</time>
      </trkpt>
      <trkpt lat="46.9412" lon="5.80093">
        <ele>393.32</ele>
        <time>2016-06-04T12:44:51Z</time>
      </trkpt>
      <trkpt lat="46.94116" lon="5.80088">
        <ele>393.32</ele>
        <time>2016-06-04T12:44:56Z</time>
      </trkpt>
      <trkpt lat="46.9411" lon="5.80075">
        <ele>394.28</ele>
        <time>2016-06-04T12:45:07Z</time>
      </trkpt>
      <trkpt lat="46.94107" lon="5.80072">
        <ele>394.76</ele>
        <time>2016-06-04T12:45:12Z</time>
      </trkpt>
      <trkpt lat="46.94105" lon="5.80069">
        <ele>394.28</ele>
        <time>2016-06-04T12:45:15Z</time>
      </trkpt>
      <trkpt lat="46.94102" lon="5.80062">
        <ele>395.24</ele>
        <time>2016-06-04T12:45:21Z</time>
      </trkpt>
      <trkpt lat="46.941" lon="5.8006">
        <ele>395.72</ele>
        <time>2016-06-04T12:45:23Z</time>
      </trkpt>
      <trkpt lat="46.94099" lon="5.80056">
        <ele>396.68</ele>
        <time>2016-06-04T12:45:35Z</time>
      </trkpt>
      <trkpt lat="46.94096" lon="5.80048">
        <ele>398.12</ele>
        <time>2016-06-04T12:45:44Z</time>
      </trkpt>
      <trkpt lat="46.94092" lon="5.80041">
        <ele>397.64</ele>
        <time>2016-06-04T12:45:53Z</time>
      </trkpt>
      <trkpt lat="46.94086" lon="5.8003">
        <ele>397.16</ele>
        <time>2016-06-04T12:46:05Z</time>
      </trkpt>
      <trkpt lat="46.94082" lon="5.80023">
        <ele>396.2</ele>
        <time>2016-06-04T12:46:13Z</time>
      </trkpt>
      <trkpt lat="46.94081" lon="5.80022">
        <ele>396.2</ele>
        <time>2016-06-04T12:46:14Z</time>
      </trkpt>
      <trkpt lat="46.94073" lon="5.80016">
        <ele>395.72</ele>
        <time>2016-06-04T12:46:25Z</time>
      </trkpt>
      <trkpt lat="46.94072" lon="5.80015">
        <ele>395.72</ele>
        <time>2016-06-04T12:46:26Z</time>
      </trkpt>
      <trkpt lat="46.94068" lon="5.80005">
        <ele>396.68</ele>
        <time>2016-06-04T12:46:36Z</time>
      </trkpt>
      <trkpt lat="46.94067" lon="5.80003">
        <ele>397.16</ele>
        <time>2016-06-04T12:46:39Z</time>
      </trkpt>
      <trkpt lat="46.94058" lon="5.79997">
        <ele>395.72</ele>
        <time>2016-06-04T12:46:50Z</time>
      </trkpt>
      <trkpt lat="46.94057" lon="5.79995">
        <ele>396.2</ele>
        <time>2016-06-04T12:46:53Z</time>
      </trkpt>
      <trkpt lat="46.94054" lon="5.79993">
        <ele>396.68</ele>
        <time>2016-06-04T12:46:56Z</time>
      </trkpt>
      <trkpt lat="46.94052" lon="5.79989">
        <ele>396.2</ele>
        <time>2016-06-04T12:47:00Z</time>
      </trkpt>
      <trkpt lat="46.94048" lon="5.79984">
        <ele>396.68</ele>
        <time>2016-06-04T12:47:07Z</time>
      </trkpt>
      <trkpt lat="46.94043" lon="5.79971">
        <ele>397.16</ele>
        <time>2016-06-04T12:47:17Z</time>
      </trkpt>
      <trkpt lat="46.94041" lon="5.79966">
        <ele>398.6</ele>
        <time>2016-06-04T12:47:27Z</time>
      </trkpt>
      <trkpt lat="46.94042" lon="5.79965">
        <ele>398.6</ele>
        <time>2016-06-04T12:47:30Z</time>
      </trkpt>
      <trkpt lat="46.94034" lon="5.79957">
        <ele>396.2</ele>
        <time>2016-06-04T12:47:41Z</time>
      </trkpt>
      <trkpt lat="46.94031" lon="5.79947">
        <ele>397.64</ele>
        <time>2016-06-04T12:47:49Z</time>
      </trkpt>
      <trkpt lat="46.94027" lon="5.79943">
        <ele>396.68</ele>
        <time>2016-06-04T12:47:53Z</time>
      </trkpt>
      <trkpt lat="46.94023" lon="5.79939">
        <ele>397.64</ele>
        <time>2016-06-04T12:47:58Z</time>
      </trkpt>
      <trkpt lat="46.9402" lon="5.79933">
        <ele>398.6</ele>
        <time>2016-06-04T12:48:02Z</time>
      </trkpt>
      <trkpt lat="46.94013" lon="5.79921">
        <ele>399.57</ele>
        <time>2016-06-04T12:48:14Z</time>
      </trkpt>
      <trkpt lat="46.94008" lon="5.79916">
        <ele>400.53</ele>
        <time>2016-06-04T12:48:26Z</time>
      </trkpt>
      <trkpt lat="46.94003" lon="5.79904">
        <ele>399.57</ele>
        <time>2016-06-04T12:48:37Z</time>
      </trkpt>
      <trkpt lat="46.94001" lon="5.79901">
        <ele>399.08</ele>
        <time>2016-06-04T12:48:42Z</time>
      </trkpt>
      <trkpt lat="46.93994" lon="5.79893">
        <ele>397.64</ele>
        <time>2016-06-04T12:48:52Z</time>
      </trkpt>
      <trkpt lat="46.93993" lon="5.79892">
        <ele>397.64</ele>
        <time>2016-06-04T12:48:53Z</time>
      </trkpt>
      <trkpt lat="46.9399" lon="5.79889">
        <ele>397.64</ele>
        <time>2016-06-04T12:48:56Z</time>
      </trkpt>
      <trkpt lat="46.93979" lon="5.79881">
        <ele>395.24</ele>
        <time>2016-06-04T12:49:08Z</time>
      </trkpt>
      <trkpt lat="46.93978" lon="5.79877">
        <ele>395.24</ele>
        <time>2016-06-04T12:49:16Z</time>
      </trkpt>
      <trkpt lat="46.93976" lon="5.79869">
        <ele>397.16</ele>
        <time>2016-06-04T12:49:30Z</time>
      </trkpt>
      <trkpt lat="46.93973" lon="5.79863">
        <ele>396.2</ele>
        <time>2016-06-04T12:49:36Z</time>
      </trkpt>
      <trkpt lat="46.93967" lon="5.79857">
        <ele>396.68</ele>
        <time>2016-06-04T12:49:47Z</time>
      </trkpt>
      <trkpt lat="46.93963" lon="5.79853">
        <ele>396.68</ele>
        <time>2016-06-04T12:49:58Z</time>
      </trkpt>
      <trkpt lat="46.9396" lon="5.7985">
        <ele>396.68</ele>
        <time>2016-06-04T12:50:09Z</time>
      </trkpt>
      <trkpt lat="46.93957" lon="5.79844">
        <ele>397.16</ele>
        <time>2016-06-04T12:50:21Z</time>
      </trkpt>
      <trkpt lat="46.93954" lon="5.7984">
        <ele>398.6</ele>
        <time>2016-06-04T12:50:32Z</time>
      </trkpt>
      <trkpt lat="46.93953" lon="5.79836">
        <ele>399.08</ele>
        <time>2016-06-04T12:50:38Z</time>
      </trkpt>
      <trkpt lat="46.9395" lon="5.79828">
        <ele>400.53</ele>
        <time>2016-06-04T12:50:54Z</time>
      </trkpt>
      <trkpt lat="46.93945" lon="5.79821">
        <ele>400.53</ele>
        <time>2016-06-04T12:51:02Z</time>
      </trkpt>
      <trkpt lat="46.93935" lon="5.79807">
        <ele>399.08</ele>
        <time>2016-06-04T12:51:16Z</time>
      </trkpt>
      <trkpt lat="46.93926" lon="5.79793">
        <ele>400.05</ele>
        <time>2016-06-04T12:51:30Z</time>
      </trkpt>
      <trkpt lat="46.9392" lon="5.79781">
        <ele>400.05</ele>
        <time>2016-06-04T12:51:42Z</time>
      </trkpt>
      <trkpt lat="46.93913" lon="5.79769">
        <ele>401.01</ele>
        <time>2016-06-04T12:51:54Z</time>
      </trkpt>
      <trkpt lat="46.93904" lon="5.79754">
        <ele>401.01</ele>
        <time>2016-06-04T12:52:09Z</time>
      </trkpt>
      <trkpt lat="46.93903" lon="5.79752">
        <ele>401.01</ele>
        <time>2016-06-04T12:52:11Z</time>
      </trkpt>
      <trkpt lat="46.939" lon="5.79748">
        <ele>400.53</ele>
        <time>2016-06-04T12:52:16Z</time>
      </trkpt>
      <trkpt lat="46.93896" lon="5.79745">
        <ele>400.05</ele>
        <time>2016-06-04T12:52:22Z</time>
      </trkpt>
      <trkpt lat="46.93895" lon="5.79745">
        <ele>400.05</ele>
        <time>2016-06-04T12:52:24Z</time>
      </trkpt>
      <trkpt lat="46.93886" lon="5.79737">
        <ele>398.6</ele>
        <time>2016-06-04T12:52:35Z</time>
      </trkpt>
      <trkpt lat="46.93884" lon="5.79736">
        <ele>398.12</ele>
        <time>2016-06-04T12:52:39Z</time>
      </trkpt>
      <trkpt lat="46.93882" lon="5.79734">
        <ele>398.12</ele>
        <time>2016-06-04T12:52:41Z</time>
      </trkpt>
      <trkpt lat="46.93877" lon="5.7973">
        <ele>398.12</ele>
        <time>2016-06-04T12:52:45Z</time>
      </trkpt>
      <trkpt lat="46.93873" lon="5.79721">
        <ele>398.6</ele>
        <time>2016-06-04T12:52:51Z</time>
      </trkpt>
      <trkpt lat="46.93864" lon="5.7971">
        <ele>396.2</ele>
        <time>2016-06-04T12:53:02Z</time>
      </trkpt>
      <trkpt lat="46.93862" lon="5.79708">
        <ele>395.24</ele>
        <time>2016-06-04T12:53:05Z</time>
      </trkpt>
      <trkpt lat="46.93858" lon="5.79704">
        <ele>394.28</ele>
        <time>2016-06-04T12:53:10Z</time>
      </trkpt>
      <trkpt lat="46.93855" lon="5.79703">
        <ele>393.8</ele>
        <time>2016-06-04T12:53:13Z</time>
      </trkpt>
      <trkpt lat="46.93847" lon="5.79694">
        <ele>393.32</ele>
        <time>2016-06-04T12:53:24Z</time>
      </trkpt>
      <trkpt lat="46.93846" lon="5.79693">
        <ele>393.32</ele>
        <time>2016-06-04T12:53:25Z</time>
      </trkpt>
      <trkpt lat="46.93844" lon="5.79693">
        <ele>393.32</ele>
        <time>2016-06-04T12:53:27Z</time>
      </trkpt>
      <trkpt lat="46.9384" lon="5.79689">
        <ele>394.28</ele>
        <time>2016-06-04T12:53:33Z</time>
      </trkpt>
      <trkpt lat="46.93836" lon="5.79685">
        <ele>395.72</ele>
        <time>2016-06-04T12:53:42Z</time>
      </trkpt>
      <trkpt lat="46.93833" lon="5.79682">
        <ele>395.72</ele>
        <time>2016-06-04T12:53:45Z</time>
      </trkpt>
      <trkpt lat="46.93827" lon="5.79679">
        <ele>395.72</ele>
        <time>2016-06-04T12:53:53Z</time>
      </trkpt>
      <trkpt lat="46.93821" lon="5.79677">
        <ele>394.76</ele>
        <time>2016-06-04T12:54:04Z</time>
      </trkpt>
      <trkpt lat="46.93814" lon="5.79676">
        <ele>394.28</ele>
        <time>2016-06-04T12:54:13Z</time>
      </trkpt>
      <trkpt lat="46.93811" lon="5.79673">
        <ele>395.24</ele>
        <time>2016-06-04T12:54:27Z</time>
      </trkpt>
      <trkpt lat="46.9381" lon="5.79671">
        <ele>396.2</ele>
        <time>2016-06-04T12:54:32Z</time>
      </trkpt>
      <trkpt lat="46.93809" lon="5.79658">
        <ele>398.12</ele>
        <time>2016-06-04T12:54:41Z</time>
      </trkpt>
      <trkpt lat="46.93804" lon="5.7965">
        <ele>401.01</ele>
        <time>2016-06-04T12:54:52Z</time>
      </trkpt>
      <trkpt lat="46.93802" lon="5.79647">
        <ele>402.45</ele>
        <time>2016-06-04T12:54:58Z</time>
      </trkpt>
      <trkpt lat="46.93796" lon="5.79645">
        <ele>403.89</ele>
        <time>2016-06-04T12:55:06Z</time>
      </trkpt>
      <trkpt lat="46.93794" lon="5.79642">
        <ele>408.22</ele>
        <time>2016-06-04T12:55:19Z</time>
      </trkpt>
      <trkpt lat="46.93791" lon="5.79647">
        <ele>406.77</ele>
        <time>2016-06-04T12:55:30Z</time>
      </trkpt>
      <trkpt lat="46.9379" lon="5.79648">
        <ele>407.26</ele>
        <time>2016-06-04T12:55:41Z</time>
      </trkpt>
      <trkpt lat="46.93783" lon="5.79644">
        <ele>404.85</ele>
        <time>2016-06-04T12:55:51Z</time>
      </trkpt>
      <trkpt lat="46.93782" lon="5.79643">
        <ele>404.85</ele>
        <time>2016-06-04T12:55:53Z</time>
      </trkpt>
      <trkpt lat="46.93769" lon="5.79636">
        <ele>404.85</ele>
        <time>2016-06-04T12:56:05Z</time>
      </trkpt>
      <trkpt lat="46.93764" lon="5.79632">
        <ele>404.37</ele>
        <time>2016-06-04T12:56:13Z</time>
      </trkpt>
      <trkpt lat="46.93761" lon="5.7963">
        <ele>403.89</ele>
        <time>2016-06-04T12:56:25Z</time>
      </trkpt>
      <trkpt lat="46.93754" lon="5.79625">
        <ele>403.41</ele>
        <time>2016-06-04T12:56:35Z</time>
      </trkpt>
      <trkpt lat="46.93746" lon="5.79622">
        <ele>401.49</ele>
        <time>2016-06-04T12:56:45Z</time>
      </trkpt>
      <trkpt lat="46.9374" lon="5.79616">
        <ele>399.57</ele>
        <time>2016-06-04T12:56:54Z</time>
      </trkpt>
      <trkpt lat="46.93739" lon="5.79614">
        <ele>399.57</ele>
        <time>2016-06-04T12:56:59Z</time>
      </trkpt>
      <trkpt lat="46.93735" lon="5.7961">
        <ele>399.08</ele>
        <time>2016-06-04T12:57:07Z</time>
      </trkpt>
      <trkpt lat="46.93727" lon="5.79597">
        <ele>400.53</ele>
        <time>2016-06-04T12:57:18Z</time>
      </trkpt>
      <trkpt lat="46.93724" lon="5.79592">
        <ele>401.01</ele>
        <time>2016-06-04T12:57:23Z</time>
      </trkpt>
      <trkpt lat="46.93717" lon="5.79588">
        <ele>401.49</ele>
        <time>2016-06-04T12:57:31Z</time>
      </trkpt>
      <trkpt lat="46.93716" lon="5.79585">
        <ele>401.49</ele>
        <time>2016-06-04T12:57:34Z</time>
      </trkpt>
      <trkpt lat="46.93714" lon="5.79583">
        <ele>403.41</ele>
        <time>2016-06-04T12:57:36Z</time>
      </trkpt>
      <trkpt lat="46.93711" lon="5.79581">
        <ele>404.85</ele>
        <time>2016-06-04T12:57:39Z</time>
      </trkpt>
      <trkpt lat="46.93708" lon="5.7958">
        <ele>404.37</ele>
        <time>2016-06-04T12:57:42Z</time>
      </trkpt>
      <trkpt lat="46.93701" lon="5.79579">
        <ele>404.85</ele>
        <time>2016-06-04T12:57:55Z</time>
      </trkpt>
      <trkpt lat="46.93698" lon="5.79577">
        <ele>405.81</ele>
        <time>2016-06-04T12:58:01Z</time>
      </trkpt>
      <trkpt lat="46.93695" lon="5.79578">
        <ele>405.81</ele>
        <time>2016-06-04T12:58:04Z</time>
      </trkpt>
      <trkpt lat="46.93684" lon="5.7958">
        <ele>405.81</ele>
        <time>2016-06-04T12:58:16Z</time>
      </trkpt>
      <trkpt lat="46.93678" lon="5.79576">
        <ele>405.81</ele>
        <time>2016-06-04T12:58:28Z</time>
      </trkpt>
      <trkpt lat="46.93676" lon="5.79574">
        <ele>405.81</ele>
        <time>2016-06-04T12:58:31Z</time>
      </trkpt>
      <trkpt lat="46.93669" lon="5.79571">
        <ele>404.37</ele>
        <time>2016-06-04T12:58:40Z</time>
      </trkpt>
      <trkpt lat="46.93665" lon="5.79569">
        <ele>404.37</ele>
        <time>2016-06-04T12:58:51Z</time>
      </trkpt>
      <trkpt lat="46.93658" lon="5.79567">
        <ele>405.81</ele>
        <time>2016-06-04T12:59:12Z</time>
      </trkpt>
      <trkpt lat="46.9365" lon="5.79569">
        <ele>407.74</ele>
        <time>2016-06-04T12:59:20Z</time>
      </trkpt>
      <trkpt lat="46.93646" lon="5.79569">
        <ele>409.18</ele>
        <time>2016-06-04T12:59:27Z</time>
      </trkpt>
      <trkpt lat="46.93638" lon="5.79574">
        <ele>408.7</ele>
        <time>2016-06-04T12:59:34Z</time>
      </trkpt>
      <trkpt lat="46.93632" lon="5.79577">
        <ele>407.26</ele>
        <time>2016-06-04T12:59:39Z</time>
      </trkpt>
      <trkpt lat="46.93621" lon="5.79576">
        <ele>409.66</ele>
        <time>2016-06-04T12:59:52Z</time>
      </trkpt>
      <trkpt lat="46.93614" lon="5.79564">
        <ele>413.5</ele>
        <time>2016-06-04T13:00:05Z</time>
      </trkpt>
      <trkpt lat="46.9361" lon="5.79559">
        <ele>413.98</ele>
        <time>2016-06-04T13:00:10Z</time>
      </trkpt>
      <trkpt lat="46.93607" lon="5.79554">
        <ele>414.47</ele>
        <time>2016-06-04T13:00:15Z</time>
      </trkpt>
      <trkpt lat="46.936" lon="5.7954">
        <ele>415.91</ele>
        <time>2016-06-04T13:00:27Z</time>
      </trkpt>
      <trkpt lat="46.93593" lon="5.79527">
        <ele>416.87</ele>
        <time>2016-06-04T13:00:40Z</time>
      </trkpt>
      <trkpt lat="46.9359" lon="5.79523">
        <ele>417.35</ele>
        <time>2016-06-04T13:00:43Z</time>
      </trkpt>
      <trkpt lat="46.93587" lon="5.79519">
        <ele>417.83</ele>
        <time>2016-06-04T13:00:47Z</time>
      </trkpt>
      <trkpt lat="46.93586" lon="5.79515">
        <ele>417.83</ele>
        <time>2016-06-04T13:00:49Z</time>
      </trkpt>
      <trkpt lat="46.93581" lon="5.79512">
        <ele>416.87</ele>
        <time>2016-06-04T13:00:55Z</time>
      </trkpt>
      <trkpt lat="46.93578" lon="5.79509">
        <ele>417.35</ele>
        <time>2016-06-04T13:00:59Z</time>
      </trkpt>
      <trkpt lat="46.93576" lon="5.79508">
        <ele>417.35</ele>
        <time>2016-06-04T13:01:01Z</time>
      </trkpt>
      <trkpt lat="46.93571" lon="5.79509">
        <ele>417.35</ele>
        <time>2016-06-04T13:01:06Z</time>
      </trkpt>
      <trkpt lat="46.93564" lon="5.79504">
        <ele>417.35</ele>
        <time>2016-06-04T13:01:13Z</time>
      </trkpt>
      <trkpt lat="46.9356" lon="5.79502">
        <ele>417.35</ele>
        <time>2016-06-04T13:01:18Z</time>
      </trkpt>
      <trkpt lat="46.93553" lon="5.79497">
        <ele>417.83</ele>
        <time>2016-06-04T13:01:24Z</time>
      </trkpt>
      <trkpt lat="46.93546" lon="5.7949">
        <ele>417.35</ele>
        <time>2016-06-04T13:01:34Z</time>
      </trkpt>
      <trkpt lat="46.93544" lon="5.79488">
        <ele>417.35</ele>
        <time>2016-06-04T13:01:36Z</time>
      </trkpt>
      <trkpt lat="46.93541" lon="5.79485">
        <ele>417.35</ele>
        <time>2016-06-04T13:01:40Z</time>
      </trkpt>
      <trkpt lat="46.93539" lon="5.79484">
        <ele>417.83</ele>
        <time>2016-06-04T13:01:42Z</time>
      </trkpt>
      <trkpt lat="46.93533" lon="5.79479">
        <ele>418.31</ele>
        <time>2016-06-04T13:01:49Z</time>
      </trkpt>
      <trkpt lat="46.93525" lon="5.79468">
        <ele>420.23</ele>
        <time>2016-06-04T13:02:00Z</time>
      </trkpt>
      <trkpt lat="46.9352" lon="5.79463">
        <ele>420.71</ele>
        <time>2016-06-04T13:02:06Z</time>
      </trkpt>
      <trkpt lat="46.93518" lon="5.79461">
        <ele>420.71</ele>
        <time>2016-06-04T13:02:08Z</time>
      </trkpt>
      <trkpt lat="46.93516" lon="5.79461">
        <ele>420.71</ele>
        <time>2016-06-04T13:02:10Z</time>
      </trkpt>
      <trkpt lat="46.93514" lon="5.7946">
        <ele>419.75</ele>
        <time>2016-06-04T13:02:12Z</time>
      </trkpt>
      <trkpt lat="46.93505" lon="5.79456">
        <ele>417.83</ele>
        <time>2016-06-04T13:02:23Z</time>
      </trkpt>
      <trkpt lat="46.93502" lon="5.79454">
        <ele>417.35</ele>
        <time>2016-06-04T13:02:27Z</time>
      </trkpt>
      <trkpt lat="46.93498" lon="5.79448">
        <ele>417.35</ele>
        <time>2016-06-04T13:02:32Z</time>
      </trkpt>
      <trkpt lat="46.93494" lon="5.79446">
        <ele>416.87</ele>
        <time>2016-06-04T13:02:36Z</time>
      </trkpt>
      <trkpt lat="46.93492" lon="5.79442">
        <ele>417.35</ele>
        <time>2016-06-04T13:02:39Z</time>
      </trkpt>
      <trkpt lat="46.93484" lon="5.79434">
        <ele>417.35</ele>
        <time>2016-06-04T13:02:48Z</time>
      </trkpt>
      <trkpt lat="46.93475" lon="5.79433">
        <ele>417.35</ele>
        <time>2016-06-04T13:03:00Z</time>
      </trkpt>
      <trkpt lat="46.9347" lon="5.79431">
        <ele>417.35</ele>
        <time>2016-06-04T13:03:10Z</time>
      </trkpt>
      <trkpt lat="46.93469" lon="5.7943">
        <ele>416.87</ele>
        <time>2016-06-04T13:03:12Z</time>
      </trkpt>
      <trkpt lat="46.93464" lon="5.79427">
        <ele>415.91</ele>
        <time>2016-06-04T13:03:17Z</time>
      </trkpt>
      <trkpt lat="46.93451" lon="5.79428">
        <ele>409.66</ele>
        <time>2016-06-04T13:03:29Z</time>
      </trkpt>
      <trkpt lat="46.93447" lon="5.79427">
        <ele>407.26</ele>
        <time>2016-06-04T13:03:33Z</time>
      </trkpt>
      <trkpt lat="46.93444" lon="5.79425">
        <ele>406.77</ele>
        <time>2016-06-04T13:03:37Z</time>
      </trkpt>
      <trkpt lat="46.93435" lon="5.79414">
        <ele>406.77</ele>
        <time>2016-06-04T13:03:48Z</time>
      </trkpt>
      <trkpt lat="46.93428" lon="5.79412">
        <ele>404.85</ele>
        <time>2016-06-04T13:04:04Z</time>
      </trkpt>
      <trkpt lat="46.93421" lon="5.79406">
        <ele>407.26</ele>
        <time>2016-06-04T13:04:11Z</time>
      </trkpt>
      <trkpt lat="46.93417" lon="5.79402">
        <ele>409.18</ele>
        <time>2016-06-04T13:04:15Z</time>
      </trkpt>
      <trkpt lat="46.93407" lon="5.79396">
        <ele>410.62</ele>
        <time>2016-06-04T13:04:25Z</time>
      </trkpt>
      <trkpt lat="46.93397" lon="5.79386">
        <ele>413.5</ele>
        <time>2016-06-04T13:04:36Z</time>
      </trkpt>
      <trkpt lat="46.93392" lon="5.79384">
        <ele>413.5</ele>
        <time>2016-06-04T13:04:40Z</time>
      </trkpt>
      <trkpt lat="46.93382" lon="5.79376">
        <ele>413.98</ele>
        <time>2016-06-04T13:04:50Z</time>
      </trkpt>
      <trkpt lat="46.9338" lon="5.79375">
        <ele>413.98</ele>
        <time>2016-06-04T13:04:52Z</time>
      </trkpt>
      <trkpt lat="46.93376" lon="5.79373">
        <ele>414.47</ele>
        <time>2016-06-04T13:04:56Z</time>
      </trkpt>
      <trkpt lat="46.93369" lon="5.79369">
        <ele>415.43</ele>
        <time>2016-06-04T13:05:08Z</time>
      </trkpt>
      <trkpt lat="46.93367" lon="5.79368">
        <ele>415.43</ele>
        <time>2016-06-04T13:05:10Z</time>
      </trkpt>
      <trkpt lat="46.93364" lon="5.79366">
        <ele>415.43</ele>
        <time>2016-06-04T13:05:13Z</time>
      </trkpt>
      <trkpt lat="46.93361" lon="5.79366">
        <ele>415.91</ele>
        <time>2016-06-04T13:05:16Z</time>
      </trkpt>
      <trkpt lat="46.93365" lon="5.79354">
        <ele>417.35</ele>
        <time>2016-06-04T13:05:30Z</time>
      </trkpt>
      <trkpt lat="46.93367" lon="5.79354">
        <ele>416.87</ele>
        <time>2016-06-04T13:05:32Z</time>
      </trkpt>
      <trkpt lat="46.93374" lon="5.79354">
        <ele>415.43</ele>
        <time>2016-06-04T13:05:45Z</time>
      </trkpt>
      <trkpt lat="46.93384" lon="5.7935">
        <ele>412.54</ele>
        <time>2016-06-04T13:05:57Z</time>
      </trkpt>
      <trkpt lat="46.93385" lon="5.7935">
        <ele>412.06</ele>
        <time>2016-06-04T13:05:58Z</time>
      </trkpt>
      <trkpt lat="46.93394" lon="5.79333">
        <ele>411.1</ele>
        <time>2016-06-04T13:06:13Z</time>
      </trkpt>
      <trkpt lat="46.93395" lon="5.79332">
        <ele>412.06</ele>
        <time>2016-06-04T13:06:33Z</time>
      </trkpt>
      <trkpt lat="46.93395" lon="5.79332">
        <ele>412.06</ele>
        <time>2016-06-04T13:06:51Z</time>
      </trkpt>
      <trkpt lat="46.93395" lon="5.79332">
        <ele>412.54</ele>
        <time>2016-06-04T13:07:07Z</time>
      </trkpt>
      <trkpt lat="46.93395" lon="5.79331">
        <ele>412.54</ele>
        <time>2016-06-04T13:07:23Z</time>
      </trkpt>
      <trkpt lat="46.93395" lon="5.79332">
        <ele>412.54</ele>
        <time>2016-06-04T13:07:44Z</time>
      </trkpt>
      <trkpt lat="46.93395" lon="5.79332">
        <ele>413.02</ele>
        <time>2016-06-04T13:08:04Z</time>
      </trkpt>
      <trkpt lat="46.93395" lon="5.79334">
        <ele>411.1</ele>
        <time>2016-06-04T13:08:19Z</time>
      </trkpt>
      <trkpt lat="46.93394" lon="5.79334">
        <ele>410.14</ele>
        <time>2016-06-04T13:08:33Z</time>
      </trkpt>
      <trkpt lat="46.93395" lon="5.79332">
        <ele>409.66</ele>
        <time>2016-06-04T13:08:45Z</time>
      </trkpt>
      <trkpt lat="46.93395" lon="5.79332">
        <ele>409.66</ele>
        <time>2016-06-04T13:08:49Z</time>
      </trkpt>
      <trkpt lat="46.93395" lon="5.79331">
        <ele>410.14</ele>
        <time>2016-06-04T13:09:01Z</time>
      </trkpt>
      <trkpt lat="46.93395" lon="5.79333">
        <ele>409.66</ele>
        <time>2016-06-04T13:09:22Z</time>
      </trkpt>
      <trkpt lat="46.93396" lon="5.79332">
        <ele>410.62</ele>
        <time>2016-06-04T13:09:43Z</time>
      </trkpt>
      <trkpt lat="46.93396" lon="5.79332">
        <ele>410.62</ele>
        <time>2016-06-04T13:10:00Z</time>
      </trkpt>
      <trkpt lat="46.93395" lon="5.79329">
        <ele>412.54</ele>
        <time>2016-06-04T13:10:21Z</time>
      </trkpt>
      <trkpt lat="46.93395" lon="5.79329">
        <ele>413.02</ele>
        <time>2016-06-04T13:10:39Z</time>
      </trkpt>
      <trkpt lat="46.93394" lon="5.79315">
        <ele>419.27</ele>
        <time>2016-06-04T13:10:57Z</time>
      </trkpt>
      <trkpt lat="46.93389" lon="5.79317">
        <ele>416.39</ele>
        <time>2016-06-04T13:11:14Z</time>
      </trkpt>
      <trkpt lat="46.93375" lon="5.7931">
        <ele>416.39</ele>
        <time>2016-06-04T13:11:27Z</time>
      </trkpt>
      <trkpt lat="46.93369" lon="5.79309">
        <ele>416.87</ele>
        <time>2016-06-04T13:11:40Z</time>
      </trkpt>
      <trkpt lat="46.93368" lon="5.79307">
        <ele>416.39</ele>
        <time>2016-06-04T13:11:49Z</time>
      </trkpt>
      <trkpt lat="46.9336" lon="5.79307">
        <ele>415.43</ele>
        <time>2016-06-04T13:11:58Z</time>
      </trkpt>
      <trkpt lat="46.93351" lon="5.79303">
        <ele>414.47</ele>
        <time>2016-06-04T13:12:09Z</time>
      </trkpt>
      <trkpt lat="46.93348" lon="5.79302">
        <ele>414.95</ele>
        <time>2016-06-04T13:12:12Z</time>
      </trkpt>
      <trkpt lat="46.93338" lon="5.79298">
        <ele>415.43</ele>
        <time>2016-06-04T13:12:24Z</time>
      </trkpt>
      <trkpt lat="46.93334" lon="5.79296">
        <ele>415.91</ele>
        <time>2016-06-04T13:12:27Z</time>
      </trkpt>
      <trkpt lat="46.93323" lon="5.79292">
        <ele>417.35</ele>
        <time>2016-06-04T13:12:39Z</time>
      </trkpt>
      <trkpt lat="46.93309" lon="5.79289">
        <ele>416.87</ele>
        <time>2016-06-04T13:12:51Z</time>
      </trkpt>
      <trkpt lat="46.93299" lon="5.79286">
        <ele>417.83</ele>
        <time>2016-06-04T13:13:01Z</time>
      </trkpt>
      <trkpt lat="46.93293" lon="5.79286">
        <ele>417.83</ele>
        <time>2016-06-04T13:13:05Z</time>
      </trkpt>
      <trkpt lat="46.93285" lon="5.79283">
        <ele>417.35</ele>
        <time>2016-06-04T13:13:12Z</time>
      </trkpt>
      <trkpt lat="46.93273" lon="5.79279">
        <ele>416.87</ele>
        <time>2016-06-04T13:13:26Z</time>
      </trkpt>
      <trkpt lat="46.93267" lon="5.79276">
        <ele>416.39</ele>
        <time>2016-06-04T13:13:32Z</time>
      </trkpt>
      <trkpt lat="46.93257" lon="5.79274">
        <ele>415.91</ele>
        <time>2016-06-04T13:13:43Z</time>
      </trkpt>
      <trkpt lat="46.93244" lon="5.79269">
        <ele>416.39</ele>
        <time>2016-06-04T13:13:55Z</time>
      </trkpt>
      <trkpt lat="46.93228" lon="5.7926">
        <ele>416.87</ele>
        <time>2016-06-04T13:14:09Z</time>
      </trkpt>
      <trkpt lat="46.9322" lon="5.79255">
        <ele>416.39</ele>
        <time>2016-06-04T13:14:16Z</time>
      </trkpt>
      <trkpt lat="46.93216" lon="5.79253">
        <ele>415.43</ele>
        <time>2016-06-04T13:14:21Z</time>
      </trkpt>
      <trkpt lat="46.93214" lon="5.79252">
        <ele>414.95</ele>
        <time>2016-06-04T13:14:24Z</time>
      </trkpt>
      <trkpt lat="46.93204" lon="5.79245">
        <ele>411.58</ele>
        <time>2016-06-04T13:14:35Z</time>
      </trkpt>
      <trkpt lat="46.93199" lon="5.79235">
        <ele>411.58</ele>
        <time>2016-06-04T13:14:42Z</time>
      </trkpt>
      <trkpt lat="46.93189" lon="5.79224">
        <ele>415.91</ele>
        <time>2016-06-04T13:14:52Z</time>
      </trkpt>
      <trkpt lat="46.93181" lon="5.79222">
        <ele>414.95</ele>
        <time>2016-06-04T13:15:00Z</time>
      </trkpt>
      <trkpt lat="46.93172" lon="5.79227">
        <ele>413.5</ele>
        <time>2016-06-04T13:15:09Z</time>
      </trkpt>
      <trkpt lat="46.93161" lon="5.79232">
        <ele>413.98</ele>
        <time>2016-06-04T13:15:19Z</time>
      </trkpt>
      <trkpt lat="46.93147" lon="5.79236">
        <ele>413.02</ele>
        <time>2016-06-04T13:15:33Z</time>
      </trkpt>
      <trkpt lat="46.93141" lon="5.79239">
        <ele>412.06</ele>
        <time>2016-06-04T13:15:38Z</time>
      </trkpt>
      <trkpt lat="46.93132" lon="5.79239">
        <ele>412.06</ele>
        <time>2016-06-04T13:15:46Z</time>
      </trkpt>
      <trkpt lat="46.93129" lon="5.79239">
        <ele>412.06</ele>
        <time>2016-06-04T13:15:48Z</time>
      </trkpt>
      <trkpt lat="46.93126" lon="5.7924">
        <ele>411.58</ele>
        <time>2016-06-04T13:15:51Z</time>
      </trkpt>
      <trkpt lat="46.93122" lon="5.79241">
        <ele>410.14</ele>
        <time>2016-06-04T13:15:55Z</time>
      </trkpt>
      <trkpt lat="46.93109" lon="5.79246">
        <ele>408.22</ele>
        <time>2016-06-04T13:16:07Z</time>
      </trkpt>
      <trkpt lat="46.93107" lon="5.79247">
        <ele>407.74</ele>
        <time>2016-06-04T13:16:09Z</time>
      </trkpt>
      <trkpt lat="46.93096" lon="5.79257">
        <ele>404.37</ele>
        <time>2016-06-04T13:16:22Z</time>
      </trkpt>
      <trkpt lat="46.93088" lon="5.79261">
        <ele>403.41</ele>
        <time>2016-06-04T13:16:30Z</time>
      </trkpt>
      <trkpt lat="46.93084" lon="5.79263">
        <ele>403.89</ele>
        <time>2016-06-04T13:16:34Z</time>
      </trkpt>
      <trkpt lat="46.93081" lon="5.79265">
        <ele>403.89</ele>
        <time>2016-06-04T13:16:37Z</time>
      </trkpt>
      <trkpt lat="46.93077" lon="5.79267">
        <ele>403.89</ele>
        <time>2016-06-04T13:16:40Z</time>
      </trkpt>
      <trkpt lat="46.93064" lon="5.79272">
        <ele>404.85</ele>
        <time>2016-06-04T13:16:53Z</time>
      </trkpt>
      <trkpt lat="46.93046" lon="5.79278">
        <ele>406.29</ele>
        <time>2016-06-04T13:17:08Z</time>
      </trkpt>
      <trkpt lat="46.93042" lon="5.7928">
        <ele>405.33</ele>
        <time>2016-06-04T13:17:16Z</time>
      </trkpt>
      <trkpt lat="46.9304" lon="5.79283">
        <ele>404.85</ele>
        <time>2016-06-04T13:17:18Z</time>
      </trkpt>
      <trkpt lat="46.93025" lon="5.79291">
        <ele>402.93</ele>
        <time>2016-06-04T13:17:30Z</time>
      </trkpt>
      <trkpt lat="46.93013" lon="5.79294">
        <ele>399.08</ele>
        <time>2016-06-04T13:17:42Z</time>
      </trkpt>
      <trkpt lat="46.93007" lon="5.79287">
        <ele>396.2</ele>
        <time>2016-06-04T13:17:52Z</time>
      </trkpt>
      <trkpt lat="46.93004" lon="5.79284">
        <ele>396.2</ele>
        <time>2016-06-04T13:17:56Z</time>
      </trkpt>
      <trkpt lat="46.93002" lon="5.79282">
        <ele>396.2</ele>
        <time>2016-06-04T13:17:58Z</time>
      </trkpt>
      <trkpt lat="46.92992" lon="5.79269">
        <ele>395.72</ele>
        <time>2016-06-04T13:18:11Z</time>
      </trkpt>
      <trkpt lat="46.92986" lon="5.79259">
        <ele>392.36</ele>
        <time>2016-06-04T13:18:24Z</time>
      </trkpt>
      <trkpt lat="46.9298" lon="5.79252">
        <ele>388.51</ele>
        <time>2016-06-04T13:18:34Z</time>
      </trkpt>
      <trkpt lat="46.92973" lon="5.79241">
        <ele>386.11</ele>
        <time>2016-06-04T13:18:46Z</time>
      </trkpt>
      <trkpt lat="46.92962" lon="5.79226">
        <ele>386.59</ele>
        <time>2016-06-04T13:18:59Z</time>
      </trkpt>
      <trkpt lat="46.9296" lon="5.79224">
        <ele>386.11</ele>
        <time>2016-06-04T13:19:01Z</time>
      </trkpt>
      <trkpt lat="46.92952" lon="5.79213">
        <ele>385.63</ele>
        <time>2016-06-04T13:19:13Z</time>
      </trkpt>
      <trkpt lat="46.92951" lon="5.79211">
        <ele>385.15</ele>
        <time>2016-06-04T13:19:15Z</time>
      </trkpt>
      <trkpt lat="46.92939" lon="5.79201">
        <ele>385.15</ele>
        <time>2016-06-04T13:19:28Z</time>
      </trkpt>
      <trkpt lat="46.92934" lon="5.79197">
        <ele>385.15</ele>
        <time>2016-06-04T13:19:33Z</time>
      </trkpt>
      <trkpt lat="46.9293" lon="5.79194">
        <ele>383.7</ele>
        <time>2016-06-04T13:19:37Z</time>
      </trkpt>
      <trkpt lat="46.92922" lon="5.79191">
        <ele>382.26</ele>
        <time>2016-06-04T13:19:49Z</time>
      </trkpt>
      <trkpt lat="46.92921" lon="5.79192">
        <ele>382.74</ele>
        <time>2016-06-04T13:20:10Z</time>
      </trkpt>
      <trkpt lat="46.9292" lon="5.79192">
        <ele>382.74</ele>
        <time>2016-06-04T13:20:26Z</time>
      </trkpt>
      <trkpt lat="46.9292" lon="5.79191">
        <ele>382.26</ele>
        <time>2016-06-04T13:20:44Z</time>
      </trkpt>
      <trkpt lat="46.92918" lon="5.79191">
        <ele>382.74</ele>
        <time>2016-06-04T13:20:56Z</time>
      </trkpt>
      <trkpt lat="46.92918" lon="5.79191">
        <ele>383.22</ele>
        <time>2016-06-04T13:21:11Z</time>
      </trkpt>
      <trkpt lat="46.9292" lon="5.79191">
        <ele>383.22</ele>
        <time>2016-06-04T13:21:31Z</time>
      </trkpt>
      <trkpt lat="46.9292" lon="5.79191">
        <ele>383.22</ele>
        <time>2016-06-04T13:21:49Z</time>
      </trkpt>
      <trkpt lat="46.92919" lon="5.7919">
        <ele>383.7</ele>
        <time>2016-06-04T13:22:03Z</time>
      </trkpt>
      <trkpt lat="46.92919" lon="5.7919">
        <ele>383.22</ele>
        <time>2016-06-04T13:22:20Z</time>
      </trkpt>
      <trkpt lat="46.9292" lon="5.79188">
        <ele>383.22</ele>
        <time>2016-06-04T13:22:35Z</time>
      </trkpt>
      <trkpt lat="46.92917" lon="5.7919">
        <ele>383.22</ele>
        <time>2016-06-04T13:22:46Z</time>
      </trkpt>
      <trkpt lat="46.92908" lon="5.79187">
        <ele>383.7</ele>
        <time>2016-06-04T13:22:59Z</time>
      </trkpt>
      <trkpt lat="46.92907" lon="5.79186">
        <ele>384.18</ele>
        <time>2016-06-04T13:23:01Z</time>
      </trkpt>
      <trkpt lat="46.92894" lon="5.79181">
        <ele>384.66</ele>
        <time>2016-06-04T13:23:14Z</time>
      </trkpt>
      <trkpt lat="46.92886" lon="5.79176">
        <ele>386.59</ele>
        <time>2016-06-04T13:23:26Z</time>
      </trkpt>
      <trkpt lat="46.92883" lon="5.79174">
        <ele>387.07</ele>
        <time>2016-06-04T13:23:32Z</time>
      </trkpt>
      <trkpt lat="46.92876" lon="5.79159">
        <ele>386.11</ele>
        <time>2016-06-04T13:23:45Z</time>
      </trkpt>
      <trkpt lat="46.9287" lon="5.79149">
        <ele>383.22</ele>
        <time>2016-06-04T13:23:57Z</time>
      </trkpt>
      <trkpt lat="46.92869" lon="5.79149">
        <ele>383.22</ele>
        <time>2016-06-04T13:24:03Z</time>
      </trkpt>
      <trkpt lat="46.92857" lon="5.79141">
        <ele>381.78</ele>
        <time>2016-06-04T13:24:17Z</time>
      </trkpt>
      <trkpt lat="46.92855" lon="5.79139">
        <ele>381.78</ele>
        <time>2016-06-04T13:24:19Z</time>
      </trkpt>
      <trkpt lat="46.9285" lon="5.79126">
        <ele>382.26</ele>
        <time>2016-06-04T13:24:30Z</time>
      </trkpt>
      <trkpt lat="46.92849" lon="5.79125">
        <ele>382.74</ele>
        <time>2016-06-04T13:24:38Z</time>
      </trkpt>
      <trkpt lat="46.92848" lon="5.79123">
        <ele>382.74</ele>
        <time>2016-06-04T13:24:41Z</time>
      </trkpt>
      <trkpt lat="46.92843" lon="5.79115">
        <ele>381.78</ele>
        <time>2016-06-04T13:24:48Z</time>
      </trkpt>
      <trkpt lat="46.92835" lon="5.79104">
        <ele>381.3</ele>
        <time>2016-06-04T13:24:59Z</time>
      </trkpt>
      <trkpt lat="46.92828" lon="5.79092">
        <ele>379.86</ele>
        <time>2016-06-04T13:25:10Z</time>
      </trkpt>
      <trkpt lat="46.92827" lon="5.79092">
        <ele>380.34</ele>
        <time>2016-06-04T13:25:11Z</time>
      </trkpt>
      <trkpt lat="46.92825" lon="5.79089">
        <ele>380.34</ele>
        <time>2016-06-04T13:25:14Z</time>
      </trkpt>
      <trkpt lat="46.92824" lon="5.79086">
        <ele>379.86</ele>
        <time>2016-06-04T13:25:16Z</time>
      </trkpt>
      <trkpt lat="46.92822" lon="5.79082">
        <ele>379.86</ele>
        <time>2016-06-04T13:25:20Z</time>
      </trkpt>
      <trkpt lat="46.92812" lon="5.79059">
        <ele>380.82</ele>
        <time>2016-06-04T13:25:34Z</time>
      </trkpt>
      <trkpt lat="46.92801" lon="5.79047">
        <ele>380.82</ele>
        <time>2016-06-04T13:25:46Z</time>
      </trkpt>
      <trkpt lat="46.92794" lon="5.79038">
        <ele>382.26</ele>
        <time>2016-06-04T13:25:56Z</time>
      </trkpt>
      <trkpt lat="46.92791" lon="5.79035">
        <ele>382.26</ele>
        <time>2016-06-04T13:25:59Z</time>
      </trkpt>
      <trkpt lat="46.92772" lon="5.79025">
        <ele>386.59</ele>
        <time>2016-06-04T13:26:14Z</time>
      </trkpt>
      <trkpt lat="46.92766" lon="5.79024">
        <ele>387.07</ele>
        <time>2016-06-04T13:26:24Z</time>
      </trkpt>
      <trkpt lat="46.92752" lon="5.79019">
        <ele>388.51</ele>
        <time>2016-06-04T13:26:38Z</time>
      </trkpt>
      <trkpt lat="46.92745" lon="5.79015">
        <ele>388.99</ele>
        <time>2016-06-04T13:26:54Z</time>
      </trkpt>
      <trkpt lat="46.92745" lon="5.79013">
        <ele>388.51</ele>
        <time>2016-06-04T13:27:13Z</time>
      </trkpt>
      <trkpt lat="46.92735" lon="5.79005">
        <ele>388.03</ele>
        <time>2016-06-04T13:27:25Z</time>
      </trkpt>
      <trkpt lat="46.92719" lon="5.78989">
        <ele>387.55</ele>
        <time>2016-06-04T13:27:41Z</time>
      </trkpt>
      <trkpt lat="46.92718" lon="5.78987">
        <ele>387.55</ele>
        <time>2016-06-04T13:27:43Z</time>
      </trkpt>
      <trkpt lat="46.92706" lon="5.78977">
        <ele>387.07</ele>
        <time>2016-06-04T13:27:56Z</time>
      </trkpt>
      <trkpt lat="46.92703" lon="5.78976">
        <ele>387.55</ele>
        <time>2016-06-04T13:27:58Z</time>
      </trkpt>
      <trkpt lat="46.92695" lon="5.7897">
        <ele>387.07</ele>
        <time>2016-06-04T13:28:11Z</time>
      </trkpt>
      <trkpt lat="46.92678" lon="5.78961">
        <ele>387.07</ele>
        <time>2016-06-04T13:28:27Z</time>
      </trkpt>
      <trkpt lat="46.92673" lon="5.78958">
        <ele>386.59</ele>
        <time>2016-06-04T13:28:32Z</time>
      </trkpt>
      <trkpt lat="46.92661" lon="5.78953">
        <ele>386.59</ele>
        <time>2016-06-04T13:28:43Z</time>
      </trkpt>
      <trkpt lat="46.92643" lon="5.78947">
        <ele>386.59</ele>
        <time>2016-06-04T13:28:58Z</time>
      </trkpt>
      <trkpt lat="46.92638" lon="5.78944">
        <ele>387.55</ele>
        <time>2016-06-04T13:29:04Z</time>
      </trkpt>
      <trkpt lat="46.92624" lon="5.78939">
        <ele>387.07</ele>
        <time>2016-06-04T13:29:17Z</time>
      </trkpt>
      <trkpt lat="46.92616" lon="5.78936">
        <ele>386.59</ele>
        <time>2016-06-04T13:29:24Z</time>
      </trkpt>
      <trkpt lat="46.92602" lon="5.78933">
        <ele>387.07</ele>
        <time>2016-06-04T13:29:36Z</time>
      </trkpt>
      <trkpt lat="46.926" lon="5.78932">
        <ele>387.07</ele>
        <time>2016-06-04T13:29:38Z</time>
      </trkpt>
      <trkpt lat="46.92587" lon="5.78925">
        <ele>388.51</ele>
        <time>2016-06-04T13:29:52Z</time>
      </trkpt>
      <trkpt lat="46.92573" lon="5.78919">
        <ele>387.55</ele>
        <time>2016-06-04T13:30:05Z</time>
      </trkpt>
      <trkpt lat="46.92556" lon="5.78915">
        <ele>386.59</ele>
        <time>2016-06-04T13:30:19Z</time>
      </trkpt>
      <trkpt lat="46.92546" lon="5.78911">
        <ele>386.59</ele>
        <time>2016-06-04T13:30:31Z</time>
      </trkpt>
      <trkpt lat="46.92542" lon="5.78912">
        <ele>386.59</ele>
        <time>2016-06-04T13:30:43Z</time>
      </trkpt>
      <trkpt lat="46.92544" lon="5.78914">
        <ele>385.63</ele>
        <time>2016-06-04T13:30:56Z</time>
      </trkpt>
      <trkpt lat="46.92541" lon="5.78913">
        <ele>384.66</ele>
        <time>2016-06-04T13:31:01Z</time>
      </trkpt>
      <trkpt lat="46.9253" lon="5.78908">
        <ele>383.7</ele>
        <time>2016-06-04T13:31:13Z</time>
      </trkpt>
      <trkpt lat="46.9252" lon="5.78907">
        <ele>384.18</ele>
        <time>2016-06-04T13:31:27Z</time>
      </trkpt>
      <trkpt lat="46.92514" lon="5.78904">
        <ele>384.18</ele>
        <time>2016-06-04T13:31:45Z</time>
      </trkpt>
      <trkpt lat="46.92512" lon="5.78901">
        <ele>383.7</ele>
        <time>2016-06-04T13:31:59Z</time>
      </trkpt>
      <trkpt lat="46.9251" lon="5.789">
        <ele>383.7</ele>
        <time>2016-06-04T13:32:20Z</time>
      </trkpt>
      <trkpt lat="46.92499" lon="5.78902">
        <ele>384.18</ele>
        <time>2016-06-04T13:32:42Z</time>
      </trkpt>
      <trkpt lat="46.92501" lon="5.789">
        <ele>384.66</ele>
        <time>2016-06-04T13:33:11Z</time>
      </trkpt>
      <trkpt lat="46.92504" lon="5.78898">
        <ele>387.07</ele>
        <time>2016-06-04T13:33:34Z</time>
      </trkpt>
      <trkpt lat="46.925" lon="5.789">
        <ele>388.03</ele>
        <time>2016-06-04T13:33:56Z</time>
      </trkpt>
      <trkpt lat="46.92501" lon="5.78906">
        <ele>386.11</ele>
        <time>2016-06-04T13:34:07Z</time>
      </trkpt>
      <trkpt lat="46.92503" lon="5.7891">
        <ele>385.63</ele>
        <time>2016-06-04T13:34:14Z</time>
      </trkpt>
      <trkpt lat="46.92504" lon="5.78921">
        <ele>384.66</ele>
        <time>2016-06-04T13:34:22Z</time>
      </trkpt>
      <trkpt lat="46.92503" lon="5.7893">
        <ele>384.18</ele>
        <time>2016-06-04T13:34:30Z</time>
      </trkpt>
      <trkpt lat="46.92498" lon="5.78944">
        <ele>384.18</ele>
        <time>2016-06-04T13:34:41Z</time>
      </trkpt>
      <trkpt lat="46.92497" lon="5.78952">
        <ele>385.15</ele>
        <time>2016-06-04T13:34:48Z</time>
      </trkpt>
      <trkpt lat="46.92497" lon="5.78964">
        <ele>388.03</ele>
        <time>2016-06-04T13:34:59Z</time>
      </trkpt>
      <trkpt lat="46.92497" lon="5.78965">
        <ele>388.03</ele>
        <time>2016-06-04T13:35:01Z</time>
      </trkpt>
      <trkpt lat="46.92499" lon="5.78969">
        <ele>389.47</ele>
        <time>2016-06-04T13:35:05Z</time>
      </trkpt>
      <trkpt lat="46.925" lon="5.78984">
        <ele>389.47</ele>
        <time>2016-06-04T13:35:17Z</time>
      </trkpt>
      <trkpt lat="46.92502" lon="5.78988">
        <ele>389.95</ele>
        <time>2016-06-04T13:35:21Z</time>
      </trkpt>
      <trkpt lat="46.92504" lon="5.78993">
        <ele>390.91</ele>
        <time>2016-06-04T13:35:26Z</time>
      </trkpt>
      <trkpt lat="46.92507" lon="5.78997">
        <ele>392.36</ele>
        <time>2016-06-04T13:35:31Z</time>
      </trkpt>
      <trkpt lat="46.92514" lon="5.79008">
        <ele>395.72</ele>
        <time>2016-06-04T13:35:41Z</time>
      </trkpt>
      <trkpt lat="46.92517" lon="5.79011">
        <ele>397.64</ele>
        <time>2016-06-04T13:35:46Z</time>
      </trkpt>
      <trkpt lat="46.92523" lon="5.79023">
        <ele>400.05</ele>
        <time>2016-06-04T13:35:58Z</time>
      </trkpt>
      <trkpt lat="46.92524" lon="5.7903">
        <ele>401.49</ele>
        <time>2016-06-04T13:36:06Z</time>
      </trkpt>
      <trkpt lat="46.92528" lon="5.79037">
        <ele>402.45</ele>
        <time>2016-06-04T13:36:17Z</time>
      </trkpt>
      <trkpt lat="46.92535" lon="5.79044">
        <ele>403.89</ele>
        <time>2016-06-04T13:36:28Z</time>
      </trkpt>
      <trkpt lat="46.92541" lon="5.7905">
        <ele>403.89</ele>
        <time>2016-06-04T13:36:43Z</time>
      </trkpt>
      <trkpt lat="46.92545" lon="5.79061">
        <ele>403.89</ele>
        <time>2016-06-04T13:36:55Z</time>
      </trkpt>
      <trkpt lat="46.92554" lon="5.79076">
        <ele>403.89</ele>
        <time>2016-06-04T13:37:10Z</time>
      </trkpt>
      <trkpt lat="46.92561" lon="5.79089">
        <ele>403.41</ele>
        <time>2016-06-04T13:37:22Z</time>
      </trkpt>
      <trkpt lat="46.92565" lon="5.79102">
        <ele>404.37</ele>
        <time>2016-06-04T13:37:37Z</time>
      </trkpt>
      <trkpt lat="46.92567" lon="5.79109">
        <ele>403.41</ele>
        <time>2016-06-04T13:37:44Z</time>
      </trkpt>
      <trkpt lat="46.92573" lon="5.79119">
        <ele>403.89</ele>
        <time>2016-06-04T13:37:56Z</time>
      </trkpt>
      <trkpt lat="46.92578" lon="5.79133">
        <ele>405.81</ele>
        <time>2016-06-04T13:38:12Z</time>
      </trkpt>
      <trkpt lat="46.92582" lon="5.79138">
        <ele>407.26</ele>
        <time>2016-06-04T13:38:18Z</time>
      </trkpt>
      <trkpt lat="46.92593" lon="5.79149">
        <ele>411.58</ele>
        <time>2016-06-04T13:38:32Z</time>
      </trkpt>
      <trkpt lat="46.92604" lon="5.79157">
        <ele>418.79</ele>
        <time>2016-06-04T13:38:47Z</time>
      </trkpt>
      <trkpt lat="46.92611" lon="5.79164">
        <ele>421.19</ele>
        <time>2016-06-04T13:39:01Z</time>
      </trkpt>
      <trkpt lat="46.92613" lon="5.79171">
        <ele>420.71</ele>
        <time>2016-06-04T13:39:16Z</time>
      </trkpt>
      <trkpt lat="46.9262" lon="5.7918">
        <ele>421.68</ele>
        <time>2016-06-04T13:39:29Z</time>
      </trkpt>
      <trkpt lat="46.92623" lon="5.79184">
        <ele>422.64</ele>
        <time>2016-06-04T13:39:45Z</time>
      </trkpt>
      <trkpt lat="46.92629" lon="5.79192">
        <ele>424.08</ele>
        <time>2016-06-04T13:39:59Z</time>
      </trkpt>
      <trkpt lat="46.92645" lon="5.79204">
        <ele>428.89</ele>
        <time>2016-06-04T13:40:13Z</time>
      </trkpt>
      <trkpt lat="46.9265" lon="5.79211">
        <ele>430.33</ele>
        <time>2016-06-04T13:40:21Z</time>
      </trkpt>
      <trkpt lat="46.92656" lon="5.79215">
        <ele>431.29</ele>
        <time>2016-06-04T13:40:28Z</time>
      </trkpt>
      <trkpt lat="46.92664" lon="5.79224">
        <ele>432.73</ele>
        <time>2016-06-04T13:40:41Z</time>
      </trkpt>
      <trkpt lat="46.92673" lon="5.79231">
        <ele>434.17</ele>
        <time>2016-06-04T13:40:52Z</time>
      </trkpt>
      <trkpt lat="46.92676" lon="5.79234">
        <ele>432.73</ele>
        <time>2016-06-04T13:40:57Z</time>
      </trkpt>
      <trkpt lat="46.92678" lon="5.79236">
        <ele>433.69</ele>
        <time>2016-06-04T13:41:10Z</time>
      </trkpt>
      <trkpt lat="46.92683" lon="5.79241">
        <ele>434.65</ele>
        <time>2016-06-04T13:41:22Z</time>
      </trkpt>
      <trkpt lat="46.92691" lon="5.79241">
        <ele>435.61</ele>
        <time>2016-06-04T13:41:32Z</time>
      </trkpt>
      <trkpt lat="46.92698" lon="5.79244">
        <ele>436.1</ele>
        <time>2016-06-04T13:41:41Z</time>
      </trkpt>
      <trkpt lat="46.92707" lon="5.79248">
        <ele>436.58</ele>
        <time>2016-06-04T13:41:53Z</time>
      </trkpt>
      <trkpt lat="46.92707" lon="5.79248">
        <ele>436.58</ele>
        <time>2016-06-04T13:41:54Z</time>
      </trkpt>
      <trkpt lat="46.92717" lon="5.79258">
        <ele>438.02</ele>
        <time>2016-06-04T13:42:08Z</time>
      </trkpt>
      <trkpt lat="46.92718" lon="5.79271">
        <ele>439.94</ele>
        <time>2016-06-04T13:42:19Z</time>
      </trkpt>
      <trkpt lat="46.92713" lon="5.7928">
        <ele>440.42</ele>
        <time>2016-06-04T13:42:24Z</time>
      </trkpt>
      <trkpt lat="46.92705" lon="5.79294">
        <ele>440.9</ele>
        <time>2016-06-04T13:42:37Z</time>
      </trkpt>
      <trkpt lat="46.92695" lon="5.7929">
        <ele>441.86</ele>
        <time>2016-06-04T13:42:48Z</time>
      </trkpt>
      <trkpt lat="46.92688" lon="5.79284">
        <ele>441.38</ele>
        <time>2016-06-04T13:42:58Z</time>
      </trkpt>
      <trkpt lat="46.92678" lon="5.79279">
        <ele>441.38</ele>
        <time>2016-06-04T13:43:10Z</time>
      </trkpt>
      <trkpt lat="46.92671" lon="5.79272">
        <ele>442.34</ele>
        <time>2016-06-04T13:43:18Z</time>
      </trkpt>
      <trkpt lat="46.92669" lon="5.7927">
        <ele>442.82</ele>
        <time>2016-06-04T13:43:20Z</time>
      </trkpt>
      <trkpt lat="46.92666" lon="5.79266">
        <ele>442.82</ele>
        <time>2016-06-04T13:43:23Z</time>
      </trkpt>
      <trkpt lat="46.92657" lon="5.79258">
        <ele>445.23</ele>
        <time>2016-06-04T13:43:33Z</time>
      </trkpt>
      <trkpt lat="46.92643" lon="5.79251">
        <ele>445.71</ele>
        <time>2016-06-04T13:43:46Z</time>
      </trkpt>
      <trkpt lat="46.92635" lon="5.79249">
        <ele>445.71</ele>
        <time>2016-06-04T13:43:54Z</time>
      </trkpt>
      <trkpt lat="46.9263" lon="5.79247">
        <ele>445.71</ele>
        <time>2016-06-04T13:43:58Z</time>
      </trkpt>
      <trkpt lat="46.92615" lon="5.79248">
        <ele>445.23</ele>
        <time>2016-06-04T13:44:12Z</time>
      </trkpt>
      <trkpt lat="46.92613" lon="5.7925">
        <ele>444.75</ele>
        <time>2016-06-04T13:44:15Z</time>
      </trkpt>
      <trkpt lat="46.92597" lon="5.79251">
        <ele>442.82</ele>
        <time>2016-06-04T13:44:30Z</time>
      </trkpt>
      <trkpt lat="46.92584" lon="5.79254">
        <ele>442.34</ele>
        <time>2016-06-04T13:44:43Z</time>
      </trkpt>
      <trkpt lat="46.92571" lon="5.79259">
        <ele>442.82</ele>
        <time>2016-06-04T13:44:57Z</time>
      </trkpt>
      <trkpt lat="46.92563" lon="5.79262">
        <ele>443.79</ele>
        <time>2016-06-04T13:45:11Z</time>
      </trkpt>
      <trkpt lat="46.92549" lon="5.79262">
        <ele>444.27</ele>
        <time>2016-06-04T13:45:23Z</time>
      </trkpt>
      <trkpt lat="46.92547" lon="5.79263">
        <ele>445.23</ele>
        <time>2016-06-04T13:45:34Z</time>
      </trkpt>
      <trkpt lat="46.9254" lon="5.79264">
        <ele>444.75</ele>
        <time>2016-06-04T13:45:51Z</time>
      </trkpt>
      <trkpt lat="46.92531" lon="5.79264">
        <ele>443.79</ele>
        <time>2016-06-04T13:46:06Z</time>
      </trkpt>
      <trkpt lat="46.92526" lon="5.79264">
        <ele>443.79</ele>
        <time>2016-06-04T13:46:21Z</time>
      </trkpt>
      <trkpt lat="46.9252" lon="5.79266">
        <ele>444.27</ele>
        <time>2016-06-04T13:46:36Z</time>
      </trkpt>
      <trkpt lat="46.9251" lon="5.79269">
        <ele>442.82</ele>
        <time>2016-06-04T13:46:49Z</time>
      </trkpt>
      <trkpt lat="46.92502" lon="5.79272">
        <ele>442.82</ele>
        <time>2016-06-04T13:47:06Z</time>
      </trkpt>
      <trkpt lat="46.92487" lon="5.79283">
        <ele>442.34</ele>
        <time>2016-06-04T13:47:19Z</time>
      </trkpt>
      <trkpt lat="46.92481" lon="5.79285">
        <ele>443.79</ele>
        <time>2016-06-04T13:47:35Z</time>
      </trkpt>
      <trkpt lat="46.92472" lon="5.79294">
        <ele>442.34</ele>
        <time>2016-06-04T13:47:50Z</time>
      </trkpt>
      <trkpt lat="46.92455" lon="5.79298">
        <ele>444.75</ele>
        <time>2016-06-04T13:48:03Z</time>
      </trkpt>
      <trkpt lat="46.92441" lon="5.79309">
        <ele>448.11</ele>
        <time>2016-06-04T13:48:15Z</time>
      </trkpt>
      <trkpt lat="46.92434" lon="5.79312">
        <ele>452.44</ele>
        <time>2016-06-04T13:48:36Z</time>
      </trkpt>
      <trkpt lat="46.92422" lon="5.79312">
        <ele>455.32</ele>
        <time>2016-06-04T13:48:56Z</time>
      </trkpt>
      <trkpt lat="46.92405" lon="5.79314">
        <ele>456.76</ele>
        <time>2016-06-04T13:49:08Z</time>
      </trkpt>
      <trkpt lat="46.92385" lon="5.79322">
        <ele>460.61</ele>
        <time>2016-06-04T13:49:22Z</time>
      </trkpt>
      <trkpt lat="46.92375" lon="5.79323">
        <ele>461.57</ele>
        <time>2016-06-04T13:49:37Z</time>
      </trkpt>
      <trkpt lat="46.92361" lon="5.7932">
        <ele>458.21</ele>
        <time>2016-06-04T13:49:51Z</time>
      </trkpt>
      <trkpt lat="46.92349" lon="5.79309">
        <ele>455.8</ele>
        <time>2016-06-04T13:50:04Z</time>
      </trkpt>
      <trkpt lat="46.92347" lon="5.79306">
        <ele>455.32</ele>
        <time>2016-06-04T13:50:07Z</time>
      </trkpt>
      <trkpt lat="46.92346" lon="5.79303">
        <ele>455.32</ele>
        <time>2016-06-04T13:50:09Z</time>
      </trkpt>
      <trkpt lat="46.92342" lon="5.79299">
        <ele>456.28</ele>
        <time>2016-06-04T13:50:12Z</time>
      </trkpt>
      <trkpt lat="46.92332" lon="5.79282">
        <ele>454.36</ele>
        <time>2016-06-04T13:50:28Z</time>
      </trkpt>
      <trkpt lat="46.92331" lon="5.79275">
        <ele>453.4</ele>
        <time>2016-06-04T13:50:37Z</time>
      </trkpt>
      <trkpt lat="46.9233" lon="5.79271">
        <ele>453.88</ele>
        <time>2016-06-04T13:50:41Z</time>
      </trkpt>
      <trkpt lat="46.92327" lon="5.7926">
        <ele>453.88</ele>
        <time>2016-06-04T13:50:51Z</time>
      </trkpt>
      <trkpt lat="46.92328" lon="5.79257">
        <ele>453.88</ele>
        <time>2016-06-04T13:50:54Z</time>
      </trkpt>
      <trkpt lat="46.92313" lon="5.79241">
        <ele>453.4</ele>
        <time>2016-06-04T13:51:05Z</time>
      </trkpt>
      <trkpt lat="46.923" lon="5.7923">
        <ele>453.4</ele>
        <time>2016-06-04T13:51:13Z</time>
      </trkpt>
      <trkpt lat="46.92284" lon="5.79214">
        <ele>452.92</ele>
        <time>2016-06-04T13:51:28Z</time>
      </trkpt>
      <trkpt lat="46.92283" lon="5.79208">
        <ele>451.96</ele>
        <time>2016-06-04T13:51:38Z</time>
      </trkpt>
      <trkpt lat="46.92275" lon="5.79203">
        <ele>452.44</ele>
        <time>2016-06-04T13:51:52Z</time>
      </trkpt>
      <trkpt lat="46.92274" lon="5.79201">
        <ele>452.44</ele>
        <time>2016-06-04T13:52:09Z</time>
      </trkpt>
      <trkpt lat="46.92269" lon="5.79203">
        <ele>453.4</ele>
        <time>2016-06-04T13:52:23Z</time>
      </trkpt>
      <trkpt lat="46.92265" lon="5.7921">
        <ele>456.76</ele>
        <time>2016-06-04T13:52:38Z</time>
      </trkpt>
      <trkpt lat="46.92251" lon="5.79215">
        <ele>460.61</ele>
        <time>2016-06-04T13:52:54Z</time>
      </trkpt>
      <trkpt lat="46.92239" lon="5.79219">
        <ele>464.45</ele>
        <time>2016-06-04T13:53:07Z</time>
      </trkpt>
      <trkpt lat="46.92231" lon="5.79229">
        <ele>466.86</ele>
        <time>2016-06-04T13:53:18Z</time>
      </trkpt>
      <trkpt lat="46.92206" lon="5.79238">
        <ele>475.03</ele>
        <time>2016-06-04T13:53:32Z</time>
      </trkpt>
      <trkpt lat="46.9219" lon="5.79254">
        <ele>483.68</ele>
        <time>2016-06-04T13:53:47Z</time>
      </trkpt>
      <trkpt lat="46.92185" lon="5.79263">
        <ele>486.56</ele>
        <time>2016-06-04T13:54:00Z</time>
      </trkpt>
      <trkpt lat="46.92183" lon="5.79272">
        <ele>486.08</ele>
        <time>2016-06-04T13:54:12Z</time>
      </trkpt>
      <trkpt lat="46.92169" lon="5.7928">
        <ele>483.2</ele>
        <time>2016-06-04T13:54:27Z</time>
      </trkpt>
      <trkpt lat="46.92162" lon="5.79291">
        <ele>481.76</ele>
        <time>2016-06-04T13:54:34Z</time>
      </trkpt>
      <trkpt lat="46.92156" lon="5.79294">
        <ele>481.76</ele>
        <time>2016-06-04T13:54:48Z</time>
      </trkpt>
      <trkpt lat="46.92155" lon="5.79296">
        <ele>480.32</ele>
        <time>2016-06-04T13:54:55Z</time>
      </trkpt>
      <trkpt lat="46.92154" lon="5.79297">
        <ele>479.35</ele>
        <time>2016-06-04T13:54:57Z</time>
      </trkpt>
      <trkpt lat="46.92148" lon="5.79301">
        <ele>476.95</ele>
        <time>2016-06-04T13:55:02Z</time>
      </trkpt>
      <trkpt lat="46.92133" lon="5.79312">
        <ele>479.84</ele>
        <time>2016-06-04T13:55:16Z</time>
      </trkpt>
      <trkpt lat="46.9212" lon="5.79321">
        <ele>480.32</ele>
        <time>2016-06-04T13:55:31Z</time>
      </trkpt>
      <trkpt lat="46.92109" lon="5.79332">
        <ele>479.35</ele>
        <time>2016-06-04T13:55:45Z</time>
      </trkpt>
      <trkpt lat="46.92101" lon="5.79345">
        <ele>479.84</ele>
        <time>2016-06-04T13:55:57Z</time>
      </trkpt>
      <trkpt lat="46.92095" lon="5.79359">
        <ele>480.8</ele>
        <time>2016-06-04T13:56:10Z</time>
      </trkpt>
      <trkpt lat="46.92089" lon="5.79372">
        <ele>481.76</ele>
        <time>2016-06-04T13:56:20Z</time>
      </trkpt>
      <trkpt lat="46.92089" lon="5.79379">
        <ele>481.76</ele>
        <time>2016-06-04T13:56:25Z</time>
      </trkpt>
      <trkpt lat="46.92085" lon="5.79387">
        <ele>482.72</ele>
        <time>2016-06-04T13:56:38Z</time>
      </trkpt>
      <trkpt lat="46.92081" lon="5.79398">
        <ele>483.2</ele>
        <time>2016-06-04T13:56:48Z</time>
      </trkpt>
      <trkpt lat="46.92078" lon="5.7941">
        <ele>484.64</ele>
        <time>2016-06-04T13:56:59Z</time>
      </trkpt>
      <trkpt lat="46.92073" lon="5.79422">
        <ele>484.16</ele>
        <time>2016-06-04T13:57:09Z</time>
      </trkpt>
      <trkpt lat="46.9207" lon="5.79433">
        <ele>484.64</ele>
        <time>2016-06-04T13:57:21Z</time>
      </trkpt>
      <trkpt lat="46.92066" lon="5.7945">
        <ele>485.6</ele>
        <time>2016-06-04T13:57:37Z</time>
      </trkpt>
      <trkpt lat="46.92061" lon="5.79465">
        <ele>485.6</ele>
        <time>2016-06-04T13:57:48Z</time>
      </trkpt>
      <trkpt lat="46.92054" lon="5.79479">
        <ele>484.16</ele>
        <time>2016-06-04T13:58:00Z</time>
      </trkpt>
      <trkpt lat="46.92046" lon="5.79497">
        <ele>484.64</ele>
        <time>2016-06-04T13:58:13Z</time>
      </trkpt>
      <trkpt lat="46.92041" lon="5.79505">
        <ele>486.56</ele>
        <time>2016-06-04T13:58:24Z</time>
      </trkpt>
      <trkpt lat="46.92038" lon="5.79509">
        <ele>487.05</ele>
        <time>2016-06-04T13:58:36Z</time>
      </trkpt>
      <trkpt lat="46.92038" lon="5.79509">
        <ele>487.05</ele>
        <time>2016-06-04T13:58:37Z</time>
      </trkpt>
      <trkpt lat="46.92037" lon="5.79512">
        <ele>487.05</ele>
        <time>2016-06-04T13:58:40Z</time>
      </trkpt>
      <trkpt lat="46.92029" lon="5.79529">
        <ele>487.05</ele>
        <time>2016-06-04T13:58:53Z</time>
      </trkpt>
      <trkpt lat="46.92013" lon="5.79551">
        <ele>483.68</ele>
        <time>2016-06-04T13:59:07Z</time>
      </trkpt>
      <trkpt lat="46.92002" lon="5.79569">
        <ele>478.87</ele>
        <time>2016-06-04T13:59:19Z</time>
      </trkpt>
      <trkpt lat="46.91994" lon="5.79581">
        <ele>473.59</ele>
        <time>2016-06-04T13:59:30Z</time>
      </trkpt>
      <trkpt lat="46.91986" lon="5.79593">
        <ele>467.82</ele>
        <time>2016-06-04T13:59:41Z</time>
      </trkpt>
      <trkpt lat="46.91986" lon="5.79606">
        <ele>463.49</ele>
        <time>2016-06-04T13:59:51Z</time>
      </trkpt>
      <trkpt lat="46.9199" lon="5.79617">
        <ele>467.82</ele>
        <time>2016-06-04T14:00:01Z</time>
      </trkpt>
      <trkpt lat="46.92" lon="5.7963">
        <ele>473.59</ele>
        <time>2016-06-04T14:00:12Z</time>
      </trkpt>
      <trkpt lat="46.91989" lon="5.79641">
        <ele>478.39</ele>
        <time>2016-06-04T14:00:27Z</time>
      </trkpt>
      <trkpt lat="46.9198" lon="5.79653">
        <ele>485.12</ele>
        <time>2016-06-04T14:00:39Z</time>
      </trkpt>
      <trkpt lat="46.91971" lon="5.79672">
        <ele>490.41</ele>
        <time>2016-06-04T14:00:53Z</time>
      </trkpt>
      <trkpt lat="46.91958" lon="5.79693">
        <ele>501.46</ele>
        <time>2016-06-04T14:01:10Z</time>
      </trkpt>
      <trkpt lat="46.9195" lon="5.79706">
        <ele>504.35</ele>
        <time>2016-06-04T14:01:23Z</time>
      </trkpt>
      <trkpt lat="46.91946" lon="5.7972">
        <ele>508.19</ele>
        <time>2016-06-04T14:01:37Z</time>
      </trkpt>
      <trkpt lat="46.91941" lon="5.7973">
        <ele>509.64</ele>
        <time>2016-06-04T14:01:48Z</time>
      </trkpt>
      <trkpt lat="46.9194" lon="5.79733">
        <ele>509.64</ele>
        <time>2016-06-04T14:01:50Z</time>
      </trkpt>
      <trkpt lat="46.91935" lon="5.79746">
        <ele>509.16</ele>
        <time>2016-06-04T14:02:03Z</time>
      </trkpt>
      <trkpt lat="46.91929" lon="5.79762">
        <ele>507.71</ele>
        <time>2016-06-04T14:02:15Z</time>
      </trkpt>
      <trkpt lat="46.91926" lon="5.79769">
        <ele>506.27</ele>
        <time>2016-06-04T14:02:29Z</time>
      </trkpt>
      <trkpt lat="46.91924" lon="5.7978">
        <ele>500.02</ele>
        <time>2016-06-04T14:02:41Z</time>
      </trkpt>
      <trkpt lat="46.91921" lon="5.79791">
        <ele>497.62</ele>
        <time>2016-06-04T14:02:55Z</time>
      </trkpt>
      <trkpt lat="46.9192" lon="5.79797">
        <ele>495.7</ele>
        <time>2016-06-04T14:03:05Z</time>
      </trkpt>
      <trkpt lat="46.91918" lon="5.79808">
        <ele>490.89</ele>
        <time>2016-06-04T14:03:19Z</time>
      </trkpt>
      <trkpt lat="46.91916" lon="5.79818">
        <ele>495.22</ele>
        <time>2016-06-04T14:03:46Z</time>
      </trkpt>
      <trkpt lat="46.91912" lon="5.7982">
        <ele>500.98</ele>
        <time>2016-06-04T14:04:12Z</time>
      </trkpt>
      <trkpt lat="46.91911" lon="5.79821">
        <ele>503.87</ele>
        <time>2016-06-04T14:04:39Z</time>
      </trkpt>
      <trkpt lat="46.91905" lon="5.79829">
        <ele>505.79</ele>
        <time>2016-06-04T14:04:54Z</time>
      </trkpt>
      <trkpt lat="46.91905" lon="5.79831">
        <ele>505.79</ele>
        <time>2016-06-04T14:04:56Z</time>
      </trkpt>
      <trkpt lat="46.919" lon="5.79839">
        <ele>507.23</ele>
        <time>2016-06-04T14:05:07Z</time>
      </trkpt>
      <trkpt lat="46.91898" lon="5.79851">
        <ele>508.19</ele>
        <time>2016-06-04T14:05:19Z</time>
      </trkpt>
      <trkpt lat="46.919" lon="5.7986">
        <ele>506.75</ele>
        <time>2016-06-04T14:05:32Z</time>
      </trkpt>
      <trkpt lat="46.91901" lon="5.79866">
        <ele>505.79</ele>
        <time>2016-06-04T14:05:46Z</time>
      </trkpt>
      <trkpt lat="46.91902" lon="5.79877">
        <ele>505.31</ele>
        <time>2016-06-04T14:05:59Z</time>
      </trkpt>
      <trkpt lat="46.91905" lon="5.79898">
        <ele>504.83</ele>
        <time>2016-06-04T14:06:11Z</time>
      </trkpt>
      <trkpt lat="46.91907" lon="5.79908">
        <ele>504.35</ele>
        <time>2016-06-04T14:06:29Z</time>
      </trkpt>
      <trkpt lat="46.91909" lon="5.79913">
        <ele>503.87</ele>
        <time>2016-06-04T14:07:01Z</time>
      </trkpt>
      <trkpt lat="46.91909" lon="5.79915">
        <ele>505.79</ele>
        <time>2016-06-04T14:07:28Z</time>
      </trkpt>
      <trkpt lat="46.91904" lon="5.79916">
        <ele>509.16</ele>
        <time>2016-06-04T14:07:54Z</time>
      </trkpt>
      <trkpt lat="46.91902" lon="5.79917">
        <ele>512.52</ele>
        <time>2016-06-04T14:08:22Z</time>
      </trkpt>
      <trkpt lat="46.91901" lon="5.79917">
        <ele>513.96</ele>
        <time>2016-06-04T14:08:48Z</time>
      </trkpt>
      <trkpt lat="46.91901" lon="5.79917">
        <ele>515.4</ele>
        <time>2016-06-04T14:09:10Z</time>
      </trkpt>
      <trkpt lat="46.91901" lon="5.79917">
        <ele>516.85</ele>
        <time>2016-06-04T14:09:38Z</time>
      </trkpt>
      <trkpt lat="46.91901" lon="5.79916">
        <ele>517.81</ele>
        <time>2016-06-04T14:10:04Z</time>
      </trkpt>
      <trkpt lat="46.91901" lon="5.79916">
        <ele>519.73</ele>
        <time>2016-06-04T14:10:22Z</time>
      </trkpt>
      <trkpt lat="46.919" lon="5.79916">
        <ele>521.17</ele>
        <time>2016-06-04T14:10:51Z</time>
      </trkpt>
      <trkpt lat="46.91901" lon="5.79916">
        <ele>522.61</ele>
        <time>2016-06-04T14:11:22Z</time>
      </trkpt>
      <trkpt lat="46.919" lon="5.79916">
        <ele>522.61</ele>
        <time>2016-06-04T14:11:50Z</time>
      </trkpt>
      <trkpt lat="46.91899" lon="5.79917">
        <ele>523.58</ele>
        <time>2016-06-04T14:12:25Z</time>
      </trkpt>
      <trkpt lat="46.91899" lon="5.79917">
        <ele>523.58</ele>
        <time>2016-06-04T14:12:55Z</time>
      </trkpt>
      <trkpt lat="46.91899" lon="5.79917">
        <ele>523.58</ele>
        <time>2016-06-04T14:13:19Z</time>
      </trkpt>
      <trkpt lat="46.91899" lon="5.79917">
        <ele>523.58</ele>
        <time>2016-06-04T14:13:43Z</time>
      </trkpt>
      <trkpt lat="46.91899" lon="5.79917">
        <ele>524.06</ele>
        <time>2016-06-04T14:14:06Z</time>
      </trkpt>
      <trkpt lat="46.91899" lon="5.79917">
        <ele>524.06</ele>
        <time>2016-06-04T14:14:37Z</time>
      </trkpt>
      <trkpt lat="46.91896" lon="5.79916">
        <ele>523.58</ele>
        <time>2016-06-04T14:14:58Z</time>
      </trkpt>
      <trkpt lat="46.91893" lon="5.79916">
        <ele>523.58</ele>
        <time>2016-06-04T14:15:23Z</time>
      </trkpt>
      <trkpt lat="46.91893" lon="5.79917">
        <ele>524.06</ele>
        <time>2016-06-04T14:15:48Z</time>
      </trkpt>
      <trkpt lat="46.91893" lon="5.79918">
        <ele>525.98</ele>
        <time>2016-06-04T14:16:17Z</time>
      </trkpt>
      <trkpt lat="46.91893" lon="5.79919">
        <ele>526.46</ele>
        <time>2016-06-04T14:16:40Z</time>
      </trkpt>
      <trkpt lat="46.91893" lon="5.79918">
        <ele>526.94</ele>
        <time>2016-06-04T14:17:09Z</time>
      </trkpt>
      <trkpt lat="46.91893" lon="5.79917">
        <ele>526.46</ele>
        <time>2016-06-04T14:17:30Z</time>
      </trkpt>
      <trkpt lat="46.91894" lon="5.79918">
        <ele>525.98</ele>
        <time>2016-06-04T14:17:52Z</time>
      </trkpt>
      <trkpt lat="46.91898" lon="5.79917">
        <ele>526.46</ele>
        <time>2016-06-04T14:18:21Z</time>
      </trkpt>
      <trkpt lat="46.91897" lon="5.79917">
        <ele>528.38</ele>
        <time>2016-06-04T14:18:46Z</time>
      </trkpt>
      <trkpt lat="46.91896" lon="5.79915">
        <ele>529.82</ele>
        <time>2016-06-04T14:19:10Z</time>
      </trkpt>
      <trkpt lat="46.91896" lon="5.79915">
        <ele>529.82</ele>
        <time>2016-06-04T14:19:34Z</time>
      </trkpt>
      <trkpt lat="46.91896" lon="5.79916">
        <ele>529.34</ele>
        <time>2016-06-04T14:19:58Z</time>
      </trkpt>
      <trkpt lat="46.91895" lon="5.79914">
        <ele>530.3</ele>
        <time>2016-06-04T14:20:24Z</time>
      </trkpt>
      <trkpt lat="46.91894" lon="5.79913">
        <ele>529.34</ele>
        <time>2016-06-04T14:20:58Z</time>
      </trkpt>
      <trkpt lat="46.91894" lon="5.79913">
        <ele>530.3</ele>
        <time>2016-06-04T14:21:22Z</time>
      </trkpt>
      <trkpt lat="46.91893" lon="5.79912">
        <ele>531.75</ele>
        <time>2016-06-04T14:21:48Z</time>
      </trkpt>
      <trkpt lat="46.91893" lon="5.79911">
        <ele>532.23</ele>
        <time>2016-06-04T14:22:07Z</time>
      </trkpt>
      <trkpt lat="46.91893" lon="5.79911">
        <ele>532.23</ele>
        <time>2016-06-04T14:22:33Z</time>
      </trkpt>
      <trkpt lat="46.91893" lon="5.7991">
        <ele>532.23</ele>
        <time>2016-06-04T14:23:00Z</time>
      </trkpt>
      <trkpt lat="46.91893" lon="5.79909">
        <ele>532.71</ele>
        <time>2016-06-04T14:23:25Z</time>
      </trkpt>
      <trkpt lat="46.91893" lon="5.79909">
        <ele>533.19</ele>
        <time>2016-06-04T14:23:53Z</time>
      </trkpt>
      <trkpt lat="46.91892" lon="5.79912">
        <ele>532.71</ele>
        <time>2016-06-04T14:24:21Z</time>
      </trkpt>
      <trkpt lat="46.91893" lon="5.79913">
        <ele>532.71</ele>
        <time>2016-06-04T14:24:52Z</time>
      </trkpt>
      <trkpt lat="46.91894" lon="5.79914">
        <ele>533.67</ele>
        <time>2016-06-04T14:25:11Z</time>
      </trkpt>
      <trkpt lat="46.91892" lon="5.79927">
        <ele>533.67</ele>
        <time>2016-06-04T14:25:22Z</time>
      </trkpt>
      <trkpt lat="46.91894" lon="5.79944">
        <ele>533.19</ele>
        <time>2016-06-04T14:25:37Z</time>
      </trkpt>
      <trkpt lat="46.91898" lon="5.79974">
        <ele>531.75</ele>
        <time>2016-06-04T14:25:52Z</time>
      </trkpt>
      <trkpt lat="46.91901" lon="5.79994">
        <ele>533.19</ele>
        <time>2016-06-04T14:26:06Z</time>
      </trkpt>
      <trkpt lat="46.91895" lon="5.79997">
        <ele>537.99</ele>
        <time>2016-06-04T14:26:19Z</time>
      </trkpt>
      <trkpt lat="46.91893" lon="5.79994">
        <ele>540.4</ele>
        <time>2016-06-04T14:26:31Z</time>
      </trkpt>
      <trkpt lat="46.9189" lon="5.79989">
        <ele>540.4</ele>
        <time>2016-06-04T14:26:35Z</time>
      </trkpt>
      <trkpt lat="46.91886" lon="5.79983">
        <ele>540.88</ele>
        <time>2016-06-04T14:26:49Z</time>
      </trkpt>
      <trkpt lat="46.91878" lon="5.79965">
        <ele>539.92</ele>
        <time>2016-06-04T14:27:03Z</time>
      </trkpt>
      <trkpt lat="46.91875" lon="5.79961">
        <ele>539.44</ele>
        <time>2016-06-04T14:27:19Z</time>
      </trkpt>
      <trkpt lat="46.91872" lon="5.79954">
        <ele>538.96</ele>
        <time>2016-06-04T14:27:34Z</time>
      </trkpt>
      <trkpt lat="46.91865" lon="5.79937">
        <ele>538.48</ele>
        <time>2016-06-04T14:27:48Z</time>
      </trkpt>
      <trkpt lat="46.91863" lon="5.79931">
        <ele>538.96</ele>
        <time>2016-06-04T14:27:59Z</time>
      </trkpt>
      <trkpt lat="46.91855" lon="5.79913">
        <ele>538.48</ele>
        <time>2016-06-04T14:28:10Z</time>
      </trkpt>
      <trkpt lat="46.91847" lon="5.79895">
        <ele>537.99</ele>
        <time>2016-06-04T14:28:23Z</time>
      </trkpt>
      <trkpt lat="46.9184" lon="5.79881">
        <ele>536.07</ele>
        <time>2016-06-04T14:28:34Z</time>
      </trkpt>
      <trkpt lat="46.91833" lon="5.79868">
        <ele>534.15</ele>
        <time>2016-06-04T14:28:46Z</time>
      </trkpt>
      <trkpt lat="46.91823" lon="5.79856">
        <ele>531.75</ele>
        <time>2016-06-04T14:29:02Z</time>
      </trkpt>
      <trkpt lat="46.91818" lon="5.79846">
        <ele>531.27</ele>
        <time>2016-06-04T14:29:16Z</time>
      </trkpt>
      <trkpt lat="46.91813" lon="5.79835">
        <ele>529.34</ele>
        <time>2016-06-04T14:29:30Z</time>
      </trkpt>
      <trkpt lat="46.9181" lon="5.79831">
        <ele>530.3</ele>
        <time>2016-06-04T14:29:46Z</time>
      </trkpt>
      <trkpt lat="46.91806" lon="5.79828">
        <ele>532.23</ele>
        <time>2016-06-04T14:30:01Z</time>
      </trkpt>
      <trkpt lat="46.91802" lon="5.79822">
        <ele>532.71</ele>
        <time>2016-06-04T14:30:15Z</time>
      </trkpt>
      <trkpt lat="46.91781" lon="5.79782">
        <ele>529.34</ele>
        <time>2016-06-04T14:30:30Z</time>
      </trkpt>
      <trkpt lat="46.91773" lon="5.7977">
        <ele>528.38</ele>
        <time>2016-06-04T14:30:46Z</time>
      </trkpt>
      <trkpt lat="46.9175" lon="5.79727">
        <ele>522.13</ele>
        <time>2016-06-04T14:31:02Z</time>
      </trkpt>
      <trkpt lat="46.91744" lon="5.79707">
        <ele>521.17</ele>
        <time>2016-06-04T14:31:17Z</time>
      </trkpt>
      <trkpt lat="46.91736" lon="5.79686">
        <ele>522.13</ele>
        <time>2016-06-04T14:31:33Z</time>
      </trkpt>
      <trkpt lat="46.91738" lon="5.7967">
        <ele>520.21</ele>
        <time>2016-06-04T14:31:47Z</time>
      </trkpt>
      <trkpt lat="46.91736" lon="5.79661">
        <ele>519.25</ele>
        <time>2016-06-04T14:32:02Z</time>
      </trkpt>
      <trkpt lat="46.91728" lon="5.79648">
        <ele>517.33</ele>
        <time>2016-06-04T14:32:16Z</time>
      </trkpt>
      <trkpt lat="46.91718" lon="5.7963">
        <ele>514.92</ele>
        <time>2016-06-04T14:32:30Z</time>
      </trkpt>
      <trkpt lat="46.91712" lon="5.79626">
        <ele>512.52</ele>
        <time>2016-06-04T14:32:43Z</time>
      </trkpt>
      <trkpt lat="46.91704" lon="5.79617">
        <ele>511.08</ele>
        <time>2016-06-04T14:32:57Z</time>
      </trkpt>
      <trkpt lat="46.917" lon="5.79613">
        <ele>512.52</ele>
        <time>2016-06-04T14:33:11Z</time>
      </trkpt>
      <trkpt lat="46.91693" lon="5.79608">
        <ele>511.56</ele>
        <time>2016-06-04T14:33:25Z</time>
      </trkpt>
      <trkpt lat="46.91673" lon="5.79592">
        <ele>509.16</ele>
        <time>2016-06-04T14:33:40Z</time>
      </trkpt>
      <trkpt lat="46.91664" lon="5.79581">
        <ele>504.35</ele>
        <time>2016-06-04T14:33:55Z</time>
      </trkpt>
      <trkpt lat="46.91654" lon="5.79574">
        <ele>501.95</ele>
        <time>2016-06-04T14:34:11Z</time>
      </trkpt>
      <trkpt lat="46.91646" lon="5.79572">
        <ele>500.98</ele>
        <time>2016-06-04T14:34:26Z</time>
      </trkpt>
      <trkpt lat="46.91628" lon="5.79549">
        <ele>497.62</ele>
        <time>2016-06-04T14:34:39Z</time>
      </trkpt>
      <trkpt lat="46.9162" lon="5.79547">
        <ele>495.7</ele>
        <time>2016-06-04T14:34:54Z</time>
      </trkpt>
      <trkpt lat="46.91611" lon="5.79541">
        <ele>493.77</ele>
        <time>2016-06-04T14:35:08Z</time>
      </trkpt>
      <trkpt lat="46.91603" lon="5.79537">
        <ele>492.81</ele>
        <time>2016-06-04T14:35:24Z</time>
      </trkpt>
      <trkpt lat="46.91587" lon="5.79526">
        <ele>489.93</ele>
        <time>2016-06-04T14:35:41Z</time>
      </trkpt>
      <trkpt lat="46.91584" lon="5.79524">
        <ele>489.45</ele>
        <time>2016-06-04T14:35:44Z</time>
      </trkpt>
      <trkpt lat="46.91575" lon="5.7952">
        <ele>487.53</ele>
        <time>2016-06-04T14:35:55Z</time>
      </trkpt>
      <trkpt lat="46.91565" lon="5.79515">
        <ele>485.6</ele>
        <time>2016-06-04T14:36:06Z</time>
      </trkpt>
      <trkpt lat="46.91556" lon="5.79517">
        <ele>485.6</ele>
        <time>2016-06-04T14:36:12Z</time>
      </trkpt>
      <trkpt lat="46.91551" lon="5.7951">
        <ele>484.16</ele>
        <time>2016-06-04T14:36:17Z</time>
      </trkpt>
      <trkpt lat="46.91549" lon="5.79509">
        <ele>483.68</ele>
        <time>2016-06-04T14:36:20Z</time>
      </trkpt>
      <trkpt lat="46.91537" lon="5.79507">
        <ele>479.84</ele>
        <time>2016-06-04T14:36:34Z</time>
      </trkpt>
      <trkpt lat="46.91522" lon="5.79503">
        <ele>478.87</ele>
        <time>2016-06-04T14:36:50Z</time>
      </trkpt>
      <trkpt lat="46.91519" lon="5.79503">
        <ele>478.87</ele>
        <time>2016-06-04T14:36:52Z</time>
      </trkpt>
      <trkpt lat="46.91508" lon="5.79503">
        <ele>478.87</ele>
        <time>2016-06-04T14:37:06Z</time>
      </trkpt>
      <trkpt lat="46.91491" lon="5.7949">
        <ele>476.95</ele>
        <time>2016-06-04T14:37:20Z</time>
      </trkpt>
      <trkpt lat="46.91483" lon="5.79486">
        <ele>476.47</ele>
        <time>2016-06-04T14:37:32Z</time>
      </trkpt>
      <trkpt lat="46.91474" lon="5.79487">
        <ele>475.99</ele>
        <time>2016-06-04T14:37:46Z</time>
      </trkpt>
      <trkpt lat="46.91454" lon="5.79471">
        <ele>471.18</ele>
        <time>2016-06-04T14:38:01Z</time>
      </trkpt>
      <trkpt lat="46.91447" lon="5.79471">
        <ele>469.74</ele>
        <time>2016-06-04T14:38:12Z</time>
      </trkpt>
      <trkpt lat="46.91434" lon="5.79461">
        <ele>466.38</ele>
        <time>2016-06-04T14:38:25Z</time>
      </trkpt>
      <trkpt lat="46.91418" lon="5.79456">
        <ele>463.01</ele>
        <time>2016-06-04T14:38:39Z</time>
      </trkpt>
      <trkpt lat="46.91412" lon="5.7945">
        <ele>463.49</ele>
        <time>2016-06-04T14:39:03Z</time>
      </trkpt>
      <trkpt lat="46.91404" lon="5.79448">
        <ele>462.53</ele>
        <time>2016-06-04T14:39:14Z</time>
      </trkpt>
      <trkpt lat="46.91392" lon="5.79445">
        <ele>462.53</ele>
        <time>2016-06-04T14:39:26Z</time>
      </trkpt>
      <trkpt lat="46.91379" lon="5.79443">
        <ele>461.57</ele>
        <time>2016-06-04T14:39:37Z</time>
      </trkpt>
      <trkpt lat="46.91368" lon="5.79437">
        <ele>459.17</ele>
        <time>2016-06-04T14:39:51Z</time>
      </trkpt>
      <trkpt lat="46.9136" lon="5.79432">
        <ele>456.76</ele>
        <time>2016-06-04T14:40:03Z</time>
      </trkpt>
      <trkpt lat="46.91349" lon="5.79425">
        <ele>455.32</ele>
        <time>2016-06-04T14:40:15Z</time>
      </trkpt>
      <trkpt lat="46.91338" lon="5.79417">
        <ele>452.44</ele>
        <time>2016-06-04T14:40:30Z</time>
      </trkpt>
      <trkpt lat="46.91326" lon="5.7941">
        <ele>449.55</ele>
        <time>2016-06-04T14:40:42Z</time>
      </trkpt>
      <trkpt lat="46.91307" lon="5.79394">
        <ele>444.75</ele>
        <time>2016-06-04T14:40:55Z</time>
      </trkpt>
      <trkpt lat="46.91294" lon="5.79386">
        <ele>443.31</ele>
        <time>2016-06-04T14:41:07Z</time>
      </trkpt>
      <trkpt lat="46.91281" lon="5.79378">
        <ele>444.27</ele>
        <time>2016-06-04T14:41:20Z</time>
      </trkpt>
      <trkpt lat="46.91272" lon="5.79369">
        <ele>445.23</ele>
        <time>2016-06-04T14:41:34Z</time>
      </trkpt>
      <trkpt lat="46.91261" lon="5.79361">
        <ele>445.23</ele>
        <time>2016-06-04T14:41:49Z</time>
      </trkpt>
      <trkpt lat="46.91248" lon="5.79352">
        <ele>447.15</ele>
        <time>2016-06-04T14:42:01Z</time>
      </trkpt>
      <trkpt lat="46.91247" lon="5.7935">
        <ele>448.11</ele>
        <time>2016-06-04T14:42:03Z</time>
      </trkpt>
      <trkpt lat="46.91231" lon="5.7934">
        <ele>446.67</ele>
        <time>2016-06-04T14:42:16Z</time>
      </trkpt>
      <trkpt lat="46.91219" lon="5.79332">
        <ele>445.71</ele>
        <time>2016-06-04T14:42:29Z</time>
      </trkpt>
      <trkpt lat="46.91218" lon="5.79331">
        <ele>445.71</ele>
        <time>2016-06-04T14:42:30Z</time>
      </trkpt>
      <trkpt lat="46.91207" lon="5.79318">
        <ele>445.23</ele>
        <time>2016-06-04T14:42:42Z</time>
      </trkpt>
      <trkpt lat="46.91206" lon="5.79315">
        <ele>445.23</ele>
        <time>2016-06-04T14:42:44Z</time>
      </trkpt>
      <trkpt lat="46.91195" lon="5.79299">
        <ele>445.71</ele>
        <time>2016-06-04T14:42:57Z</time>
      </trkpt>
      <trkpt lat="46.91189" lon="5.79283">
        <ele>444.27</ele>
        <time>2016-06-04T14:43:11Z</time>
      </trkpt>
      <trkpt lat="46.91186" lon="5.79276">
        <ele>445.71</ele>
        <time>2016-06-04T14:43:24Z</time>
      </trkpt>
      <trkpt lat="46.91182" lon="5.79268">
        <ele>447.63</ele>
        <time>2016-06-04T14:43:34Z</time>
      </trkpt>
      <trkpt lat="46.91177" lon="5.7926">
        <ele>447.15</ele>
        <time>2016-06-04T14:43:46Z</time>
      </trkpt>
      <trkpt lat="46.91169" lon="5.79243">
        <ele>447.63</ele>
        <time>2016-06-04T14:43:57Z</time>
      </trkpt>
      <trkpt lat="46.91161" lon="5.79222">
        <ele>447.15</ele>
        <time>2016-06-04T14:44:10Z</time>
      </trkpt>
      <trkpt lat="46.91154" lon="5.79209">
        <ele>446.67</ele>
        <time>2016-06-04T14:44:16Z</time>
      </trkpt>
      <trkpt lat="46.91146" lon="5.79194">
        <ele>444.27</ele>
        <time>2016-06-04T14:44:26Z</time>
      </trkpt>
      <trkpt lat="46.91141" lon="5.79187">
        <ele>442.82</ele>
        <time>2016-06-04T14:44:37Z</time>
      </trkpt>
      <trkpt lat="46.91139" lon="5.79184">
        <ele>440.42</ele>
        <time>2016-06-04T14:44:48Z</time>
      </trkpt>
      <trkpt lat="46.9114" lon="5.79181">
        <ele>438.02</ele>
        <time>2016-06-04T14:45:02Z</time>
      </trkpt>
      <trkpt lat="46.9114" lon="5.79179">
        <ele>437.06</ele>
        <time>2016-06-04T14:45:18Z</time>
      </trkpt>
      <trkpt lat="46.91139" lon="5.79177">
        <ele>437.06</ele>
        <time>2016-06-04T14:45:21Z</time>
      </trkpt>
      <trkpt lat="46.91138" lon="5.79171">
        <ele>437.06</ele>
        <time>2016-06-04T14:45:34Z</time>
      </trkpt>
      <trkpt lat="46.91137" lon="5.79165">
        <ele>437.06</ele>
        <time>2016-06-04T14:45:44Z</time>
      </trkpt>
      <trkpt lat="46.91136" lon="5.79163">
        <ele>435.61</ele>
        <time>2016-06-04T14:46:03Z</time>
      </trkpt>
      <trkpt lat="46.91135" lon="5.79162">
        <ele>433.69</ele>
        <time>2016-06-04T14:46:23Z</time>
      </trkpt>
      <trkpt lat="46.91135" lon="5.7916">
        <ele>433.69</ele>
        <time>2016-06-04T14:46:31Z</time>
      </trkpt>
      <trkpt lat="46.91128" lon="5.79144">
        <ele>434.65</ele>
        <time>2016-06-04T14:46:44Z</time>
      </trkpt>
      <trkpt lat="46.91118" lon="5.79132">
        <ele>434.17</ele>
        <time>2016-06-04T14:46:56Z</time>
      </trkpt>
      <trkpt lat="46.91113" lon="5.79125">
        <ele>432.73</ele>
        <time>2016-06-04T14:47:02Z</time>
      </trkpt>
      <trkpt lat="46.91107" lon="5.7912">
        <ele>431.29</ele>
        <time>2016-06-04T14:47:09Z</time>
      </trkpt>
      <trkpt lat="46.91105" lon="5.79116">
        <ele>430.81</ele>
        <time>2016-06-04T14:47:12Z</time>
      </trkpt>
      <trkpt lat="46.91093" lon="5.79096">
        <ele>426</ele>
        <time>2016-06-04T14:47:28Z</time>
      </trkpt>
      <trkpt lat="46.91091" lon="5.79092">
        <ele>425.04</ele>
        <time>2016-06-04T14:47:31Z</time>
      </trkpt>
      <trkpt lat="46.91087" lon="5.79081">
        <ele>424.08</ele>
        <time>2016-06-04T14:47:39Z</time>
      </trkpt>
      <trkpt lat="46.91085" lon="5.79079">
        <ele>423.6</ele>
        <time>2016-06-04T14:47:41Z</time>
      </trkpt>
      <trkpt lat="46.91081" lon="5.7907">
        <ele>424.08</ele>
        <time>2016-06-04T14:47:46Z</time>
      </trkpt>
      <trkpt lat="46.9108" lon="5.79064">
        <ele>422.64</ele>
        <time>2016-06-04T14:47:49Z</time>
      </trkpt>
      <trkpt lat="46.91074" lon="5.79051">
        <ele>423.12</ele>
        <time>2016-06-04T14:47:59Z</time>
      </trkpt>
      <trkpt lat="46.91065" lon="5.79033">
        <ele>422.64</ele>
        <time>2016-06-04T14:48:15Z</time>
      </trkpt>
      <trkpt lat="46.91062" lon="5.79026">
        <ele>421.68</ele>
        <time>2016-06-04T14:48:26Z</time>
      </trkpt>
      <trkpt lat="46.91059" lon="5.79023">
        <ele>421.19</ele>
        <time>2016-06-04T14:48:30Z</time>
      </trkpt>
      <trkpt lat="46.91053" lon="5.79011">
        <ele>420.71</ele>
        <time>2016-06-04T14:48:39Z</time>
      </trkpt>
      <trkpt lat="46.91043" lon="5.78992">
        <ele>420.71</ele>
        <time>2016-06-04T14:48:54Z</time>
      </trkpt>
      <trkpt lat="46.91039" lon="5.78981">
        <ele>421.19</ele>
        <time>2016-06-04T14:49:02Z</time>
      </trkpt>
      <trkpt lat="46.91037" lon="5.78978">
        <ele>421.19</ele>
        <time>2016-06-04T14:49:05Z</time>
      </trkpt>
      <trkpt lat="46.91036" lon="5.78971">
        <ele>420.71</ele>
        <time>2016-06-04T14:49:10Z</time>
      </trkpt>
      <trkpt lat="46.91035" lon="5.78968">
        <ele>421.19</ele>
        <time>2016-06-04T14:49:12Z</time>
      </trkpt>
      <trkpt lat="46.91035" lon="5.78964">
        <ele>421.19</ele>
        <time>2016-06-04T14:49:15Z</time>
      </trkpt>
      <trkpt lat="46.91035" lon="5.78961">
        <ele>420.71</ele>
        <time>2016-06-04T14:49:17Z</time>
      </trkpt>
      <trkpt lat="46.91036" lon="5.78938">
        <ele>417.35</ele>
        <time>2016-06-04T14:49:30Z</time>
      </trkpt>
      <trkpt lat="46.91036" lon="5.78936">
        <ele>417.35</ele>
        <time>2016-06-04T14:49:31Z</time>
      </trkpt>
      <trkpt lat="46.91038" lon="5.78934">
        <ele>416.87</ele>
        <time>2016-06-04T14:49:33Z</time>
      </trkpt>
      <trkpt lat="46.91042" lon="5.78921">
        <ele>416.87</ele>
        <time>2016-06-04T14:49:42Z</time>
      </trkpt>
      <trkpt lat="46.91045" lon="5.7891">
        <ele>416.39</ele>
        <time>2016-06-04T14:49:48Z</time>
      </trkpt>
      <trkpt lat="46.91049" lon="5.78905">
        <ele>415.43</ele>
        <time>2016-06-04T14:49:54Z</time>
      </trkpt>
      <trkpt lat="46.91053" lon="5.78891">
        <ele>413.98</ele>
        <time>2016-06-04T14:50:03Z</time>
      </trkpt>
      <trkpt lat="46.91055" lon="5.78883">
        <ele>412.06</ele>
        <time>2016-06-04T14:50:08Z</time>
      </trkpt>
      <trkpt lat="46.91057" lon="5.78859">
        <ele>408.7</ele>
        <time>2016-06-04T14:50:21Z</time>
      </trkpt>
      <trkpt lat="46.91058" lon="5.78855">
        <ele>408.22</ele>
        <time>2016-06-04T14:50:25Z</time>
      </trkpt>
      <trkpt lat="46.91061" lon="5.78842">
        <ele>405.33</ele>
        <time>2016-06-04T14:50:38Z</time>
      </trkpt>
      <trkpt lat="46.9106" lon="5.78838">
        <ele>405.33</ele>
        <time>2016-06-04T14:50:50Z</time>
      </trkpt>
      <trkpt lat="46.9106" lon="5.78835">
        <ele>405.33</ele>
        <time>2016-06-04T14:51:01Z</time>
      </trkpt>
      <trkpt lat="46.9106" lon="5.78831">
        <ele>405.33</ele>
        <time>2016-06-04T14:51:14Z</time>
      </trkpt>
      <trkpt lat="46.91059" lon="5.78819">
        <ele>404.37</ele>
        <time>2016-06-04T14:51:24Z</time>
      </trkpt>
      <trkpt lat="46.91062" lon="5.78804">
        <ele>403.41</ele>
        <time>2016-06-04T14:51:33Z</time>
      </trkpt>
      <trkpt lat="46.91063" lon="5.78795">
        <ele>402.45</ele>
        <time>2016-06-04T14:51:38Z</time>
      </trkpt>
      <trkpt lat="46.91064" lon="5.78789">
        <ele>401.97</ele>
        <time>2016-06-04T14:51:42Z</time>
      </trkpt>
      <trkpt lat="46.91065" lon="5.78781">
        <ele>400.53</ele>
        <time>2016-06-04T14:51:47Z</time>
      </trkpt>
      <trkpt lat="46.91064" lon="5.78762">
        <ele>398.6</ele>
        <time>2016-06-04T14:52:00Z</time>
      </trkpt>
      <trkpt lat="46.91064" lon="5.78761">
        <ele>398.12</ele>
        <time>2016-06-04T14:52:01Z</time>
      </trkpt>
      <trkpt lat="46.91061" lon="5.78746">
        <ele>395.72</ele>
        <time>2016-06-04T14:52:14Z</time>
      </trkpt>
      <trkpt lat="46.91061" lon="5.78743">
        <ele>395.24</ele>
        <time>2016-06-04T14:52:16Z</time>
      </trkpt>
      <trkpt lat="46.91054" lon="5.7872">
        <ele>392.36</ele>
        <time>2016-06-04T14:52:31Z</time>
      </trkpt>
      <trkpt lat="46.91052" lon="5.78712">
        <ele>391.39</ele>
        <time>2016-06-04T14:52:36Z</time>
      </trkpt>
      <trkpt lat="46.91042" lon="5.78681">
        <ele>390.43</ele>
        <time>2016-06-04T14:52:49Z</time>
      </trkpt>
      <trkpt lat="46.91034" lon="5.78656">
        <ele>392.84</ele>
        <time>2016-06-04T14:53:02Z</time>
      </trkpt>
      <trkpt lat="46.91027" lon="5.78635">
        <ele>393.8</ele>
        <time>2016-06-04T14:53:12Z</time>
      </trkpt>
      <trkpt lat="46.91018" lon="5.7861">
        <ele>393.8</ele>
        <time>2016-06-04T14:53:27Z</time>
      </trkpt>
      <trkpt lat="46.91011" lon="5.7859">
        <ele>392.36</ele>
        <time>2016-06-04T14:53:39Z</time>
      </trkpt>
      <trkpt lat="46.91005" lon="5.78577">
        <ele>390.91</ele>
        <time>2016-06-04T14:53:49Z</time>
      </trkpt>
      <trkpt lat="46.91" lon="5.78564">
        <ele>391.39</ele>
        <time>2016-06-04T14:54:03Z</time>
      </trkpt>
      <trkpt lat="46.91" lon="5.78563">
        <ele>391.39</ele>
        <time>2016-06-04T14:54:22Z</time>
      </trkpt>
      <trkpt lat="46.91" lon="5.78563">
        <ele>391.39</ele>
        <time>2016-06-04T14:54:28Z</time>
      </trkpt>
      <trkpt lat="46.90997" lon="5.7856">
        <ele>390.91</ele>
        <time>2016-06-04T14:54:35Z</time>
      </trkpt>
      <trkpt lat="46.90993" lon="5.78542">
        <ele>390.43</ele>
        <time>2016-06-04T14:54:46Z</time>
      </trkpt>
      <trkpt lat="46.90984" lon="5.78522">
        <ele>389.95</ele>
        <time>2016-06-04T14:54:59Z</time>
      </trkpt>
      <trkpt lat="46.90973" lon="5.78504">
        <ele>389.47</ele>
        <time>2016-06-04T14:55:12Z</time>
      </trkpt>
      <trkpt lat="46.90962" lon="5.78484">
        <ele>388.03</ele>
        <time>2016-06-04T14:55:26Z</time>
      </trkpt>
      <trkpt lat="46.90951" lon="5.78466">
        <ele>387.55</ele>
        <time>2016-06-04T14:55:40Z</time>
      </trkpt>
      <trkpt lat="46.90937" lon="5.78445">
        <ele>386.11</ele>
        <time>2016-06-04T14:55:57Z</time>
      </trkpt>
      <trkpt lat="46.90925" lon="5.78427">
        <ele>384.66</ele>
        <time>2016-06-04T14:56:11Z</time>
      </trkpt>
      <trkpt lat="46.90912" lon="5.78402">
        <ele>381.78</ele>
        <time>2016-06-04T14:56:26Z</time>
      </trkpt>
      <trkpt lat="46.90899" lon="5.78381">
        <ele>377.94</ele>
        <time>2016-06-04T14:56:41Z</time>
      </trkpt>
      <trkpt lat="46.90894" lon="5.78371">
        <ele>377.45</ele>
        <time>2016-06-04T14:56:48Z</time>
      </trkpt>
      <trkpt lat="46.90885" lon="5.78351">
        <ele>375.05</ele>
        <time>2016-06-04T14:57:02Z</time>
      </trkpt>
      <trkpt lat="46.90879" lon="5.78332">
        <ele>372.17</ele>
        <time>2016-06-04T14:57:13Z</time>
      </trkpt>
      <trkpt lat="46.90878" lon="5.78305">
        <ele>367.84</ele>
        <time>2016-06-04T14:57:29Z</time>
      </trkpt>
      <trkpt lat="46.90875" lon="5.78294">
        <ele>365.44</ele>
        <time>2016-06-04T14:57:42Z</time>
      </trkpt>
      <trkpt lat="46.90874" lon="5.78293">
        <ele>367.84</ele>
        <time>2016-06-04T14:57:53Z</time>
      </trkpt>
      <trkpt lat="46.90875" lon="5.78293">
        <ele>369.28</ele>
        <time>2016-06-04T14:58:04Z</time>
      </trkpt>
      <trkpt lat="46.90874" lon="5.78292">
        <ele>368.8</ele>
        <time>2016-06-04T14:58:21Z</time>
      </trkpt>
      <trkpt lat="46.90871" lon="5.78293">
        <ele>367.36</ele>
        <time>2016-06-04T14:58:33Z</time>
      </trkpt>
      <trkpt lat="46.90863" lon="5.78304">
        <ele>363.04</ele>
        <time>2016-06-04T14:58:45Z</time>
      </trkpt>
      <trkpt lat="46.90855" lon="5.78303">
        <ele>361.59</ele>
        <time>2016-06-04T14:58:54Z</time>
      </trkpt>
      <trkpt lat="46.90844" lon="5.78298">
        <ele>361.59</ele>
        <time>2016-06-04T14:59:01Z</time>
      </trkpt>
      <trkpt lat="46.90839" lon="5.78291">
        <ele>361.11</ele>
        <time>2016-06-04T14:59:06Z</time>
      </trkpt>
      <trkpt lat="46.90835" lon="5.78284">
        <ele>360.63</ele>
        <time>2016-06-04T14:59:11Z</time>
      </trkpt>
      <trkpt lat="46.90826" lon="5.78268">
        <ele>360.63</ele>
        <time>2016-06-04T14:59:24Z</time>
      </trkpt>
      <trkpt lat="46.90821" lon="5.7825">
        <ele>360.63</ele>
        <time>2016-06-04T14:59:37Z</time>
      </trkpt>
      <trkpt lat="46.90817" lon="5.78232">
        <ele>359.67</ele>
        <time>2016-06-04T14:59:48Z</time>
      </trkpt>
      <trkpt lat="46.90816" lon="5.78224">
        <ele>358.71</ele>
        <time>2016-06-04T14:59:53Z</time>
      </trkpt>
      <trkpt lat="46.90813" lon="5.78203">
        <ele>355.34</ele>
        <time>2016-06-04T15:00:07Z</time>
      </trkpt>
      <trkpt lat="46.90811" lon="5.78191">
        <ele>351.98</ele>
        <time>2016-06-04T15:00:17Z</time>
      </trkpt>
      <trkpt lat="46.90809" lon="5.78181">
        <ele>349.1</ele>
        <time>2016-06-04T15:00:25Z</time>
      </trkpt>
      <trkpt lat="46.90804" lon="5.78161">
        <ele>340.44</ele>
        <time>2016-06-04T15:00:41Z</time>
      </trkpt>
      <trkpt lat="46.90804" lon="5.78159">
        <ele>339.48</ele>
        <time>2016-06-04T15:00:42Z</time>
      </trkpt>
      <trkpt lat="46.90798" lon="5.78142">
        <ele>332.27</ele>
        <time>2016-06-04T15:00:54Z</time>
      </trkpt>
      <trkpt lat="46.90796" lon="5.78138">
        <ele>331.31</ele>
        <time>2016-06-04T15:00:58Z</time>
      </trkpt>
      <trkpt lat="46.90788" lon="5.78125">
        <ele>328.43</ele>
        <time>2016-06-04T15:01:10Z</time>
      </trkpt>
      <trkpt lat="46.90786" lon="5.78124">
        <ele>327.47</ele>
        <time>2016-06-04T15:01:13Z</time>
      </trkpt>
      <trkpt lat="46.90774" lon="5.78113">
        <ele>322.66</ele>
        <time>2016-06-04T15:01:27Z</time>
      </trkpt>
      <trkpt lat="46.9077" lon="5.7811">
        <ele>321.7</ele>
        <time>2016-06-04T15:01:31Z</time>
      </trkpt>
      <trkpt lat="46.90764" lon="5.78106">
        <ele>322.18</ele>
        <time>2016-06-04T15:01:36Z</time>
      </trkpt>
      <trkpt lat="46.90747" lon="5.78102">
        <ele>319.3</ele>
        <time>2016-06-04T15:01:50Z</time>
      </trkpt>
      <trkpt lat="46.90737" lon="5.78099">
        <ele>316.89</ele>
        <time>2016-06-04T15:02:01Z</time>
      </trkpt>
      <trkpt lat="46.90722" lon="5.78094">
        <ele>321.22</ele>
        <time>2016-06-04T15:02:14Z</time>
      </trkpt>
      <trkpt lat="46.90707" lon="5.78091">
        <ele>321.22</ele>
        <time>2016-06-04T15:02:28Z</time>
      </trkpt>
      <trkpt lat="46.90703" lon="5.78089">
        <ele>320.74</ele>
        <time>2016-06-04T15:02:32Z</time>
      </trkpt>
      <trkpt lat="46.90701" lon="5.78087">
        <ele>320.26</ele>
        <time>2016-06-04T15:02:34Z</time>
      </trkpt>
      <trkpt lat="46.90697" lon="5.78085">
        <ele>319.78</ele>
        <time>2016-06-04T15:02:38Z</time>
      </trkpt>
      <trkpt lat="46.90683" lon="5.78081">
        <ele>321.7</ele>
        <time>2016-06-04T15:02:53Z</time>
      </trkpt>
      <trkpt lat="46.90669" lon="5.78072">
        <ele>321.22</ele>
        <time>2016-06-04T15:03:07Z</time>
      </trkpt>
      <trkpt lat="46.90656" lon="5.78061">
        <ele>320.26</ele>
        <time>2016-06-04T15:03:21Z</time>
      </trkpt>
      <trkpt lat="46.90644" lon="5.78053">
        <ele>319.3</ele>
        <time>2016-06-04T15:03:32Z</time>
      </trkpt>
      <trkpt lat="46.90638" lon="5.78048">
        <ele>318.33</ele>
        <time>2016-06-04T15:03:39Z</time>
      </trkpt>
      <trkpt lat="46.90634" lon="5.78044">
        <ele>317.37</ele>
        <time>2016-06-04T15:03:43Z</time>
      </trkpt>
      <trkpt lat="46.9063" lon="5.7804">
        <ele>315.93</ele>
        <time>2016-06-04T15:03:47Z</time>
      </trkpt>
      <trkpt lat="46.90617" lon="5.7803">
        <ele>314.49</ele>
        <time>2016-06-04T15:04:01Z</time>
      </trkpt>
      <trkpt lat="46.90609" lon="5.78016">
        <ele>314.49</ele>
        <time>2016-06-04T15:04:13Z</time>
      </trkpt>
      <trkpt lat="46.90605" lon="5.78007">
        <ele>314.01</ele>
        <time>2016-06-04T15:04:20Z</time>
      </trkpt>
      <trkpt lat="46.90598" lon="5.77991">
        <ele>313.05</ele>
        <time>2016-06-04T15:04:33Z</time>
      </trkpt>
      <trkpt lat="46.90592" lon="5.77975">
        <ele>311.6</ele>
        <time>2016-06-04T15:04:44Z</time>
      </trkpt>
      <trkpt lat="46.90586" lon="5.77961">
        <ele>309.68</ele>
        <time>2016-06-04T15:04:54Z</time>
      </trkpt>
      <trkpt lat="46.90581" lon="5.77945">
        <ele>309.2</ele>
        <time>2016-06-04T15:05:06Z</time>
      </trkpt>
      <trkpt lat="46.90579" lon="5.77932">
        <ele>307.76</ele>
        <time>2016-06-04T15:05:16Z</time>
      </trkpt>
      <trkpt lat="46.90578" lon="5.77913">
        <ele>305.84</ele>
        <time>2016-06-04T15:05:29Z</time>
      </trkpt>
      <trkpt lat="46.90581" lon="5.77896">
        <ele>303.43</ele>
        <time>2016-06-04T15:05:41Z</time>
      </trkpt>
      <trkpt lat="46.90584" lon="5.7788">
        <ele>299.59</ele>
        <time>2016-06-04T15:05:52Z</time>
      </trkpt>
      <trkpt lat="46.90588" lon="5.7786">
        <ele>292.38</ele>
        <time>2016-06-04T15:06:07Z</time>
      </trkpt>
      <trkpt lat="46.90592" lon="5.77845">
        <ele>288.05</ele>
        <time>2016-06-04T15:06:19Z</time>
      </trkpt>
      <trkpt lat="46.90595" lon="5.77832">
        <ele>287.09</ele>
        <time>2016-06-04T15:06:27Z</time>
      </trkpt>
      <trkpt lat="46.90598" lon="5.77813">
        <ele>287.57</ele>
        <time>2016-06-04T15:06:39Z</time>
      </trkpt>
      <trkpt lat="46.906" lon="5.77796">
        <ele>287.09</ele>
        <time>2016-06-04T15:06:52Z</time>
      </trkpt>
      <trkpt lat="46.90597" lon="5.77778">
        <ele>287.57</ele>
        <time>2016-06-04T15:07:08Z</time>
      </trkpt>
      <trkpt lat="46.90595" lon="5.77769">
        <ele>287.57</ele>
        <time>2016-06-04T15:07:28Z</time>
      </trkpt>
      <trkpt lat="46.90589" lon="5.77756">
        <ele>287.57</ele>
        <time>2016-06-04T15:07:39Z</time>
      </trkpt>
      <trkpt lat="46.90581" lon="5.77729">
        <ele>288.05</ele>
        <time>2016-06-04T15:07:54Z</time>
      </trkpt>
      <trkpt lat="46.90577" lon="5.77712">
        <ele>286.13</ele>
        <time>2016-06-04T15:08:07Z</time>
      </trkpt>
      <trkpt lat="46.90575" lon="5.77708">
        <ele>285.65</ele>
        <time>2016-06-04T15:08:10Z</time>
      </trkpt>
      <trkpt lat="46.9057" lon="5.77692">
        <ele>284.21</ele>
        <time>2016-06-04T15:08:20Z</time>
      </trkpt>
      <trkpt lat="46.90564" lon="5.77676">
        <ele>282.28</ele>
        <time>2016-06-04T15:08:32Z</time>
      </trkpt>
      <trkpt lat="46.9056" lon="5.77672">
        <ele>281.32</ele>
        <time>2016-06-04T15:08:37Z</time>
      </trkpt>
      <trkpt lat="46.90552" lon="5.77663">
        <ele>283.25</ele>
        <time>2016-06-04T15:08:48Z</time>
      </trkpt>
      <trkpt lat="46.90548" lon="5.77658">
        <ele>283.25</ele>
        <time>2016-06-04T15:08:53Z</time>
      </trkpt>
      <trkpt lat="46.90547" lon="5.77654">
        <ele>284.21</ele>
        <time>2016-06-04T15:08:55Z</time>
      </trkpt>
      <trkpt lat="46.90544" lon="5.77649">
        <ele>286.13</ele>
        <time>2016-06-04T15:08:58Z</time>
      </trkpt>
      <trkpt lat="46.90542" lon="5.77648">
        <ele>286.13</ele>
        <time>2016-06-04T15:09:00Z</time>
      </trkpt>
      <trkpt lat="46.90532" lon="5.7764">
        <ele>284.21</ele>
        <time>2016-06-04T15:09:11Z</time>
      </trkpt>
      <trkpt lat="46.90531" lon="5.77639">
        <ele>283.73</ele>
        <time>2016-06-04T15:09:13Z</time>
      </trkpt>
      <trkpt lat="46.90518" lon="5.77627">
        <ele>283.25</ele>
        <time>2016-06-04T15:09:26Z</time>
      </trkpt>
      <trkpt lat="46.90513" lon="5.7762">
        <ele>283.73</ele>
        <time>2016-06-04T15:09:32Z</time>
      </trkpt>
      <trkpt lat="46.90502" lon="5.77609">
        <ele>287.57</ele>
        <time>2016-06-04T15:09:45Z</time>
      </trkpt>
      <trkpt lat="46.90501" lon="5.77605">
        <ele>289.49</ele>
        <time>2016-06-04T15:09:51Z</time>
      </trkpt>
      <trkpt lat="46.90498" lon="5.77603">
        <ele>291.42</ele>
        <time>2016-06-04T15:09:58Z</time>
      </trkpt>
      <trkpt lat="46.90491" lon="5.77596">
        <ele>293.34</ele>
        <time>2016-06-04T15:10:09Z</time>
      </trkpt>
      <trkpt lat="46.90482" lon="5.7759">
        <ele>292.86</ele>
        <time>2016-06-04T15:10:19Z</time>
      </trkpt>
      <trkpt lat="46.90474" lon="5.77586">
        <ele>290.94</ele>
        <time>2016-06-04T15:10:31Z</time>
      </trkpt>
      <trkpt lat="46.90466" lon="5.77581">
        <ele>288.05</ele>
        <time>2016-06-04T15:10:40Z</time>
      </trkpt>
      <trkpt lat="46.90458" lon="5.77568">
        <ele>287.57</ele>
        <time>2016-06-04T15:10:49Z</time>
      </trkpt>
      <trkpt lat="46.90445" lon="5.77549">
        <ele>291.42</ele>
        <time>2016-06-04T15:11:02Z</time>
      </trkpt>
      <trkpt lat="46.90439" lon="5.77546">
        <ele>293.34</ele>
        <time>2016-06-04T15:11:10Z</time>
      </trkpt>
      <trkpt lat="46.90437" lon="5.77543">
        <ele>292.86</ele>
        <time>2016-06-04T15:11:13Z</time>
      </trkpt>
      <trkpt lat="46.90436" lon="5.77542">
        <ele>291.9</ele>
        <time>2016-06-04T15:11:15Z</time>
      </trkpt>
      <trkpt lat="46.90424" lon="5.77532">
        <ele>293.82</ele>
        <time>2016-06-04T15:11:27Z</time>
      </trkpt>
      <trkpt lat="46.90421" lon="5.77529">
        <ele>294.78</ele>
        <time>2016-06-04T15:11:31Z</time>
      </trkpt>
      <trkpt lat="46.90408" lon="5.77518">
        <ele>298.63</ele>
        <time>2016-06-04T15:11:44Z</time>
      </trkpt>
      <trkpt lat="46.90404" lon="5.77513">
        <ele>300.07</ele>
        <time>2016-06-04T15:11:49Z</time>
      </trkpt>
      <trkpt lat="46.90398" lon="5.77512">
        <ele>300.55</ele>
        <time>2016-06-04T15:11:58Z</time>
      </trkpt>
      <trkpt lat="46.9039" lon="5.77526">
        <ele>298.63</ele>
        <time>2016-06-04T15:12:10Z</time>
      </trkpt>
      <trkpt lat="46.90387" lon="5.7753">
        <ele>297.67</ele>
        <time>2016-06-04T15:12:16Z</time>
      </trkpt>
      <trkpt lat="46.90384" lon="5.77536">
        <ele>295.74</ele>
        <time>2016-06-04T15:12:21Z</time>
      </trkpt>
      <trkpt lat="46.90372" lon="5.77547">
        <ele>296.22</ele>
        <time>2016-06-04T15:12:34Z</time>
      </trkpt>
      <trkpt lat="46.9036" lon="5.77561">
        <ele>299.11</ele>
        <time>2016-06-04T15:12:46Z</time>
      </trkpt>
      <trkpt lat="46.90359" lon="5.77562">
        <ele>299.59</ele>
        <time>2016-06-04T15:12:47Z</time>
      </trkpt>
      <trkpt lat="46.90354" lon="5.77566">
        <ele>299.59</ele>
        <time>2016-06-04T15:12:52Z</time>
      </trkpt>
      <trkpt lat="46.90343" lon="5.77579">
        <ele>301.03</ele>
        <time>2016-06-04T15:13:06Z</time>
      </trkpt>
      <trkpt lat="46.90342" lon="5.7758">
        <ele>301.51</ele>
        <time>2016-06-04T15:13:08Z</time>
      </trkpt>
      <trkpt lat="46.90336" lon="5.77583">
        <ele>300.55</ele>
        <time>2016-06-04T15:13:14Z</time>
      </trkpt>
      <trkpt lat="46.90324" lon="5.77593">
        <ele>299.59</ele>
        <time>2016-06-04T15:13:27Z</time>
      </trkpt>
      <trkpt lat="46.90313" lon="5.77602">
        <ele>299.59</ele>
        <time>2016-06-04T15:13:39Z</time>
      </trkpt>
      <trkpt lat="46.90302" lon="5.77607">
        <ele>298.63</ele>
        <time>2016-06-04T15:13:51Z</time>
      </trkpt>
      <trkpt lat="46.90292" lon="5.77609">
        <ele>296.7</ele>
        <time>2016-06-04T15:14:01Z</time>
      </trkpt>
      <trkpt lat="46.90282" lon="5.77606">
        <ele>299.11</ele>
        <time>2016-06-04T15:14:12Z</time>
      </trkpt>
      <trkpt lat="46.90279" lon="5.77594">
        <ele>298.63</ele>
        <time>2016-06-04T15:14:23Z</time>
      </trkpt>
      <trkpt lat="46.90269" lon="5.7758">
        <ele>296.22</ele>
        <time>2016-06-04T15:14:36Z</time>
      </trkpt>
      <trkpt lat="46.90257" lon="5.77574">
        <ele>291.42</ele>
        <time>2016-06-04T15:14:46Z</time>
      </trkpt>
      <trkpt lat="46.90253" lon="5.77569">
        <ele>290.46</ele>
        <time>2016-06-04T15:14:51Z</time>
      </trkpt>
      <trkpt lat="46.90247" lon="5.77553">
        <ele>287.57</ele>
        <time>2016-06-04T15:15:05Z</time>
      </trkpt>
      <trkpt lat="46.90244" lon="5.77552">
        <ele>287.09</ele>
        <time>2016-06-04T15:15:10Z</time>
      </trkpt>
      <trkpt lat="46.90234" lon="5.77544">
        <ele>283.73</ele>
        <time>2016-06-04T15:15:24Z</time>
      </trkpt>
      <trkpt lat="46.90231" lon="5.77534">
        <ele>283.73</ele>
        <time>2016-06-04T15:15:36Z</time>
      </trkpt>
      <trkpt lat="46.90223" lon="5.77514">
        <ele>282.77</ele>
        <time>2016-06-04T15:15:50Z</time>
      </trkpt>
      <trkpt lat="46.90209" lon="5.77497">
        <ele>287.09</ele>
        <time>2016-06-04T15:16:04Z</time>
      </trkpt>
      <trkpt lat="46.90206" lon="5.77492">
        <ele>287.57</ele>
        <time>2016-06-04T15:16:16Z</time>
      </trkpt>
      <trkpt lat="46.90205" lon="5.77492">
        <ele>288.05</ele>
        <time>2016-06-04T15:16:33Z</time>
      </trkpt>
      <trkpt lat="46.90205" lon="5.77492">
        <ele>289.49</ele>
        <time>2016-06-04T15:16:51Z</time>
      </trkpt>
      <trkpt lat="46.90205" lon="5.77492">
        <ele>289.97</ele>
        <time>2016-06-04T15:17:10Z</time>
      </trkpt>
      <trkpt lat="46.90205" lon="5.77491">
        <ele>290.94</ele>
        <time>2016-06-04T15:17:30Z</time>
      </trkpt>
      <trkpt lat="46.90205" lon="5.77491">
        <ele>291.42</ele>
        <time>2016-06-04T15:17:50Z</time>
      </trkpt>
      <trkpt lat="46.90206" lon="5.77491">
        <ele>291.9</ele>
        <time>2016-06-04T15:18:13Z</time>
      </trkpt>
      <trkpt lat="46.90198" lon="5.77482">
        <ele>293.34</ele>
        <time>2016-06-04T15:18:25Z</time>
      </trkpt>
      <trkpt lat="46.90188" lon="5.77469">
        <ele>292.86</ele>
        <time>2016-06-04T15:18:37Z</time>
      </trkpt>
      <trkpt lat="46.90185" lon="5.77464">
        <ele>292.86</ele>
        <time>2016-06-04T15:18:42Z</time>
      </trkpt>
      <trkpt lat="46.90188" lon="5.77456">
        <ele>290.94</ele>
        <time>2016-06-04T15:18:47Z</time>
      </trkpt>
      <trkpt lat="46.90174" lon="5.77445">
        <ele>289.49</ele>
        <time>2016-06-04T15:18:59Z</time>
      </trkpt>
      <trkpt lat="46.90169" lon="5.77445">
        <ele>289.97</ele>
        <time>2016-06-04T15:19:03Z</time>
      </trkpt>
      <trkpt lat="46.90164" lon="5.7744">
        <ele>289.97</ele>
        <time>2016-06-04T15:19:08Z</time>
      </trkpt>
      <trkpt lat="46.90154" lon="5.77422">
        <ele>290.94</ele>
        <time>2016-06-04T15:19:18Z</time>
      </trkpt>
      <trkpt lat="46.90152" lon="5.77416">
        <ele>291.42</ele>
        <time>2016-06-04T15:19:21Z</time>
      </trkpt>
      <trkpt lat="46.90143" lon="5.77405">
        <ele>291.42</ele>
        <time>2016-06-04T15:19:31Z</time>
      </trkpt>
      <trkpt lat="46.90138" lon="5.77394">
        <ele>291.42</ele>
        <time>2016-06-04T15:19:39Z</time>
      </trkpt>
      <trkpt lat="46.90137" lon="5.77392">
        <ele>291.42</ele>
        <time>2016-06-04T15:19:41Z</time>
      </trkpt>
      <trkpt lat="46.90137" lon="5.77381">
        <ele>289.97</ele>
        <time>2016-06-04T15:19:48Z</time>
      </trkpt>
      <trkpt lat="46.90137" lon="5.77374">
        <ele>289.97</ele>
        <time>2016-06-04T15:19:59Z</time>
      </trkpt>
      <trkpt lat="46.90136" lon="5.77377">
        <ele>288.53</ele>
        <time>2016-06-04T15:20:13Z</time>
      </trkpt>
      <trkpt lat="46.90134" lon="5.77377">
        <ele>288.05</ele>
        <time>2016-06-04T15:20:28Z</time>
      </trkpt>
      <trkpt lat="46.90136" lon="5.77375">
        <ele>287.57</ele>
        <time>2016-06-04T15:20:51Z</time>
      </trkpt>
      <trkpt lat="46.90135" lon="5.77365">
        <ele>286.61</ele>
        <time>2016-06-04T15:21:05Z</time>
      </trkpt>
      <trkpt lat="46.90137" lon="5.77353">
        <ele>285.65</ele>
        <time>2016-06-04T15:21:11Z</time>
      </trkpt>
      <trkpt lat="46.90134" lon="5.77342">
        <ele>284.21</ele>
        <time>2016-06-04T15:21:23Z</time>
      </trkpt>
      <trkpt lat="46.90132" lon="5.77338">
        <ele>285.65</ele>
        <time>2016-06-04T15:21:35Z</time>
      </trkpt>
      <trkpt lat="46.90133" lon="5.77338">
        <ele>288.53</ele>
        <time>2016-06-04T15:21:52Z</time>
      </trkpt>
      <trkpt lat="46.90128" lon="5.77329">
        <ele>288.53</ele>
        <time>2016-06-04T15:21:59Z</time>
      </trkpt>
      <trkpt lat="46.90121" lon="5.77311">
        <ele>284.69</ele>
        <time>2016-06-04T15:22:13Z</time>
      </trkpt>
      <trkpt lat="46.90117" lon="5.77305">
        <ele>282.77</ele>
        <time>2016-06-04T15:22:19Z</time>
      </trkpt>
      <trkpt lat="46.90115" lon="5.77302">
        <ele>281.32</ele>
        <time>2016-06-04T15:22:23Z</time>
      </trkpt>
      <trkpt lat="46.9011" lon="5.77294">
        <ele>281.8</ele>
        <time>2016-06-04T15:22:34Z</time>
      </trkpt>
      <trkpt lat="46.90102" lon="5.77284">
        <ele>282.28</ele>
        <time>2016-06-04T15:22:44Z</time>
      </trkpt>
      <trkpt lat="46.90093" lon="5.77275">
        <ele>282.28</ele>
        <time>2016-06-04T15:22:55Z</time>
      </trkpt>
      <trkpt lat="46.90084" lon="5.77279">
        <ele>286.61</ele>
        <time>2016-06-04T15:23:06Z</time>
      </trkpt>
      <trkpt lat="46.90076" lon="5.77282">
        <ele>290.46</ele>
        <time>2016-06-04T15:23:19Z</time>
      </trkpt>
      <trkpt lat="46.90061" lon="5.77291">
        <ele>292.86</ele>
        <time>2016-06-04T15:23:32Z</time>
      </trkpt>
      <trkpt lat="46.90053" lon="5.77302">
        <ele>295.26</ele>
        <time>2016-06-04T15:23:42Z</time>
      </trkpt>
      <trkpt lat="46.90042" lon="5.77312">
        <ele>300.07</ele>
        <time>2016-06-04T15:23:54Z</time>
      </trkpt>
      <trkpt lat="46.90035" lon="5.77316">
        <ele>301.03</ele>
        <time>2016-06-04T15:24:01Z</time>
      </trkpt>
      <trkpt lat="46.90031" lon="5.77315">
        <ele>299.59</ele>
        <time>2016-06-04T15:24:06Z</time>
      </trkpt>
      <trkpt lat="46.90022" lon="5.77304">
        <ele>296.22</ele>
        <time>2016-06-04T15:24:20Z</time>
      </trkpt>
      <trkpt lat="46.90015" lon="5.77285">
        <ele>296.7</ele>
        <time>2016-06-04T15:24:34Z</time>
      </trkpt>
      <trkpt lat="46.9001" lon="5.7727">
        <ele>295.26</ele>
        <time>2016-06-04T15:24:45Z</time>
      </trkpt>
      <trkpt lat="46.90005" lon="5.77266">
        <ele>293.34</ele>
        <time>2016-06-04T15:24:51Z</time>
      </trkpt>
      <trkpt lat="46.9" lon="5.77261">
        <ele>292.38</ele>
        <time>2016-06-04T15:24:56Z</time>
      </trkpt>
      <trkpt lat="46.89997" lon="5.77256">
        <ele>292.38</ele>
        <time>2016-06-04T15:25:00Z</time>
      </trkpt>
      <trkpt lat="46.89989" lon="5.7724">
        <ele>291.9</ele>
        <time>2016-06-04T15:25:13Z</time>
      </trkpt>
      <trkpt lat="46.89987" lon="5.77238">
        <ele>291.42</ele>
        <time>2016-06-04T15:25:15Z</time>
      </trkpt>
      <trkpt lat="46.89981" lon="5.77232">
        <ele>288.05</ele>
        <time>2016-06-04T15:25:30Z</time>
      </trkpt>
      <trkpt lat="46.89982" lon="5.77224">
        <ele>288.05</ele>
        <time>2016-06-04T15:25:43Z</time>
      </trkpt>
      <trkpt lat="46.89977" lon="5.77217">
        <ele>288.53</ele>
        <time>2016-06-04T15:25:49Z</time>
      </trkpt>
      <trkpt lat="46.89965" lon="5.77216">
        <ele>291.42</ele>
        <time>2016-06-04T15:26:00Z</time>
      </trkpt>
      <trkpt lat="46.89953" lon="5.77213">
        <ele>289.97</ele>
        <time>2016-06-04T15:26:11Z</time>
      </trkpt>
      <trkpt lat="46.89942" lon="5.77214">
        <ele>291.42</ele>
        <time>2016-06-04T15:26:22Z</time>
      </trkpt>
      <trkpt lat="46.89932" lon="5.77212">
        <ele>291.42</ele>
        <time>2016-06-04T15:26:32Z</time>
      </trkpt>
      <trkpt lat="46.89922" lon="5.77213">
        <ele>293.34</ele>
        <time>2016-06-04T15:26:42Z</time>
      </trkpt>
      <trkpt lat="46.89914" lon="5.77213">
        <ele>294.78</ele>
        <time>2016-06-04T15:26:48Z</time>
      </trkpt>
      <trkpt lat="46.89898" lon="5.77214">
        <ele>297.18</ele>
        <time>2016-06-04T15:27:01Z</time>
      </trkpt>
      <trkpt lat="46.89885" lon="5.77208">
        <ele>291.9</ele>
        <time>2016-06-04T15:27:14Z</time>
      </trkpt>
      <trkpt lat="46.89873" lon="5.77204">
        <ele>292.38</ele>
        <time>2016-06-04T15:27:25Z</time>
      </trkpt>
      <trkpt lat="46.89867" lon="5.77202">
        <ele>293.34</ele>
        <time>2016-06-04T15:27:31Z</time>
      </trkpt>
      <trkpt lat="46.89856" lon="5.77195">
        <ele>291.42</ele>
        <time>2016-06-04T15:27:44Z</time>
      </trkpt>
      <trkpt lat="46.89848" lon="5.7719">
        <ele>290.46</ele>
        <time>2016-06-04T15:27:53Z</time>
      </trkpt>
      <trkpt lat="46.89845" lon="5.7719">
        <ele>291.42</ele>
        <time>2016-06-04T15:27:55Z</time>
      </trkpt>
      <trkpt lat="46.8983" lon="5.77182">
        <ele>294.78</ele>
        <time>2016-06-04T15:28:09Z</time>
      </trkpt>
      <trkpt lat="46.89815" lon="5.77175">
        <ele>294.3</ele>
        <time>2016-06-04T15:28:22Z</time>
      </trkpt>
      <trkpt lat="46.89809" lon="5.77172">
        <ele>296.22</ele>
        <time>2016-06-04T15:28:28Z</time>
      </trkpt>
      <trkpt lat="46.89807" lon="5.77169">
        <ele>296.22</ele>
        <time>2016-06-04T15:28:31Z</time>
      </trkpt>
      <trkpt lat="46.89802" lon="5.77165">
        <ele>296.7</ele>
        <time>2016-06-04T15:28:36Z</time>
      </trkpt>
      <trkpt lat="46.89799" lon="5.77163">
        <ele>296.7</ele>
        <time>2016-06-04T15:28:39Z</time>
      </trkpt>
      <trkpt lat="46.89796" lon="5.7716">
        <ele>296.22</ele>
        <time>2016-06-04T15:28:42Z</time>
      </trkpt>
      <trkpt lat="46.89784" lon="5.77151">
        <ele>294.78</ele>
        <time>2016-06-04T15:28:55Z</time>
      </trkpt>
      <trkpt lat="46.89782" lon="5.77148">
        <ele>294.3</ele>
        <time>2016-06-04T15:28:58Z</time>
      </trkpt>
      <trkpt lat="46.89781" lon="5.77147">
        <ele>294.3</ele>
        <time>2016-06-04T15:29:00Z</time>
      </trkpt>
      <trkpt lat="46.89775" lon="5.77144">
        <ele>293.82</ele>
        <time>2016-06-04T15:29:11Z</time>
      </trkpt>
      <trkpt lat="46.89766" lon="5.77138">
        <ele>291.42</ele>
        <time>2016-06-04T15:29:22Z</time>
      </trkpt>
      <trkpt lat="46.89754" lon="5.7713">
        <ele>289.97</ele>
        <time>2016-06-04T15:29:34Z</time>
      </trkpt>
      <trkpt lat="46.8975" lon="5.77128">
        <ele>289.97</ele>
        <time>2016-06-04T15:29:38Z</time>
      </trkpt>
      <trkpt lat="46.89733" lon="5.7712">
        <ele>289.49</ele>
        <time>2016-06-04T15:29:54Z</time>
      </trkpt>
      <trkpt lat="46.89731" lon="5.77116">
        <ele>289.97</ele>
        <time>2016-06-04T15:29:58Z</time>
      </trkpt>
      <trkpt lat="46.89716" lon="5.7711">
        <ele>293.34</ele>
        <time>2016-06-04T15:30:12Z</time>
      </trkpt>
      <trkpt lat="46.89702" lon="5.77109">
        <ele>297.18</ele>
        <time>2016-06-04T15:30:24Z</time>
      </trkpt>
      <trkpt lat="46.89691" lon="5.77104">
        <ele>300.07</ele>
        <time>2016-06-04T15:30:36Z</time>
      </trkpt>
      <trkpt lat="46.89678" lon="5.77098">
        <ele>301.99</ele>
        <time>2016-06-04T15:30:49Z</time>
      </trkpt>
      <trkpt lat="46.89676" lon="5.77096">
        <ele>302.95</ele>
        <time>2016-06-04T15:30:52Z</time>
      </trkpt>
      <trkpt lat="46.89671" lon="5.77093">
        <ele>302.95</ele>
        <time>2016-06-04T15:30:56Z</time>
      </trkpt>
      <trkpt lat="46.89659" lon="5.77087">
        <ele>305.84</ele>
        <time>2016-06-04T15:31:09Z</time>
      </trkpt>
      <trkpt lat="46.89646" lon="5.77082">
        <ele>303.43</ele>
        <time>2016-06-04T15:31:21Z</time>
      </trkpt>
      <trkpt lat="46.89636" lon="5.77075">
        <ele>301.99</ele>
        <time>2016-06-04T15:31:34Z</time>
      </trkpt>
      <trkpt lat="46.89635" lon="5.77065">
        <ele>303.91</ele>
        <time>2016-06-04T15:31:46Z</time>
      </trkpt>
      <trkpt lat="46.89635" lon="5.7707">
        <ele>304.39</ele>
        <time>2016-06-04T15:31:57Z</time>
      </trkpt>
      <trkpt lat="46.89627" lon="5.77071">
        <ele>304.39</ele>
        <time>2016-06-04T15:32:09Z</time>
      </trkpt>
      <trkpt lat="46.89616" lon="5.77063">
        <ele>305.36</ele>
        <time>2016-06-04T15:32:23Z</time>
      </trkpt>
      <trkpt lat="46.89614" lon="5.77061">
        <ele>305.36</ele>
        <time>2016-06-04T15:32:26Z</time>
      </trkpt>
      <trkpt lat="46.8961" lon="5.77054">
        <ele>305.84</ele>
        <time>2016-06-04T15:32:38Z</time>
      </trkpt>
      <trkpt lat="46.8961" lon="5.77055">
        <ele>305.36</ele>
        <time>2016-06-04T15:33:06Z</time>
      </trkpt>
      <trkpt lat="46.89607" lon="5.77056">
        <ele>305.84</ele>
        <time>2016-06-04T15:33:21Z</time>
      </trkpt>
      <trkpt lat="46.89614" lon="5.77062">
        <ele>305.84</ele>
        <time>2016-06-04T15:33:33Z</time>
      </trkpt>
      <trkpt lat="46.89615" lon="5.77063">
        <ele>305.84</ele>
        <time>2016-06-04T15:33:34Z</time>
      </trkpt>
      <trkpt lat="46.8962" lon="5.77066">
        <ele>306.8</ele>
        <time>2016-06-04T15:33:51Z</time>
      </trkpt>
      <trkpt lat="46.89621" lon="5.77067">
        <ele>306.8</ele>
        <time>2016-06-04T15:34:20Z</time>
      </trkpt>
      <trkpt lat="46.89624" lon="5.77069">
        <ele>306.8</ele>
        <time>2016-06-04T15:34:44Z</time>
      </trkpt>
      <trkpt lat="46.89636" lon="5.77074">
        <ele>305.84</ele>
        <time>2016-06-04T15:34:56Z</time>
      </trkpt>
      <trkpt lat="46.89636" lon="5.77066">
        <ele>305.36</ele>
        <time>2016-06-04T15:35:02Z</time>
      </trkpt>
      <trkpt lat="46.89634" lon="5.77057">
        <ele>304.88</ele>
        <time>2016-06-04T15:35:09Z</time>
      </trkpt>
      <trkpt lat="46.89629" lon="5.77043">
        <ele>302.47</ele>
        <time>2016-06-04T15:35:21Z</time>
      </trkpt>
      <trkpt lat="46.89623" lon="5.77028">
        <ele>301.99</ele>
        <time>2016-06-04T15:35:31Z</time>
      </trkpt>
      <trkpt lat="46.89617" lon="5.77009">
        <ele>303.91</ele>
        <time>2016-06-04T15:35:41Z</time>
      </trkpt>
      <trkpt lat="46.89613" lon="5.76999">
        <ele>304.88</ele>
        <time>2016-06-04T15:35:48Z</time>
      </trkpt>
      <trkpt lat="46.8961" lon="5.76992">
        <ele>305.36</ele>
        <time>2016-06-04T15:35:53Z</time>
      </trkpt>
      <trkpt lat="46.89611" lon="5.76969">
        <ele>306.32</ele>
        <time>2016-06-04T15:36:09Z</time>
      </trkpt>
      <trkpt lat="46.89614" lon="5.76954">
        <ele>305.36</ele>
        <time>2016-06-04T15:36:22Z</time>
      </trkpt>
      <trkpt lat="46.89615" lon="5.76951">
        <ele>305.36</ele>
        <time>2016-06-04T15:36:24Z</time>
      </trkpt>
      <trkpt lat="46.89618" lon="5.76939">
        <ele>305.36</ele>
        <time>2016-06-04T15:36:31Z</time>
      </trkpt>
      <trkpt lat="46.89619" lon="5.76935">
        <ele>305.36</ele>
        <time>2016-06-04T15:36:33Z</time>
      </trkpt>
      <trkpt lat="46.89621" lon="5.76929">
        <ele>304.88</ele>
        <time>2016-06-04T15:36:39Z</time>
      </trkpt>
      <trkpt lat="46.89619" lon="5.76902">
        <ele>308.24</ele>
        <time>2016-06-04T15:36:52Z</time>
      </trkpt>
      <trkpt lat="46.89619" lon="5.76885">
        <ele>309.2</ele>
        <time>2016-06-04T15:37:04Z</time>
      </trkpt>
      <trkpt lat="46.89618" lon="5.76867">
        <ele>309.68</ele>
        <time>2016-06-04T15:37:15Z</time>
      </trkpt>
      <trkpt lat="46.89618" lon="5.76856">
        <ele>309.68</ele>
        <time>2016-06-04T15:37:23Z</time>
      </trkpt>
      <trkpt lat="46.89616" lon="5.76841">
        <ele>310.64</ele>
        <time>2016-06-04T15:37:32Z</time>
      </trkpt>
      <trkpt lat="46.89618" lon="5.76828">
        <ele>311.12</ele>
        <time>2016-06-04T15:37:42Z</time>
      </trkpt>
      <trkpt lat="46.89623" lon="5.76807">
        <ele>310.16</ele>
        <time>2016-06-04T15:37:56Z</time>
      </trkpt>
      <trkpt lat="46.89623" lon="5.768">
        <ele>310.16</ele>
        <time>2016-06-04T15:38:01Z</time>
      </trkpt>
      <trkpt lat="46.89628" lon="5.76784">
        <ele>307.76</ele>
        <time>2016-06-04T15:38:13Z</time>
      </trkpt>
      <trkpt lat="46.89632" lon="5.7677">
        <ele>308.72</ele>
        <time>2016-06-04T15:38:23Z</time>
      </trkpt>
      <trkpt lat="46.89636" lon="5.76757">
        <ele>307.28</ele>
        <time>2016-06-04T15:38:33Z</time>
      </trkpt>
      <trkpt lat="46.89636" lon="5.76756">
        <ele>307.28</ele>
        <time>2016-06-04T15:38:34Z</time>
      </trkpt>
      <trkpt lat="46.89641" lon="5.7674">
        <ele>306.8</ele>
        <time>2016-06-04T15:38:44Z</time>
      </trkpt>
      <trkpt lat="46.8964" lon="5.76726">
        <ele>309.2</ele>
        <time>2016-06-04T15:38:57Z</time>
      </trkpt>
      <trkpt lat="46.89639" lon="5.76725">
        <ele>309.2</ele>
        <time>2016-06-04T15:39:07Z</time>
      </trkpt>
      <trkpt lat="46.8964" lon="5.76722">
        <ele>311.6</ele>
        <time>2016-06-04T15:39:22Z</time>
      </trkpt>
      <trkpt lat="46.89645" lon="5.76713">
        <ele>314.01</ele>
        <time>2016-06-04T15:39:34Z</time>
      </trkpt>
      <trkpt lat="46.89643" lon="5.76711">
        <ele>314.01</ele>
        <time>2016-06-04T15:39:38Z</time>
      </trkpt>
      <trkpt lat="46.89641" lon="5.76711">
        <ele>313.53</ele>
        <time>2016-06-04T15:39:44Z</time>
      </trkpt>
      <trkpt lat="46.89637" lon="5.7671">
        <ele>314.49</ele>
        <time>2016-06-04T15:39:58Z</time>
      </trkpt>
      <trkpt lat="46.89637" lon="5.7671">
        <ele>314.49</ele>
        <time>2016-06-04T15:40:19Z</time>
      </trkpt>
      <trkpt lat="46.89637" lon="5.7671">
        <ele>314.49</ele>
        <time>2016-06-04T15:40:33Z</time>
      </trkpt>
      <trkpt lat="46.89637" lon="5.76709">
        <ele>314.49</ele>
        <time>2016-06-04T15:40:53Z</time>
      </trkpt>
      <trkpt lat="46.89636" lon="5.7671">
        <ele>314.49</ele>
        <time>2016-06-04T15:41:12Z</time>
      </trkpt>
      <trkpt lat="46.89636" lon="5.7671">
        <ele>314.49</ele>
        <time>2016-06-04T15:41:39Z</time>
      </trkpt>
      <trkpt lat="46.89636" lon="5.7671">
        <ele>314.97</ele>
        <time>2016-06-04T15:42:02Z</time>
      </trkpt>
      <trkpt lat="46.89636" lon="5.7671">
        <ele>315.45</ele>
        <time>2016-06-04T15:42:29Z</time>
      </trkpt>
      <trkpt lat="46.89637" lon="5.7671">
        <ele>315.93</ele>
        <time>2016-06-04T15:42:53Z</time>
      </trkpt>
      <trkpt lat="46.89636" lon="5.7671">
        <ele>316.41</ele>
        <time>2016-06-04T15:43:12Z</time>
      </trkpt>
      <trkpt lat="46.89636" lon="5.7671">
        <ele>316.41</ele>
        <time>2016-06-04T15:43:33Z</time>
      </trkpt>
      <trkpt lat="46.89637" lon="5.7671">
        <ele>316.89</ele>
        <time>2016-06-04T15:43:49Z</time>
      </trkpt>
      <trkpt lat="46.89637" lon="5.76709">
        <ele>316.89</ele>
        <time>2016-06-04T15:44:04Z</time>
      </trkpt>
      <trkpt lat="46.89637" lon="5.76709">
        <ele>316.89</ele>
        <time>2016-06-04T15:44:23Z</time>
      </trkpt>
      <trkpt lat="46.89637" lon="5.76709">
        <ele>317.37</ele>
        <time>2016-06-04T15:44:30Z</time>
      </trkpt>
    </trkseg>
  </trk>
</gpx>